<?xml version="1.0" encoding="UTF-8" standalone="no" ?>
<gpx xmlns="http://www.topografix.com/GPX/1/1" xmlns:xsi="http://www.w3.org/2001/XMLSchema-instance" xsi:schemaLocation="http://www.topografix.com/GPX/1/1 http://www.topografix.com/GPX/1/1/gpx.xsd" version="1.1" creator="VisuGPX - https://www.visugpx.com">
  <metadata>
    <name>RANDO VTT 2013 - Bressuire</name>
    <desc><![CDATA[Chemins privés interdit en dehors de la randonnée.]]></desc>
  </metadata>
  <trk>
    <name><![CDATA[29-SEP-13 11:14:29]]></name>
    <trkseg>
      <trkpt lat="46.8494" lon="-0.4751">
        <ele>183</ele>
        <time>2013-09-29T06:03:24Z</time>
      </trkpt>
      <trkpt lat="46.8494" lon="-0.4751">
        <ele>183</ele>
        <time>2013-09-29T06:03:42Z</time>
      </trkpt>
      <trkpt lat="46.84941" lon="-0.47511">
        <ele>183</ele>
        <time>2013-09-29T06:03:43Z</time>
      </trkpt>
      <trkpt lat="46.84943" lon="-0.47512">
        <ele>183</ele>
        <time>2013-09-29T06:03:44Z</time>
      </trkpt>
      <trkpt lat="46.84945" lon="-0.47512">
        <ele>183</ele>
        <time>2013-09-29T06:03:45Z</time>
      </trkpt>
      <trkpt lat="46.84948" lon="-0.47513">
        <ele>183</ele>
        <time>2013-09-29T06:03:46Z</time>
      </trkpt>
      <trkpt lat="46.8499" lon="-0.47512">
        <ele>183</ele>
        <time>2013-09-29T06:03:58Z</time>
      </trkpt>
      <trkpt lat="46.85005" lon="-0.47523">
        <ele>182</ele>
        <time>2013-09-29T06:04:03Z</time>
      </trkpt>
      <trkpt lat="46.85009" lon="-0.47524">
        <ele>182</ele>
        <time>2013-09-29T06:04:04Z</time>
      </trkpt>
      <trkpt lat="46.85012" lon="-0.47524">
        <ele>182</ele>
        <time>2013-09-29T06:04:05Z</time>
      </trkpt>
      <trkpt lat="46.85015" lon="-0.47521">
        <ele>182</ele>
        <time>2013-09-29T06:04:06Z</time>
      </trkpt>
      <trkpt lat="46.85019" lon="-0.47518">
        <ele>182</ele>
        <time>2013-09-29T06:04:07Z</time>
      </trkpt>
      <trkpt lat="46.85022" lon="-0.47515">
        <ele>182</ele>
        <time>2013-09-29T06:04:08Z</time>
      </trkpt>
      <trkpt lat="46.85025" lon="-0.47512">
        <ele>182</ele>
        <time>2013-09-29T06:04:09Z</time>
      </trkpt>
      <trkpt lat="46.85027" lon="-0.47507">
        <ele>182</ele>
        <time>2013-09-29T06:04:10Z</time>
      </trkpt>
      <trkpt lat="46.85032" lon="-0.47478">
        <ele>183</ele>
        <time>2013-09-29T06:04:17Z</time>
      </trkpt>
      <trkpt lat="46.8505" lon="-0.47445">
        <ele>183</ele>
        <time>2013-09-29T06:04:27Z</time>
      </trkpt>
      <trkpt lat="46.85079" lon="-0.47398">
        <ele>183</ele>
        <time>2013-09-29T06:04:40Z</time>
      </trkpt>
      <trkpt lat="46.85092" lon="-0.47381">
        <ele>182</ele>
        <time>2013-09-29T06:04:46Z</time>
      </trkpt>
      <trkpt lat="46.85092" lon="-0.47377">
        <ele>182</ele>
        <time>2013-09-29T06:04:47Z</time>
      </trkpt>
      <trkpt lat="46.85091" lon="-0.47374">
        <ele>182</ele>
        <time>2013-09-29T06:04:48Z</time>
      </trkpt>
      <trkpt lat="46.85089" lon="-0.47372">
        <ele>182</ele>
        <time>2013-09-29T06:04:49Z</time>
      </trkpt>
      <trkpt lat="46.85086" lon="-0.4737">
        <ele>182</ele>
        <time>2013-09-29T06:04:50Z</time>
      </trkpt>
      <trkpt lat="46.85082" lon="-0.47366">
        <ele>182</ele>
        <time>2013-09-29T06:04:51Z</time>
      </trkpt>
      <trkpt lat="46.85041" lon="-0.47335">
        <ele>182</ele>
        <time>2013-09-29T06:05:01Z</time>
      </trkpt>
      <trkpt lat="46.85024" lon="-0.47327">
        <ele>182</ele>
        <time>2013-09-29T06:05:05Z</time>
      </trkpt>
      <trkpt lat="46.85019" lon="-0.47327">
        <ele>183</ele>
        <time>2013-09-29T06:05:06Z</time>
      </trkpt>
      <trkpt lat="46.85014" lon="-0.47328">
        <ele>183</ele>
        <time>2013-09-29T06:05:07Z</time>
      </trkpt>
      <trkpt lat="46.85009" lon="-0.4733">
        <ele>183</ele>
        <time>2013-09-29T06:05:08Z</time>
      </trkpt>
      <trkpt lat="46.85004" lon="-0.47333">
        <ele>183</ele>
        <time>2013-09-29T06:05:09Z</time>
      </trkpt>
      <trkpt lat="46.84999" lon="-0.47336">
        <ele>183</ele>
        <time>2013-09-29T06:05:10Z</time>
      </trkpt>
      <trkpt lat="46.84994" lon="-0.4734">
        <ele>184</ele>
        <time>2013-09-29T06:05:11Z</time>
      </trkpt>
      <trkpt lat="46.8499" lon="-0.47345">
        <ele>184</ele>
        <time>2013-09-29T06:05:12Z</time>
      </trkpt>
      <trkpt lat="46.84959" lon="-0.47385">
        <ele>185</ele>
        <time>2013-09-29T06:05:20Z</time>
      </trkpt>
      <trkpt lat="46.84955" lon="-0.47389">
        <ele>185</ele>
        <time>2013-09-29T06:05:21Z</time>
      </trkpt>
      <trkpt lat="46.84891" lon="-0.47411">
        <ele>186</ele>
        <time>2013-09-29T06:05:35Z</time>
      </trkpt>
      <trkpt lat="46.84882" lon="-0.47414">
        <ele>186</ele>
        <time>2013-09-29T06:05:37Z</time>
      </trkpt>
      <trkpt lat="46.84878" lon="-0.47416">
        <ele>186</ele>
        <time>2013-09-29T06:05:38Z</time>
      </trkpt>
      <trkpt lat="46.84874" lon="-0.47419">
        <ele>185</ele>
        <time>2013-09-29T06:05:39Z</time>
      </trkpt>
      <trkpt lat="46.84871" lon="-0.47423">
        <ele>185</ele>
        <time>2013-09-29T06:05:40Z</time>
      </trkpt>
      <trkpt lat="46.84868" lon="-0.47428">
        <ele>185</ele>
        <time>2013-09-29T06:05:41Z</time>
      </trkpt>
      <trkpt lat="46.84865" lon="-0.47433">
        <ele>185</ele>
        <time>2013-09-29T06:05:42Z</time>
      </trkpt>
      <trkpt lat="46.84863" lon="-0.47439">
        <ele>185</ele>
        <time>2013-09-29T06:05:43Z</time>
      </trkpt>
      <trkpt lat="46.84861" lon="-0.47444">
        <ele>185</ele>
        <time>2013-09-29T06:05:44Z</time>
      </trkpt>
      <trkpt lat="46.84861" lon="-0.47448">
        <ele>185</ele>
        <time>2013-09-29T06:05:45Z</time>
      </trkpt>
      <trkpt lat="46.8486" lon="-0.47452">
        <ele>185</ele>
        <time>2013-09-29T06:05:46Z</time>
      </trkpt>
      <trkpt lat="46.84858" lon="-0.47455">
        <ele>185</ele>
        <time>2013-09-29T06:05:47Z</time>
      </trkpt>
      <trkpt lat="46.84855" lon="-0.47455">
        <ele>185</ele>
        <time>2013-09-29T06:05:48Z</time>
      </trkpt>
      <trkpt lat="46.84851" lon="-0.47452">
        <ele>185</ele>
        <time>2013-09-29T06:05:49Z</time>
      </trkpt>
      <trkpt lat="46.84848" lon="-0.47447">
        <ele>185</ele>
        <time>2013-09-29T06:05:50Z</time>
      </trkpt>
      <trkpt lat="46.84845" lon="-0.47442">
        <ele>185</ele>
        <time>2013-09-29T06:05:51Z</time>
      </trkpt>
      <trkpt lat="46.84837" lon="-0.47433">
        <ele>185</ele>
        <time>2013-09-29T06:05:53Z</time>
      </trkpt>
      <trkpt lat="46.84827" lon="-0.47427">
        <ele>185</ele>
        <time>2013-09-29T06:05:55Z</time>
      </trkpt>
      <trkpt lat="46.84822" lon="-0.47422">
        <ele>185</ele>
        <time>2013-09-29T06:05:56Z</time>
      </trkpt>
      <trkpt lat="46.84818" lon="-0.47415">
        <ele>185</ele>
        <time>2013-09-29T06:05:57Z</time>
      </trkpt>
      <trkpt lat="46.8481" lon="-0.47402">
        <ele>185</ele>
        <time>2013-09-29T06:05:59Z</time>
      </trkpt>
      <trkpt lat="46.84805" lon="-0.47396">
        <ele>185</ele>
        <time>2013-09-29T06:06:00Z</time>
      </trkpt>
      <trkpt lat="46.848" lon="-0.4739">
        <ele>185</ele>
        <time>2013-09-29T06:06:01Z</time>
      </trkpt>
      <trkpt lat="46.84794" lon="-0.47386">
        <ele>185</ele>
        <time>2013-09-29T06:06:02Z</time>
      </trkpt>
      <trkpt lat="46.84787" lon="-0.47382">
        <ele>185</ele>
        <time>2013-09-29T06:06:03Z</time>
      </trkpt>
      <trkpt lat="46.84781" lon="-0.47378">
        <ele>185</ele>
        <time>2013-09-29T06:06:04Z</time>
      </trkpt>
      <trkpt lat="46.84774" lon="-0.47375">
        <ele>184</ele>
        <time>2013-09-29T06:06:05Z</time>
      </trkpt>
      <trkpt lat="46.84706" lon="-0.47319">
        <ele>184</ele>
        <time>2013-09-29T06:06:17Z</time>
      </trkpt>
      <trkpt lat="46.84703" lon="-0.47312">
        <ele>184</ele>
        <time>2013-09-29T06:06:18Z</time>
      </trkpt>
      <trkpt lat="46.84699" lon="-0.47305">
        <ele>184</ele>
        <time>2013-09-29T06:06:19Z</time>
      </trkpt>
      <trkpt lat="46.84696" lon="-0.47297">
        <ele>184</ele>
        <time>2013-09-29T06:06:20Z</time>
      </trkpt>
      <trkpt lat="46.84692" lon="-0.4729">
        <ele>184</ele>
        <time>2013-09-29T06:06:21Z</time>
      </trkpt>
      <trkpt lat="46.84689" lon="-0.47283">
        <ele>184</ele>
        <time>2013-09-29T06:06:22Z</time>
      </trkpt>
      <trkpt lat="46.84637" lon="-0.47187">
        <ele>186</ele>
        <time>2013-09-29T06:06:37Z</time>
      </trkpt>
      <trkpt lat="46.84585" lon="-0.47089">
        <ele>187</ele>
        <time>2013-09-29T06:06:52Z</time>
      </trkpt>
      <trkpt lat="46.84535" lon="-0.46996">
        <ele>188</ele>
        <time>2013-09-29T06:07:07Z</time>
      </trkpt>
      <trkpt lat="46.84522" lon="-0.46972">
        <ele>188</ele>
        <time>2013-09-29T06:07:11Z</time>
      </trkpt>
      <trkpt lat="46.8452" lon="-0.46965">
        <ele>188</ele>
        <time>2013-09-29T06:07:12Z</time>
      </trkpt>
      <trkpt lat="46.84499" lon="-0.46905">
        <ele>188</ele>
        <time>2013-09-29T06:07:20Z</time>
      </trkpt>
      <trkpt lat="46.84496" lon="-0.46898">
        <ele>188</ele>
        <time>2013-09-29T06:07:21Z</time>
      </trkpt>
      <trkpt lat="46.84491" lon="-0.46891">
        <ele>188</ele>
        <time>2013-09-29T06:07:22Z</time>
      </trkpt>
      <trkpt lat="46.84487" lon="-0.46886">
        <ele>188</ele>
        <time>2013-09-29T06:07:23Z</time>
      </trkpt>
      <trkpt lat="46.84482" lon="-0.46882">
        <ele>188</ele>
        <time>2013-09-29T06:07:24Z</time>
      </trkpt>
      <trkpt lat="46.84476" lon="-0.46879">
        <ele>188</ele>
        <time>2013-09-29T06:07:25Z</time>
      </trkpt>
      <trkpt lat="46.84397" lon="-0.46824">
        <ele>190</ele>
        <time>2013-09-29T06:07:40Z</time>
      </trkpt>
      <trkpt lat="46.8435" lon="-0.4679">
        <ele>191</ele>
        <time>2013-09-29T06:07:50Z</time>
      </trkpt>
      <trkpt lat="46.84288" lon="-0.46748">
        <ele>191</ele>
        <time>2013-09-29T06:08:03Z</time>
      </trkpt>
      <trkpt lat="46.84283" lon="-0.46747">
        <ele>191</ele>
        <time>2013-09-29T06:08:04Z</time>
      </trkpt>
      <trkpt lat="46.84278" lon="-0.46746">
        <ele>191</ele>
        <time>2013-09-29T06:08:05Z</time>
      </trkpt>
      <trkpt lat="46.84273" lon="-0.46747">
        <ele>191</ele>
        <time>2013-09-29T06:08:06Z</time>
      </trkpt>
      <trkpt lat="46.84269" lon="-0.4675">
        <ele>192</ele>
        <time>2013-09-29T06:08:07Z</time>
      </trkpt>
      <trkpt lat="46.84265" lon="-0.46755">
        <ele>192</ele>
        <time>2013-09-29T06:08:08Z</time>
      </trkpt>
      <trkpt lat="46.84261" lon="-0.4676">
        <ele>192</ele>
        <time>2013-09-29T06:08:09Z</time>
      </trkpt>
      <trkpt lat="46.84257" lon="-0.46765">
        <ele>192</ele>
        <time>2013-09-29T06:08:10Z</time>
      </trkpt>
      <trkpt lat="46.8422" lon="-0.46815">
        <ele>193</ele>
        <time>2013-09-29T06:08:20Z</time>
      </trkpt>
      <trkpt lat="46.84199" lon="-0.46849">
        <ele>194</ele>
        <time>2013-09-29T06:08:27Z</time>
      </trkpt>
      <trkpt lat="46.84197" lon="-0.46849">
        <ele>194</ele>
        <time>2013-09-29T06:08:28Z</time>
      </trkpt>
      <trkpt lat="46.84193" lon="-0.46849">
        <ele>194</ele>
        <time>2013-09-29T06:08:29Z</time>
      </trkpt>
      <trkpt lat="46.84189" lon="-0.46849">
        <ele>194</ele>
        <time>2013-09-29T06:08:30Z</time>
      </trkpt>
      <trkpt lat="46.84186" lon="-0.46847">
        <ele>194</ele>
        <time>2013-09-29T06:08:31Z</time>
      </trkpt>
      <trkpt lat="46.84183" lon="-0.46842">
        <ele>194</ele>
        <time>2013-09-29T06:08:32Z</time>
      </trkpt>
      <trkpt lat="46.8418" lon="-0.46837">
        <ele>194</ele>
        <time>2013-09-29T06:08:33Z</time>
      </trkpt>
      <trkpt lat="46.84169" lon="-0.46819">
        <ele>194</ele>
        <time>2013-09-29T06:08:36Z</time>
      </trkpt>
      <trkpt lat="46.84165" lon="-0.46813">
        <ele>193</ele>
        <time>2013-09-29T06:08:37Z</time>
      </trkpt>
      <trkpt lat="46.84141" lon="-0.46754">
        <ele>192</ele>
        <time>2013-09-29T06:08:46Z</time>
      </trkpt>
      <trkpt lat="46.84116" lon="-0.46715">
        <ele>191</ele>
        <time>2013-09-29T06:08:53Z</time>
      </trkpt>
      <trkpt lat="46.84073" lon="-0.46668">
        <ele>190</ele>
        <time>2013-09-29T06:09:03Z</time>
      </trkpt>
      <trkpt lat="46.84068" lon="-0.46666">
        <ele>189</ele>
        <time>2013-09-29T06:09:04Z</time>
      </trkpt>
      <trkpt lat="46.84064" lon="-0.46665">
        <ele>189</ele>
        <time>2013-09-29T06:09:05Z</time>
      </trkpt>
      <trkpt lat="46.8406" lon="-0.46665">
        <ele>188</ele>
        <time>2013-09-29T06:09:06Z</time>
      </trkpt>
      <trkpt lat="46.84057" lon="-0.46664">
        <ele>188</ele>
        <time>2013-09-29T06:09:07Z</time>
      </trkpt>
      <trkpt lat="46.84055" lon="-0.4666">
        <ele>188</ele>
        <time>2013-09-29T06:09:08Z</time>
      </trkpt>
      <trkpt lat="46.84054" lon="-0.46653">
        <ele>188</ele>
        <time>2013-09-29T06:09:09Z</time>
      </trkpt>
      <trkpt lat="46.84053" lon="-0.46645">
        <ele>188</ele>
        <time>2013-09-29T06:09:10Z</time>
      </trkpt>
      <trkpt lat="46.84051" lon="-0.46621">
        <ele>188</ele>
        <time>2013-09-29T06:09:13Z</time>
      </trkpt>
      <trkpt lat="46.84048" lon="-0.46591">
        <ele>187</ele>
        <time>2013-09-29T06:09:17Z</time>
      </trkpt>
      <trkpt lat="46.84048" lon="-0.46584">
        <ele>187</ele>
        <time>2013-09-29T06:09:18Z</time>
      </trkpt>
      <trkpt lat="46.84048" lon="-0.46576">
        <ele>187</ele>
        <time>2013-09-29T06:09:19Z</time>
      </trkpt>
      <trkpt lat="46.84047" lon="-0.46569">
        <ele>187</ele>
        <time>2013-09-29T06:09:20Z</time>
      </trkpt>
      <trkpt lat="46.84046" lon="-0.46561">
        <ele>187</ele>
        <time>2013-09-29T06:09:21Z</time>
      </trkpt>
      <trkpt lat="46.84045" lon="-0.46547">
        <ele>187</ele>
        <time>2013-09-29T06:09:23Z</time>
      </trkpt>
      <trkpt lat="46.84043" lon="-0.4654">
        <ele>187</ele>
        <time>2013-09-29T06:09:24Z</time>
      </trkpt>
      <trkpt lat="46.8404" lon="-0.46534">
        <ele>187</ele>
        <time>2013-09-29T06:09:25Z</time>
      </trkpt>
      <trkpt lat="46.84035" lon="-0.46531">
        <ele>187</ele>
        <time>2013-09-29T06:09:26Z</time>
      </trkpt>
      <trkpt lat="46.8403" lon="-0.4653">
        <ele>187</ele>
        <time>2013-09-29T06:09:27Z</time>
      </trkpt>
      <trkpt lat="46.84024" lon="-0.4653">
        <ele>187</ele>
        <time>2013-09-29T06:09:28Z</time>
      </trkpt>
      <trkpt lat="46.84003" lon="-0.46529">
        <ele>187</ele>
        <time>2013-09-29T06:09:32Z</time>
      </trkpt>
      <trkpt lat="46.83997" lon="-0.46531">
        <ele>187</ele>
        <time>2013-09-29T06:09:33Z</time>
      </trkpt>
      <trkpt lat="46.83983" lon="-0.46538">
        <ele>187</ele>
        <time>2013-09-29T06:09:36Z</time>
      </trkpt>
      <trkpt lat="46.83966" lon="-0.46551">
        <ele>187</ele>
        <time>2013-09-29T06:09:40Z</time>
      </trkpt>
      <trkpt lat="46.83934" lon="-0.46576">
        <ele>187</ele>
        <time>2013-09-29T06:09:48Z</time>
      </trkpt>
      <trkpt lat="46.8393" lon="-0.46579">
        <ele>188</ele>
        <time>2013-09-29T06:09:49Z</time>
      </trkpt>
      <trkpt lat="46.83925" lon="-0.46581">
        <ele>188</ele>
        <time>2013-09-29T06:09:50Z</time>
      </trkpt>
      <trkpt lat="46.8392" lon="-0.46583">
        <ele>188</ele>
        <time>2013-09-29T06:09:51Z</time>
      </trkpt>
      <trkpt lat="46.83915" lon="-0.46583">
        <ele>188</ele>
        <time>2013-09-29T06:09:52Z</time>
      </trkpt>
      <trkpt lat="46.83896" lon="-0.46582">
        <ele>188</ele>
        <time>2013-09-29T06:09:56Z</time>
      </trkpt>
      <trkpt lat="46.83892" lon="-0.4658">
        <ele>188</ele>
        <time>2013-09-29T06:09:57Z</time>
      </trkpt>
      <trkpt lat="46.83883" lon="-0.46575">
        <ele>188</ele>
        <time>2013-09-29T06:09:59Z</time>
      </trkpt>
      <trkpt lat="46.83857" lon="-0.46555">
        <ele>188</ele>
        <time>2013-09-29T06:10:05Z</time>
      </trkpt>
      <trkpt lat="46.83843" lon="-0.46545">
        <ele>188</ele>
        <time>2013-09-29T06:10:08Z</time>
      </trkpt>
      <trkpt lat="46.83829" lon="-0.46537">
        <ele>188</ele>
        <time>2013-09-29T06:10:11Z</time>
      </trkpt>
      <trkpt lat="46.83782" lon="-0.46529">
        <ele>189</ele>
        <time>2013-09-29T06:10:21Z</time>
      </trkpt>
      <trkpt lat="46.83763" lon="-0.4653">
        <ele>189</ele>
        <time>2013-09-29T06:10:25Z</time>
      </trkpt>
      <trkpt lat="46.83759" lon="-0.46528">
        <ele>189</ele>
        <time>2013-09-29T06:10:26Z</time>
      </trkpt>
      <trkpt lat="46.83754" lon="-0.46526">
        <ele>189</ele>
        <time>2013-09-29T06:10:27Z</time>
      </trkpt>
      <trkpt lat="46.8375" lon="-0.46524">
        <ele>190</ele>
        <time>2013-09-29T06:10:28Z</time>
      </trkpt>
      <trkpt lat="46.83745" lon="-0.46522">
        <ele>190</ele>
        <time>2013-09-29T06:10:29Z</time>
      </trkpt>
      <trkpt lat="46.83742" lon="-0.46519">
        <ele>190</ele>
        <time>2013-09-29T06:10:30Z</time>
      </trkpt>
      <trkpt lat="46.83738" lon="-0.46516">
        <ele>190</ele>
        <time>2013-09-29T06:10:31Z</time>
      </trkpt>
      <trkpt lat="46.83734" lon="-0.46512">
        <ele>190</ele>
        <time>2013-09-29T06:10:32Z</time>
      </trkpt>
      <trkpt lat="46.8373" lon="-0.46509">
        <ele>190</ele>
        <time>2013-09-29T06:10:33Z</time>
      </trkpt>
      <trkpt lat="46.83726" lon="-0.46506">
        <ele>190</ele>
        <time>2013-09-29T06:10:34Z</time>
      </trkpt>
      <trkpt lat="46.83696" lon="-0.46479">
        <ele>191</ele>
        <time>2013-09-29T06:10:41Z</time>
      </trkpt>
      <trkpt lat="46.83686" lon="-0.4647">
        <ele>191</ele>
        <time>2013-09-29T06:10:43Z</time>
      </trkpt>
      <trkpt lat="46.83681" lon="-0.46468">
        <ele>191</ele>
        <time>2013-09-29T06:10:44Z</time>
      </trkpt>
      <trkpt lat="46.83676" lon="-0.46468">
        <ele>191</ele>
        <time>2013-09-29T06:10:45Z</time>
      </trkpt>
      <trkpt lat="46.83671" lon="-0.46471">
        <ele>191</ele>
        <time>2013-09-29T06:10:46Z</time>
      </trkpt>
      <trkpt lat="46.83667" lon="-0.46477">
        <ele>191</ele>
        <time>2013-09-29T06:10:47Z</time>
      </trkpt>
      <trkpt lat="46.83664" lon="-0.46484">
        <ele>192</ele>
        <time>2013-09-29T06:10:48Z</time>
      </trkpt>
      <trkpt lat="46.83662" lon="-0.46491">
        <ele>192</ele>
        <time>2013-09-29T06:10:49Z</time>
      </trkpt>
      <trkpt lat="46.8366" lon="-0.46497">
        <ele>192</ele>
        <time>2013-09-29T06:10:50Z</time>
      </trkpt>
      <trkpt lat="46.83659" lon="-0.46504">
        <ele>192</ele>
        <time>2013-09-29T06:10:51Z</time>
      </trkpt>
      <trkpt lat="46.83658" lon="-0.46512">
        <ele>192</ele>
        <time>2013-09-29T06:10:52Z</time>
      </trkpt>
      <trkpt lat="46.83657" lon="-0.46518">
        <ele>192</ele>
        <time>2013-09-29T06:10:53Z</time>
      </trkpt>
      <trkpt lat="46.83656" lon="-0.46525">
        <ele>192</ele>
        <time>2013-09-29T06:10:54Z</time>
      </trkpt>
      <trkpt lat="46.83656" lon="-0.46531">
        <ele>192</ele>
        <time>2013-09-29T06:10:55Z</time>
      </trkpt>
      <trkpt lat="46.83656" lon="-0.46538">
        <ele>192</ele>
        <time>2013-09-29T06:10:56Z</time>
      </trkpt>
      <trkpt lat="46.83656" lon="-0.46544">
        <ele>192</ele>
        <time>2013-09-29T06:10:57Z</time>
      </trkpt>
      <trkpt lat="46.83655" lon="-0.46551">
        <ele>192</ele>
        <time>2013-09-29T06:10:58Z</time>
      </trkpt>
      <trkpt lat="46.83651" lon="-0.46582">
        <ele>192</ele>
        <time>2013-09-29T06:11:03Z</time>
      </trkpt>
      <trkpt lat="46.8365" lon="-0.46588">
        <ele>192</ele>
        <time>2013-09-29T06:11:04Z</time>
      </trkpt>
      <trkpt lat="46.83649" lon="-0.46619">
        <ele>193</ele>
        <time>2013-09-29T06:11:09Z</time>
      </trkpt>
      <trkpt lat="46.8365" lon="-0.46624">
        <ele>193</ele>
        <time>2013-09-29T06:11:10Z</time>
      </trkpt>
      <trkpt lat="46.83652" lon="-0.46629">
        <ele>193</ele>
        <time>2013-09-29T06:11:11Z</time>
      </trkpt>
      <trkpt lat="46.83655" lon="-0.46633">
        <ele>193</ele>
        <time>2013-09-29T06:11:12Z</time>
      </trkpt>
      <trkpt lat="46.83657" lon="-0.46637">
        <ele>192</ele>
        <time>2013-09-29T06:11:13Z</time>
      </trkpt>
      <trkpt lat="46.83658" lon="-0.46642">
        <ele>192</ele>
        <time>2013-09-29T06:11:14Z</time>
      </trkpt>
      <trkpt lat="46.83657" lon="-0.46648">
        <ele>192</ele>
        <time>2013-09-29T06:11:15Z</time>
      </trkpt>
      <trkpt lat="46.83656" lon="-0.46654">
        <ele>192</ele>
        <time>2013-09-29T06:11:16Z</time>
      </trkpt>
      <trkpt lat="46.83654" lon="-0.4666">
        <ele>192</ele>
        <time>2013-09-29T06:11:17Z</time>
      </trkpt>
      <trkpt lat="46.83652" lon="-0.46666">
        <ele>192</ele>
        <time>2013-09-29T06:11:18Z</time>
      </trkpt>
      <trkpt lat="46.83649" lon="-0.46671">
        <ele>193</ele>
        <time>2013-09-29T06:11:19Z</time>
      </trkpt>
      <trkpt lat="46.83646" lon="-0.46676">
        <ele>193</ele>
        <time>2013-09-29T06:11:20Z</time>
      </trkpt>
      <trkpt lat="46.83643" lon="-0.46681">
        <ele>194</ele>
        <time>2013-09-29T06:11:21Z</time>
      </trkpt>
      <trkpt lat="46.83629" lon="-0.46702">
        <ele>194</ele>
        <time>2013-09-29T06:11:25Z</time>
      </trkpt>
      <trkpt lat="46.83627" lon="-0.46708">
        <ele>194</ele>
        <time>2013-09-29T06:11:26Z</time>
      </trkpt>
      <trkpt lat="46.83624" lon="-0.46714">
        <ele>195</ele>
        <time>2013-09-29T06:11:27Z</time>
      </trkpt>
      <trkpt lat="46.8362" lon="-0.46728">
        <ele>195</ele>
        <time>2013-09-29T06:11:29Z</time>
      </trkpt>
      <trkpt lat="46.83619" lon="-0.46734">
        <ele>195</ele>
        <time>2013-09-29T06:11:30Z</time>
      </trkpt>
      <trkpt lat="46.83618" lon="-0.4674">
        <ele>195</ele>
        <time>2013-09-29T06:11:31Z</time>
      </trkpt>
      <trkpt lat="46.83605" lon="-0.46782">
        <ele>197</ele>
        <time>2013-09-29T06:11:38Z</time>
      </trkpt>
      <trkpt lat="46.83602" lon="-0.46788">
        <ele>197</ele>
        <time>2013-09-29T06:11:39Z</time>
      </trkpt>
      <trkpt lat="46.83599" lon="-0.46793">
        <ele>197</ele>
        <time>2013-09-29T06:11:40Z</time>
      </trkpt>
      <trkpt lat="46.83545" lon="-0.46862">
        <ele>199</ele>
        <time>2013-09-29T06:11:56Z</time>
      </trkpt>
      <trkpt lat="46.83535" lon="-0.46875">
        <ele>199</ele>
        <time>2013-09-29T06:11:59Z</time>
      </trkpt>
      <trkpt lat="46.83524" lon="-0.46893">
        <ele>200</ele>
        <time>2013-09-29T06:12:03Z</time>
      </trkpt>
      <trkpt lat="46.83519" lon="-0.46903">
        <ele>200</ele>
        <time>2013-09-29T06:12:05Z</time>
      </trkpt>
      <trkpt lat="46.83518" lon="-0.46908">
        <ele>200</ele>
        <time>2013-09-29T06:12:06Z</time>
      </trkpt>
      <trkpt lat="46.83518" lon="-0.46915">
        <ele>201</ele>
        <time>2013-09-29T06:12:07Z</time>
      </trkpt>
      <trkpt lat="46.83519" lon="-0.46921">
        <ele>202</ele>
        <time>2013-09-29T06:12:08Z</time>
      </trkpt>
      <trkpt lat="46.83521" lon="-0.46927">
        <ele>202</ele>
        <time>2013-09-29T06:12:09Z</time>
      </trkpt>
      <trkpt lat="46.83523" lon="-0.46932">
        <ele>202</ele>
        <time>2013-09-29T06:12:10Z</time>
      </trkpt>
      <trkpt lat="46.83526" lon="-0.46936">
        <ele>202</ele>
        <time>2013-09-29T06:12:11Z</time>
      </trkpt>
      <trkpt lat="46.8353" lon="-0.4694">
        <ele>202</ele>
        <time>2013-09-29T06:12:12Z</time>
      </trkpt>
      <trkpt lat="46.83534" lon="-0.46944">
        <ele>202</ele>
        <time>2013-09-29T06:12:13Z</time>
      </trkpt>
      <trkpt lat="46.83541" lon="-0.46952">
        <ele>202</ele>
        <time>2013-09-29T06:12:15Z</time>
      </trkpt>
      <trkpt lat="46.83544" lon="-0.46956">
        <ele>202</ele>
        <time>2013-09-29T06:12:16Z</time>
      </trkpt>
      <trkpt lat="46.83547" lon="-0.46961">
        <ele>202</ele>
        <time>2013-09-29T06:12:17Z</time>
      </trkpt>
      <trkpt lat="46.83549" lon="-0.46966">
        <ele>202</ele>
        <time>2013-09-29T06:12:18Z</time>
      </trkpt>
      <trkpt lat="46.83552" lon="-0.46972">
        <ele>202</ele>
        <time>2013-09-29T06:12:19Z</time>
      </trkpt>
      <trkpt lat="46.83563" lon="-0.47004">
        <ele>204</ele>
        <time>2013-09-29T06:12:27Z</time>
      </trkpt>
      <trkpt lat="46.83562" lon="-0.47007">
        <ele>205</ele>
        <time>2013-09-29T06:12:28Z</time>
      </trkpt>
      <trkpt lat="46.8355" lon="-0.47023">
        <ele>205</ele>
        <time>2013-09-29T06:12:33Z</time>
      </trkpt>
      <trkpt lat="46.83546" lon="-0.47026">
        <ele>205</ele>
        <time>2013-09-29T06:12:34Z</time>
      </trkpt>
      <trkpt lat="46.83497" lon="-0.47057">
        <ele>207</ele>
        <time>2013-09-29T06:12:48Z</time>
      </trkpt>
      <trkpt lat="46.83457" lon="-0.4709">
        <ele>209</ele>
        <time>2013-09-29T06:13:02Z</time>
      </trkpt>
      <trkpt lat="46.83445" lon="-0.47104">
        <ele>209</ele>
        <time>2013-09-29T06:13:07Z</time>
      </trkpt>
      <trkpt lat="46.83441" lon="-0.47104">
        <ele>209</ele>
        <time>2013-09-29T06:13:08Z</time>
      </trkpt>
      <trkpt lat="46.83438" lon="-0.47102">
        <ele>209</ele>
        <time>2013-09-29T06:13:09Z</time>
      </trkpt>
      <trkpt lat="46.83435" lon="-0.47099">
        <ele>209</ele>
        <time>2013-09-29T06:13:10Z</time>
      </trkpt>
      <trkpt lat="46.83433" lon="-0.47095">
        <ele>209</ele>
        <time>2013-09-29T06:13:11Z</time>
      </trkpt>
      <trkpt lat="46.8343" lon="-0.4709">
        <ele>209</ele>
        <time>2013-09-29T06:13:12Z</time>
      </trkpt>
      <trkpt lat="46.83426" lon="-0.47086">
        <ele>210</ele>
        <time>2013-09-29T06:13:13Z</time>
      </trkpt>
      <trkpt lat="46.83423" lon="-0.47082">
        <ele>209</ele>
        <time>2013-09-29T06:13:14Z</time>
      </trkpt>
      <trkpt lat="46.83406" lon="-0.47065">
        <ele>210</ele>
        <time>2013-09-29T06:13:18Z</time>
      </trkpt>
      <trkpt lat="46.83403" lon="-0.47059">
        <ele>209</ele>
        <time>2013-09-29T06:13:19Z</time>
      </trkpt>
      <trkpt lat="46.834" lon="-0.47052">
        <ele>209</ele>
        <time>2013-09-29T06:13:20Z</time>
      </trkpt>
      <trkpt lat="46.83354" lon="-0.46943">
        <ele>208</ele>
        <time>2013-09-29T06:13:35Z</time>
      </trkpt>
      <trkpt lat="46.83317" lon="-0.46874">
        <ele>207</ele>
        <time>2013-09-29T06:13:44Z</time>
      </trkpt>
      <trkpt lat="46.83301" lon="-0.46857">
        <ele>207</ele>
        <time>2013-09-29T06:13:47Z</time>
      </trkpt>
      <trkpt lat="46.83297" lon="-0.46851">
        <ele>207</ele>
        <time>2013-09-29T06:13:48Z</time>
      </trkpt>
      <trkpt lat="46.83293" lon="-0.46843">
        <ele>207</ele>
        <time>2013-09-29T06:13:49Z</time>
      </trkpt>
      <trkpt lat="46.83289" lon="-0.46835">
        <ele>206</ele>
        <time>2013-09-29T06:13:50Z</time>
      </trkpt>
      <trkpt lat="46.83285" lon="-0.46828">
        <ele>206</ele>
        <time>2013-09-29T06:13:51Z</time>
      </trkpt>
      <trkpt lat="46.8328" lon="-0.46821">
        <ele>206</ele>
        <time>2013-09-29T06:13:52Z</time>
      </trkpt>
      <trkpt lat="46.83267" lon="-0.46801">
        <ele>206</ele>
        <time>2013-09-29T06:13:55Z</time>
      </trkpt>
      <trkpt lat="46.83264" lon="-0.46793">
        <ele>206</ele>
        <time>2013-09-29T06:13:56Z</time>
      </trkpt>
      <trkpt lat="46.8326" lon="-0.46784">
        <ele>206</ele>
        <time>2013-09-29T06:13:57Z</time>
      </trkpt>
      <trkpt lat="46.83242" lon="-0.46731">
        <ele>205</ele>
        <time>2013-09-29T06:14:03Z</time>
      </trkpt>
      <trkpt lat="46.83239" lon="-0.46723">
        <ele>205</ele>
        <time>2013-09-29T06:14:04Z</time>
      </trkpt>
      <trkpt lat="46.83236" lon="-0.46714">
        <ele>205</ele>
        <time>2013-09-29T06:14:05Z</time>
      </trkpt>
      <trkpt lat="46.83234" lon="-0.46705">
        <ele>204</ele>
        <time>2013-09-29T06:14:06Z</time>
      </trkpt>
      <trkpt lat="46.83232" lon="-0.46696">
        <ele>204</ele>
        <time>2013-09-29T06:14:07Z</time>
      </trkpt>
      <trkpt lat="46.83229" lon="-0.46687">
        <ele>204</ele>
        <time>2013-09-29T06:14:08Z</time>
      </trkpt>
      <trkpt lat="46.83203" lon="-0.46582">
        <ele>203</ele>
        <time>2013-09-29T06:14:20Z</time>
      </trkpt>
      <trkpt lat="46.83193" lon="-0.46539">
        <ele>202</ele>
        <time>2013-09-29T06:14:25Z</time>
      </trkpt>
      <trkpt lat="46.83163" lon="-0.46447">
        <ele>202</ele>
        <time>2013-09-29T06:14:35Z</time>
      </trkpt>
      <trkpt lat="46.83161" lon="-0.46437">
        <ele>202</ele>
        <time>2013-09-29T06:14:36Z</time>
      </trkpt>
      <trkpt lat="46.83141" lon="-0.46334">
        <ele>202</ele>
        <time>2013-09-29T06:14:46Z</time>
      </trkpt>
      <trkpt lat="46.83126" lon="-0.46267">
        <ele>200</ele>
        <time>2013-09-29T06:14:53Z</time>
      </trkpt>
      <trkpt lat="46.83117" lon="-0.46183">
        <ele>198</ele>
        <time>2013-09-29T06:15:02Z</time>
      </trkpt>
      <trkpt lat="46.83117" lon="-0.46173">
        <ele>198</ele>
        <time>2013-09-29T06:15:03Z</time>
      </trkpt>
      <trkpt lat="46.83118" lon="-0.4613">
        <ele>196</ele>
        <time>2013-09-29T06:15:07Z</time>
      </trkpt>
      <trkpt lat="46.83117" lon="-0.46118">
        <ele>196</ele>
        <time>2013-09-29T06:15:08Z</time>
      </trkpt>
      <trkpt lat="46.83115" lon="-0.46107">
        <ele>196</ele>
        <time>2013-09-29T06:15:09Z</time>
      </trkpt>
      <trkpt lat="46.83086" lon="-0.45969">
        <ele>193</ele>
        <time>2013-09-29T06:15:23Z</time>
      </trkpt>
      <trkpt lat="46.83073" lon="-0.45915">
        <ele>193</ele>
        <time>2013-09-29T06:15:29Z</time>
      </trkpt>
      <trkpt lat="46.83073" lon="-0.45906">
        <ele>193</ele>
        <time>2013-09-29T06:15:30Z</time>
      </trkpt>
      <trkpt lat="46.8307" lon="-0.45861">
        <ele>193</ele>
        <time>2013-09-29T06:15:35Z</time>
      </trkpt>
      <trkpt lat="46.83068" lon="-0.45843">
        <ele>192</ele>
        <time>2013-09-29T06:15:37Z</time>
      </trkpt>
      <trkpt lat="46.83065" lon="-0.45836">
        <ele>192</ele>
        <time>2013-09-29T06:15:38Z</time>
      </trkpt>
      <trkpt lat="46.83061" lon="-0.45828">
        <ele>192</ele>
        <time>2013-09-29T06:15:39Z</time>
      </trkpt>
      <trkpt lat="46.83054" lon="-0.45815">
        <ele>192</ele>
        <time>2013-09-29T06:15:41Z</time>
      </trkpt>
      <trkpt lat="46.8305" lon="-0.45808">
        <ele>192</ele>
        <time>2013-09-29T06:15:42Z</time>
      </trkpt>
      <trkpt lat="46.83015" lon="-0.45758">
        <ele>193</ele>
        <time>2013-09-29T06:15:50Z</time>
      </trkpt>
      <trkpt lat="46.83009" lon="-0.45753">
        <ele>194</ele>
        <time>2013-09-29T06:15:51Z</time>
      </trkpt>
      <trkpt lat="46.83004" lon="-0.4575">
        <ele>194</ele>
        <time>2013-09-29T06:15:52Z</time>
      </trkpt>
      <trkpt lat="46.82998" lon="-0.45747">
        <ele>194</ele>
        <time>2013-09-29T06:15:53Z</time>
      </trkpt>
      <trkpt lat="46.82993" lon="-0.45744">
        <ele>194</ele>
        <time>2013-09-29T06:15:54Z</time>
      </trkpt>
      <trkpt lat="46.82987" lon="-0.45741">
        <ele>194</ele>
        <time>2013-09-29T06:15:55Z</time>
      </trkpt>
      <trkpt lat="46.82983" lon="-0.45737">
        <ele>194</ele>
        <time>2013-09-29T06:15:56Z</time>
      </trkpt>
      <trkpt lat="46.82979" lon="-0.45737">
        <ele>194</ele>
        <time>2013-09-29T06:15:57Z</time>
      </trkpt>
      <trkpt lat="46.82976" lon="-0.45739">
        <ele>194</ele>
        <time>2013-09-29T06:15:58Z</time>
      </trkpt>
      <trkpt lat="46.82974" lon="-0.45744">
        <ele>194</ele>
        <time>2013-09-29T06:15:59Z</time>
      </trkpt>
      <trkpt lat="46.82971" lon="-0.45748">
        <ele>194</ele>
        <time>2013-09-29T06:16:00Z</time>
      </trkpt>
      <trkpt lat="46.82967" lon="-0.45752">
        <ele>195</ele>
        <time>2013-09-29T06:16:01Z</time>
      </trkpt>
      <trkpt lat="46.82963" lon="-0.45755">
        <ele>195</ele>
        <time>2013-09-29T06:16:02Z</time>
      </trkpt>
      <trkpt lat="46.82956" lon="-0.45762">
        <ele>195</ele>
        <time>2013-09-29T06:16:04Z</time>
      </trkpt>
      <trkpt lat="46.82912" lon="-0.45801">
        <ele>196</ele>
        <time>2013-09-29T06:16:15Z</time>
      </trkpt>
      <trkpt lat="46.82907" lon="-0.45804">
        <ele>196</ele>
        <time>2013-09-29T06:16:16Z</time>
      </trkpt>
      <trkpt lat="46.82903" lon="-0.45806">
        <ele>196</ele>
        <time>2013-09-29T06:16:17Z</time>
      </trkpt>
      <trkpt lat="46.82894" lon="-0.45811">
        <ele>196</ele>
        <time>2013-09-29T06:16:19Z</time>
      </trkpt>
      <trkpt lat="46.82878" lon="-0.45818">
        <ele>196</ele>
        <time>2013-09-29T06:16:23Z</time>
      </trkpt>
      <trkpt lat="46.82874" lon="-0.45819">
        <ele>196</ele>
        <time>2013-09-29T06:16:24Z</time>
      </trkpt>
      <trkpt lat="46.8287" lon="-0.45821">
        <ele>196</ele>
        <time>2013-09-29T06:16:25Z</time>
      </trkpt>
      <trkpt lat="46.82821" lon="-0.45837">
        <ele>198</ele>
        <time>2013-09-29T06:16:37Z</time>
      </trkpt>
      <trkpt lat="46.82786" lon="-0.45858">
        <ele>199</ele>
        <time>2013-09-29T06:16:48Z</time>
      </trkpt>
      <trkpt lat="46.82771" lon="-0.45865">
        <ele>199</ele>
        <time>2013-09-29T06:16:52Z</time>
      </trkpt>
      <trkpt lat="46.82767" lon="-0.45867">
        <ele>200</ele>
        <time>2013-09-29T06:16:53Z</time>
      </trkpt>
      <trkpt lat="46.82763" lon="-0.45869">
        <ele>200</ele>
        <time>2013-09-29T06:16:54Z</time>
      </trkpt>
      <trkpt lat="46.82745" lon="-0.45876">
        <ele>201</ele>
        <time>2013-09-29T06:16:58Z</time>
      </trkpt>
      <trkpt lat="46.82741" lon="-0.45878">
        <ele>201</ele>
        <time>2013-09-29T06:16:59Z</time>
      </trkpt>
      <trkpt lat="46.82703" lon="-0.45893">
        <ele>201</ele>
        <time>2013-09-29T06:17:08Z</time>
      </trkpt>
      <trkpt lat="46.82698" lon="-0.45896">
        <ele>201</ele>
        <time>2013-09-29T06:17:09Z</time>
      </trkpt>
      <trkpt lat="46.82694" lon="-0.45899">
        <ele>201</ele>
        <time>2013-09-29T06:17:10Z</time>
      </trkpt>
      <trkpt lat="46.82689" lon="-0.45902">
        <ele>201</ele>
        <time>2013-09-29T06:17:11Z</time>
      </trkpt>
      <trkpt lat="46.82685" lon="-0.45905">
        <ele>201</ele>
        <time>2013-09-29T06:17:12Z</time>
      </trkpt>
      <trkpt lat="46.82657" lon="-0.45927">
        <ele>200</ele>
        <time>2013-09-29T06:17:18Z</time>
      </trkpt>
      <trkpt lat="46.82652" lon="-0.45928">
        <ele>200</ele>
        <time>2013-09-29T06:17:19Z</time>
      </trkpt>
      <trkpt lat="46.82648" lon="-0.45927">
        <ele>200</ele>
        <time>2013-09-29T06:17:20Z</time>
      </trkpt>
      <trkpt lat="46.82644" lon="-0.45922">
        <ele>200</ele>
        <time>2013-09-29T06:17:21Z</time>
      </trkpt>
      <trkpt lat="46.82641" lon="-0.45917">
        <ele>200</ele>
        <time>2013-09-29T06:17:22Z</time>
      </trkpt>
      <trkpt lat="46.82638" lon="-0.45911">
        <ele>201</ele>
        <time>2013-09-29T06:17:23Z</time>
      </trkpt>
      <trkpt lat="46.82619" lon="-0.45881">
        <ele>201</ele>
        <time>2013-09-29T06:17:29Z</time>
      </trkpt>
      <trkpt lat="46.82595" lon="-0.45843">
        <ele>202</ele>
        <time>2013-09-29T06:17:36Z</time>
      </trkpt>
      <trkpt lat="46.82593" lon="-0.45837">
        <ele>202</ele>
        <time>2013-09-29T06:17:37Z</time>
      </trkpt>
      <trkpt lat="46.82589" lon="-0.45832">
        <ele>203</ele>
        <time>2013-09-29T06:17:38Z</time>
      </trkpt>
      <trkpt lat="46.82574" lon="-0.45805">
        <ele>202</ele>
        <time>2013-09-29T06:17:43Z</time>
      </trkpt>
      <trkpt lat="46.82571" lon="-0.458">
        <ele>202</ele>
        <time>2013-09-29T06:17:44Z</time>
      </trkpt>
      <trkpt lat="46.82561" lon="-0.45784">
        <ele>202</ele>
        <time>2013-09-29T06:17:47Z</time>
      </trkpt>
      <trkpt lat="46.82558" lon="-0.45779">
        <ele>202</ele>
        <time>2013-09-29T06:17:48Z</time>
      </trkpt>
      <trkpt lat="46.82509" lon="-0.45705">
        <ele>202</ele>
        <time>2013-09-29T06:18:02Z</time>
      </trkpt>
      <trkpt lat="46.82446" lon="-0.45602">
        <ele>199</ele>
        <time>2013-09-29T06:18:18Z</time>
      </trkpt>
      <trkpt lat="46.824" lon="-0.45519">
        <ele>195</ele>
        <time>2013-09-29T06:18:28Z</time>
      </trkpt>
      <trkpt lat="46.82329" lon="-0.45392">
        <ele>194</ele>
        <time>2013-09-29T06:18:43Z</time>
      </trkpt>
      <trkpt lat="46.82326" lon="-0.45383">
        <ele>194</ele>
        <time>2013-09-29T06:18:44Z</time>
      </trkpt>
      <trkpt lat="46.82323" lon="-0.45373">
        <ele>194</ele>
        <time>2013-09-29T06:18:45Z</time>
      </trkpt>
      <trkpt lat="46.82321" lon="-0.45363">
        <ele>194</ele>
        <time>2013-09-29T06:18:46Z</time>
      </trkpt>
      <trkpt lat="46.82319" lon="-0.45353">
        <ele>194</ele>
        <time>2013-09-29T06:18:47Z</time>
      </trkpt>
      <trkpt lat="46.82318" lon="-0.45343">
        <ele>194</ele>
        <time>2013-09-29T06:18:48Z</time>
      </trkpt>
      <trkpt lat="46.82314" lon="-0.45304">
        <ele>193</ele>
        <time>2013-09-29T06:18:52Z</time>
      </trkpt>
      <trkpt lat="46.82312" lon="-0.45295">
        <ele>193</ele>
        <time>2013-09-29T06:18:53Z</time>
      </trkpt>
      <trkpt lat="46.82307" lon="-0.4528">
        <ele>193</ele>
        <time>2013-09-29T06:18:55Z</time>
      </trkpt>
      <trkpt lat="46.82306" lon="-0.45273">
        <ele>193</ele>
        <time>2013-09-29T06:18:56Z</time>
      </trkpt>
      <trkpt lat="46.82305" lon="-0.45268">
        <ele>193</ele>
        <time>2013-09-29T06:18:57Z</time>
      </trkpt>
      <trkpt lat="46.82303" lon="-0.45265">
        <ele>193</ele>
        <time>2013-09-29T06:18:58Z</time>
      </trkpt>
      <trkpt lat="46.82299" lon="-0.45265">
        <ele>193</ele>
        <time>2013-09-29T06:18:59Z</time>
      </trkpt>
      <trkpt lat="46.82296" lon="-0.45265">
        <ele>193</ele>
        <time>2013-09-29T06:19:00Z</time>
      </trkpt>
      <trkpt lat="46.82292" lon="-0.45264">
        <ele>193</ele>
        <time>2013-09-29T06:19:01Z</time>
      </trkpt>
      <trkpt lat="46.82287" lon="-0.45263">
        <ele>193</ele>
        <time>2013-09-29T06:19:02Z</time>
      </trkpt>
      <trkpt lat="46.82282" lon="-0.45262">
        <ele>193</ele>
        <time>2013-09-29T06:19:03Z</time>
      </trkpt>
      <trkpt lat="46.82277" lon="-0.45261">
        <ele>193</ele>
        <time>2013-09-29T06:19:04Z</time>
      </trkpt>
      <trkpt lat="46.82272" lon="-0.45259">
        <ele>193</ele>
        <time>2013-09-29T06:19:05Z</time>
      </trkpt>
      <trkpt lat="46.82266" lon="-0.45257">
        <ele>193</ele>
        <time>2013-09-29T06:19:06Z</time>
      </trkpt>
      <trkpt lat="46.82261" lon="-0.45254">
        <ele>193</ele>
        <time>2013-09-29T06:19:07Z</time>
      </trkpt>
      <trkpt lat="46.82239" lon="-0.45241">
        <ele>195</ele>
        <time>2013-09-29T06:19:11Z</time>
      </trkpt>
      <trkpt lat="46.82234" lon="-0.45237">
        <ele>196</ele>
        <time>2013-09-29T06:19:12Z</time>
      </trkpt>
      <trkpt lat="46.82187" lon="-0.45184">
        <ele>198</ele>
        <time>2013-09-29T06:19:22Z</time>
      </trkpt>
      <trkpt lat="46.82141" lon="-0.45138">
        <ele>201</ele>
        <time>2013-09-29T06:19:32Z</time>
      </trkpt>
      <trkpt lat="46.82136" lon="-0.45135">
        <ele>201</ele>
        <time>2013-09-29T06:19:33Z</time>
      </trkpt>
      <trkpt lat="46.82065" lon="-0.45106">
        <ele>203</ele>
        <time>2013-09-29T06:19:46Z</time>
      </trkpt>
      <trkpt lat="46.82031" lon="-0.45084">
        <ele>203</ele>
        <time>2013-09-29T06:19:53Z</time>
      </trkpt>
      <trkpt lat="46.82006" lon="-0.4506">
        <ele>203</ele>
        <time>2013-09-29T06:19:59Z</time>
      </trkpt>
      <trkpt lat="46.8197" lon="-0.44988">
        <ele>204</ele>
        <time>2013-09-29T06:20:11Z</time>
      </trkpt>
      <trkpt lat="46.81968" lon="-0.44981">
        <ele>204</ele>
        <time>2013-09-29T06:20:12Z</time>
      </trkpt>
      <trkpt lat="46.81965" lon="-0.44966">
        <ele>205</ele>
        <time>2013-09-29T06:20:14Z</time>
      </trkpt>
      <trkpt lat="46.81956" lon="-0.4488">
        <ele>206</ele>
        <time>2013-09-29T06:20:26Z</time>
      </trkpt>
      <trkpt lat="46.81952" lon="-0.44868">
        <ele>206</ele>
        <time>2013-09-29T06:20:28Z</time>
      </trkpt>
      <trkpt lat="46.8195" lon="-0.44862">
        <ele>206</ele>
        <time>2013-09-29T06:20:29Z</time>
      </trkpt>
      <trkpt lat="46.81947" lon="-0.44856">
        <ele>206</ele>
        <time>2013-09-29T06:20:30Z</time>
      </trkpt>
      <trkpt lat="46.81935" lon="-0.44837">
        <ele>206</ele>
        <time>2013-09-29T06:20:34Z</time>
      </trkpt>
      <trkpt lat="46.81885" lon="-0.44795">
        <ele>207</ele>
        <time>2013-09-29T06:20:46Z</time>
      </trkpt>
      <trkpt lat="46.8188" lon="-0.44792">
        <ele>207</ele>
        <time>2013-09-29T06:20:47Z</time>
      </trkpt>
      <trkpt lat="46.81867" lon="-0.44784">
        <ele>208</ele>
        <time>2013-09-29T06:20:50Z</time>
      </trkpt>
      <trkpt lat="46.81863" lon="-0.44782">
        <ele>208</ele>
        <time>2013-09-29T06:20:51Z</time>
      </trkpt>
      <trkpt lat="46.81838" lon="-0.44769">
        <ele>208</ele>
        <time>2013-09-29T06:20:56Z</time>
      </trkpt>
      <trkpt lat="46.81833" lon="-0.44767">
        <ele>208</ele>
        <time>2013-09-29T06:20:57Z</time>
      </trkpt>
      <trkpt lat="46.81829" lon="-0.44765">
        <ele>208</ele>
        <time>2013-09-29T06:20:58Z</time>
      </trkpt>
      <trkpt lat="46.81819" lon="-0.44763">
        <ele>208</ele>
        <time>2013-09-29T06:21:00Z</time>
      </trkpt>
      <trkpt lat="46.81809" lon="-0.44762">
        <ele>208</ele>
        <time>2013-09-29T06:21:02Z</time>
      </trkpt>
      <trkpt lat="46.81759" lon="-0.44764">
        <ele>209</ele>
        <time>2013-09-29T06:21:12Z</time>
      </trkpt>
      <trkpt lat="46.81754" lon="-0.44766">
        <ele>209</ele>
        <time>2013-09-29T06:21:13Z</time>
      </trkpt>
      <trkpt lat="46.8175" lon="-0.44768">
        <ele>209</ele>
        <time>2013-09-29T06:21:14Z</time>
      </trkpt>
      <trkpt lat="46.81746" lon="-0.4477">
        <ele>210</ele>
        <time>2013-09-29T06:21:15Z</time>
      </trkpt>
      <trkpt lat="46.81742" lon="-0.4477">
        <ele>210</ele>
        <time>2013-09-29T06:21:16Z</time>
      </trkpt>
      <trkpt lat="46.81738" lon="-0.44767">
        <ele>210</ele>
        <time>2013-09-29T06:21:17Z</time>
      </trkpt>
      <trkpt lat="46.81735" lon="-0.44764">
        <ele>210</ele>
        <time>2013-09-29T06:21:18Z</time>
      </trkpt>
      <trkpt lat="46.81731" lon="-0.44761">
        <ele>210</ele>
        <time>2013-09-29T06:21:19Z</time>
      </trkpt>
      <trkpt lat="46.81723" lon="-0.44748">
        <ele>210</ele>
        <time>2013-09-29T06:21:22Z</time>
      </trkpt>
      <trkpt lat="46.81706" lon="-0.44715">
        <ele>210</ele>
        <time>2013-09-29T06:21:29Z</time>
      </trkpt>
      <trkpt lat="46.81704" lon="-0.44709">
        <ele>210</ele>
        <time>2013-09-29T06:21:30Z</time>
      </trkpt>
      <trkpt lat="46.81702" lon="-0.44703">
        <ele>210</ele>
        <time>2013-09-29T06:21:31Z</time>
      </trkpt>
      <trkpt lat="46.817" lon="-0.44697">
        <ele>210</ele>
        <time>2013-09-29T06:21:32Z</time>
      </trkpt>
      <trkpt lat="46.81697" lon="-0.44691">
        <ele>210</ele>
        <time>2013-09-29T06:21:33Z</time>
      </trkpt>
      <trkpt lat="46.81684" lon="-0.44651">
        <ele>210</ele>
        <time>2013-09-29T06:21:39Z</time>
      </trkpt>
      <trkpt lat="46.81682" lon="-0.44645">
        <ele>210</ele>
        <time>2013-09-29T06:21:40Z</time>
      </trkpt>
      <trkpt lat="46.8167" lon="-0.44612">
        <ele>210</ele>
        <time>2013-09-29T06:21:45Z</time>
      </trkpt>
      <trkpt lat="46.81654" lon="-0.44562">
        <ele>211</ele>
        <time>2013-09-29T06:21:53Z</time>
      </trkpt>
      <trkpt lat="46.81651" lon="-0.44555">
        <ele>211</ele>
        <time>2013-09-29T06:21:54Z</time>
      </trkpt>
      <trkpt lat="46.81625" lon="-0.44459">
        <ele>209</ele>
        <time>2013-09-29T06:22:08Z</time>
      </trkpt>
      <trkpt lat="46.81588" lon="-0.44356">
        <ele>208</ele>
        <time>2013-09-29T06:22:22Z</time>
      </trkpt>
      <trkpt lat="46.81572" lon="-0.44312">
        <ele>207</ele>
        <time>2013-09-29T06:22:29Z</time>
      </trkpt>
      <trkpt lat="46.81566" lon="-0.44302">
        <ele>206</ele>
        <time>2013-09-29T06:22:31Z</time>
      </trkpt>
      <trkpt lat="46.81561" lon="-0.44297">
        <ele>206</ele>
        <time>2013-09-29T06:22:32Z</time>
      </trkpt>
      <trkpt lat="46.81497" lon="-0.44249">
        <ele>204</ele>
        <time>2013-09-29T06:22:45Z</time>
      </trkpt>
      <trkpt lat="46.81445" lon="-0.44212">
        <ele>203</ele>
        <time>2013-09-29T06:22:56Z</time>
      </trkpt>
      <trkpt lat="46.81441" lon="-0.44208">
        <ele>203</ele>
        <time>2013-09-29T06:22:57Z</time>
      </trkpt>
      <trkpt lat="46.81439" lon="-0.44203">
        <ele>203</ele>
        <time>2013-09-29T06:22:58Z</time>
      </trkpt>
      <trkpt lat="46.81438" lon="-0.44198">
        <ele>203</ele>
        <time>2013-09-29T06:22:59Z</time>
      </trkpt>
      <trkpt lat="46.81438" lon="-0.44192">
        <ele>203</ele>
        <time>2013-09-29T06:23:00Z</time>
      </trkpt>
      <trkpt lat="46.81439" lon="-0.44186">
        <ele>203</ele>
        <time>2013-09-29T06:23:01Z</time>
      </trkpt>
      <trkpt lat="46.81441" lon="-0.4418">
        <ele>203</ele>
        <time>2013-09-29T06:23:02Z</time>
      </trkpt>
      <trkpt lat="46.81443" lon="-0.44174">
        <ele>203</ele>
        <time>2013-09-29T06:23:03Z</time>
      </trkpt>
      <trkpt lat="46.81445" lon="-0.44167">
        <ele>203</ele>
        <time>2013-09-29T06:23:04Z</time>
      </trkpt>
      <trkpt lat="46.81447" lon="-0.44161">
        <ele>202</ele>
        <time>2013-09-29T06:23:05Z</time>
      </trkpt>
      <trkpt lat="46.81452" lon="-0.44148">
        <ele>202</ele>
        <time>2013-09-29T06:23:07Z</time>
      </trkpt>
      <trkpt lat="46.81457" lon="-0.44133">
        <ele>202</ele>
        <time>2013-09-29T06:23:09Z</time>
      </trkpt>
      <trkpt lat="46.8146" lon="-0.44126">
        <ele>202</ele>
        <time>2013-09-29T06:23:10Z</time>
      </trkpt>
      <trkpt lat="46.81502" lon="-0.44022">
        <ele>201</ele>
        <time>2013-09-29T06:23:24Z</time>
      </trkpt>
      <trkpt lat="46.81542" lon="-0.43923">
        <ele>200</ele>
        <time>2013-09-29T06:23:37Z</time>
      </trkpt>
      <trkpt lat="46.81542" lon="-0.43916">
        <ele>199</ele>
        <time>2013-09-29T06:23:38Z</time>
      </trkpt>
      <trkpt lat="46.8154" lon="-0.43911">
        <ele>199</ele>
        <time>2013-09-29T06:23:39Z</time>
      </trkpt>
      <trkpt lat="46.81536" lon="-0.43907">
        <ele>199</ele>
        <time>2013-09-29T06:23:40Z</time>
      </trkpt>
      <trkpt lat="46.81532" lon="-0.43905">
        <ele>199</ele>
        <time>2013-09-29T06:23:41Z</time>
      </trkpt>
      <trkpt lat="46.81529" lon="-0.43901">
        <ele>199</ele>
        <time>2013-09-29T06:23:42Z</time>
      </trkpt>
      <trkpt lat="46.81525" lon="-0.43898">
        <ele>199</ele>
        <time>2013-09-29T06:23:43Z</time>
      </trkpt>
      <trkpt lat="46.81521" lon="-0.43895">
        <ele>199</ele>
        <time>2013-09-29T06:23:44Z</time>
      </trkpt>
      <trkpt lat="46.81488" lon="-0.43872">
        <ele>197</ele>
        <time>2013-09-29T06:23:51Z</time>
      </trkpt>
      <trkpt lat="46.81482" lon="-0.43871">
        <ele>197</ele>
        <time>2013-09-29T06:23:52Z</time>
      </trkpt>
      <trkpt lat="46.81476" lon="-0.4387">
        <ele>197</ele>
        <time>2013-09-29T06:23:53Z</time>
      </trkpt>
      <trkpt lat="46.8147" lon="-0.43871">
        <ele>197</ele>
        <time>2013-09-29T06:23:54Z</time>
      </trkpt>
      <trkpt lat="46.81465" lon="-0.43872">
        <ele>197</ele>
        <time>2013-09-29T06:23:55Z</time>
      </trkpt>
      <trkpt lat="46.8146" lon="-0.43873">
        <ele>197</ele>
        <time>2013-09-29T06:23:56Z</time>
      </trkpt>
      <trkpt lat="46.81454" lon="-0.43875">
        <ele>197</ele>
        <time>2013-09-29T06:23:57Z</time>
      </trkpt>
      <trkpt lat="46.81443" lon="-0.43877">
        <ele>197</ele>
        <time>2013-09-29T06:23:59Z</time>
      </trkpt>
      <trkpt lat="46.81437" lon="-0.43878">
        <ele>197</ele>
        <time>2013-09-29T06:24:00Z</time>
      </trkpt>
      <trkpt lat="46.81432" lon="-0.43877">
        <ele>197</ele>
        <time>2013-09-29T06:24:01Z</time>
      </trkpt>
      <trkpt lat="46.81426" lon="-0.43876">
        <ele>197</ele>
        <time>2013-09-29T06:24:02Z</time>
      </trkpt>
      <trkpt lat="46.81421" lon="-0.43875">
        <ele>197</ele>
        <time>2013-09-29T06:24:03Z</time>
      </trkpt>
      <trkpt lat="46.81415" lon="-0.43873">
        <ele>196</ele>
        <time>2013-09-29T06:24:04Z</time>
      </trkpt>
      <trkpt lat="46.8141" lon="-0.43869">
        <ele>196</ele>
        <time>2013-09-29T06:24:05Z</time>
      </trkpt>
      <trkpt lat="46.81406" lon="-0.43864">
        <ele>196</ele>
        <time>2013-09-29T06:24:06Z</time>
      </trkpt>
      <trkpt lat="46.81402" lon="-0.43858">
        <ele>196</ele>
        <time>2013-09-29T06:24:07Z</time>
      </trkpt>
      <trkpt lat="46.81399" lon="-0.43851">
        <ele>196</ele>
        <time>2013-09-29T06:24:08Z</time>
      </trkpt>
      <trkpt lat="46.81396" lon="-0.43843">
        <ele>196</ele>
        <time>2013-09-29T06:24:09Z</time>
      </trkpt>
      <trkpt lat="46.81394" lon="-0.43834">
        <ele>196</ele>
        <time>2013-09-29T06:24:10Z</time>
      </trkpt>
      <trkpt lat="46.81393" lon="-0.43825">
        <ele>195</ele>
        <time>2013-09-29T06:24:11Z</time>
      </trkpt>
      <trkpt lat="46.81392" lon="-0.43816">
        <ele>195</ele>
        <time>2013-09-29T06:24:12Z</time>
      </trkpt>
      <trkpt lat="46.81392" lon="-0.43808">
        <ele>195</ele>
        <time>2013-09-29T06:24:13Z</time>
      </trkpt>
      <trkpt lat="46.81392" lon="-0.43791">
        <ele>195</ele>
        <time>2013-09-29T06:24:15Z</time>
      </trkpt>
      <trkpt lat="46.81391" lon="-0.43783">
        <ele>195</ele>
        <time>2013-09-29T06:24:16Z</time>
      </trkpt>
      <trkpt lat="46.81388" lon="-0.43776">
        <ele>195</ele>
        <time>2013-09-29T06:24:17Z</time>
      </trkpt>
      <trkpt lat="46.81384" lon="-0.4377">
        <ele>195</ele>
        <time>2013-09-29T06:24:18Z</time>
      </trkpt>
      <trkpt lat="46.81379" lon="-0.43765">
        <ele>195</ele>
        <time>2013-09-29T06:24:19Z</time>
      </trkpt>
      <trkpt lat="46.81374" lon="-0.43761">
        <ele>195</ele>
        <time>2013-09-29T06:24:20Z</time>
      </trkpt>
      <trkpt lat="46.8137" lon="-0.43758">
        <ele>194</ele>
        <time>2013-09-29T06:24:21Z</time>
      </trkpt>
      <trkpt lat="46.81359" lon="-0.43751">
        <ele>194</ele>
        <time>2013-09-29T06:24:23Z</time>
      </trkpt>
      <trkpt lat="46.81308" lon="-0.43715">
        <ele>190</ele>
        <time>2013-09-29T06:24:32Z</time>
      </trkpt>
      <trkpt lat="46.81302" lon="-0.43708">
        <ele>190</ele>
        <time>2013-09-29T06:24:33Z</time>
      </trkpt>
      <trkpt lat="46.81298" lon="-0.43699">
        <ele>190</ele>
        <time>2013-09-29T06:24:34Z</time>
      </trkpt>
      <trkpt lat="46.81294" lon="-0.4369">
        <ele>190</ele>
        <time>2013-09-29T06:24:35Z</time>
      </trkpt>
      <trkpt lat="46.81291" lon="-0.4368">
        <ele>190</ele>
        <time>2013-09-29T06:24:36Z</time>
      </trkpt>
      <trkpt lat="46.81289" lon="-0.43669">
        <ele>189</ele>
        <time>2013-09-29T06:24:37Z</time>
      </trkpt>
      <trkpt lat="46.81281" lon="-0.43639">
        <ele>188</ele>
        <time>2013-09-29T06:24:40Z</time>
      </trkpt>
      <trkpt lat="46.81277" lon="-0.43633">
        <ele>188</ele>
        <time>2013-09-29T06:24:41Z</time>
      </trkpt>
      <trkpt lat="46.81272" lon="-0.43629">
        <ele>188</ele>
        <time>2013-09-29T06:24:42Z</time>
      </trkpt>
      <trkpt lat="46.81267" lon="-0.43627">
        <ele>188</ele>
        <time>2013-09-29T06:24:43Z</time>
      </trkpt>
      <trkpt lat="46.81262" lon="-0.43627">
        <ele>188</ele>
        <time>2013-09-29T06:24:44Z</time>
      </trkpt>
      <trkpt lat="46.81257" lon="-0.43628">
        <ele>188</ele>
        <time>2013-09-29T06:24:45Z</time>
      </trkpt>
      <trkpt lat="46.81252" lon="-0.4363">
        <ele>188</ele>
        <time>2013-09-29T06:24:46Z</time>
      </trkpt>
      <trkpt lat="46.81235" lon="-0.43635">
        <ele>189</ele>
        <time>2013-09-29T06:24:49Z</time>
      </trkpt>
      <trkpt lat="46.81229" lon="-0.43636">
        <ele>190</ele>
        <time>2013-09-29T06:24:50Z</time>
      </trkpt>
      <trkpt lat="46.81224" lon="-0.43637">
        <ele>190</ele>
        <time>2013-09-29T06:24:51Z</time>
      </trkpt>
      <trkpt lat="46.81218" lon="-0.43638">
        <ele>190</ele>
        <time>2013-09-29T06:24:52Z</time>
      </trkpt>
      <trkpt lat="46.81213" lon="-0.43638">
        <ele>190</ele>
        <time>2013-09-29T06:24:53Z</time>
      </trkpt>
      <trkpt lat="46.81161" lon="-0.43638">
        <ele>194</ele>
        <time>2013-09-29T06:25:03Z</time>
      </trkpt>
      <trkpt lat="46.81156" lon="-0.43638">
        <ele>194</ele>
        <time>2013-09-29T06:25:04Z</time>
      </trkpt>
      <trkpt lat="46.81152" lon="-0.43639">
        <ele>194</ele>
        <time>2013-09-29T06:25:05Z</time>
      </trkpt>
      <trkpt lat="46.81147" lon="-0.43641">
        <ele>194</ele>
        <time>2013-09-29T06:25:06Z</time>
      </trkpt>
      <trkpt lat="46.81142" lon="-0.43643">
        <ele>194</ele>
        <time>2013-09-29T06:25:07Z</time>
      </trkpt>
      <trkpt lat="46.81138" lon="-0.43646">
        <ele>194</ele>
        <time>2013-09-29T06:25:08Z</time>
      </trkpt>
      <trkpt lat="46.81133" lon="-0.43649">
        <ele>194</ele>
        <time>2013-09-29T06:25:09Z</time>
      </trkpt>
      <trkpt lat="46.81129" lon="-0.4365">
        <ele>195</ele>
        <time>2013-09-29T06:25:10Z</time>
      </trkpt>
      <trkpt lat="46.81125" lon="-0.43652">
        <ele>195</ele>
        <time>2013-09-29T06:25:11Z</time>
      </trkpt>
      <trkpt lat="46.8112" lon="-0.43652">
        <ele>195</ele>
        <time>2013-09-29T06:25:12Z</time>
      </trkpt>
      <trkpt lat="46.81116" lon="-0.43651">
        <ele>195</ele>
        <time>2013-09-29T06:25:13Z</time>
      </trkpt>
      <trkpt lat="46.81112" lon="-0.43649">
        <ele>195</ele>
        <time>2013-09-29T06:25:14Z</time>
      </trkpt>
      <trkpt lat="46.81108" lon="-0.43645">
        <ele>195</ele>
        <time>2013-09-29T06:25:15Z</time>
      </trkpt>
      <trkpt lat="46.81104" lon="-0.43641">
        <ele>195</ele>
        <time>2013-09-29T06:25:16Z</time>
      </trkpt>
      <trkpt lat="46.81101" lon="-0.43637">
        <ele>195</ele>
        <time>2013-09-29T06:25:17Z</time>
      </trkpt>
      <trkpt lat="46.8109" lon="-0.43624">
        <ele>196</ele>
        <time>2013-09-29T06:25:20Z</time>
      </trkpt>
      <trkpt lat="46.81078" lon="-0.43603">
        <ele>197</ele>
        <time>2013-09-29T06:25:24Z</time>
      </trkpt>
      <trkpt lat="46.81068" lon="-0.43587">
        <ele>198</ele>
        <time>2013-09-29T06:25:27Z</time>
      </trkpt>
      <trkpt lat="46.8106" lon="-0.43571">
        <ele>198</ele>
        <time>2013-09-29T06:25:30Z</time>
      </trkpt>
      <trkpt lat="46.81057" lon="-0.43566">
        <ele>198</ele>
        <time>2013-09-29T06:25:31Z</time>
      </trkpt>
      <trkpt lat="46.81054" lon="-0.43561">
        <ele>198</ele>
        <time>2013-09-29T06:25:32Z</time>
      </trkpt>
      <trkpt lat="46.81014" lon="-0.43493">
        <ele>199</ele>
        <time>2013-09-29T06:25:46Z</time>
      </trkpt>
      <trkpt lat="46.81009" lon="-0.43483">
        <ele>199</ele>
        <time>2013-09-29T06:25:48Z</time>
      </trkpt>
      <trkpt lat="46.81008" lon="-0.43477">
        <ele>200</ele>
        <time>2013-09-29T06:25:49Z</time>
      </trkpt>
      <trkpt lat="46.81007" lon="-0.43471">
        <ele>200</ele>
        <time>2013-09-29T06:25:50Z</time>
      </trkpt>
      <trkpt lat="46.81006" lon="-0.43465">
        <ele>200</ele>
        <time>2013-09-29T06:25:51Z</time>
      </trkpt>
      <trkpt lat="46.81006" lon="-0.4346">
        <ele>200</ele>
        <time>2013-09-29T06:25:52Z</time>
      </trkpt>
      <trkpt lat="46.81005" lon="-0.43428">
        <ele>201</ele>
        <time>2013-09-29T06:25:58Z</time>
      </trkpt>
      <trkpt lat="46.81004" lon="-0.43422">
        <ele>202</ele>
        <time>2013-09-29T06:25:59Z</time>
      </trkpt>
      <trkpt lat="46.81004" lon="-0.43415">
        <ele>202</ele>
        <time>2013-09-29T06:26:00Z</time>
      </trkpt>
      <trkpt lat="46.81003" lon="-0.43409">
        <ele>202</ele>
        <time>2013-09-29T06:26:01Z</time>
      </trkpt>
      <trkpt lat="46.81003" lon="-0.43402">
        <ele>202</ele>
        <time>2013-09-29T06:26:02Z</time>
      </trkpt>
      <trkpt lat="46.81" lon="-0.43323">
        <ele>203</ele>
        <time>2013-09-29T06:26:14Z</time>
      </trkpt>
      <trkpt lat="46.80999" lon="-0.43304">
        <ele>203</ele>
        <time>2013-09-29T06:26:17Z</time>
      </trkpt>
      <trkpt lat="46.80999" lon="-0.4324">
        <ele>203</ele>
        <time>2013-09-29T06:26:27Z</time>
      </trkpt>
      <trkpt lat="46.81" lon="-0.43233">
        <ele>202</ele>
        <time>2013-09-29T06:26:28Z</time>
      </trkpt>
      <trkpt lat="46.81001" lon="-0.43226">
        <ele>202</ele>
        <time>2013-09-29T06:26:29Z</time>
      </trkpt>
      <trkpt lat="46.81002" lon="-0.4322">
        <ele>202</ele>
        <time>2013-09-29T06:26:30Z</time>
      </trkpt>
      <trkpt lat="46.81004" lon="-0.43214">
        <ele>202</ele>
        <time>2013-09-29T06:26:31Z</time>
      </trkpt>
      <trkpt lat="46.81005" lon="-0.43207">
        <ele>202</ele>
        <time>2013-09-29T06:26:32Z</time>
      </trkpt>
      <trkpt lat="46.81007" lon="-0.43201">
        <ele>202</ele>
        <time>2013-09-29T06:26:33Z</time>
      </trkpt>
      <trkpt lat="46.81035" lon="-0.43134">
        <ele>200</ele>
        <time>2013-09-29T06:26:44Z</time>
      </trkpt>
      <trkpt lat="46.81056" lon="-0.43089">
        <ele>200</ele>
        <time>2013-09-29T06:26:53Z</time>
      </trkpt>
      <trkpt lat="46.81058" lon="-0.43083">
        <ele>200</ele>
        <time>2013-09-29T06:26:54Z</time>
      </trkpt>
      <trkpt lat="46.81058" lon="-0.43076">
        <ele>200</ele>
        <time>2013-09-29T06:26:55Z</time>
      </trkpt>
      <trkpt lat="46.81058" lon="-0.4307">
        <ele>200</ele>
        <time>2013-09-29T06:26:56Z</time>
      </trkpt>
      <trkpt lat="46.81056" lon="-0.43063">
        <ele>200</ele>
        <time>2013-09-29T06:26:57Z</time>
      </trkpt>
      <trkpt lat="46.81033" lon="-0.42966">
        <ele>198</ele>
        <time>2013-09-29T06:27:10Z</time>
      </trkpt>
      <trkpt lat="46.81019" lon="-0.42914">
        <ele>195</ele>
        <time>2013-09-29T06:27:16Z</time>
      </trkpt>
      <trkpt lat="46.81011" lon="-0.42881">
        <ele>195</ele>
        <time>2013-09-29T06:27:20Z</time>
      </trkpt>
      <trkpt lat="46.81009" lon="-0.42874">
        <ele>195</ele>
        <time>2013-09-29T06:27:21Z</time>
      </trkpt>
      <trkpt lat="46.81005" lon="-0.42859">
        <ele>195</ele>
        <time>2013-09-29T06:27:23Z</time>
      </trkpt>
      <trkpt lat="46.81" lon="-0.42846">
        <ele>193</ele>
        <time>2013-09-29T06:27:25Z</time>
      </trkpt>
      <trkpt lat="46.80994" lon="-0.42836">
        <ele>193</ele>
        <time>2013-09-29T06:27:27Z</time>
      </trkpt>
      <trkpt lat="46.80992" lon="-0.4283">
        <ele>193</ele>
        <time>2013-09-29T06:27:28Z</time>
      </trkpt>
      <trkpt lat="46.80827" lon="-0.42428">
        <ele>190</ele>
        <time>2013-09-29T06:29:48Z</time>
      </trkpt>
      <trkpt lat="46.80827" lon="-0.42429">
        <ele>190</ele>
        <time>2013-09-29T06:29:49Z</time>
      </trkpt>
      <trkpt lat="46.80826" lon="-0.42423">
        <ele>190</ele>
        <time>2013-09-29T06:30:15Z</time>
      </trkpt>
      <trkpt lat="46.80828" lon="-0.42425">
        <ele>190</ele>
        <time>2013-09-29T06:30:43Z</time>
      </trkpt>
      <trkpt lat="46.80827" lon="-0.42423">
        <ele>190</ele>
        <time>2013-09-29T06:30:59Z</time>
      </trkpt>
      <trkpt lat="46.80826" lon="-0.42412">
        <ele>191</ele>
        <time>2013-09-29T06:31:03Z</time>
      </trkpt>
      <trkpt lat="46.80809" lon="-0.42314">
        <ele>193</ele>
        <time>2013-09-29T06:31:17Z</time>
      </trkpt>
      <trkpt lat="46.80804" lon="-0.42289">
        <ele>193</ele>
        <time>2013-09-29T06:31:20Z</time>
      </trkpt>
      <trkpt lat="46.80791" lon="-0.42239">
        <ele>193</ele>
        <time>2013-09-29T06:31:27Z</time>
      </trkpt>
      <trkpt lat="46.80772" lon="-0.42173">
        <ele>194</ele>
        <time>2013-09-29T06:31:36Z</time>
      </trkpt>
      <trkpt lat="46.8077" lon="-0.42166">
        <ele>194</ele>
        <time>2013-09-29T06:31:37Z</time>
      </trkpt>
      <trkpt lat="46.80755" lon="-0.42109">
        <ele>195</ele>
        <time>2013-09-29T06:31:45Z</time>
      </trkpt>
      <trkpt lat="46.80751" lon="-0.42095">
        <ele>195</ele>
        <time>2013-09-29T06:31:47Z</time>
      </trkpt>
      <trkpt lat="46.80735" lon="-0.42026">
        <ele>198</ele>
        <time>2013-09-29T06:31:57Z</time>
      </trkpt>
      <trkpt lat="46.80733" lon="-0.4202">
        <ele>198</ele>
        <time>2013-09-29T06:31:58Z</time>
      </trkpt>
      <trkpt lat="46.80729" lon="-0.42001">
        <ele>198</ele>
        <time>2013-09-29T06:32:01Z</time>
      </trkpt>
      <trkpt lat="46.80708" lon="-0.41936">
        <ele>197</ele>
        <time>2013-09-29T06:32:11Z</time>
      </trkpt>
      <trkpt lat="46.80706" lon="-0.41929">
        <ele>197</ele>
        <time>2013-09-29T06:32:12Z</time>
      </trkpt>
      <trkpt lat="46.8067" lon="-0.41839">
        <ele>197</ele>
        <time>2013-09-29T06:32:24Z</time>
      </trkpt>
      <trkpt lat="46.80655" lon="-0.41799">
        <ele>197</ele>
        <time>2013-09-29T06:32:29Z</time>
      </trkpt>
      <trkpt lat="46.80653" lon="-0.4179">
        <ele>197</ele>
        <time>2013-09-29T06:32:30Z</time>
      </trkpt>
      <trkpt lat="46.80652" lon="-0.41782">
        <ele>197</ele>
        <time>2013-09-29T06:32:31Z</time>
      </trkpt>
      <trkpt lat="46.80653" lon="-0.41773">
        <ele>197</ele>
        <time>2013-09-29T06:32:32Z</time>
      </trkpt>
      <trkpt lat="46.80653" lon="-0.41764">
        <ele>196</ele>
        <time>2013-09-29T06:32:33Z</time>
      </trkpt>
      <trkpt lat="46.80652" lon="-0.41755">
        <ele>196</ele>
        <time>2013-09-29T06:32:34Z</time>
      </trkpt>
      <trkpt lat="46.80651" lon="-0.41747">
        <ele>196</ele>
        <time>2013-09-29T06:32:35Z</time>
      </trkpt>
      <trkpt lat="46.80649" lon="-0.41738">
        <ele>196</ele>
        <time>2013-09-29T06:32:36Z</time>
      </trkpt>
      <trkpt lat="46.80643" lon="-0.41707">
        <ele>196</ele>
        <time>2013-09-29T06:32:40Z</time>
      </trkpt>
      <trkpt lat="46.80621" lon="-0.41594">
        <ele>196</ele>
        <time>2013-09-29T06:32:54Z</time>
      </trkpt>
      <trkpt lat="46.8062" lon="-0.41586">
        <ele>196</ele>
        <time>2013-09-29T06:32:55Z</time>
      </trkpt>
      <trkpt lat="46.80617" lon="-0.41572">
        <ele>196</ele>
        <time>2013-09-29T06:32:57Z</time>
      </trkpt>
      <trkpt lat="46.80616" lon="-0.41566">
        <ele>196</ele>
        <time>2013-09-29T06:32:58Z</time>
      </trkpt>
      <trkpt lat="46.80614" lon="-0.4156">
        <ele>196</ele>
        <time>2013-09-29T06:32:59Z</time>
      </trkpt>
      <trkpt lat="46.8061" lon="-0.41557">
        <ele>196</ele>
        <time>2013-09-29T06:33:00Z</time>
      </trkpt>
      <trkpt lat="46.80605" lon="-0.41555">
        <ele>197</ele>
        <time>2013-09-29T06:33:01Z</time>
      </trkpt>
      <trkpt lat="46.80601" lon="-0.41554">
        <ele>197</ele>
        <time>2013-09-29T06:33:02Z</time>
      </trkpt>
      <trkpt lat="46.80587" lon="-0.41551">
        <ele>197</ele>
        <time>2013-09-29T06:33:05Z</time>
      </trkpt>
      <trkpt lat="46.80582" lon="-0.41549">
        <ele>199</ele>
        <time>2013-09-29T06:33:06Z</time>
      </trkpt>
      <trkpt lat="46.80577" lon="-0.41547">
        <ele>199</ele>
        <time>2013-09-29T06:33:07Z</time>
      </trkpt>
      <trkpt lat="46.80532" lon="-0.41527">
        <ele>199</ele>
        <time>2013-09-29T06:33:16Z</time>
      </trkpt>
      <trkpt lat="46.80528" lon="-0.41525">
        <ele>199</ele>
        <time>2013-09-29T06:33:17Z</time>
      </trkpt>
      <trkpt lat="46.80482" lon="-0.41515">
        <ele>199</ele>
        <time>2013-09-29T06:33:26Z</time>
      </trkpt>
      <trkpt lat="46.80461" lon="-0.41518">
        <ele>198</ele>
        <time>2013-09-29T06:33:30Z</time>
      </trkpt>
      <trkpt lat="46.8043" lon="-0.41528">
        <ele>198</ele>
        <time>2013-09-29T06:33:36Z</time>
      </trkpt>
      <trkpt lat="46.80421" lon="-0.41536">
        <ele>198</ele>
        <time>2013-09-29T06:33:38Z</time>
      </trkpt>
      <trkpt lat="46.80418" lon="-0.41541">
        <ele>198</ele>
        <time>2013-09-29T06:33:39Z</time>
      </trkpt>
      <trkpt lat="46.80414" lon="-0.41546">
        <ele>197</ele>
        <time>2013-09-29T06:33:40Z</time>
      </trkpt>
      <trkpt lat="46.8041" lon="-0.41551">
        <ele>197</ele>
        <time>2013-09-29T06:33:41Z</time>
      </trkpt>
      <trkpt lat="46.80405" lon="-0.41553">
        <ele>197</ele>
        <time>2013-09-29T06:33:42Z</time>
      </trkpt>
      <trkpt lat="46.80399" lon="-0.41553">
        <ele>197</ele>
        <time>2013-09-29T06:33:43Z</time>
      </trkpt>
      <trkpt lat="46.80394" lon="-0.41554">
        <ele>197</ele>
        <time>2013-09-29T06:33:44Z</time>
      </trkpt>
      <trkpt lat="46.80388" lon="-0.41556">
        <ele>197</ele>
        <time>2013-09-29T06:33:45Z</time>
      </trkpt>
      <trkpt lat="46.80383" lon="-0.41558">
        <ele>197</ele>
        <time>2013-09-29T06:33:46Z</time>
      </trkpt>
      <trkpt lat="46.80371" lon="-0.41563">
        <ele>197</ele>
        <time>2013-09-29T06:33:48Z</time>
      </trkpt>
      <trkpt lat="46.80353" lon="-0.41573">
        <ele>197</ele>
        <time>2013-09-29T06:33:51Z</time>
      </trkpt>
      <trkpt lat="46.80341" lon="-0.41577">
        <ele>197</ele>
        <time>2013-09-29T06:33:53Z</time>
      </trkpt>
      <trkpt lat="46.80336" lon="-0.41577">
        <ele>198</ele>
        <time>2013-09-29T06:33:54Z</time>
      </trkpt>
      <trkpt lat="46.80331" lon="-0.41578">
        <ele>197</ele>
        <time>2013-09-29T06:33:55Z</time>
      </trkpt>
      <trkpt lat="46.80326" lon="-0.4158">
        <ele>197</ele>
        <time>2013-09-29T06:33:56Z</time>
      </trkpt>
      <trkpt lat="46.80321" lon="-0.41584">
        <ele>197</ele>
        <time>2013-09-29T06:33:57Z</time>
      </trkpt>
      <trkpt lat="46.80313" lon="-0.41588">
        <ele>197</ele>
        <time>2013-09-29T06:33:59Z</time>
      </trkpt>
      <trkpt lat="46.80284" lon="-0.41603">
        <ele>196</ele>
        <time>2013-09-29T06:34:05Z</time>
      </trkpt>
      <trkpt lat="46.80274" lon="-0.41609">
        <ele>196</ele>
        <time>2013-09-29T06:34:07Z</time>
      </trkpt>
      <trkpt lat="46.80247" lon="-0.41612">
        <ele>194</ele>
        <time>2013-09-29T06:34:12Z</time>
      </trkpt>
      <trkpt lat="46.80224" lon="-0.41612">
        <ele>194</ele>
        <time>2013-09-29T06:34:16Z</time>
      </trkpt>
      <trkpt lat="46.80195" lon="-0.41615">
        <ele>193</ele>
        <time>2013-09-29T06:34:21Z</time>
      </trkpt>
      <trkpt lat="46.80162" lon="-0.41625">
        <ele>191</ele>
        <time>2013-09-29T06:34:27Z</time>
      </trkpt>
      <trkpt lat="46.80149" lon="-0.41627">
        <ele>191</ele>
        <time>2013-09-29T06:34:29Z</time>
      </trkpt>
      <trkpt lat="46.80126" lon="-0.41631">
        <ele>191</ele>
        <time>2013-09-29T06:34:33Z</time>
      </trkpt>
      <trkpt lat="46.80101" lon="-0.41635">
        <ele>190</ele>
        <time>2013-09-29T06:34:37Z</time>
      </trkpt>
      <trkpt lat="46.8009" lon="-0.41638">
        <ele>190</ele>
        <time>2013-09-29T06:34:39Z</time>
      </trkpt>
      <trkpt lat="46.80066" lon="-0.41639">
        <ele>187</ele>
        <time>2013-09-29T06:34:44Z</time>
      </trkpt>
      <trkpt lat="46.80045" lon="-0.41648">
        <ele>187</ele>
        <time>2013-09-29T06:34:48Z</time>
      </trkpt>
      <trkpt lat="46.80029" lon="-0.41656">
        <ele>186</ele>
        <time>2013-09-29T06:34:52Z</time>
      </trkpt>
      <trkpt lat="46.79991" lon="-0.41667">
        <ele>184</ele>
        <time>2013-09-29T06:34:58Z</time>
      </trkpt>
      <trkpt lat="46.79983" lon="-0.41669">
        <ele>184</ele>
        <time>2013-09-29T06:34:59Z</time>
      </trkpt>
      <trkpt lat="46.79952" lon="-0.41675">
        <ele>183</ele>
        <time>2013-09-29T06:35:04Z</time>
      </trkpt>
      <trkpt lat="46.79941" lon="-0.41674">
        <ele>183</ele>
        <time>2013-09-29T06:35:06Z</time>
      </trkpt>
      <trkpt lat="46.79915" lon="-0.41676">
        <ele>182</ele>
        <time>2013-09-29T06:35:11Z</time>
      </trkpt>
      <trkpt lat="46.79882" lon="-0.41689">
        <ele>181</ele>
        <time>2013-09-29T06:35:21Z</time>
      </trkpt>
      <trkpt lat="46.79879" lon="-0.4169">
        <ele>181</ele>
        <time>2013-09-29T06:35:22Z</time>
      </trkpt>
      <trkpt lat="46.79838" lon="-0.41688">
        <ele>181</ele>
        <time>2013-09-29T06:35:33Z</time>
      </trkpt>
      <trkpt lat="46.79821" lon="-0.41688">
        <ele>180</ele>
        <time>2013-09-29T06:35:36Z</time>
      </trkpt>
      <trkpt lat="46.79809" lon="-0.41687">
        <ele>180</ele>
        <time>2013-09-29T06:35:38Z</time>
      </trkpt>
      <trkpt lat="46.79803" lon="-0.41684">
        <ele>180</ele>
        <time>2013-09-29T06:35:39Z</time>
      </trkpt>
      <trkpt lat="46.79792" lon="-0.41679">
        <ele>180</ele>
        <time>2013-09-29T06:35:41Z</time>
      </trkpt>
      <trkpt lat="46.79786" lon="-0.41678">
        <ele>180</ele>
        <time>2013-09-29T06:35:42Z</time>
      </trkpt>
      <trkpt lat="46.79781" lon="-0.41678">
        <ele>179</ele>
        <time>2013-09-29T06:35:43Z</time>
      </trkpt>
      <trkpt lat="46.79755" lon="-0.41681">
        <ele>179</ele>
        <time>2013-09-29T06:35:48Z</time>
      </trkpt>
      <trkpt lat="46.79751" lon="-0.41681">
        <ele>179</ele>
        <time>2013-09-29T06:35:49Z</time>
      </trkpt>
      <trkpt lat="46.79746" lon="-0.41682">
        <ele>178</ele>
        <time>2013-09-29T06:35:50Z</time>
      </trkpt>
      <trkpt lat="46.79736" lon="-0.41687">
        <ele>179</ele>
        <time>2013-09-29T06:35:52Z</time>
      </trkpt>
      <trkpt lat="46.79732" lon="-0.4169">
        <ele>179</ele>
        <time>2013-09-29T06:35:53Z</time>
      </trkpt>
      <trkpt lat="46.79717" lon="-0.41698">
        <ele>179</ele>
        <time>2013-09-29T06:35:56Z</time>
      </trkpt>
      <trkpt lat="46.79712" lon="-0.41699">
        <ele>179</ele>
        <time>2013-09-29T06:35:57Z</time>
      </trkpt>
      <trkpt lat="46.79707" lon="-0.417">
        <ele>179</ele>
        <time>2013-09-29T06:35:58Z</time>
      </trkpt>
      <trkpt lat="46.79687" lon="-0.41705">
        <ele>179</ele>
        <time>2013-09-29T06:36:02Z</time>
      </trkpt>
      <trkpt lat="46.79677" lon="-0.41709">
        <ele>179</ele>
        <time>2013-09-29T06:36:04Z</time>
      </trkpt>
      <trkpt lat="46.79657" lon="-0.41714">
        <ele>179</ele>
        <time>2013-09-29T06:36:08Z</time>
      </trkpt>
      <trkpt lat="46.79652" lon="-0.41714">
        <ele>179</ele>
        <time>2013-09-29T06:36:09Z</time>
      </trkpt>
      <trkpt lat="46.79635" lon="-0.41719">
        <ele>179</ele>
        <time>2013-09-29T06:36:13Z</time>
      </trkpt>
      <trkpt lat="46.79611" lon="-0.41722">
        <ele>180</ele>
        <time>2013-09-29T06:36:18Z</time>
      </trkpt>
      <trkpt lat="46.79607" lon="-0.41723">
        <ele>180</ele>
        <time>2013-09-29T06:36:19Z</time>
      </trkpt>
      <trkpt lat="46.7959" lon="-0.41725">
        <ele>180</ele>
        <time>2013-09-29T06:36:23Z</time>
      </trkpt>
      <trkpt lat="46.79586" lon="-0.41728">
        <ele>180</ele>
        <time>2013-09-29T06:36:24Z</time>
      </trkpt>
      <trkpt lat="46.79552" lon="-0.41754">
        <ele>182</ele>
        <time>2013-09-29T06:36:36Z</time>
      </trkpt>
      <trkpt lat="46.79515" lon="-0.41759">
        <ele>183</ele>
        <time>2013-09-29T06:36:47Z</time>
      </trkpt>
      <trkpt lat="46.7947" lon="-0.41758">
        <ele>184</ele>
        <time>2013-09-29T06:36:59Z</time>
      </trkpt>
      <trkpt lat="46.79428" lon="-0.41758">
        <ele>184</ele>
        <time>2013-09-29T06:37:09Z</time>
      </trkpt>
      <trkpt lat="46.79387" lon="-0.41762">
        <ele>185</ele>
        <time>2013-09-29T06:37:19Z</time>
      </trkpt>
      <trkpt lat="46.79329" lon="-0.41756">
        <ele>186</ele>
        <time>2013-09-29T06:37:35Z</time>
      </trkpt>
      <trkpt lat="46.79289" lon="-0.41748">
        <ele>186</ele>
        <time>2013-09-29T06:37:48Z</time>
      </trkpt>
      <trkpt lat="46.79244" lon="-0.41743">
        <ele>188</ele>
        <time>2013-09-29T06:38:02Z</time>
      </trkpt>
      <trkpt lat="46.79204" lon="-0.41731">
        <ele>188</ele>
        <time>2013-09-29T06:38:15Z</time>
      </trkpt>
      <trkpt lat="46.79156" lon="-0.4172">
        <ele>188</ele>
        <time>2013-09-29T06:38:28Z</time>
      </trkpt>
      <trkpt lat="46.79105" lon="-0.41711">
        <ele>187</ele>
        <time>2013-09-29T06:38:41Z</time>
      </trkpt>
      <trkpt lat="46.79078" lon="-0.41708">
        <ele>186</ele>
        <time>2013-09-29T06:38:47Z</time>
      </trkpt>
      <trkpt lat="46.7907" lon="-0.4171">
        <ele>186</ele>
        <time>2013-09-29T06:38:49Z</time>
      </trkpt>
      <trkpt lat="46.79065" lon="-0.4171">
        <ele>186</ele>
        <time>2013-09-29T06:38:50Z</time>
      </trkpt>
      <trkpt lat="46.79047" lon="-0.41711">
        <ele>186</ele>
        <time>2013-09-29T06:38:54Z</time>
      </trkpt>
      <trkpt lat="46.79006" lon="-0.41723">
        <ele>186</ele>
        <time>2013-09-29T06:39:03Z</time>
      </trkpt>
      <trkpt lat="46.79001" lon="-0.41724">
        <ele>186</ele>
        <time>2013-09-29T06:39:04Z</time>
      </trkpt>
      <trkpt lat="46.78996" lon="-0.41725">
        <ele>186</ele>
        <time>2013-09-29T06:39:05Z</time>
      </trkpt>
      <trkpt lat="46.78991" lon="-0.41725">
        <ele>186</ele>
        <time>2013-09-29T06:39:06Z</time>
      </trkpt>
      <trkpt lat="46.78987" lon="-0.41724">
        <ele>186</ele>
        <time>2013-09-29T06:39:07Z</time>
      </trkpt>
      <trkpt lat="46.78982" lon="-0.41722">
        <ele>186</ele>
        <time>2013-09-29T06:39:08Z</time>
      </trkpt>
      <trkpt lat="46.78978" lon="-0.41721">
        <ele>186</ele>
        <time>2013-09-29T06:39:09Z</time>
      </trkpt>
      <trkpt lat="46.78973" lon="-0.41719">
        <ele>186</ele>
        <time>2013-09-29T06:39:10Z</time>
      </trkpt>
      <trkpt lat="46.78959" lon="-0.41712">
        <ele>186</ele>
        <time>2013-09-29T06:39:13Z</time>
      </trkpt>
      <trkpt lat="46.7895" lon="-0.4171">
        <ele>186</ele>
        <time>2013-09-29T06:39:15Z</time>
      </trkpt>
      <trkpt lat="46.78941" lon="-0.41707">
        <ele>185</ele>
        <time>2013-09-29T06:39:17Z</time>
      </trkpt>
      <trkpt lat="46.78937" lon="-0.41705">
        <ele>185</ele>
        <time>2013-09-29T06:39:18Z</time>
      </trkpt>
      <trkpt lat="46.78933" lon="-0.41701">
        <ele>185</ele>
        <time>2013-09-29T06:39:19Z</time>
      </trkpt>
      <trkpt lat="46.78929" lon="-0.41696">
        <ele>185</ele>
        <time>2013-09-29T06:39:20Z</time>
      </trkpt>
      <trkpt lat="46.78926" lon="-0.41691">
        <ele>185</ele>
        <time>2013-09-29T06:39:21Z</time>
      </trkpt>
      <trkpt lat="46.78924" lon="-0.41685">
        <ele>185</ele>
        <time>2013-09-29T06:39:22Z</time>
      </trkpt>
      <trkpt lat="46.78918" lon="-0.41673">
        <ele>184</ele>
        <time>2013-09-29T06:39:24Z</time>
      </trkpt>
      <trkpt lat="46.78883" lon="-0.41608">
        <ele>182</ele>
        <time>2013-09-29T06:39:35Z</time>
      </trkpt>
      <trkpt lat="46.78881" lon="-0.41603">
        <ele>182</ele>
        <time>2013-09-29T06:39:36Z</time>
      </trkpt>
      <trkpt lat="46.78879" lon="-0.41598">
        <ele>182</ele>
        <time>2013-09-29T06:39:37Z</time>
      </trkpt>
      <trkpt lat="46.78873" lon="-0.4159">
        <ele>182</ele>
        <time>2013-09-29T06:39:40Z</time>
      </trkpt>
      <trkpt lat="46.78871" lon="-0.4159">
        <ele>182</ele>
        <time>2013-09-29T06:39:41Z</time>
      </trkpt>
      <trkpt lat="46.78868" lon="-0.41592">
        <ele>182</ele>
        <time>2013-09-29T06:39:42Z</time>
      </trkpt>
      <trkpt lat="46.78866" lon="-0.41596">
        <ele>182</ele>
        <time>2013-09-29T06:39:43Z</time>
      </trkpt>
      <trkpt lat="46.78864" lon="-0.416">
        <ele>182</ele>
        <time>2013-09-29T06:39:44Z</time>
      </trkpt>
      <trkpt lat="46.78834" lon="-0.41646">
        <ele>183</ele>
        <time>2013-09-29T06:39:56Z</time>
      </trkpt>
      <trkpt lat="46.78825" lon="-0.41657">
        <ele>184</ele>
        <time>2013-09-29T06:39:59Z</time>
      </trkpt>
      <trkpt lat="46.78821" lon="-0.41661">
        <ele>184</ele>
        <time>2013-09-29T06:40:00Z</time>
      </trkpt>
      <trkpt lat="46.78818" lon="-0.41665">
        <ele>184</ele>
        <time>2013-09-29T06:40:01Z</time>
      </trkpt>
      <trkpt lat="46.78796" lon="-0.41682">
        <ele>185</ele>
        <time>2013-09-29T06:40:07Z</time>
      </trkpt>
      <trkpt lat="46.78792" lon="-0.41684">
        <ele>185</ele>
        <time>2013-09-29T06:40:08Z</time>
      </trkpt>
      <trkpt lat="46.78784" lon="-0.41688">
        <ele>185</ele>
        <time>2013-09-29T06:40:10Z</time>
      </trkpt>
      <trkpt lat="46.7878" lon="-0.4169">
        <ele>185</ele>
        <time>2013-09-29T06:40:11Z</time>
      </trkpt>
      <trkpt lat="46.78733" lon="-0.41711">
        <ele>185</ele>
        <time>2013-09-29T06:40:23Z</time>
      </trkpt>
      <trkpt lat="46.78724" lon="-0.4172">
        <ele>185</ele>
        <time>2013-09-29T06:40:26Z</time>
      </trkpt>
      <trkpt lat="46.78722" lon="-0.41726">
        <ele>185</ele>
        <time>2013-09-29T06:40:27Z</time>
      </trkpt>
      <trkpt lat="46.78719" lon="-0.41737">
        <ele>185</ele>
        <time>2013-09-29T06:40:29Z</time>
      </trkpt>
      <trkpt lat="46.78719" lon="-0.41744">
        <ele>185</ele>
        <time>2013-09-29T06:40:30Z</time>
      </trkpt>
      <trkpt lat="46.78719" lon="-0.4175">
        <ele>186</ele>
        <time>2013-09-29T06:40:31Z</time>
      </trkpt>
      <trkpt lat="46.78724" lon="-0.41797">
        <ele>186</ele>
        <time>2013-09-29T06:40:38Z</time>
      </trkpt>
      <trkpt lat="46.78724" lon="-0.41804">
        <ele>186</ele>
        <time>2013-09-29T06:40:39Z</time>
      </trkpt>
      <trkpt lat="46.78736" lon="-0.41911">
        <ele>187</ele>
        <time>2013-09-29T06:40:56Z</time>
      </trkpt>
      <trkpt lat="46.78737" lon="-0.41918">
        <ele>187</ele>
        <time>2013-09-29T06:40:57Z</time>
      </trkpt>
      <trkpt lat="46.78737" lon="-0.41925">
        <ele>187</ele>
        <time>2013-09-29T06:40:58Z</time>
      </trkpt>
      <trkpt lat="46.78737" lon="-0.41931">
        <ele>187</ele>
        <time>2013-09-29T06:40:59Z</time>
      </trkpt>
      <trkpt lat="46.78738" lon="-0.41945">
        <ele>186</ele>
        <time>2013-09-29T06:41:01Z</time>
      </trkpt>
      <trkpt lat="46.78729" lon="-0.42049">
        <ele>184</ele>
        <time>2013-09-29T06:41:15Z</time>
      </trkpt>
      <trkpt lat="46.78716" lon="-0.42152">
        <ele>184</ele>
        <time>2013-09-29T06:41:27Z</time>
      </trkpt>
      <trkpt lat="46.78714" lon="-0.4216">
        <ele>184</ele>
        <time>2013-09-29T06:41:28Z</time>
      </trkpt>
      <trkpt lat="46.78682" lon="-0.42253">
        <ele>184</ele>
        <time>2013-09-29T06:41:40Z</time>
      </trkpt>
      <trkpt lat="46.78679" lon="-0.4226">
        <ele>184</ele>
        <time>2013-09-29T06:41:41Z</time>
      </trkpt>
      <trkpt lat="46.78676" lon="-0.42267">
        <ele>184</ele>
        <time>2013-09-29T06:41:42Z</time>
      </trkpt>
      <trkpt lat="46.78629" lon="-0.42357">
        <ele>183</ele>
        <time>2013-09-29T06:41:57Z</time>
      </trkpt>
      <trkpt lat="46.78575" lon="-0.42448">
        <ele>180</ele>
        <time>2013-09-29T06:42:12Z</time>
      </trkpt>
      <trkpt lat="46.78545" lon="-0.42483">
        <ele>179</ele>
        <time>2013-09-29T06:42:17Z</time>
      </trkpt>
      <trkpt lat="46.78515" lon="-0.42516">
        <ele>177</ele>
        <time>2013-09-29T06:42:21Z</time>
      </trkpt>
      <trkpt lat="46.78475" lon="-0.42565">
        <ele>173</ele>
        <time>2013-09-29T06:42:26Z</time>
      </trkpt>
      <trkpt lat="46.7842" lon="-0.4264">
        <ele>173</ele>
        <time>2013-09-29T06:42:34Z</time>
      </trkpt>
      <trkpt lat="46.78363" lon="-0.42683">
        <ele>176</ele>
        <time>2013-09-29T06:42:42Z</time>
      </trkpt>
      <trkpt lat="46.78352" lon="-0.42691">
        <ele>176</ele>
        <time>2013-09-29T06:42:44Z</time>
      </trkpt>
      <trkpt lat="46.78336" lon="-0.427">
        <ele>176</ele>
        <time>2013-09-29T06:42:47Z</time>
      </trkpt>
      <trkpt lat="46.78311" lon="-0.42711">
        <ele>177</ele>
        <time>2013-09-29T06:42:52Z</time>
      </trkpt>
      <trkpt lat="46.78219" lon="-0.4273">
        <ele>178</ele>
        <time>2013-09-29T06:43:08Z</time>
      </trkpt>
      <trkpt lat="46.78133" lon="-0.42728">
        <ele>177</ele>
        <time>2013-09-29T06:43:21Z</time>
      </trkpt>
      <trkpt lat="46.7808" lon="-0.4273">
        <ele>175</ele>
        <time>2013-09-29T06:43:29Z</time>
      </trkpt>
      <trkpt lat="46.77984" lon="-0.42763">
        <ele>173</ele>
        <time>2013-09-29T06:43:44Z</time>
      </trkpt>
      <trkpt lat="46.77945" lon="-0.42781">
        <ele>171</ele>
        <time>2013-09-29T06:43:50Z</time>
      </trkpt>
      <trkpt lat="46.77898" lon="-0.42809">
        <ele>170</ele>
        <time>2013-09-29T06:43:58Z</time>
      </trkpt>
      <trkpt lat="46.77891" lon="-0.4281">
        <ele>170</ele>
        <time>2013-09-29T06:43:59Z</time>
      </trkpt>
      <trkpt lat="46.77885" lon="-0.42809">
        <ele>170</ele>
        <time>2013-09-29T06:44:00Z</time>
      </trkpt>
      <trkpt lat="46.77878" lon="-0.42809">
        <ele>170</ele>
        <time>2013-09-29T06:44:01Z</time>
      </trkpt>
      <trkpt lat="46.77872" lon="-0.42809">
        <ele>170</ele>
        <time>2013-09-29T06:44:02Z</time>
      </trkpt>
      <trkpt lat="46.77827" lon="-0.42805">
        <ele>169</ele>
        <time>2013-09-29T06:44:09Z</time>
      </trkpt>
      <trkpt lat="46.7782" lon="-0.42804">
        <ele>169</ele>
        <time>2013-09-29T06:44:10Z</time>
      </trkpt>
      <trkpt lat="46.77798" lon="-0.42799">
        <ele>168</ele>
        <time>2013-09-29T06:44:13Z</time>
      </trkpt>
      <trkpt lat="46.77759" lon="-0.42786">
        <ele>167</ele>
        <time>2013-09-29T06:44:18Z</time>
      </trkpt>
      <trkpt lat="46.77725" lon="-0.42778">
        <ele>164</ele>
        <time>2013-09-29T06:44:22Z</time>
      </trkpt>
      <trkpt lat="46.7769" lon="-0.42769">
        <ele>163</ele>
        <time>2013-09-29T06:44:26Z</time>
      </trkpt>
      <trkpt lat="46.77651" lon="-0.42753">
        <ele>161</ele>
        <time>2013-09-29T06:44:31Z</time>
      </trkpt>
      <trkpt lat="46.77644" lon="-0.42752">
        <ele>160</ele>
        <time>2013-09-29T06:44:32Z</time>
      </trkpt>
      <trkpt lat="46.77639" lon="-0.42752">
        <ele>160</ele>
        <time>2013-09-29T06:44:33Z</time>
      </trkpt>
      <trkpt lat="46.77633" lon="-0.42752">
        <ele>160</ele>
        <time>2013-09-29T06:44:34Z</time>
      </trkpt>
      <trkpt lat="46.77627" lon="-0.42752">
        <ele>160</ele>
        <time>2013-09-29T06:44:35Z</time>
      </trkpt>
      <trkpt lat="46.77621" lon="-0.42752">
        <ele>160</ele>
        <time>2013-09-29T06:44:36Z</time>
      </trkpt>
      <trkpt lat="46.77609" lon="-0.42753">
        <ele>159</ele>
        <time>2013-09-29T06:44:38Z</time>
      </trkpt>
      <trkpt lat="46.77603" lon="-0.42752">
        <ele>159</ele>
        <time>2013-09-29T06:44:39Z</time>
      </trkpt>
      <trkpt lat="46.77597" lon="-0.42751">
        <ele>158</ele>
        <time>2013-09-29T06:44:40Z</time>
      </trkpt>
      <trkpt lat="46.77569" lon="-0.42732">
        <ele>155</ele>
        <time>2013-09-29T06:44:45Z</time>
      </trkpt>
      <trkpt lat="46.77557" lon="-0.42709">
        <ele>154</ele>
        <time>2013-09-29T06:44:49Z</time>
      </trkpt>
      <trkpt lat="46.77557" lon="-0.42696">
        <ele>154</ele>
        <time>2013-09-29T06:44:51Z</time>
      </trkpt>
      <trkpt lat="46.77538" lon="-0.4267">
        <ele>153</ele>
        <time>2013-09-29T06:44:57Z</time>
      </trkpt>
      <trkpt lat="46.77529" lon="-0.42666">
        <ele>153</ele>
        <time>2013-09-29T06:44:59Z</time>
      </trkpt>
      <trkpt lat="46.77503" lon="-0.42651">
        <ele>152</ele>
        <time>2013-09-29T06:45:06Z</time>
      </trkpt>
      <trkpt lat="46.77453" lon="-0.42637">
        <ele>151</ele>
        <time>2013-09-29T06:45:16Z</time>
      </trkpt>
      <trkpt lat="46.77449" lon="-0.42635">
        <ele>151</ele>
        <time>2013-09-29T06:45:17Z</time>
      </trkpt>
      <trkpt lat="46.77444" lon="-0.42631">
        <ele>151</ele>
        <time>2013-09-29T06:45:18Z</time>
      </trkpt>
      <trkpt lat="46.77441" lon="-0.42627">
        <ele>151</ele>
        <time>2013-09-29T06:45:19Z</time>
      </trkpt>
      <trkpt lat="46.77437" lon="-0.42624">
        <ele>150</ele>
        <time>2013-09-29T06:45:20Z</time>
      </trkpt>
      <trkpt lat="46.77422" lon="-0.42617">
        <ele>150</ele>
        <time>2013-09-29T06:45:24Z</time>
      </trkpt>
      <trkpt lat="46.77378" lon="-0.42595">
        <ele>148</ele>
        <time>2013-09-29T06:45:36Z</time>
      </trkpt>
      <trkpt lat="46.77358" lon="-0.42588">
        <ele>147</ele>
        <time>2013-09-29T06:45:46Z</time>
      </trkpt>
      <trkpt lat="46.77351" lon="-0.42585">
        <ele>147</ele>
        <time>2013-09-29T06:45:57Z</time>
      </trkpt>
      <trkpt lat="46.77341" lon="-0.4258">
        <ele>145</ele>
        <time>2013-09-29T06:46:11Z</time>
      </trkpt>
      <trkpt lat="46.77309" lon="-0.42566">
        <ele>144</ele>
        <time>2013-09-29T06:46:25Z</time>
      </trkpt>
      <trkpt lat="46.77276" lon="-0.42565">
        <ele>144</ele>
        <time>2013-09-29T06:46:35Z</time>
      </trkpt>
      <trkpt lat="46.77271" lon="-0.42566">
        <ele>144</ele>
        <time>2013-09-29T06:46:37Z</time>
      </trkpt>
      <trkpt lat="46.77254" lon="-0.42564">
        <ele>144</ele>
        <time>2013-09-29T06:46:42Z</time>
      </trkpt>
      <trkpt lat="46.77223" lon="-0.42555">
        <ele>143</ele>
        <time>2013-09-29T06:46:50Z</time>
      </trkpt>
      <trkpt lat="46.77193" lon="-0.42539">
        <ele>143</ele>
        <time>2013-09-29T06:47:01Z</time>
      </trkpt>
      <trkpt lat="46.7716" lon="-0.42526">
        <ele>143</ele>
        <time>2013-09-29T06:47:11Z</time>
      </trkpt>
      <trkpt lat="46.77129" lon="-0.42521">
        <ele>144</ele>
        <time>2013-09-29T06:47:21Z</time>
      </trkpt>
      <trkpt lat="46.77121" lon="-0.42526">
        <ele>145</ele>
        <time>2013-09-29T06:47:25Z</time>
      </trkpt>
      <trkpt lat="46.77088" lon="-0.42526">
        <ele>146</ele>
        <time>2013-09-29T06:47:38Z</time>
      </trkpt>
      <trkpt lat="46.77069" lon="-0.42515">
        <ele>149</ele>
        <time>2013-09-29T06:47:48Z</time>
      </trkpt>
      <trkpt lat="46.77045" lon="-0.42505">
        <ele>151</ele>
        <time>2013-09-29T06:48:00Z</time>
      </trkpt>
      <trkpt lat="46.77025" lon="-0.42506">
        <ele>153</ele>
        <time>2013-09-29T06:48:08Z</time>
      </trkpt>
      <trkpt lat="46.77003" lon="-0.42513">
        <ele>155</ele>
        <time>2013-09-29T06:48:17Z</time>
      </trkpt>
      <trkpt lat="46.76985" lon="-0.42516">
        <ele>158</ele>
        <time>2013-09-29T06:48:29Z</time>
      </trkpt>
      <trkpt lat="46.76961" lon="-0.42517">
        <ele>158</ele>
        <time>2013-09-29T06:48:42Z</time>
      </trkpt>
      <trkpt lat="46.76938" lon="-0.42511">
        <ele>160</ele>
        <time>2013-09-29T06:48:54Z</time>
      </trkpt>
      <trkpt lat="46.76911" lon="-0.42499">
        <ele>163</ele>
        <time>2013-09-29T06:49:08Z</time>
      </trkpt>
      <trkpt lat="46.76886" lon="-0.42489">
        <ele>164</ele>
        <time>2013-09-29T06:49:21Z</time>
      </trkpt>
      <trkpt lat="46.76884" lon="-0.42489">
        <ele>164</ele>
        <time>2013-09-29T06:49:22Z</time>
      </trkpt>
      <trkpt lat="46.76856" lon="-0.42477">
        <ele>164</ele>
        <time>2013-09-29T06:49:35Z</time>
      </trkpt>
      <trkpt lat="46.76853" lon="-0.42474">
        <ele>164</ele>
        <time>2013-09-29T06:49:37Z</time>
      </trkpt>
      <trkpt lat="46.76826" lon="-0.42452">
        <ele>163</ele>
        <time>2013-09-29T06:49:51Z</time>
      </trkpt>
      <trkpt lat="46.76816" lon="-0.42454">
        <ele>163</ele>
        <time>2013-09-29T06:49:54Z</time>
      </trkpt>
      <trkpt lat="46.76812" lon="-0.42457">
        <ele>163</ele>
        <time>2013-09-29T06:49:55Z</time>
      </trkpt>
      <trkpt lat="46.76808" lon="-0.42461">
        <ele>163</ele>
        <time>2013-09-29T06:49:56Z</time>
      </trkpt>
      <trkpt lat="46.76804" lon="-0.42466">
        <ele>162</ele>
        <time>2013-09-29T06:49:57Z</time>
      </trkpt>
      <trkpt lat="46.76799" lon="-0.4247">
        <ele>162</ele>
        <time>2013-09-29T06:49:58Z</time>
      </trkpt>
      <trkpt lat="46.76785" lon="-0.42483">
        <ele>162</ele>
        <time>2013-09-29T06:50:01Z</time>
      </trkpt>
      <trkpt lat="46.7678" lon="-0.42486">
        <ele>161</ele>
        <time>2013-09-29T06:50:02Z</time>
      </trkpt>
      <trkpt lat="46.76774" lon="-0.42487">
        <ele>161</ele>
        <time>2013-09-29T06:50:03Z</time>
      </trkpt>
      <trkpt lat="46.76768" lon="-0.42486">
        <ele>161</ele>
        <time>2013-09-29T06:50:04Z</time>
      </trkpt>
      <trkpt lat="46.76761" lon="-0.42485">
        <ele>161</ele>
        <time>2013-09-29T06:50:05Z</time>
      </trkpt>
      <trkpt lat="46.76755" lon="-0.42485">
        <ele>160</ele>
        <time>2013-09-29T06:50:06Z</time>
      </trkpt>
      <trkpt lat="46.76748" lon="-0.42486">
        <ele>159</ele>
        <time>2013-09-29T06:50:07Z</time>
      </trkpt>
      <trkpt lat="46.76741" lon="-0.42487">
        <ele>159</ele>
        <time>2013-09-29T06:50:08Z</time>
      </trkpt>
      <trkpt lat="46.76734" lon="-0.4249">
        <ele>159</ele>
        <time>2013-09-29T06:50:09Z</time>
      </trkpt>
      <trkpt lat="46.76727" lon="-0.42494">
        <ele>159</ele>
        <time>2013-09-29T06:50:10Z</time>
      </trkpt>
      <trkpt lat="46.76722" lon="-0.42498">
        <ele>159</ele>
        <time>2013-09-29T06:50:11Z</time>
      </trkpt>
      <trkpt lat="46.76717" lon="-0.42501">
        <ele>157</ele>
        <time>2013-09-29T06:50:12Z</time>
      </trkpt>
      <trkpt lat="46.76712" lon="-0.425">
        <ele>156</ele>
        <time>2013-09-29T06:50:13Z</time>
      </trkpt>
      <trkpt lat="46.76707" lon="-0.42498">
        <ele>158</ele>
        <time>2013-09-29T06:50:14Z</time>
      </trkpt>
      <trkpt lat="46.76703" lon="-0.42494">
        <ele>158</ele>
        <time>2013-09-29T06:50:15Z</time>
      </trkpt>
      <trkpt lat="46.76699" lon="-0.42491">
        <ele>158</ele>
        <time>2013-09-29T06:50:16Z</time>
      </trkpt>
      <trkpt lat="46.76665" lon="-0.4245">
        <ele>157</ele>
        <time>2013-09-29T06:50:28Z</time>
      </trkpt>
      <trkpt lat="46.76661" lon="-0.42447">
        <ele>157</ele>
        <time>2013-09-29T06:50:29Z</time>
      </trkpt>
      <trkpt lat="46.76658" lon="-0.42443">
        <ele>158</ele>
        <time>2013-09-29T06:50:30Z</time>
      </trkpt>
      <trkpt lat="46.76648" lon="-0.4243">
        <ele>158</ele>
        <time>2013-09-29T06:50:33Z</time>
      </trkpt>
      <trkpt lat="46.76645" lon="-0.42426">
        <ele>158</ele>
        <time>2013-09-29T06:50:34Z</time>
      </trkpt>
      <trkpt lat="46.76627" lon="-0.42406">
        <ele>159</ele>
        <time>2013-09-29T06:50:39Z</time>
      </trkpt>
      <trkpt lat="46.76614" lon="-0.42389">
        <ele>159</ele>
        <time>2013-09-29T06:50:43Z</time>
      </trkpt>
      <trkpt lat="46.76595" lon="-0.42354">
        <ele>160</ele>
        <time>2013-09-29T06:50:50Z</time>
      </trkpt>
      <trkpt lat="46.76593" lon="-0.42349">
        <ele>160</ele>
        <time>2013-09-29T06:50:51Z</time>
      </trkpt>
      <trkpt lat="46.7659" lon="-0.42337">
        <ele>161</ele>
        <time>2013-09-29T06:50:53Z</time>
      </trkpt>
      <trkpt lat="46.76589" lon="-0.42331">
        <ele>161</ele>
        <time>2013-09-29T06:50:54Z</time>
      </trkpt>
      <trkpt lat="46.76588" lon="-0.42325">
        <ele>162</ele>
        <time>2013-09-29T06:50:55Z</time>
      </trkpt>
      <trkpt lat="46.76585" lon="-0.42306">
        <ele>162</ele>
        <time>2013-09-29T06:50:58Z</time>
      </trkpt>
      <trkpt lat="46.76584" lon="-0.42301">
        <ele>162</ele>
        <time>2013-09-29T06:50:59Z</time>
      </trkpt>
      <trkpt lat="46.76582" lon="-0.42296">
        <ele>163</ele>
        <time>2013-09-29T06:51:00Z</time>
      </trkpt>
      <trkpt lat="46.76578" lon="-0.42292">
        <ele>163</ele>
        <time>2013-09-29T06:51:01Z</time>
      </trkpt>
      <trkpt lat="46.76574" lon="-0.4229">
        <ele>163</ele>
        <time>2013-09-29T06:51:02Z</time>
      </trkpt>
      <trkpt lat="46.7657" lon="-0.42288">
        <ele>163</ele>
        <time>2013-09-29T06:51:03Z</time>
      </trkpt>
      <trkpt lat="46.76566" lon="-0.42288">
        <ele>163</ele>
        <time>2013-09-29T06:51:04Z</time>
      </trkpt>
      <trkpt lat="46.76563" lon="-0.42288">
        <ele>163</ele>
        <time>2013-09-29T06:51:05Z</time>
      </trkpt>
      <trkpt lat="46.76534" lon="-0.42281">
        <ele>164</ele>
        <time>2013-09-29T06:51:15Z</time>
      </trkpt>
      <trkpt lat="46.76506" lon="-0.42273">
        <ele>164</ele>
        <time>2013-09-29T06:51:26Z</time>
      </trkpt>
      <trkpt lat="46.7648" lon="-0.42262">
        <ele>165</ele>
        <time>2013-09-29T06:51:37Z</time>
      </trkpt>
      <trkpt lat="46.76476" lon="-0.42261">
        <ele>165</ele>
        <time>2013-09-29T06:51:39Z</time>
      </trkpt>
      <trkpt lat="46.76474" lon="-0.42261">
        <ele>165</ele>
        <time>2013-09-29T06:51:40Z</time>
      </trkpt>
      <trkpt lat="46.76455" lon="-0.42262">
        <ele>166</ele>
        <time>2013-09-29T06:51:51Z</time>
      </trkpt>
      <trkpt lat="46.76432" lon="-0.42277">
        <ele>166</ele>
        <time>2013-09-29T06:52:02Z</time>
      </trkpt>
      <trkpt lat="46.76423" lon="-0.42285">
        <ele>166</ele>
        <time>2013-09-29T06:52:07Z</time>
      </trkpt>
      <trkpt lat="46.76399" lon="-0.42277">
        <ele>169</ele>
        <time>2013-09-29T06:52:19Z</time>
      </trkpt>
      <trkpt lat="46.76383" lon="-0.42264">
        <ele>169</ele>
        <time>2013-09-29T06:52:26Z</time>
      </trkpt>
      <trkpt lat="46.76366" lon="-0.42258">
        <ele>170</ele>
        <time>2013-09-29T06:52:34Z</time>
      </trkpt>
      <trkpt lat="46.76364" lon="-0.42256">
        <ele>170</ele>
        <time>2013-09-29T06:52:35Z</time>
      </trkpt>
      <trkpt lat="46.76362" lon="-0.42255">
        <ele>170</ele>
        <time>2013-09-29T06:52:36Z</time>
      </trkpt>
      <trkpt lat="46.76361" lon="-0.42254">
        <ele>170</ele>
        <time>2013-09-29T06:52:37Z</time>
      </trkpt>
      <trkpt lat="46.76358" lon="-0.42253">
        <ele>171</ele>
        <time>2013-09-29T06:52:38Z</time>
      </trkpt>
      <trkpt lat="46.76356" lon="-0.42252">
        <ele>171</ele>
        <time>2013-09-29T06:52:39Z</time>
      </trkpt>
      <trkpt lat="46.76328" lon="-0.4224">
        <ele>174</ele>
        <time>2013-09-29T06:52:51Z</time>
      </trkpt>
      <trkpt lat="46.7631" lon="-0.42233">
        <ele>175</ele>
        <time>2013-09-29T06:53:02Z</time>
      </trkpt>
      <trkpt lat="46.76308" lon="-0.42231">
        <ele>175</ele>
        <time>2013-09-29T06:53:03Z</time>
      </trkpt>
      <trkpt lat="46.76306" lon="-0.42229">
        <ele>175</ele>
        <time>2013-09-29T06:53:04Z</time>
      </trkpt>
      <trkpt lat="46.76304" lon="-0.42228">
        <ele>175</ele>
        <time>2013-09-29T06:53:05Z</time>
      </trkpt>
      <trkpt lat="46.76292" lon="-0.42219">
        <ele>176</ele>
        <time>2013-09-29T06:53:12Z</time>
      </trkpt>
      <trkpt lat="46.7629" lon="-0.42217">
        <ele>176</ele>
        <time>2013-09-29T06:53:13Z</time>
      </trkpt>
      <trkpt lat="46.7629" lon="-0.42215">
        <ele>176</ele>
        <time>2013-09-29T06:53:14Z</time>
      </trkpt>
      <trkpt lat="46.76288" lon="-0.42214">
        <ele>176</ele>
        <time>2013-09-29T06:53:15Z</time>
      </trkpt>
      <trkpt lat="46.76286" lon="-0.42212">
        <ele>176</ele>
        <time>2013-09-29T06:53:16Z</time>
      </trkpt>
      <trkpt lat="46.76284" lon="-0.42211">
        <ele>176</ele>
        <time>2013-09-29T06:53:17Z</time>
      </trkpt>
      <trkpt lat="46.76282" lon="-0.42209">
        <ele>176</ele>
        <time>2013-09-29T06:53:18Z</time>
      </trkpt>
      <trkpt lat="46.76279" lon="-0.42208">
        <ele>176</ele>
        <time>2013-09-29T06:53:19Z</time>
      </trkpt>
      <trkpt lat="46.76278" lon="-0.42206">
        <ele>176</ele>
        <time>2013-09-29T06:53:20Z</time>
      </trkpt>
      <trkpt lat="46.76276" lon="-0.42205">
        <ele>176</ele>
        <time>2013-09-29T06:53:21Z</time>
      </trkpt>
      <trkpt lat="46.76274" lon="-0.42204">
        <ele>176</ele>
        <time>2013-09-29T06:53:22Z</time>
      </trkpt>
      <trkpt lat="46.76273" lon="-0.42204">
        <ele>176</ele>
        <time>2013-09-29T06:53:23Z</time>
      </trkpt>
      <trkpt lat="46.76256" lon="-0.42193">
        <ele>177</ele>
        <time>2013-09-29T06:53:33Z</time>
      </trkpt>
      <trkpt lat="46.76254" lon="-0.42192">
        <ele>177</ele>
        <time>2013-09-29T06:53:34Z</time>
      </trkpt>
      <trkpt lat="46.76227" lon="-0.42178">
        <ele>179</ele>
        <time>2013-09-29T06:53:47Z</time>
      </trkpt>
      <trkpt lat="46.76221" lon="-0.42172">
        <ele>179</ele>
        <time>2013-09-29T06:53:51Z</time>
      </trkpt>
      <trkpt lat="46.76221" lon="-0.4217">
        <ele>179</ele>
        <time>2013-09-29T06:53:52Z</time>
      </trkpt>
      <trkpt lat="46.76219" lon="-0.42169">
        <ele>179</ele>
        <time>2013-09-29T06:53:53Z</time>
      </trkpt>
      <trkpt lat="46.76218" lon="-0.42167">
        <ele>179</ele>
        <time>2013-09-29T06:53:54Z</time>
      </trkpt>
      <trkpt lat="46.76216" lon="-0.42166">
        <ele>181</ele>
        <time>2013-09-29T06:53:55Z</time>
      </trkpt>
      <trkpt lat="46.76214" lon="-0.42164">
        <ele>181</ele>
        <time>2013-09-29T06:53:56Z</time>
      </trkpt>
      <trkpt lat="46.76213" lon="-0.42163">
        <ele>181</ele>
        <time>2013-09-29T06:53:57Z</time>
      </trkpt>
      <trkpt lat="46.76198" lon="-0.42145">
        <ele>182</ele>
        <time>2013-09-29T06:54:07Z</time>
      </trkpt>
      <trkpt lat="46.76196" lon="-0.4214">
        <ele>182</ele>
        <time>2013-09-29T06:54:09Z</time>
      </trkpt>
      <trkpt lat="46.76194" lon="-0.42138">
        <ele>182</ele>
        <time>2013-09-29T06:54:10Z</time>
      </trkpt>
      <trkpt lat="46.76193" lon="-0.42136">
        <ele>182</ele>
        <time>2013-09-29T06:54:11Z</time>
      </trkpt>
      <trkpt lat="46.76191" lon="-0.42134">
        <ele>182</ele>
        <time>2013-09-29T06:54:12Z</time>
      </trkpt>
      <trkpt lat="46.7619" lon="-0.42132">
        <ele>182</ele>
        <time>2013-09-29T06:54:13Z</time>
      </trkpt>
      <trkpt lat="46.76188" lon="-0.42129">
        <ele>182</ele>
        <time>2013-09-29T06:54:14Z</time>
      </trkpt>
      <trkpt lat="46.76187" lon="-0.42126">
        <ele>182</ele>
        <time>2013-09-29T06:54:15Z</time>
      </trkpt>
      <trkpt lat="46.76186" lon="-0.42124">
        <ele>182</ele>
        <time>2013-09-29T06:54:16Z</time>
      </trkpt>
      <trkpt lat="46.76185" lon="-0.42122">
        <ele>182</ele>
        <time>2013-09-29T06:54:17Z</time>
      </trkpt>
      <trkpt lat="46.76173" lon="-0.4211">
        <ele>182</ele>
        <time>2013-09-29T06:54:23Z</time>
      </trkpt>
      <trkpt lat="46.76172" lon="-0.42107">
        <ele>182</ele>
        <time>2013-09-29T06:54:24Z</time>
      </trkpt>
      <trkpt lat="46.76171" lon="-0.42105">
        <ele>182</ele>
        <time>2013-09-29T06:54:25Z</time>
      </trkpt>
      <trkpt lat="46.76171" lon="-0.42103">
        <ele>182</ele>
        <time>2013-09-29T06:54:26Z</time>
      </trkpt>
      <trkpt lat="46.7617" lon="-0.42101">
        <ele>182</ele>
        <time>2013-09-29T06:54:27Z</time>
      </trkpt>
      <trkpt lat="46.76168" lon="-0.42099">
        <ele>182</ele>
        <time>2013-09-29T06:54:28Z</time>
      </trkpt>
      <trkpt lat="46.76158" lon="-0.42072">
        <ele>184</ele>
        <time>2013-09-29T06:54:40Z</time>
      </trkpt>
      <trkpt lat="46.76143" lon="-0.42033">
        <ele>186</ele>
        <time>2013-09-29T06:54:54Z</time>
      </trkpt>
      <trkpt lat="46.76139" lon="-0.42021">
        <ele>186</ele>
        <time>2013-09-29T06:54:59Z</time>
      </trkpt>
      <trkpt lat="46.76139" lon="-0.42019">
        <ele>186</ele>
        <time>2013-09-29T06:55:00Z</time>
      </trkpt>
      <trkpt lat="46.76138" lon="-0.42017">
        <ele>186</ele>
        <time>2013-09-29T06:55:01Z</time>
      </trkpt>
      <trkpt lat="46.76138" lon="-0.42015">
        <ele>186</ele>
        <time>2013-09-29T06:55:02Z</time>
      </trkpt>
      <trkpt lat="46.76137" lon="-0.42013">
        <ele>186</ele>
        <time>2013-09-29T06:55:03Z</time>
      </trkpt>
      <trkpt lat="46.76136" lon="-0.42011">
        <ele>186</ele>
        <time>2013-09-29T06:55:04Z</time>
      </trkpt>
      <trkpt lat="46.76135" lon="-0.42008">
        <ele>186</ele>
        <time>2013-09-29T06:55:05Z</time>
      </trkpt>
      <trkpt lat="46.76134" lon="-0.42006">
        <ele>186</ele>
        <time>2013-09-29T06:55:06Z</time>
      </trkpt>
      <trkpt lat="46.76134" lon="-0.42004">
        <ele>186</ele>
        <time>2013-09-29T06:55:07Z</time>
      </trkpt>
      <trkpt lat="46.76133" lon="-0.42001">
        <ele>186</ele>
        <time>2013-09-29T06:55:08Z</time>
      </trkpt>
      <trkpt lat="46.76132" lon="-0.41999">
        <ele>187</ele>
        <time>2013-09-29T06:55:09Z</time>
      </trkpt>
      <trkpt lat="46.7613" lon="-0.41996">
        <ele>187</ele>
        <time>2013-09-29T06:55:10Z</time>
      </trkpt>
      <trkpt lat="46.76129" lon="-0.41993">
        <ele>187</ele>
        <time>2013-09-29T06:55:11Z</time>
      </trkpt>
      <trkpt lat="46.76128" lon="-0.4199">
        <ele>188</ele>
        <time>2013-09-29T06:55:12Z</time>
      </trkpt>
      <trkpt lat="46.76111" lon="-0.41941">
        <ele>188</ele>
        <time>2013-09-29T06:55:25Z</time>
      </trkpt>
      <trkpt lat="46.7609" lon="-0.41884">
        <ele>188</ele>
        <time>2013-09-29T06:55:37Z</time>
      </trkpt>
      <trkpt lat="46.76057" lon="-0.41806">
        <ele>187</ele>
        <time>2013-09-29T06:55:50Z</time>
      </trkpt>
      <trkpt lat="46.76017" lon="-0.41723">
        <ele>185</ele>
        <time>2013-09-29T06:56:03Z</time>
      </trkpt>
      <trkpt lat="46.75985" lon="-0.41687">
        <ele>186</ele>
        <time>2013-09-29T06:56:11Z</time>
      </trkpt>
      <trkpt lat="46.7598" lon="-0.41684">
        <ele>186</ele>
        <time>2013-09-29T06:56:12Z</time>
      </trkpt>
      <trkpt lat="46.75963" lon="-0.41677">
        <ele>186</ele>
        <time>2013-09-29T06:56:16Z</time>
      </trkpt>
      <trkpt lat="46.7596" lon="-0.41678">
        <ele>186</ele>
        <time>2013-09-29T06:56:17Z</time>
      </trkpt>
      <trkpt lat="46.75956" lon="-0.4168">
        <ele>186</ele>
        <time>2013-09-29T06:56:18Z</time>
      </trkpt>
      <trkpt lat="46.75953" lon="-0.41681">
        <ele>186</ele>
        <time>2013-09-29T06:56:19Z</time>
      </trkpt>
      <trkpt lat="46.75949" lon="-0.41681">
        <ele>186</ele>
        <time>2013-09-29T06:56:20Z</time>
      </trkpt>
      <trkpt lat="46.75946" lon="-0.41681">
        <ele>187</ele>
        <time>2013-09-29T06:56:21Z</time>
      </trkpt>
      <trkpt lat="46.75912" lon="-0.41681">
        <ele>187</ele>
        <time>2013-09-29T06:56:31Z</time>
      </trkpt>
      <trkpt lat="46.75872" lon="-0.41689">
        <ele>187</ele>
        <time>2013-09-29T06:56:45Z</time>
      </trkpt>
      <trkpt lat="46.75832" lon="-0.41693">
        <ele>186</ele>
        <time>2013-09-29T06:56:56Z</time>
      </trkpt>
      <trkpt lat="46.75791" lon="-0.41699">
        <ele>186</ele>
        <time>2013-09-29T06:57:08Z</time>
      </trkpt>
      <trkpt lat="46.75751" lon="-0.41711">
        <ele>186</ele>
        <time>2013-09-29T06:57:19Z</time>
      </trkpt>
      <trkpt lat="46.75711" lon="-0.41715">
        <ele>185</ele>
        <time>2013-09-29T06:57:30Z</time>
      </trkpt>
      <trkpt lat="46.75663" lon="-0.4173">
        <ele>184</ele>
        <time>2013-09-29T06:57:43Z</time>
      </trkpt>
      <trkpt lat="46.75656" lon="-0.41734">
        <ele>184</ele>
        <time>2013-09-29T06:57:45Z</time>
      </trkpt>
      <trkpt lat="46.75652" lon="-0.41737">
        <ele>184</ele>
        <time>2013-09-29T06:57:46Z</time>
      </trkpt>
      <trkpt lat="46.7559" lon="-0.41777">
        <ele>183</ele>
        <time>2013-09-29T06:58:01Z</time>
      </trkpt>
      <trkpt lat="46.75527" lon="-0.41826">
        <ele>183</ele>
        <time>2013-09-29T06:58:15Z</time>
      </trkpt>
      <trkpt lat="46.75491" lon="-0.41843">
        <ele>182</ele>
        <time>2013-09-29T06:58:23Z</time>
      </trkpt>
      <trkpt lat="46.75453" lon="-0.41858">
        <ele>181</ele>
        <time>2013-09-29T06:58:33Z</time>
      </trkpt>
      <trkpt lat="46.75449" lon="-0.41861">
        <ele>181</ele>
        <time>2013-09-29T06:58:34Z</time>
      </trkpt>
      <trkpt lat="46.75445" lon="-0.41864">
        <ele>181</ele>
        <time>2013-09-29T06:58:35Z</time>
      </trkpt>
      <trkpt lat="46.75424" lon="-0.41874">
        <ele>181</ele>
        <time>2013-09-29T06:58:39Z</time>
      </trkpt>
      <trkpt lat="46.75419" lon="-0.41876">
        <ele>181</ele>
        <time>2013-09-29T06:58:40Z</time>
      </trkpt>
      <trkpt lat="46.75414" lon="-0.41879">
        <ele>181</ele>
        <time>2013-09-29T06:58:41Z</time>
      </trkpt>
      <trkpt lat="46.7538" lon="-0.419">
        <ele>181</ele>
        <time>2013-09-29T06:58:49Z</time>
      </trkpt>
      <trkpt lat="46.75375" lon="-0.41903">
        <ele>181</ele>
        <time>2013-09-29T06:58:50Z</time>
      </trkpt>
      <trkpt lat="46.75371" lon="-0.41906">
        <ele>181</ele>
        <time>2013-09-29T06:58:51Z</time>
      </trkpt>
      <trkpt lat="46.75366" lon="-0.41909">
        <ele>181</ele>
        <time>2013-09-29T06:58:52Z</time>
      </trkpt>
      <trkpt lat="46.75362" lon="-0.41912">
        <ele>181</ele>
        <time>2013-09-29T06:58:53Z</time>
      </trkpt>
      <trkpt lat="46.75357" lon="-0.41915">
        <ele>181</ele>
        <time>2013-09-29T06:58:54Z</time>
      </trkpt>
      <trkpt lat="46.75353" lon="-0.41917">
        <ele>180</ele>
        <time>2013-09-29T06:58:55Z</time>
      </trkpt>
      <trkpt lat="46.75348" lon="-0.4192">
        <ele>180</ele>
        <time>2013-09-29T06:58:56Z</time>
      </trkpt>
      <trkpt lat="46.75284" lon="-0.4196">
        <ele>181</ele>
        <time>2013-09-29T06:59:11Z</time>
      </trkpt>
      <trkpt lat="46.75261" lon="-0.41974">
        <ele>182</ele>
        <time>2013-09-29T06:59:16Z</time>
      </trkpt>
      <trkpt lat="46.75244" lon="-0.41985">
        <ele>183</ele>
        <time>2013-09-29T06:59:20Z</time>
      </trkpt>
      <trkpt lat="46.7524" lon="-0.41987">
        <ele>183</ele>
        <time>2013-09-29T06:59:21Z</time>
      </trkpt>
      <trkpt lat="46.75215" lon="-0.42004">
        <ele>184</ele>
        <time>2013-09-29T06:59:27Z</time>
      </trkpt>
      <trkpt lat="46.75211" lon="-0.42007">
        <ele>184</ele>
        <time>2013-09-29T06:59:28Z</time>
      </trkpt>
      <trkpt lat="46.75181" lon="-0.42027">
        <ele>184</ele>
        <time>2013-09-29T06:59:35Z</time>
      </trkpt>
      <trkpt lat="46.75156" lon="-0.42058">
        <ele>185</ele>
        <time>2013-09-29T06:59:42Z</time>
      </trkpt>
      <trkpt lat="46.7515" lon="-0.42068">
        <ele>185</ele>
        <time>2013-09-29T06:59:44Z</time>
      </trkpt>
      <trkpt lat="46.75148" lon="-0.42074">
        <ele>185</ele>
        <time>2013-09-29T06:59:45Z</time>
      </trkpt>
      <trkpt lat="46.75137" lon="-0.42121">
        <ele>187</ele>
        <time>2013-09-29T06:59:55Z</time>
      </trkpt>
      <trkpt lat="46.75133" lon="-0.4213">
        <ele>187</ele>
        <time>2013-09-29T06:59:57Z</time>
      </trkpt>
      <trkpt lat="46.7513" lon="-0.42133">
        <ele>188</ele>
        <time>2013-09-29T06:59:58Z</time>
      </trkpt>
      <trkpt lat="46.75126" lon="-0.42135">
        <ele>188</ele>
        <time>2013-09-29T06:59:59Z</time>
      </trkpt>
      <trkpt lat="46.75123" lon="-0.42136">
        <ele>188</ele>
        <time>2013-09-29T07:00:00Z</time>
      </trkpt>
      <trkpt lat="46.75119" lon="-0.42136">
        <ele>188</ele>
        <time>2013-09-29T07:00:01Z</time>
      </trkpt>
      <trkpt lat="46.75115" lon="-0.42137">
        <ele>188</ele>
        <time>2013-09-29T07:00:02Z</time>
      </trkpt>
      <trkpt lat="46.75112" lon="-0.42139">
        <ele>188</ele>
        <time>2013-09-29T07:00:03Z</time>
      </trkpt>
      <trkpt lat="46.75074" lon="-0.42152">
        <ele>190</ele>
        <time>2013-09-29T07:00:15Z</time>
      </trkpt>
      <trkpt lat="46.75038" lon="-0.42169">
        <ele>192</ele>
        <time>2013-09-29T07:00:27Z</time>
      </trkpt>
      <trkpt lat="46.75004" lon="-0.42182">
        <ele>193</ele>
        <time>2013-09-29T07:00:37Z</time>
      </trkpt>
      <trkpt lat="46.74979" lon="-0.42191">
        <ele>194</ele>
        <time>2013-09-29T07:00:47Z</time>
      </trkpt>
      <trkpt lat="46.74967" lon="-0.42206">
        <ele>194</ele>
        <time>2013-09-29T07:00:53Z</time>
      </trkpt>
      <trkpt lat="46.74961" lon="-0.42212">
        <ele>194</ele>
        <time>2013-09-29T07:01:03Z</time>
      </trkpt>
      <trkpt lat="46.74959" lon="-0.42216">
        <ele>194</ele>
        <time>2013-09-29T07:01:06Z</time>
      </trkpt>
      <trkpt lat="46.74955" lon="-0.42219">
        <ele>194</ele>
        <time>2013-09-29T07:01:13Z</time>
      </trkpt>
      <trkpt lat="46.74934" lon="-0.42237">
        <ele>196</ele>
        <time>2013-09-29T07:01:24Z</time>
      </trkpt>
      <trkpt lat="46.74909" lon="-0.42249">
        <ele>197</ele>
        <time>2013-09-29T07:01:34Z</time>
      </trkpt>
      <trkpt lat="46.74882" lon="-0.42275">
        <ele>198</ele>
        <time>2013-09-29T07:01:43Z</time>
      </trkpt>
      <trkpt lat="46.74869" lon="-0.42299">
        <ele>199</ele>
        <time>2013-09-29T07:01:51Z</time>
      </trkpt>
      <trkpt lat="46.74845" lon="-0.42324">
        <ele>199</ele>
        <time>2013-09-29T07:02:03Z</time>
      </trkpt>
      <trkpt lat="46.7484" lon="-0.42327">
        <ele>199</ele>
        <time>2013-09-29T07:02:06Z</time>
      </trkpt>
      <trkpt lat="46.74834" lon="-0.4233">
        <ele>199</ele>
        <time>2013-09-29T07:02:10Z</time>
      </trkpt>
      <trkpt lat="46.74825" lon="-0.42341">
        <ele>199</ele>
        <time>2013-09-29T07:02:25Z</time>
      </trkpt>
      <trkpt lat="46.74824" lon="-0.42341">
        <ele>199</ele>
        <time>2013-09-29T07:02:36Z</time>
      </trkpt>
      <trkpt lat="46.74816" lon="-0.42349">
        <ele>199</ele>
        <time>2013-09-29T07:02:41Z</time>
      </trkpt>
      <trkpt lat="46.748" lon="-0.4236">
        <ele>199</ele>
        <time>2013-09-29T07:02:49Z</time>
      </trkpt>
      <trkpt lat="46.74796" lon="-0.42361">
        <ele>198</ele>
        <time>2013-09-29T07:02:51Z</time>
      </trkpt>
      <trkpt lat="46.74778" lon="-0.42377">
        <ele>198</ele>
        <time>2013-09-29T07:03:00Z</time>
      </trkpt>
      <trkpt lat="46.7474" lon="-0.42401">
        <ele>198</ele>
        <time>2013-09-29T07:03:12Z</time>
      </trkpt>
      <trkpt lat="46.7473" lon="-0.42405">
        <ele>198</ele>
        <time>2013-09-29T07:03:16Z</time>
      </trkpt>
      <trkpt lat="46.74721" lon="-0.4241">
        <ele>198</ele>
        <time>2013-09-29T07:03:21Z</time>
      </trkpt>
      <trkpt lat="46.74694" lon="-0.42428">
        <ele>198</ele>
        <time>2013-09-29T07:03:32Z</time>
      </trkpt>
      <trkpt lat="46.74667" lon="-0.42448">
        <ele>198</ele>
        <time>2013-09-29T07:03:44Z</time>
      </trkpt>
      <trkpt lat="46.74631" lon="-0.42472">
        <ele>199</ele>
        <time>2013-09-29T07:03:58Z</time>
      </trkpt>
      <trkpt lat="46.74609" lon="-0.42491">
        <ele>200</ele>
        <time>2013-09-29T07:04:04Z</time>
      </trkpt>
      <trkpt lat="46.74605" lon="-0.42493">
        <ele>200</ele>
        <time>2013-09-29T07:04:05Z</time>
      </trkpt>
      <trkpt lat="46.74601" lon="-0.42494">
        <ele>200</ele>
        <time>2013-09-29T07:04:06Z</time>
      </trkpt>
      <trkpt lat="46.74597" lon="-0.42496">
        <ele>200</ele>
        <time>2013-09-29T07:04:07Z</time>
      </trkpt>
      <trkpt lat="46.74593" lon="-0.42497">
        <ele>200</ele>
        <time>2013-09-29T07:04:08Z</time>
      </trkpt>
      <trkpt lat="46.74589" lon="-0.42498">
        <ele>201</ele>
        <time>2013-09-29T07:04:09Z</time>
      </trkpt>
      <trkpt lat="46.74585" lon="-0.42499">
        <ele>201</ele>
        <time>2013-09-29T07:04:10Z</time>
      </trkpt>
      <trkpt lat="46.74582" lon="-0.42501">
        <ele>201</ele>
        <time>2013-09-29T07:04:11Z</time>
      </trkpt>
      <trkpt lat="46.74541" lon="-0.42523">
        <ele>200</ele>
        <time>2013-09-29T07:04:24Z</time>
      </trkpt>
      <trkpt lat="46.74512" lon="-0.4254">
        <ele>200</ele>
        <time>2013-09-29T07:04:35Z</time>
      </trkpt>
      <trkpt lat="46.74467" lon="-0.42563">
        <ele>199</ele>
        <time>2013-09-29T07:04:49Z</time>
      </trkpt>
      <trkpt lat="46.74416" lon="-0.42601">
        <ele>197</ele>
        <time>2013-09-29T07:05:03Z</time>
      </trkpt>
      <trkpt lat="46.74404" lon="-0.42615">
        <ele>196</ele>
        <time>2013-09-29T07:05:06Z</time>
      </trkpt>
      <trkpt lat="46.744" lon="-0.42617">
        <ele>196</ele>
        <time>2013-09-29T07:05:07Z</time>
      </trkpt>
      <trkpt lat="46.7439" lon="-0.42606">
        <ele>196</ele>
        <time>2013-09-29T07:05:10Z</time>
      </trkpt>
      <trkpt lat="46.74387" lon="-0.426">
        <ele>196</ele>
        <time>2013-09-29T07:05:11Z</time>
      </trkpt>
      <trkpt lat="46.74385" lon="-0.42594">
        <ele>196</ele>
        <time>2013-09-29T07:05:12Z</time>
      </trkpt>
      <trkpt lat="46.74379" lon="-0.4258">
        <ele>194</ele>
        <time>2013-09-29T07:05:17Z</time>
      </trkpt>
      <trkpt lat="46.74378" lon="-0.42553">
        <ele>194</ele>
        <time>2013-09-29T07:05:26Z</time>
      </trkpt>
      <trkpt lat="46.74364" lon="-0.42512">
        <ele>192</ele>
        <time>2013-09-29T07:05:35Z</time>
      </trkpt>
      <trkpt lat="46.74361" lon="-0.42492">
        <ele>189</ele>
        <time>2013-09-29T07:05:40Z</time>
      </trkpt>
      <trkpt lat="46.74357" lon="-0.4248">
        <ele>189</ele>
        <time>2013-09-29T07:05:43Z</time>
      </trkpt>
      <trkpt lat="46.74376" lon="-0.42438">
        <ele>188</ele>
        <time>2013-09-29T07:05:51Z</time>
      </trkpt>
      <trkpt lat="46.74378" lon="-0.42433">
        <ele>188</ele>
        <time>2013-09-29T07:05:52Z</time>
      </trkpt>
      <trkpt lat="46.74407" lon="-0.42382">
        <ele>184</ele>
        <time>2013-09-29T07:06:05Z</time>
      </trkpt>
      <trkpt lat="46.74401" lon="-0.42327">
        <ele>181</ele>
        <time>2013-09-29T07:06:18Z</time>
      </trkpt>
      <trkpt lat="46.74385" lon="-0.42297">
        <ele>180</ele>
        <time>2013-09-29T07:06:26Z</time>
      </trkpt>
      <trkpt lat="46.7438" lon="-0.42288">
        <ele>180</ele>
        <time>2013-09-29T07:06:33Z</time>
      </trkpt>
      <trkpt lat="46.7438" lon="-0.42287">
        <ele>180</ele>
        <time>2013-09-29T07:06:39Z</time>
      </trkpt>
      <trkpt lat="46.74367" lon="-0.42289">
        <ele>179</ele>
        <time>2013-09-29T07:06:45Z</time>
      </trkpt>
      <trkpt lat="46.74364" lon="-0.42291">
        <ele>179</ele>
        <time>2013-09-29T07:06:46Z</time>
      </trkpt>
      <trkpt lat="46.74355" lon="-0.42274">
        <ele>179</ele>
        <time>2013-09-29T07:06:51Z</time>
      </trkpt>
      <trkpt lat="46.74365" lon="-0.42238">
        <ele>177</ele>
        <time>2013-09-29T07:07:03Z</time>
      </trkpt>
      <trkpt lat="46.7436" lon="-0.42199">
        <ele>177</ele>
        <time>2013-09-29T07:07:16Z</time>
      </trkpt>
      <trkpt lat="46.74342" lon="-0.42152">
        <ele>176</ele>
        <time>2013-09-29T07:07:28Z</time>
      </trkpt>
      <trkpt lat="46.7434" lon="-0.42129">
        <ele>177</ele>
        <time>2013-09-29T07:07:37Z</time>
      </trkpt>
      <trkpt lat="46.7434" lon="-0.42126">
        <ele>177</ele>
        <time>2013-09-29T07:07:47Z</time>
      </trkpt>
      <trkpt lat="46.74327" lon="-0.42105">
        <ele>174</ele>
        <time>2013-09-29T07:07:53Z</time>
      </trkpt>
      <trkpt lat="46.74295" lon="-0.42057">
        <ele>173</ele>
        <time>2013-09-29T07:08:06Z</time>
      </trkpt>
      <trkpt lat="46.74283" lon="-0.42002">
        <ele>172</ele>
        <time>2013-09-29T07:08:18Z</time>
      </trkpt>
      <trkpt lat="46.74272" lon="-0.4194">
        <ele>172</ele>
        <time>2013-09-29T07:08:31Z</time>
      </trkpt>
      <trkpt lat="46.74267" lon="-0.41915">
        <ele>172</ele>
        <time>2013-09-29T07:08:35Z</time>
      </trkpt>
      <trkpt lat="46.74266" lon="-0.41908">
        <ele>172</ele>
        <time>2013-09-29T07:08:36Z</time>
      </trkpt>
      <trkpt lat="46.74262" lon="-0.41885">
        <ele>173</ele>
        <time>2013-09-29T07:08:39Z</time>
      </trkpt>
      <trkpt lat="46.74249" lon="-0.41797">
        <ele>168</ele>
        <time>2013-09-29T07:08:51Z</time>
      </trkpt>
      <trkpt lat="46.74234" lon="-0.41698">
        <ele>168</ele>
        <time>2013-09-29T07:09:04Z</time>
      </trkpt>
      <trkpt lat="46.74225" lon="-0.41659">
        <ele>167</ele>
        <time>2013-09-29T07:09:10Z</time>
      </trkpt>
      <trkpt lat="46.74221" lon="-0.41659">
        <ele>167</ele>
        <time>2013-09-29T07:09:11Z</time>
      </trkpt>
      <trkpt lat="46.74218" lon="-0.41661">
        <ele>167</ele>
        <time>2013-09-29T07:09:12Z</time>
      </trkpt>
      <trkpt lat="46.74214" lon="-0.41664">
        <ele>167</ele>
        <time>2013-09-29T07:09:13Z</time>
      </trkpt>
      <trkpt lat="46.7421" lon="-0.41665">
        <ele>166</ele>
        <time>2013-09-29T07:09:14Z</time>
      </trkpt>
      <trkpt lat="46.74206" lon="-0.41668">
        <ele>167</ele>
        <time>2013-09-29T07:09:15Z</time>
      </trkpt>
      <trkpt lat="46.74202" lon="-0.4167">
        <ele>167</ele>
        <time>2013-09-29T07:09:16Z</time>
      </trkpt>
      <trkpt lat="46.74126" lon="-0.41717">
        <ele>163</ele>
        <time>2013-09-29T07:09:30Z</time>
      </trkpt>
      <trkpt lat="46.74056" lon="-0.41776">
        <ele>161</ele>
        <time>2013-09-29T07:09:42Z</time>
      </trkpt>
      <trkpt lat="46.74044" lon="-0.41788">
        <ele>161</ele>
        <time>2013-09-29T07:09:44Z</time>
      </trkpt>
      <trkpt lat="46.7398" lon="-0.41832">
        <ele>161</ele>
        <time>2013-09-29T07:09:56Z</time>
      </trkpt>
      <trkpt lat="46.73976" lon="-0.41835">
        <ele>162</ele>
        <time>2013-09-29T07:09:57Z</time>
      </trkpt>
      <trkpt lat="46.73972" lon="-0.41838">
        <ele>162</ele>
        <time>2013-09-29T07:09:58Z</time>
      </trkpt>
      <trkpt lat="46.73968" lon="-0.41841">
        <ele>162</ele>
        <time>2013-09-29T07:09:59Z</time>
      </trkpt>
      <trkpt lat="46.73964" lon="-0.41842">
        <ele>162</ele>
        <time>2013-09-29T07:10:00Z</time>
      </trkpt>
      <trkpt lat="46.7396" lon="-0.41845">
        <ele>162</ele>
        <time>2013-09-29T07:10:01Z</time>
      </trkpt>
      <trkpt lat="46.73956" lon="-0.41848">
        <ele>162</ele>
        <time>2013-09-29T07:10:02Z</time>
      </trkpt>
      <trkpt lat="46.73952" lon="-0.41851">
        <ele>162</ele>
        <time>2013-09-29T07:10:03Z</time>
      </trkpt>
      <trkpt lat="46.73949" lon="-0.41854">
        <ele>162</ele>
        <time>2013-09-29T07:10:04Z</time>
      </trkpt>
      <trkpt lat="46.73945" lon="-0.41857">
        <ele>162</ele>
        <time>2013-09-29T07:10:05Z</time>
      </trkpt>
      <trkpt lat="46.73941" lon="-0.41859">
        <ele>162</ele>
        <time>2013-09-29T07:10:06Z</time>
      </trkpt>
      <trkpt lat="46.73937" lon="-0.41862">
        <ele>162</ele>
        <time>2013-09-29T07:10:07Z</time>
      </trkpt>
      <trkpt lat="46.73933" lon="-0.41865">
        <ele>162</ele>
        <time>2013-09-29T07:10:08Z</time>
      </trkpt>
      <trkpt lat="46.73911" lon="-0.41882">
        <ele>161</ele>
        <time>2013-09-29T07:10:13Z</time>
      </trkpt>
      <trkpt lat="46.73907" lon="-0.41885">
        <ele>161</ele>
        <time>2013-09-29T07:10:14Z</time>
      </trkpt>
      <trkpt lat="46.73898" lon="-0.41891">
        <ele>161</ele>
        <time>2013-09-29T07:10:16Z</time>
      </trkpt>
      <trkpt lat="46.73889" lon="-0.41896">
        <ele>161</ele>
        <time>2013-09-29T07:10:18Z</time>
      </trkpt>
      <trkpt lat="46.7386" lon="-0.41914">
        <ele>161</ele>
        <time>2013-09-29T07:10:24Z</time>
      </trkpt>
      <trkpt lat="46.73857" lon="-0.41916">
        <ele>161</ele>
        <time>2013-09-29T07:10:25Z</time>
      </trkpt>
      <trkpt lat="46.73833" lon="-0.41918">
        <ele>161</ele>
        <time>2013-09-29T07:10:33Z</time>
      </trkpt>
      <trkpt lat="46.73831" lon="-0.41917">
        <ele>161</ele>
        <time>2013-09-29T07:10:34Z</time>
      </trkpt>
      <trkpt lat="46.73803" lon="-0.41923">
        <ele>161</ele>
        <time>2013-09-29T07:10:44Z</time>
      </trkpt>
      <trkpt lat="46.73775" lon="-0.41923">
        <ele>161</ele>
        <time>2013-09-29T07:10:53Z</time>
      </trkpt>
      <trkpt lat="46.73747" lon="-0.41922">
        <ele>160</ele>
        <time>2013-09-29T07:11:03Z</time>
      </trkpt>
      <trkpt lat="46.73715" lon="-0.41924">
        <ele>160</ele>
        <time>2013-09-29T07:11:13Z</time>
      </trkpt>
      <trkpt lat="46.73682" lon="-0.41927">
        <ele>159</ele>
        <time>2013-09-29T07:11:23Z</time>
      </trkpt>
      <trkpt lat="46.73649" lon="-0.41932">
        <ele>159</ele>
        <time>2013-09-29T07:11:33Z</time>
      </trkpt>
      <trkpt lat="46.73643" lon="-0.41935">
        <ele>159</ele>
        <time>2013-09-29T07:11:40Z</time>
      </trkpt>
      <trkpt lat="46.73642" lon="-0.41936">
        <ele>159</ele>
        <time>2013-09-29T07:11:41Z</time>
      </trkpt>
      <trkpt lat="46.73639" lon="-0.41937">
        <ele>159</ele>
        <time>2013-09-29T07:11:42Z</time>
      </trkpt>
      <trkpt lat="46.73623" lon="-0.41946">
        <ele>160</ele>
        <time>2013-09-29T07:11:46Z</time>
      </trkpt>
      <trkpt lat="46.73619" lon="-0.41949">
        <ele>160</ele>
        <time>2013-09-29T07:11:47Z</time>
      </trkpt>
      <trkpt lat="46.7361" lon="-0.41954">
        <ele>160</ele>
        <time>2013-09-29T07:11:49Z</time>
      </trkpt>
      <trkpt lat="46.73606" lon="-0.41958">
        <ele>160</ele>
        <time>2013-09-29T07:11:50Z</time>
      </trkpt>
      <trkpt lat="46.73603" lon="-0.41962">
        <ele>160</ele>
        <time>2013-09-29T07:11:51Z</time>
      </trkpt>
      <trkpt lat="46.73601" lon="-0.41967">
        <ele>160</ele>
        <time>2013-09-29T07:11:52Z</time>
      </trkpt>
      <trkpt lat="46.73599" lon="-0.41971">
        <ele>160</ele>
        <time>2013-09-29T07:11:53Z</time>
      </trkpt>
      <trkpt lat="46.736" lon="-0.41976">
        <ele>160</ele>
        <time>2013-09-29T07:11:54Z</time>
      </trkpt>
      <trkpt lat="46.73601" lon="-0.4198">
        <ele>160</ele>
        <time>2013-09-29T07:11:55Z</time>
      </trkpt>
      <trkpt lat="46.73605" lon="-0.42026">
        <ele>162</ele>
        <time>2013-09-29T07:12:07Z</time>
      </trkpt>
      <trkpt lat="46.73603" lon="-0.42051">
        <ele>162</ele>
        <time>2013-09-29T07:12:15Z</time>
      </trkpt>
      <trkpt lat="46.73605" lon="-0.42055">
        <ele>162</ele>
        <time>2013-09-29T07:12:16Z</time>
      </trkpt>
      <trkpt lat="46.73623" lon="-0.42107">
        <ele>162</ele>
        <time>2013-09-29T07:12:28Z</time>
      </trkpt>
      <trkpt lat="46.7364" lon="-0.42149">
        <ele>162</ele>
        <time>2013-09-29T07:12:37Z</time>
      </trkpt>
      <trkpt lat="46.73654" lon="-0.422">
        <ele>162</ele>
        <time>2013-09-29T07:12:47Z</time>
      </trkpt>
      <trkpt lat="46.7366" lon="-0.42242">
        <ele>163</ele>
        <time>2013-09-29T07:12:56Z</time>
      </trkpt>
      <trkpt lat="46.73663" lon="-0.42269">
        <ele>163</ele>
        <time>2013-09-29T07:13:01Z</time>
      </trkpt>
      <trkpt lat="46.73661" lon="-0.42274">
        <ele>163</ele>
        <time>2013-09-29T07:13:02Z</time>
      </trkpt>
      <trkpt lat="46.73658" lon="-0.42278">
        <ele>163</ele>
        <time>2013-09-29T07:13:03Z</time>
      </trkpt>
      <trkpt lat="46.73655" lon="-0.42283">
        <ele>163</ele>
        <time>2013-09-29T07:13:04Z</time>
      </trkpt>
      <trkpt lat="46.73652" lon="-0.42287">
        <ele>163</ele>
        <time>2013-09-29T07:13:05Z</time>
      </trkpt>
      <trkpt lat="46.73638" lon="-0.42302">
        <ele>163</ele>
        <time>2013-09-29T07:13:09Z</time>
      </trkpt>
      <trkpt lat="46.73634" lon="-0.42305">
        <ele>163</ele>
        <time>2013-09-29T07:13:10Z</time>
      </trkpt>
      <trkpt lat="46.73617" lon="-0.42321">
        <ele>163</ele>
        <time>2013-09-29T07:13:15Z</time>
      </trkpt>
      <trkpt lat="46.73609" lon="-0.42325">
        <ele>163</ele>
        <time>2013-09-29T07:13:17Z</time>
      </trkpt>
      <trkpt lat="46.73544" lon="-0.42361">
        <ele>164</ele>
        <time>2013-09-29T07:13:33Z</time>
      </trkpt>
      <trkpt lat="46.73523" lon="-0.42378">
        <ele>164</ele>
        <time>2013-09-29T07:13:39Z</time>
      </trkpt>
      <trkpt lat="46.7352" lon="-0.42382">
        <ele>164</ele>
        <time>2013-09-29T07:13:40Z</time>
      </trkpt>
      <trkpt lat="46.73483" lon="-0.42437">
        <ele>167</ele>
        <time>2013-09-29T07:13:53Z</time>
      </trkpt>
      <trkpt lat="46.73471" lon="-0.4246">
        <ele>167</ele>
        <time>2013-09-29T07:13:58Z</time>
      </trkpt>
      <trkpt lat="46.73469" lon="-0.42464">
        <ele>168</ele>
        <time>2013-09-29T07:13:59Z</time>
      </trkpt>
      <trkpt lat="46.73454" lon="-0.42483">
        <ele>168</ele>
        <time>2013-09-29T07:14:04Z</time>
      </trkpt>
      <trkpt lat="46.73451" lon="-0.42487">
        <ele>168</ele>
        <time>2013-09-29T07:14:05Z</time>
      </trkpt>
      <trkpt lat="46.73448" lon="-0.42491">
        <ele>168</ele>
        <time>2013-09-29T07:14:06Z</time>
      </trkpt>
      <trkpt lat="46.73445" lon="-0.42495">
        <ele>168</ele>
        <time>2013-09-29T07:14:07Z</time>
      </trkpt>
      <trkpt lat="46.73442" lon="-0.42499">
        <ele>168</ele>
        <time>2013-09-29T07:14:08Z</time>
      </trkpt>
      <trkpt lat="46.73409" lon="-0.42543">
        <ele>170</ele>
        <time>2013-09-29T07:14:20Z</time>
      </trkpt>
      <trkpt lat="46.73376" lon="-0.42566">
        <ele>171</ele>
        <time>2013-09-29T07:14:31Z</time>
      </trkpt>
      <trkpt lat="46.73335" lon="-0.42585">
        <ele>174</ele>
        <time>2013-09-29T07:14:43Z</time>
      </trkpt>
      <trkpt lat="46.73313" lon="-0.42594">
        <ele>175</ele>
        <time>2013-09-29T07:14:50Z</time>
      </trkpt>
      <trkpt lat="46.73259" lon="-0.42617">
        <ele>176</ele>
        <time>2013-09-29T07:15:00Z</time>
      </trkpt>
      <trkpt lat="46.73189" lon="-0.42684">
        <ele>177</ele>
        <time>2013-09-29T07:15:16Z</time>
      </trkpt>
      <trkpt lat="46.73174" lon="-0.42706">
        <ele>177</ele>
        <time>2013-09-29T07:15:21Z</time>
      </trkpt>
      <trkpt lat="46.7317" lon="-0.42711">
        <ele>177</ele>
        <time>2013-09-29T07:15:22Z</time>
      </trkpt>
      <trkpt lat="46.73167" lon="-0.42716">
        <ele>177</ele>
        <time>2013-09-29T07:15:23Z</time>
      </trkpt>
      <trkpt lat="46.73164" lon="-0.42721">
        <ele>177</ele>
        <time>2013-09-29T07:15:24Z</time>
      </trkpt>
      <trkpt lat="46.7316" lon="-0.42725">
        <ele>177</ele>
        <time>2013-09-29T07:15:25Z</time>
      </trkpt>
      <trkpt lat="46.73122" lon="-0.42762">
        <ele>177</ele>
        <time>2013-09-29T07:15:35Z</time>
      </trkpt>
      <trkpt lat="46.73118" lon="-0.42766">
        <ele>177</ele>
        <time>2013-09-29T07:15:36Z</time>
      </trkpt>
      <trkpt lat="46.73101" lon="-0.42779">
        <ele>177</ele>
        <time>2013-09-29T07:15:40Z</time>
      </trkpt>
      <trkpt lat="46.73044" lon="-0.42837">
        <ele>176</ele>
        <time>2013-09-29T07:15:54Z</time>
      </trkpt>
      <trkpt lat="46.7304" lon="-0.42842">
        <ele>176</ele>
        <time>2013-09-29T07:15:55Z</time>
      </trkpt>
      <trkpt lat="46.73037" lon="-0.42849">
        <ele>176</ele>
        <time>2013-09-29T07:15:56Z</time>
      </trkpt>
      <trkpt lat="46.73035" lon="-0.42856">
        <ele>176</ele>
        <time>2013-09-29T07:15:57Z</time>
      </trkpt>
      <trkpt lat="46.73034" lon="-0.42862">
        <ele>176</ele>
        <time>2013-09-29T07:15:58Z</time>
      </trkpt>
      <trkpt lat="46.73032" lon="-0.4287">
        <ele>176</ele>
        <time>2013-09-29T07:15:59Z</time>
      </trkpt>
      <trkpt lat="46.73031" lon="-0.42878">
        <ele>176</ele>
        <time>2013-09-29T07:16:00Z</time>
      </trkpt>
      <trkpt lat="46.73023" lon="-0.42973">
        <ele>178</ele>
        <time>2013-09-29T07:16:13Z</time>
      </trkpt>
      <trkpt lat="46.73023" lon="-0.4298">
        <ele>178</ele>
        <time>2013-09-29T07:16:14Z</time>
      </trkpt>
      <trkpt lat="46.73023" lon="-0.42987">
        <ele>178</ele>
        <time>2013-09-29T07:16:15Z</time>
      </trkpt>
      <trkpt lat="46.73023" lon="-0.42994">
        <ele>178</ele>
        <time>2013-09-29T07:16:16Z</time>
      </trkpt>
      <trkpt lat="46.73023" lon="-0.43001">
        <ele>179</ele>
        <time>2013-09-29T07:16:17Z</time>
      </trkpt>
      <trkpt lat="46.73024" lon="-0.43008">
        <ele>179</ele>
        <time>2013-09-29T07:16:18Z</time>
      </trkpt>
      <trkpt lat="46.73024" lon="-0.43016">
        <ele>179</ele>
        <time>2013-09-29T07:16:19Z</time>
      </trkpt>
      <trkpt lat="46.73023" lon="-0.43023">
        <ele>179</ele>
        <time>2013-09-29T07:16:20Z</time>
      </trkpt>
      <trkpt lat="46.73021" lon="-0.4303">
        <ele>179</ele>
        <time>2013-09-29T07:16:21Z</time>
      </trkpt>
      <trkpt lat="46.73016" lon="-0.43044">
        <ele>179</ele>
        <time>2013-09-29T07:16:23Z</time>
      </trkpt>
      <trkpt lat="46.73013" lon="-0.43049">
        <ele>179</ele>
        <time>2013-09-29T07:16:24Z</time>
      </trkpt>
      <trkpt lat="46.7301" lon="-0.43055">
        <ele>179</ele>
        <time>2013-09-29T07:16:25Z</time>
      </trkpt>
      <trkpt lat="46.73008" lon="-0.43059">
        <ele>178</ele>
        <time>2013-09-29T07:16:26Z</time>
      </trkpt>
      <trkpt lat="46.73006" lon="-0.43064">
        <ele>178</ele>
        <time>2013-09-29T07:16:27Z</time>
      </trkpt>
      <trkpt lat="46.73004" lon="-0.43068">
        <ele>178</ele>
        <time>2013-09-29T07:16:28Z</time>
      </trkpt>
      <trkpt lat="46.73001" lon="-0.43073">
        <ele>178</ele>
        <time>2013-09-29T07:16:29Z</time>
      </trkpt>
      <trkpt lat="46.72999" lon="-0.43077">
        <ele>177</ele>
        <time>2013-09-29T07:16:30Z</time>
      </trkpt>
      <trkpt lat="46.72998" lon="-0.4308">
        <ele>177</ele>
        <time>2013-09-29T07:16:31Z</time>
      </trkpt>
      <trkpt lat="46.72996" lon="-0.43084">
        <ele>177</ele>
        <time>2013-09-29T07:16:32Z</time>
      </trkpt>
      <trkpt lat="46.72995" lon="-0.43088">
        <ele>177</ele>
        <time>2013-09-29T07:16:33Z</time>
      </trkpt>
      <trkpt lat="46.72994" lon="-0.43092">
        <ele>177</ele>
        <time>2013-09-29T07:16:34Z</time>
      </trkpt>
      <trkpt lat="46.72993" lon="-0.43097">
        <ele>177</ele>
        <time>2013-09-29T07:16:35Z</time>
      </trkpt>
      <trkpt lat="46.72991" lon="-0.43101">
        <ele>177</ele>
        <time>2013-09-29T07:16:36Z</time>
      </trkpt>
      <trkpt lat="46.72989" lon="-0.43106">
        <ele>177</ele>
        <time>2013-09-29T07:16:37Z</time>
      </trkpt>
      <trkpt lat="46.72987" lon="-0.4311">
        <ele>177</ele>
        <time>2013-09-29T07:16:38Z</time>
      </trkpt>
      <trkpt lat="46.72972" lon="-0.43157">
        <ele>178</ele>
        <time>2013-09-29T07:16:49Z</time>
      </trkpt>
      <trkpt lat="46.72969" lon="-0.43171">
        <ele>179</ele>
        <time>2013-09-29T07:16:53Z</time>
      </trkpt>
      <trkpt lat="46.72968" lon="-0.43175">
        <ele>179</ele>
        <time>2013-09-29T07:16:54Z</time>
      </trkpt>
      <trkpt lat="46.72967" lon="-0.43179">
        <ele>179</ele>
        <time>2013-09-29T07:16:55Z</time>
      </trkpt>
      <trkpt lat="46.72957" lon="-0.43227">
        <ele>180</ele>
        <time>2013-09-29T07:17:07Z</time>
      </trkpt>
      <trkpt lat="46.72945" lon="-0.43288">
        <ele>182</ele>
        <time>2013-09-29T07:17:22Z</time>
      </trkpt>
      <trkpt lat="46.72933" lon="-0.43361">
        <ele>184</ele>
        <time>2013-09-29T07:17:38Z</time>
      </trkpt>
      <trkpt lat="46.72924" lon="-0.43417">
        <ele>186</ele>
        <time>2013-09-29T07:17:51Z</time>
      </trkpt>
      <trkpt lat="46.72917" lon="-0.43424">
        <ele>186</ele>
        <time>2013-09-29T07:17:54Z</time>
      </trkpt>
      <trkpt lat="46.72868" lon="-0.43405">
        <ele>185</ele>
        <time>2013-09-29T07:18:08Z</time>
      </trkpt>
      <trkpt lat="46.72863" lon="-0.43401">
        <ele>185</ele>
        <time>2013-09-29T07:18:09Z</time>
      </trkpt>
      <trkpt lat="46.72835" lon="-0.43366">
        <ele>185</ele>
        <time>2013-09-29T07:18:15Z</time>
      </trkpt>
      <trkpt lat="46.72826" lon="-0.43349">
        <ele>185</ele>
        <time>2013-09-29T07:18:17Z</time>
      </trkpt>
      <trkpt lat="46.72822" lon="-0.43341">
        <ele>185</ele>
        <time>2013-09-29T07:18:18Z</time>
      </trkpt>
      <trkpt lat="46.72814" lon="-0.43327">
        <ele>185</ele>
        <time>2013-09-29T07:18:20Z</time>
      </trkpt>
      <trkpt lat="46.72805" lon="-0.43318">
        <ele>185</ele>
        <time>2013-09-29T07:18:22Z</time>
      </trkpt>
      <trkpt lat="46.728" lon="-0.43315">
        <ele>186</ele>
        <time>2013-09-29T07:18:23Z</time>
      </trkpt>
      <trkpt lat="46.72795" lon="-0.43313">
        <ele>186</ele>
        <time>2013-09-29T07:18:24Z</time>
      </trkpt>
      <trkpt lat="46.72789" lon="-0.43312">
        <ele>186</ele>
        <time>2013-09-29T07:18:25Z</time>
      </trkpt>
      <trkpt lat="46.72784" lon="-0.43312">
        <ele>186</ele>
        <time>2013-09-29T07:18:26Z</time>
      </trkpt>
      <trkpt lat="46.72779" lon="-0.43312">
        <ele>186</ele>
        <time>2013-09-29T07:18:27Z</time>
      </trkpt>
      <trkpt lat="46.72732" lon="-0.4331">
        <ele>190</ele>
        <time>2013-09-29T07:18:39Z</time>
      </trkpt>
      <trkpt lat="46.72709" lon="-0.43293">
        <ele>190</ele>
        <time>2013-09-29T07:18:47Z</time>
      </trkpt>
      <trkpt lat="46.7269" lon="-0.4325">
        <ele>193</ele>
        <time>2013-09-29T07:18:58Z</time>
      </trkpt>
      <trkpt lat="46.72681" lon="-0.43192">
        <ele>194</ele>
        <time>2013-09-29T07:19:10Z</time>
      </trkpt>
      <trkpt lat="46.72672" lon="-0.43144">
        <ele>195</ele>
        <time>2013-09-29T07:19:21Z</time>
      </trkpt>
      <trkpt lat="46.7266" lon="-0.43086">
        <ele>195</ele>
        <time>2013-09-29T07:19:34Z</time>
      </trkpt>
      <trkpt lat="46.7265" lon="-0.43021">
        <ele>197</ele>
        <time>2013-09-29T07:19:46Z</time>
      </trkpt>
      <trkpt lat="46.72648" lon="-0.43013">
        <ele>197</ele>
        <time>2013-09-29T07:19:48Z</time>
      </trkpt>
      <trkpt lat="46.72647" lon="-0.43011">
        <ele>197</ele>
        <time>2013-09-29T07:19:49Z</time>
      </trkpt>
      <trkpt lat="46.72644" lon="-0.43009">
        <ele>197</ele>
        <time>2013-09-29T07:19:50Z</time>
      </trkpt>
      <trkpt lat="46.72606" lon="-0.4301">
        <ele>198</ele>
        <time>2013-09-29T07:20:02Z</time>
      </trkpt>
      <trkpt lat="46.72556" lon="-0.43017">
        <ele>199</ele>
        <time>2013-09-29T07:20:16Z</time>
      </trkpt>
      <trkpt lat="46.72514" lon="-0.43039">
        <ele>199</ele>
        <time>2013-09-29T07:20:29Z</time>
      </trkpt>
      <trkpt lat="46.72482" lon="-0.43064">
        <ele>202</ele>
        <time>2013-09-29T07:20:41Z</time>
      </trkpt>
      <trkpt lat="46.72442" lon="-0.43102">
        <ele>204</ele>
        <time>2013-09-29T07:20:56Z</time>
      </trkpt>
      <trkpt lat="46.72403" lon="-0.43142">
        <ele>207</ele>
        <time>2013-09-29T07:21:12Z</time>
      </trkpt>
      <trkpt lat="46.72374" lon="-0.43173">
        <ele>207</ele>
        <time>2013-09-29T07:21:24Z</time>
      </trkpt>
      <trkpt lat="46.72342" lon="-0.4319">
        <ele>208</ele>
        <time>2013-09-29T07:21:36Z</time>
      </trkpt>
      <trkpt lat="46.72302" lon="-0.43186">
        <ele>209</ele>
        <time>2013-09-29T07:21:49Z</time>
      </trkpt>
      <trkpt lat="46.72262" lon="-0.43184">
        <ele>209</ele>
        <time>2013-09-29T07:22:02Z</time>
      </trkpt>
      <trkpt lat="46.72248" lon="-0.43187">
        <ele>209</ele>
        <time>2013-09-29T07:22:06Z</time>
      </trkpt>
      <trkpt lat="46.72246" lon="-0.4319">
        <ele>209</ele>
        <time>2013-09-29T07:22:07Z</time>
      </trkpt>
      <trkpt lat="46.72244" lon="-0.43194">
        <ele>209</ele>
        <time>2013-09-29T07:22:08Z</time>
      </trkpt>
      <trkpt lat="46.72243" lon="-0.43198">
        <ele>209</ele>
        <time>2013-09-29T07:22:09Z</time>
      </trkpt>
      <trkpt lat="46.72243" lon="-0.43203">
        <ele>209</ele>
        <time>2013-09-29T07:22:10Z</time>
      </trkpt>
      <trkpt lat="46.72233" lon="-0.43287">
        <ele>210</ele>
        <time>2013-09-29T07:22:25Z</time>
      </trkpt>
      <trkpt lat="46.72231" lon="-0.43306">
        <ele>210</ele>
        <time>2013-09-29T07:22:28Z</time>
      </trkpt>
      <trkpt lat="46.72228" lon="-0.43349">
        <ele>209</ele>
        <time>2013-09-29T07:22:36Z</time>
      </trkpt>
      <trkpt lat="46.72227" lon="-0.43442">
        <ele>209</ele>
        <time>2013-09-29T07:22:52Z</time>
      </trkpt>
      <trkpt lat="46.72227" lon="-0.43448">
        <ele>209</ele>
        <time>2013-09-29T07:22:53Z</time>
      </trkpt>
      <trkpt lat="46.72227" lon="-0.43454">
        <ele>209</ele>
        <time>2013-09-29T07:22:54Z</time>
      </trkpt>
      <trkpt lat="46.72229" lon="-0.43497">
        <ele>210</ele>
        <time>2013-09-29T07:23:01Z</time>
      </trkpt>
      <trkpt lat="46.72232" lon="-0.43522">
        <ele>210</ele>
        <time>2013-09-29T07:23:05Z</time>
      </trkpt>
      <trkpt lat="46.72237" lon="-0.43558">
        <ele>210</ele>
        <time>2013-09-29T07:23:11Z</time>
      </trkpt>
      <trkpt lat="46.72238" lon="-0.43564">
        <ele>210</ele>
        <time>2013-09-29T07:23:12Z</time>
      </trkpt>
      <trkpt lat="46.72241" lon="-0.43575">
        <ele>210</ele>
        <time>2013-09-29T07:23:14Z</time>
      </trkpt>
      <trkpt lat="46.72243" lon="-0.4358">
        <ele>210</ele>
        <time>2013-09-29T07:23:15Z</time>
      </trkpt>
      <trkpt lat="46.72244" lon="-0.43586">
        <ele>210</ele>
        <time>2013-09-29T07:23:16Z</time>
      </trkpt>
      <trkpt lat="46.72246" lon="-0.43591">
        <ele>210</ele>
        <time>2013-09-29T07:23:17Z</time>
      </trkpt>
      <trkpt lat="46.72247" lon="-0.43597">
        <ele>210</ele>
        <time>2013-09-29T07:23:18Z</time>
      </trkpt>
      <trkpt lat="46.72248" lon="-0.43603">
        <ele>210</ele>
        <time>2013-09-29T07:23:19Z</time>
      </trkpt>
      <trkpt lat="46.7225" lon="-0.43609">
        <ele>210</ele>
        <time>2013-09-29T07:23:20Z</time>
      </trkpt>
      <trkpt lat="46.72262" lon="-0.43645">
        <ele>210</ele>
        <time>2013-09-29T07:23:27Z</time>
      </trkpt>
      <trkpt lat="46.72264" lon="-0.4365">
        <ele>210</ele>
        <time>2013-09-29T07:23:28Z</time>
      </trkpt>
      <trkpt lat="46.72266" lon="-0.43655">
        <ele>210</ele>
        <time>2013-09-29T07:23:29Z</time>
      </trkpt>
      <trkpt lat="46.72296" lon="-0.43722">
        <ele>211</ele>
        <time>2013-09-29T07:23:43Z</time>
      </trkpt>
      <trkpt lat="46.72332" lon="-0.438">
        <ele>212</ele>
        <time>2013-09-29T07:23:59Z</time>
      </trkpt>
      <trkpt lat="46.72334" lon="-0.43805">
        <ele>213</ele>
        <time>2013-09-29T07:24:00Z</time>
      </trkpt>
      <trkpt lat="46.72336" lon="-0.43811">
        <ele>213</ele>
        <time>2013-09-29T07:24:01Z</time>
      </trkpt>
      <trkpt lat="46.72359" lon="-0.43855">
        <ele>212</ele>
        <time>2013-09-29T07:24:11Z</time>
      </trkpt>
      <trkpt lat="46.72362" lon="-0.43855">
        <ele>212</ele>
        <time>2013-09-29T07:24:12Z</time>
      </trkpt>
      <trkpt lat="46.72365" lon="-0.43853">
        <ele>212</ele>
        <time>2013-09-29T07:24:13Z</time>
      </trkpt>
      <trkpt lat="46.72368" lon="-0.43849">
        <ele>212</ele>
        <time>2013-09-29T07:24:14Z</time>
      </trkpt>
      <trkpt lat="46.72371" lon="-0.43845">
        <ele>212</ele>
        <time>2013-09-29T07:24:15Z</time>
      </trkpt>
      <trkpt lat="46.72394" lon="-0.43817">
        <ele>213</ele>
        <time>2013-09-29T07:24:22Z</time>
      </trkpt>
      <trkpt lat="46.72397" lon="-0.43813">
        <ele>213</ele>
        <time>2013-09-29T07:24:23Z</time>
      </trkpt>
      <trkpt lat="46.724" lon="-0.43809">
        <ele>213</ele>
        <time>2013-09-29T07:24:24Z</time>
      </trkpt>
      <trkpt lat="46.72403" lon="-0.43807">
        <ele>213</ele>
        <time>2013-09-29T07:24:25Z</time>
      </trkpt>
      <trkpt lat="46.72406" lon="-0.43805">
        <ele>213</ele>
        <time>2013-09-29T07:24:26Z</time>
      </trkpt>
      <trkpt lat="46.7241" lon="-0.43804">
        <ele>213</ele>
        <time>2013-09-29T07:24:27Z</time>
      </trkpt>
      <trkpt lat="46.72413" lon="-0.43803">
        <ele>213</ele>
        <time>2013-09-29T07:24:28Z</time>
      </trkpt>
      <trkpt lat="46.72417" lon="-0.43802">
        <ele>211</ele>
        <time>2013-09-29T07:24:36Z</time>
      </trkpt>
      <trkpt lat="46.72417" lon="-0.43804">
        <ele>211</ele>
        <time>2013-09-29T07:24:46Z</time>
      </trkpt>
      <trkpt lat="46.72417" lon="-0.43807">
        <ele>211</ele>
        <time>2013-09-29T07:24:55Z</time>
      </trkpt>
      <trkpt lat="46.72418" lon="-0.43808">
        <ele>211</ele>
        <time>2013-09-29T07:25:21Z</time>
      </trkpt>
      <trkpt lat="46.72418" lon="-0.4381">
        <ele>211</ele>
        <time>2013-09-29T07:25:56Z</time>
      </trkpt>
      <trkpt lat="46.72416" lon="-0.43808">
        <ele>212</ele>
        <time>2013-09-29T07:26:30Z</time>
      </trkpt>
      <trkpt lat="46.72415" lon="-0.43804">
        <ele>213</ele>
        <time>2013-09-29T07:27:09Z</time>
      </trkpt>
      <trkpt lat="46.72417" lon="-0.43807">
        <ele>211</ele>
        <time>2013-09-29T07:27:48Z</time>
      </trkpt>
      <trkpt lat="46.72417" lon="-0.43808">
        <ele>211</ele>
        <time>2013-09-29T07:28:30Z</time>
      </trkpt>
      <trkpt lat="46.72417" lon="-0.43808">
        <ele>211</ele>
        <time>2013-09-29T07:29:14Z</time>
      </trkpt>
      <trkpt lat="46.72416" lon="-0.43806">
        <ele>213</ele>
        <time>2013-09-29T07:29:54Z</time>
      </trkpt>
      <trkpt lat="46.72414" lon="-0.43804">
        <ele>213</ele>
        <time>2013-09-29T07:30:37Z</time>
      </trkpt>
      <trkpt lat="46.72417" lon="-0.43804">
        <ele>211</ele>
        <time>2013-09-29T07:31:19Z</time>
      </trkpt>
      <trkpt lat="46.72416" lon="-0.43802">
        <ele>213</ele>
        <time>2013-09-29T07:31:56Z</time>
      </trkpt>
      <trkpt lat="46.72416" lon="-0.43806">
        <ele>213</ele>
        <time>2013-09-29T07:32:34Z</time>
      </trkpt>
      <trkpt lat="46.72417" lon="-0.43807">
        <ele>211</ele>
        <time>2013-09-29T07:33:17Z</time>
      </trkpt>
      <trkpt lat="46.72416" lon="-0.43806">
        <ele>213</ele>
        <time>2013-09-29T07:33:58Z</time>
      </trkpt>
      <trkpt lat="46.72416" lon="-0.43804">
        <ele>213</ele>
        <time>2013-09-29T07:34:40Z</time>
      </trkpt>
      <trkpt lat="46.72415" lon="-0.43806">
        <ele>213</ele>
        <time>2013-09-29T07:35:15Z</time>
      </trkpt>
      <trkpt lat="46.72414" lon="-0.4381">
        <ele>212</ele>
        <time>2013-09-29T07:35:56Z</time>
      </trkpt>
      <trkpt lat="46.72415" lon="-0.4381">
        <ele>212</ele>
        <time>2013-09-29T07:36:33Z</time>
      </trkpt>
      <trkpt lat="46.72416" lon="-0.43808">
        <ele>212</ele>
        <time>2013-09-29T07:37:03Z</time>
      </trkpt>
      <trkpt lat="46.72414" lon="-0.43807">
        <ele>213</ele>
        <time>2013-09-29T07:37:25Z</time>
      </trkpt>
      <trkpt lat="46.72415" lon="-0.43804">
        <ele>213</ele>
        <time>2013-09-29T07:37:37Z</time>
      </trkpt>
      <trkpt lat="46.72416" lon="-0.43801">
        <ele>213</ele>
        <time>2013-09-29T07:37:40Z</time>
      </trkpt>
      <trkpt lat="46.72417" lon="-0.43799">
        <ele>211</ele>
        <time>2013-09-29T07:37:41Z</time>
      </trkpt>
      <trkpt lat="46.72419" lon="-0.43797">
        <ele>211</ele>
        <time>2013-09-29T07:37:42Z</time>
      </trkpt>
      <trkpt lat="46.72421" lon="-0.43795">
        <ele>211</ele>
        <time>2013-09-29T07:37:43Z</time>
      </trkpt>
      <trkpt lat="46.72424" lon="-0.43794">
        <ele>211</ele>
        <time>2013-09-29T07:37:44Z</time>
      </trkpt>
      <trkpt lat="46.72427" lon="-0.43793">
        <ele>211</ele>
        <time>2013-09-29T07:37:45Z</time>
      </trkpt>
      <trkpt lat="46.7243" lon="-0.43794">
        <ele>211</ele>
        <time>2013-09-29T07:37:46Z</time>
      </trkpt>
      <trkpt lat="46.72432" lon="-0.43795">
        <ele>211</ele>
        <time>2013-09-29T07:37:47Z</time>
      </trkpt>
      <trkpt lat="46.72461" lon="-0.43786">
        <ele>211</ele>
        <time>2013-09-29T07:37:56Z</time>
      </trkpt>
      <trkpt lat="46.72489" lon="-0.43755">
        <ele>210</ele>
        <time>2013-09-29T07:38:08Z</time>
      </trkpt>
      <trkpt lat="46.7249" lon="-0.43753">
        <ele>210</ele>
        <time>2013-09-29T07:38:11Z</time>
      </trkpt>
      <trkpt lat="46.72491" lon="-0.43754">
        <ele>210</ele>
        <time>2013-09-29T07:38:12Z</time>
      </trkpt>
      <trkpt lat="46.72491" lon="-0.43755">
        <ele>210</ele>
        <time>2013-09-29T07:38:13Z</time>
      </trkpt>
      <trkpt lat="46.72492" lon="-0.43756">
        <ele>210</ele>
        <time>2013-09-29T07:38:14Z</time>
      </trkpt>
      <trkpt lat="46.72493" lon="-0.43758">
        <ele>210</ele>
        <time>2013-09-29T07:38:15Z</time>
      </trkpt>
      <trkpt lat="46.72494" lon="-0.4376">
        <ele>210</ele>
        <time>2013-09-29T07:38:16Z</time>
      </trkpt>
      <trkpt lat="46.72495" lon="-0.43762">
        <ele>210</ele>
        <time>2013-09-29T07:38:17Z</time>
      </trkpt>
      <trkpt lat="46.72496" lon="-0.43764">
        <ele>210</ele>
        <time>2013-09-29T07:38:18Z</time>
      </trkpt>
      <trkpt lat="46.72497" lon="-0.43765">
        <ele>210</ele>
        <time>2013-09-29T07:38:19Z</time>
      </trkpt>
      <trkpt lat="46.72499" lon="-0.43773">
        <ele>210</ele>
        <time>2013-09-29T07:38:24Z</time>
      </trkpt>
      <trkpt lat="46.72499" lon="-0.43775">
        <ele>210</ele>
        <time>2013-09-29T07:38:25Z</time>
      </trkpt>
      <trkpt lat="46.72499" lon="-0.43779">
        <ele>210</ele>
        <time>2013-09-29T07:38:27Z</time>
      </trkpt>
      <trkpt lat="46.72498" lon="-0.43781">
        <ele>210</ele>
        <time>2013-09-29T07:38:28Z</time>
      </trkpt>
      <trkpt lat="46.72498" lon="-0.43785">
        <ele>210</ele>
        <time>2013-09-29T07:38:31Z</time>
      </trkpt>
      <trkpt lat="46.72499" lon="-0.43787">
        <ele>210</ele>
        <time>2013-09-29T07:38:32Z</time>
      </trkpt>
      <trkpt lat="46.72501" lon="-0.4379">
        <ele>206</ele>
        <time>2013-09-29T07:38:33Z</time>
      </trkpt>
      <trkpt lat="46.72502" lon="-0.43792">
        <ele>206</ele>
        <time>2013-09-29T07:38:34Z</time>
      </trkpt>
      <trkpt lat="46.72504" lon="-0.43794">
        <ele>206</ele>
        <time>2013-09-29T07:38:35Z</time>
      </trkpt>
      <trkpt lat="46.72506" lon="-0.438">
        <ele>206</ele>
        <time>2013-09-29T07:38:38Z</time>
      </trkpt>
      <trkpt lat="46.72508" lon="-0.43803">
        <ele>206</ele>
        <time>2013-09-29T07:38:52Z</time>
      </trkpt>
      <trkpt lat="46.72511" lon="-0.43808">
        <ele>206</ele>
        <time>2013-09-29T07:38:55Z</time>
      </trkpt>
      <trkpt lat="46.72541" lon="-0.43847">
        <ele>205</ele>
        <time>2013-09-29T07:39:07Z</time>
      </trkpt>
      <trkpt lat="46.72544" lon="-0.43851">
        <ele>205</ele>
        <time>2013-09-29T07:39:08Z</time>
      </trkpt>
      <trkpt lat="46.72547" lon="-0.43855">
        <ele>205</ele>
        <time>2013-09-29T07:39:09Z</time>
      </trkpt>
      <trkpt lat="46.7255" lon="-0.43859">
        <ele>205</ele>
        <time>2013-09-29T07:39:10Z</time>
      </trkpt>
      <trkpt lat="46.72568" lon="-0.4388">
        <ele>205</ele>
        <time>2013-09-29T07:39:16Z</time>
      </trkpt>
      <trkpt lat="46.72572" lon="-0.43884">
        <ele>205</ele>
        <time>2013-09-29T07:39:17Z</time>
      </trkpt>
      <trkpt lat="46.72628" lon="-0.43936">
        <ele>203</ele>
        <time>2013-09-29T07:39:31Z</time>
      </trkpt>
      <trkpt lat="46.72637" lon="-0.43942">
        <ele>203</ele>
        <time>2013-09-29T07:39:33Z</time>
      </trkpt>
      <trkpt lat="46.72642" lon="-0.43945">
        <ele>203</ele>
        <time>2013-09-29T07:39:34Z</time>
      </trkpt>
      <trkpt lat="46.72651" lon="-0.43952">
        <ele>203</ele>
        <time>2013-09-29T07:39:36Z</time>
      </trkpt>
      <trkpt lat="46.72712" lon="-0.43987">
        <ele>203</ele>
        <time>2013-09-29T07:39:49Z</time>
      </trkpt>
      <trkpt lat="46.72739" lon="-0.43998">
        <ele>203</ele>
        <time>2013-09-29T07:39:56Z</time>
      </trkpt>
      <trkpt lat="46.7274" lon="-0.43997">
        <ele>203</ele>
        <time>2013-09-29T07:39:57Z</time>
      </trkpt>
      <trkpt lat="46.72743" lon="-0.43997">
        <ele>204</ele>
        <time>2013-09-29T07:39:58Z</time>
      </trkpt>
      <trkpt lat="46.72746" lon="-0.43999">
        <ele>204</ele>
        <time>2013-09-29T07:39:59Z</time>
      </trkpt>
      <trkpt lat="46.72749" lon="-0.44001">
        <ele>204</ele>
        <time>2013-09-29T07:40:00Z</time>
      </trkpt>
      <trkpt lat="46.72752" lon="-0.44002">
        <ele>204</ele>
        <time>2013-09-29T07:40:01Z</time>
      </trkpt>
      <trkpt lat="46.72776" lon="-0.44011">
        <ele>204</ele>
        <time>2013-09-29T07:40:09Z</time>
      </trkpt>
      <trkpt lat="46.72787" lon="-0.44013">
        <ele>204</ele>
        <time>2013-09-29T07:40:11Z</time>
      </trkpt>
      <trkpt lat="46.72793" lon="-0.44013">
        <ele>204</ele>
        <time>2013-09-29T07:40:12Z</time>
      </trkpt>
      <trkpt lat="46.72804" lon="-0.44014">
        <ele>204</ele>
        <time>2013-09-29T07:40:14Z</time>
      </trkpt>
      <trkpt lat="46.72809" lon="-0.44014">
        <ele>204</ele>
        <time>2013-09-29T07:40:15Z</time>
      </trkpt>
      <trkpt lat="46.72825" lon="-0.44015">
        <ele>204</ele>
        <time>2013-09-29T07:40:18Z</time>
      </trkpt>
      <trkpt lat="46.72901" lon="-0.44006">
        <ele>203</ele>
        <time>2013-09-29T07:40:31Z</time>
      </trkpt>
      <trkpt lat="46.72931" lon="-0.44002">
        <ele>202</ele>
        <time>2013-09-29T07:40:36Z</time>
      </trkpt>
      <trkpt lat="46.72936" lon="-0.44001">
        <ele>202</ele>
        <time>2013-09-29T07:40:37Z</time>
      </trkpt>
      <trkpt lat="46.72942" lon="-0.44">
        <ele>202</ele>
        <time>2013-09-29T07:40:38Z</time>
      </trkpt>
      <trkpt lat="46.72948" lon="-0.44">
        <ele>201</ele>
        <time>2013-09-29T07:40:39Z</time>
      </trkpt>
      <trkpt lat="46.72954" lon="-0.43999">
        <ele>200</ele>
        <time>2013-09-29T07:40:40Z</time>
      </trkpt>
      <trkpt lat="46.7296" lon="-0.43998">
        <ele>200</ele>
        <time>2013-09-29T07:40:41Z</time>
      </trkpt>
      <trkpt lat="46.72965" lon="-0.43997">
        <ele>200</ele>
        <time>2013-09-29T07:40:42Z</time>
      </trkpt>
      <trkpt lat="46.72971" lon="-0.43997">
        <ele>200</ele>
        <time>2013-09-29T07:40:43Z</time>
      </trkpt>
      <trkpt lat="46.73044" lon="-0.43988">
        <ele>200</ele>
        <time>2013-09-29T07:40:56Z</time>
      </trkpt>
      <trkpt lat="46.73104" lon="-0.43979">
        <ele>200</ele>
        <time>2013-09-29T07:41:07Z</time>
      </trkpt>
      <trkpt lat="46.73169" lon="-0.4397">
        <ele>199</ele>
        <time>2013-09-29T07:41:19Z</time>
      </trkpt>
      <trkpt lat="46.73174" lon="-0.43969">
        <ele>199</ele>
        <time>2013-09-29T07:41:20Z</time>
      </trkpt>
      <trkpt lat="46.73238" lon="-0.43959">
        <ele>199</ele>
        <time>2013-09-29T07:41:32Z</time>
      </trkpt>
      <trkpt lat="46.73254" lon="-0.43956">
        <ele>200</ele>
        <time>2013-09-29T07:41:35Z</time>
      </trkpt>
      <trkpt lat="46.73291" lon="-0.4395">
        <ele>200</ele>
        <time>2013-09-29T07:41:42Z</time>
      </trkpt>
      <trkpt lat="46.73351" lon="-0.43949">
        <ele>202</ele>
        <time>2013-09-29T07:41:53Z</time>
      </trkpt>
      <trkpt lat="46.73415" lon="-0.43963">
        <ele>203</ele>
        <time>2013-09-29T07:42:05Z</time>
      </trkpt>
      <trkpt lat="46.73426" lon="-0.43968">
        <ele>204</ele>
        <time>2013-09-29T07:42:07Z</time>
      </trkpt>
      <trkpt lat="46.73432" lon="-0.43971">
        <ele>204</ele>
        <time>2013-09-29T07:42:08Z</time>
      </trkpt>
      <trkpt lat="46.73457" lon="-0.43985">
        <ele>204</ele>
        <time>2013-09-29T07:42:13Z</time>
      </trkpt>
      <trkpt lat="46.73507" lon="-0.44021">
        <ele>204</ele>
        <time>2013-09-29T07:42:23Z</time>
      </trkpt>
      <trkpt lat="46.73512" lon="-0.44024">
        <ele>203</ele>
        <time>2013-09-29T07:42:24Z</time>
      </trkpt>
      <trkpt lat="46.73518" lon="-0.44028">
        <ele>203</ele>
        <time>2013-09-29T07:42:25Z</time>
      </trkpt>
      <trkpt lat="46.73523" lon="-0.44032">
        <ele>203</ele>
        <time>2013-09-29T07:42:26Z</time>
      </trkpt>
      <trkpt lat="46.73528" lon="-0.44036">
        <ele>203</ele>
        <time>2013-09-29T07:42:27Z</time>
      </trkpt>
      <trkpt lat="46.7355" lon="-0.44052">
        <ele>203</ele>
        <time>2013-09-29T07:42:33Z</time>
      </trkpt>
      <trkpt lat="46.73559" lon="-0.44059">
        <ele>204</ele>
        <time>2013-09-29T07:42:46Z</time>
      </trkpt>
      <trkpt lat="46.73566" lon="-0.44062">
        <ele>204</ele>
        <time>2013-09-29T07:42:59Z</time>
      </trkpt>
      <trkpt lat="46.73566" lon="-0.44063">
        <ele>204</ele>
        <time>2013-09-29T07:43:00Z</time>
      </trkpt>
      <trkpt lat="46.73566" lon="-0.44066">
        <ele>204</ele>
        <time>2013-09-29T07:43:01Z</time>
      </trkpt>
      <trkpt lat="46.73567" lon="-0.44068">
        <ele>204</ele>
        <time>2013-09-29T07:43:02Z</time>
      </trkpt>
      <trkpt lat="46.73568" lon="-0.44071">
        <ele>204</ele>
        <time>2013-09-29T07:43:03Z</time>
      </trkpt>
      <trkpt lat="46.7357" lon="-0.44073">
        <ele>204</ele>
        <time>2013-09-29T07:43:04Z</time>
      </trkpt>
      <trkpt lat="46.73572" lon="-0.44074">
        <ele>204</ele>
        <time>2013-09-29T07:43:05Z</time>
      </trkpt>
      <trkpt lat="46.73575" lon="-0.44076">
        <ele>204</ele>
        <time>2013-09-29T07:43:06Z</time>
      </trkpt>
      <trkpt lat="46.73578" lon="-0.44078">
        <ele>204</ele>
        <time>2013-09-29T07:43:07Z</time>
      </trkpt>
      <trkpt lat="46.73581" lon="-0.44082">
        <ele>205</ele>
        <time>2013-09-29T07:43:08Z</time>
      </trkpt>
      <trkpt lat="46.73584" lon="-0.44087">
        <ele>205</ele>
        <time>2013-09-29T07:43:09Z</time>
      </trkpt>
      <trkpt lat="46.73588" lon="-0.44091">
        <ele>206</ele>
        <time>2013-09-29T07:43:10Z</time>
      </trkpt>
      <trkpt lat="46.73592" lon="-0.44095">
        <ele>207</ele>
        <time>2013-09-29T07:43:11Z</time>
      </trkpt>
      <trkpt lat="46.73595" lon="-0.44099">
        <ele>207</ele>
        <time>2013-09-29T07:43:12Z</time>
      </trkpt>
      <trkpt lat="46.73598" lon="-0.44103">
        <ele>207</ele>
        <time>2013-09-29T07:43:13Z</time>
      </trkpt>
      <trkpt lat="46.73601" lon="-0.44107">
        <ele>208</ele>
        <time>2013-09-29T07:43:14Z</time>
      </trkpt>
      <trkpt lat="46.73615" lon="-0.44125">
        <ele>208</ele>
        <time>2013-09-29T07:43:18Z</time>
      </trkpt>
      <trkpt lat="46.73618" lon="-0.44132">
        <ele>209</ele>
        <time>2013-09-29T07:43:19Z</time>
      </trkpt>
      <trkpt lat="46.73622" lon="-0.44137">
        <ele>209</ele>
        <time>2013-09-29T07:43:20Z</time>
      </trkpt>
      <trkpt lat="46.73657" lon="-0.4419">
        <ele>212</ele>
        <time>2013-09-29T07:43:29Z</time>
      </trkpt>
      <trkpt lat="46.73674" lon="-0.44226">
        <ele>211</ele>
        <time>2013-09-29T07:43:34Z</time>
      </trkpt>
      <trkpt lat="46.73677" lon="-0.44234">
        <ele>211</ele>
        <time>2013-09-29T07:43:35Z</time>
      </trkpt>
      <trkpt lat="46.73681" lon="-0.44241">
        <ele>211</ele>
        <time>2013-09-29T07:43:36Z</time>
      </trkpt>
      <trkpt lat="46.73685" lon="-0.44249">
        <ele>211</ele>
        <time>2013-09-29T07:43:37Z</time>
      </trkpt>
      <trkpt lat="46.73722" lon="-0.44323">
        <ele>210</ele>
        <time>2013-09-29T07:43:47Z</time>
      </trkpt>
      <trkpt lat="46.73746" lon="-0.44366">
        <ele>209</ele>
        <time>2013-09-29T07:43:53Z</time>
      </trkpt>
      <trkpt lat="46.73793" lon="-0.44427">
        <ele>206</ele>
        <time>2013-09-29T07:44:03Z</time>
      </trkpt>
      <trkpt lat="46.73797" lon="-0.44432">
        <ele>206</ele>
        <time>2013-09-29T07:44:04Z</time>
      </trkpt>
      <trkpt lat="46.73802" lon="-0.44438">
        <ele>205</ele>
        <time>2013-09-29T07:44:05Z</time>
      </trkpt>
      <trkpt lat="46.73865" lon="-0.44501">
        <ele>200</ele>
        <time>2013-09-29T07:44:18Z</time>
      </trkpt>
      <trkpt lat="46.73887" lon="-0.44516">
        <ele>199</ele>
        <time>2013-09-29T07:44:22Z</time>
      </trkpt>
      <trkpt lat="46.73892" lon="-0.44519">
        <ele>198</ele>
        <time>2013-09-29T07:44:23Z</time>
      </trkpt>
      <trkpt lat="46.73955" lon="-0.44558">
        <ele>192</ele>
        <time>2013-09-29T07:44:35Z</time>
      </trkpt>
      <trkpt lat="46.73966" lon="-0.44565">
        <ele>192</ele>
        <time>2013-09-29T07:44:37Z</time>
      </trkpt>
      <trkpt lat="46.74002" lon="-0.44583">
        <ele>191</ele>
        <time>2013-09-29T07:44:43Z</time>
      </trkpt>
      <trkpt lat="46.74008" lon="-0.44585">
        <ele>191</ele>
        <time>2013-09-29T07:44:44Z</time>
      </trkpt>
      <trkpt lat="46.74013" lon="-0.44588">
        <ele>191</ele>
        <time>2013-09-29T07:44:45Z</time>
      </trkpt>
      <trkpt lat="46.74019" lon="-0.44591">
        <ele>191</ele>
        <time>2013-09-29T07:44:46Z</time>
      </trkpt>
      <trkpt lat="46.74026" lon="-0.44596">
        <ele>191</ele>
        <time>2013-09-29T07:44:47Z</time>
      </trkpt>
      <trkpt lat="46.7409" lon="-0.4463">
        <ele>190</ele>
        <time>2013-09-29T07:44:58Z</time>
      </trkpt>
      <trkpt lat="46.74094" lon="-0.44633">
        <ele>190</ele>
        <time>2013-09-29T07:44:59Z</time>
      </trkpt>
      <trkpt lat="46.74099" lon="-0.44635">
        <ele>190</ele>
        <time>2013-09-29T07:45:00Z</time>
      </trkpt>
      <trkpt lat="46.74133" lon="-0.44654">
        <ele>191</ele>
        <time>2013-09-29T07:45:06Z</time>
      </trkpt>
      <trkpt lat="46.74207" lon="-0.44691">
        <ele>192</ele>
        <time>2013-09-29T07:45:18Z</time>
      </trkpt>
      <trkpt lat="46.74279" lon="-0.44731">
        <ele>190</ele>
        <time>2013-09-29T07:45:30Z</time>
      </trkpt>
      <trkpt lat="46.74348" lon="-0.44766">
        <ele>189</ele>
        <time>2013-09-29T07:45:42Z</time>
      </trkpt>
      <trkpt lat="46.74405" lon="-0.44798">
        <ele>189</ele>
        <time>2013-09-29T07:45:53Z</time>
      </trkpt>
      <trkpt lat="46.74412" lon="-0.44802">
        <ele>189</ele>
        <time>2013-09-29T07:45:56Z</time>
      </trkpt>
      <trkpt lat="46.74413" lon="-0.44802">
        <ele>189</ele>
        <time>2013-09-29T07:45:57Z</time>
      </trkpt>
      <trkpt lat="46.74415" lon="-0.44801">
        <ele>189</ele>
        <time>2013-09-29T07:45:58Z</time>
      </trkpt>
      <trkpt lat="46.74416" lon="-0.448">
        <ele>189</ele>
        <time>2013-09-29T07:45:59Z</time>
      </trkpt>
      <trkpt lat="46.74416" lon="-0.44797">
        <ele>189</ele>
        <time>2013-09-29T07:46:00Z</time>
      </trkpt>
      <trkpt lat="46.74417" lon="-0.44794">
        <ele>188</ele>
        <time>2013-09-29T07:46:01Z</time>
      </trkpt>
      <trkpt lat="46.74429" lon="-0.44781">
        <ele>188</ele>
        <time>2013-09-29T07:46:08Z</time>
      </trkpt>
      <trkpt lat="46.74421" lon="-0.44741">
        <ele>189</ele>
        <time>2013-09-29T07:46:17Z</time>
      </trkpt>
      <trkpt lat="46.74418" lon="-0.44729">
        <ele>188</ele>
        <time>2013-09-29T07:46:19Z</time>
      </trkpt>
      <trkpt lat="46.74418" lon="-0.44723">
        <ele>188</ele>
        <time>2013-09-29T07:46:20Z</time>
      </trkpt>
      <trkpt lat="46.74419" lon="-0.44717">
        <ele>188</ele>
        <time>2013-09-29T07:46:21Z</time>
      </trkpt>
      <trkpt lat="46.74422" lon="-0.44714">
        <ele>188</ele>
        <time>2013-09-29T07:46:22Z</time>
      </trkpt>
      <trkpt lat="46.74426" lon="-0.44713">
        <ele>188</ele>
        <time>2013-09-29T07:46:23Z</time>
      </trkpt>
      <trkpt lat="46.7443" lon="-0.44711">
        <ele>188</ele>
        <time>2013-09-29T07:46:24Z</time>
      </trkpt>
      <trkpt lat="46.74434" lon="-0.44709">
        <ele>188</ele>
        <time>2013-09-29T07:46:25Z</time>
      </trkpt>
      <trkpt lat="46.74438" lon="-0.44705">
        <ele>188</ele>
        <time>2013-09-29T07:46:26Z</time>
      </trkpt>
      <trkpt lat="46.74442" lon="-0.44702">
        <ele>188</ele>
        <time>2013-09-29T07:46:27Z</time>
      </trkpt>
      <trkpt lat="46.74445" lon="-0.44697">
        <ele>188</ele>
        <time>2013-09-29T07:46:28Z</time>
      </trkpt>
      <trkpt lat="46.74469" lon="-0.4466">
        <ele>186</ele>
        <time>2013-09-29T07:46:35Z</time>
      </trkpt>
      <trkpt lat="46.74473" lon="-0.44655">
        <ele>186</ele>
        <time>2013-09-29T07:46:36Z</time>
      </trkpt>
      <trkpt lat="46.74488" lon="-0.44624">
        <ele>186</ele>
        <time>2013-09-29T07:46:41Z</time>
      </trkpt>
      <trkpt lat="46.74492" lon="-0.4462">
        <ele>186</ele>
        <time>2013-09-29T07:46:42Z</time>
      </trkpt>
      <trkpt lat="46.74496" lon="-0.44618">
        <ele>185</ele>
        <time>2013-09-29T07:46:43Z</time>
      </trkpt>
      <trkpt lat="46.74501" lon="-0.44617">
        <ele>185</ele>
        <time>2013-09-29T07:46:44Z</time>
      </trkpt>
      <trkpt lat="46.74507" lon="-0.44618">
        <ele>185</ele>
        <time>2013-09-29T07:46:45Z</time>
      </trkpt>
      <trkpt lat="46.74518" lon="-0.44621">
        <ele>185</ele>
        <time>2013-09-29T07:46:47Z</time>
      </trkpt>
      <trkpt lat="46.74556" lon="-0.44647">
        <ele>185</ele>
        <time>2013-09-29T07:46:55Z</time>
      </trkpt>
      <trkpt lat="46.74603" lon="-0.44673">
        <ele>186</ele>
        <time>2013-09-29T07:47:06Z</time>
      </trkpt>
      <trkpt lat="46.74642" lon="-0.44691">
        <ele>186</ele>
        <time>2013-09-29T07:47:16Z</time>
      </trkpt>
      <trkpt lat="46.74692" lon="-0.44725">
        <ele>187</ele>
        <time>2013-09-29T07:47:29Z</time>
      </trkpt>
      <trkpt lat="46.74718" lon="-0.44745">
        <ele>188</ele>
        <time>2013-09-29T07:47:36Z</time>
      </trkpt>
      <trkpt lat="46.74721" lon="-0.44748">
        <ele>188</ele>
        <time>2013-09-29T07:47:37Z</time>
      </trkpt>
      <trkpt lat="46.74781" lon="-0.44779">
        <ele>188</ele>
        <time>2013-09-29T07:47:52Z</time>
      </trkpt>
      <trkpt lat="46.74793" lon="-0.44782">
        <ele>188</ele>
        <time>2013-09-29T07:47:55Z</time>
      </trkpt>
      <trkpt lat="46.74829" lon="-0.44795">
        <ele>188</ele>
        <time>2013-09-29T07:48:05Z</time>
      </trkpt>
      <trkpt lat="46.74855" lon="-0.44816">
        <ele>187</ele>
        <time>2013-09-29T07:48:12Z</time>
      </trkpt>
      <trkpt lat="46.74867" lon="-0.44827">
        <ele>187</ele>
        <time>2013-09-29T07:48:15Z</time>
      </trkpt>
      <trkpt lat="46.74898" lon="-0.44856">
        <ele>186</ele>
        <time>2013-09-29T07:48:24Z</time>
      </trkpt>
      <trkpt lat="46.74931" lon="-0.44884">
        <ele>183</ele>
        <time>2013-09-29T07:48:32Z</time>
      </trkpt>
      <trkpt lat="46.74942" lon="-0.44868">
        <ele>183</ele>
        <time>2013-09-29T07:48:38Z</time>
      </trkpt>
      <trkpt lat="46.74968" lon="-0.4481">
        <ele>184</ele>
        <time>2013-09-29T07:48:52Z</time>
      </trkpt>
      <trkpt lat="46.74974" lon="-0.44802">
        <ele>183</ele>
        <time>2013-09-29T07:48:54Z</time>
      </trkpt>
      <trkpt lat="46.74978" lon="-0.44799">
        <ele>183</ele>
        <time>2013-09-29T07:48:55Z</time>
      </trkpt>
      <trkpt lat="46.74982" lon="-0.44795">
        <ele>183</ele>
        <time>2013-09-29T07:48:56Z</time>
      </trkpt>
      <trkpt lat="46.74995" lon="-0.44787">
        <ele>183</ele>
        <time>2013-09-29T07:48:59Z</time>
      </trkpt>
      <trkpt lat="46.75026" lon="-0.44776">
        <ele>181</ele>
        <time>2013-09-29T07:49:05Z</time>
      </trkpt>
      <trkpt lat="46.75032" lon="-0.44775">
        <ele>180</ele>
        <time>2013-09-29T07:49:06Z</time>
      </trkpt>
      <trkpt lat="46.75044" lon="-0.44776">
        <ele>180</ele>
        <time>2013-09-29T07:49:08Z</time>
      </trkpt>
      <trkpt lat="46.7512" lon="-0.44773">
        <ele>177</ele>
        <time>2013-09-29T07:49:20Z</time>
      </trkpt>
      <trkpt lat="46.75152" lon="-0.44754">
        <ele>177</ele>
        <time>2013-09-29T07:49:26Z</time>
      </trkpt>
      <trkpt lat="46.75157" lon="-0.44752">
        <ele>177</ele>
        <time>2013-09-29T07:49:27Z</time>
      </trkpt>
      <trkpt lat="46.75161" lon="-0.44752">
        <ele>177</ele>
        <time>2013-09-29T07:49:28Z</time>
      </trkpt>
      <trkpt lat="46.75166" lon="-0.44753">
        <ele>177</ele>
        <time>2013-09-29T07:49:29Z</time>
      </trkpt>
      <trkpt lat="46.75171" lon="-0.44755">
        <ele>177</ele>
        <time>2013-09-29T07:49:30Z</time>
      </trkpt>
      <trkpt lat="46.75176" lon="-0.44756">
        <ele>176</ele>
        <time>2013-09-29T07:49:31Z</time>
      </trkpt>
      <trkpt lat="46.75182" lon="-0.44755">
        <ele>176</ele>
        <time>2013-09-29T07:49:32Z</time>
      </trkpt>
      <trkpt lat="46.75188" lon="-0.44754">
        <ele>176</ele>
        <time>2013-09-29T07:49:33Z</time>
      </trkpt>
      <trkpt lat="46.75194" lon="-0.44751">
        <ele>176</ele>
        <time>2013-09-29T07:49:34Z</time>
      </trkpt>
      <trkpt lat="46.752" lon="-0.44748">
        <ele>176</ele>
        <time>2013-09-29T07:49:35Z</time>
      </trkpt>
      <trkpt lat="46.75205" lon="-0.44744">
        <ele>176</ele>
        <time>2013-09-29T07:49:36Z</time>
      </trkpt>
      <trkpt lat="46.75217" lon="-0.44737">
        <ele>175</ele>
        <time>2013-09-29T07:49:38Z</time>
      </trkpt>
      <trkpt lat="46.75222" lon="-0.44733">
        <ele>175</ele>
        <time>2013-09-29T07:49:39Z</time>
      </trkpt>
      <trkpt lat="46.75228" lon="-0.44729">
        <ele>175</ele>
        <time>2013-09-29T07:49:40Z</time>
      </trkpt>
      <trkpt lat="46.75233" lon="-0.44724">
        <ele>175</ele>
        <time>2013-09-29T07:49:41Z</time>
      </trkpt>
      <trkpt lat="46.75238" lon="-0.44719">
        <ele>175</ele>
        <time>2013-09-29T07:49:42Z</time>
      </trkpt>
      <trkpt lat="46.75306" lon="-0.44658">
        <ele>175</ele>
        <time>2013-09-29T07:49:55Z</time>
      </trkpt>
      <trkpt lat="46.75311" lon="-0.44654">
        <ele>175</ele>
        <time>2013-09-29T07:49:56Z</time>
      </trkpt>
      <trkpt lat="46.75316" lon="-0.44651">
        <ele>175</ele>
        <time>2013-09-29T07:49:57Z</time>
      </trkpt>
      <trkpt lat="46.75321" lon="-0.4465">
        <ele>175</ele>
        <time>2013-09-29T07:49:58Z</time>
      </trkpt>
      <trkpt lat="46.75326" lon="-0.4465">
        <ele>174</ele>
        <time>2013-09-29T07:49:59Z</time>
      </trkpt>
      <trkpt lat="46.75331" lon="-0.44652">
        <ele>174</ele>
        <time>2013-09-29T07:50:00Z</time>
      </trkpt>
      <trkpt lat="46.75337" lon="-0.44654">
        <ele>175</ele>
        <time>2013-09-29T07:50:01Z</time>
      </trkpt>
      <trkpt lat="46.75343" lon="-0.44656">
        <ele>175</ele>
        <time>2013-09-29T07:50:02Z</time>
      </trkpt>
      <trkpt lat="46.75348" lon="-0.44656">
        <ele>175</ele>
        <time>2013-09-29T07:50:03Z</time>
      </trkpt>
      <trkpt lat="46.75354" lon="-0.44655">
        <ele>175</ele>
        <time>2013-09-29T07:50:04Z</time>
      </trkpt>
      <trkpt lat="46.7536" lon="-0.44653">
        <ele>175</ele>
        <time>2013-09-29T07:50:05Z</time>
      </trkpt>
      <trkpt lat="46.75365" lon="-0.44651">
        <ele>175</ele>
        <time>2013-09-29T07:50:06Z</time>
      </trkpt>
      <trkpt lat="46.75402" lon="-0.4463">
        <ele>176</ele>
        <time>2013-09-29T07:50:13Z</time>
      </trkpt>
      <trkpt lat="46.75466" lon="-0.4459">
        <ele>176</ele>
        <time>2013-09-29T07:50:26Z</time>
      </trkpt>
      <trkpt lat="46.75472" lon="-0.4459">
        <ele>176</ele>
        <time>2013-09-29T07:50:27Z</time>
      </trkpt>
      <trkpt lat="46.75477" lon="-0.44592">
        <ele>176</ele>
        <time>2013-09-29T07:50:28Z</time>
      </trkpt>
      <trkpt lat="46.75481" lon="-0.44596">
        <ele>176</ele>
        <time>2013-09-29T07:50:29Z</time>
      </trkpt>
      <trkpt lat="46.75485" lon="-0.44602">
        <ele>176</ele>
        <time>2013-09-29T07:50:30Z</time>
      </trkpt>
      <trkpt lat="46.75488" lon="-0.44608">
        <ele>176</ele>
        <time>2013-09-29T07:50:31Z</time>
      </trkpt>
      <trkpt lat="46.75498" lon="-0.44632">
        <ele>176</ele>
        <time>2013-09-29T07:50:35Z</time>
      </trkpt>
      <trkpt lat="46.75499" lon="-0.44639">
        <ele>176</ele>
        <time>2013-09-29T07:50:36Z</time>
      </trkpt>
      <trkpt lat="46.75498" lon="-0.44645">
        <ele>176</ele>
        <time>2013-09-29T07:50:37Z</time>
      </trkpt>
      <trkpt lat="46.75497" lon="-0.44653">
        <ele>176</ele>
        <time>2013-09-29T07:50:38Z</time>
      </trkpt>
      <trkpt lat="46.75495" lon="-0.4466">
        <ele>176</ele>
        <time>2013-09-29T07:50:39Z</time>
      </trkpt>
      <trkpt lat="46.75464" lon="-0.44767">
        <ele>174</ele>
        <time>2013-09-29T07:50:53Z</time>
      </trkpt>
      <trkpt lat="46.75454" lon="-0.44808">
        <ele>174</ele>
        <time>2013-09-29T07:50:58Z</time>
      </trkpt>
      <trkpt lat="46.75436" lon="-0.44911">
        <ele>174</ele>
        <time>2013-09-29T07:51:10Z</time>
      </trkpt>
      <trkpt lat="46.75401" lon="-0.4502">
        <ele>173</ele>
        <time>2013-09-29T07:51:24Z</time>
      </trkpt>
      <trkpt lat="46.75399" lon="-0.45046">
        <ele>173</ele>
        <time>2013-09-29T07:51:27Z</time>
      </trkpt>
      <trkpt lat="46.75402" lon="-0.45078">
        <ele>174</ele>
        <time>2013-09-29T07:51:31Z</time>
      </trkpt>
      <trkpt lat="46.75405" lon="-0.451">
        <ele>172</ele>
        <time>2013-09-29T07:51:34Z</time>
      </trkpt>
      <trkpt lat="46.75407" lon="-0.45107">
        <ele>172</ele>
        <time>2013-09-29T07:51:35Z</time>
      </trkpt>
      <trkpt lat="46.75409" lon="-0.45113">
        <ele>172</ele>
        <time>2013-09-29T07:51:36Z</time>
      </trkpt>
      <trkpt lat="46.75412" lon="-0.4512">
        <ele>171</ele>
        <time>2013-09-29T07:51:37Z</time>
      </trkpt>
      <trkpt lat="46.75415" lon="-0.45127">
        <ele>171</ele>
        <time>2013-09-29T07:51:38Z</time>
      </trkpt>
      <trkpt lat="46.7542" lon="-0.45134">
        <ele>172</ele>
        <time>2013-09-29T07:51:39Z</time>
      </trkpt>
      <trkpt lat="46.75424" lon="-0.4514">
        <ele>172</ele>
        <time>2013-09-29T07:51:40Z</time>
      </trkpt>
      <trkpt lat="46.75429" lon="-0.45146">
        <ele>171</ele>
        <time>2013-09-29T07:51:41Z</time>
      </trkpt>
      <trkpt lat="46.75463" lon="-0.45183">
        <ele>168</ele>
        <time>2013-09-29T07:51:48Z</time>
      </trkpt>
      <trkpt lat="46.75468" lon="-0.45186">
        <ele>168</ele>
        <time>2013-09-29T07:51:49Z</time>
      </trkpt>
      <trkpt lat="46.75473" lon="-0.45187">
        <ele>168</ele>
        <time>2013-09-29T07:51:50Z</time>
      </trkpt>
      <trkpt lat="46.75478" lon="-0.45187">
        <ele>169</ele>
        <time>2013-09-29T07:51:51Z</time>
      </trkpt>
      <trkpt lat="46.75482" lon="-0.45185">
        <ele>169</ele>
        <time>2013-09-29T07:51:52Z</time>
      </trkpt>
      <trkpt lat="46.75486" lon="-0.45181">
        <ele>169</ele>
        <time>2013-09-29T07:51:53Z</time>
      </trkpt>
      <trkpt lat="46.75489" lon="-0.45175">
        <ele>170</ele>
        <time>2013-09-29T07:51:54Z</time>
      </trkpt>
      <trkpt lat="46.75491" lon="-0.4517">
        <ele>170</ele>
        <time>2013-09-29T07:51:55Z</time>
      </trkpt>
      <trkpt lat="46.75493" lon="-0.45167">
        <ele>171</ele>
        <time>2013-09-29T07:51:56Z</time>
      </trkpt>
      <trkpt lat="46.75497" lon="-0.45165">
        <ele>172</ele>
        <time>2013-09-29T07:51:57Z</time>
      </trkpt>
      <trkpt lat="46.755" lon="-0.45162">
        <ele>172</ele>
        <time>2013-09-29T07:51:58Z</time>
      </trkpt>
      <trkpt lat="46.75504" lon="-0.45159">
        <ele>172</ele>
        <time>2013-09-29T07:51:59Z</time>
      </trkpt>
      <trkpt lat="46.75515" lon="-0.45149">
        <ele>173</ele>
        <time>2013-09-29T07:52:02Z</time>
      </trkpt>
      <trkpt lat="46.75519" lon="-0.45145">
        <ele>173</ele>
        <time>2013-09-29T07:52:03Z</time>
      </trkpt>
      <trkpt lat="46.75533" lon="-0.45132">
        <ele>173</ele>
        <time>2013-09-29T07:52:07Z</time>
      </trkpt>
      <trkpt lat="46.75538" lon="-0.45129">
        <ele>173</ele>
        <time>2013-09-29T07:52:08Z</time>
      </trkpt>
      <trkpt lat="46.75544" lon="-0.45126">
        <ele>173</ele>
        <time>2013-09-29T07:52:09Z</time>
      </trkpt>
      <trkpt lat="46.75549" lon="-0.45124">
        <ele>173</ele>
        <time>2013-09-29T07:52:10Z</time>
      </trkpt>
      <trkpt lat="46.75553" lon="-0.45121">
        <ele>173</ele>
        <time>2013-09-29T07:52:11Z</time>
      </trkpt>
      <trkpt lat="46.75572" lon="-0.4511">
        <ele>174</ele>
        <time>2013-09-29T07:52:16Z</time>
      </trkpt>
      <trkpt lat="46.75576" lon="-0.45108">
        <ele>174</ele>
        <time>2013-09-29T07:52:17Z</time>
      </trkpt>
      <trkpt lat="46.75633" lon="-0.45081">
        <ele>173</ele>
        <time>2013-09-29T07:52:29Z</time>
      </trkpt>
      <trkpt lat="46.75653" lon="-0.45074">
        <ele>173</ele>
        <time>2013-09-29T07:52:34Z</time>
      </trkpt>
      <trkpt lat="46.75659" lon="-0.45076">
        <ele>173</ele>
        <time>2013-09-29T07:52:35Z</time>
      </trkpt>
      <trkpt lat="46.75687" lon="-0.45085">
        <ele>171</ele>
        <time>2013-09-29T07:52:40Z</time>
      </trkpt>
      <trkpt lat="46.75692" lon="-0.45086">
        <ele>170</ele>
        <time>2013-09-29T07:52:41Z</time>
      </trkpt>
      <trkpt lat="46.75697" lon="-0.45086">
        <ele>170</ele>
        <time>2013-09-29T07:52:42Z</time>
      </trkpt>
      <trkpt lat="46.75703" lon="-0.45085">
        <ele>170</ele>
        <time>2013-09-29T07:52:43Z</time>
      </trkpt>
      <trkpt lat="46.75708" lon="-0.45084">
        <ele>170</ele>
        <time>2013-09-29T07:52:44Z</time>
      </trkpt>
      <trkpt lat="46.75713" lon="-0.45082">
        <ele>171</ele>
        <time>2013-09-29T07:52:45Z</time>
      </trkpt>
      <trkpt lat="46.75717" lon="-0.45081">
        <ele>171</ele>
        <time>2013-09-29T07:52:46Z</time>
      </trkpt>
      <trkpt lat="46.75738" lon="-0.45078">
        <ele>170</ele>
        <time>2013-09-29T07:52:50Z</time>
      </trkpt>
      <trkpt lat="46.75748" lon="-0.45079">
        <ele>169</ele>
        <time>2013-09-29T07:52:52Z</time>
      </trkpt>
      <trkpt lat="46.75787" lon="-0.45079">
        <ele>168</ele>
        <time>2013-09-29T07:52:59Z</time>
      </trkpt>
      <trkpt lat="46.75793" lon="-0.45079">
        <ele>167</ele>
        <time>2013-09-29T07:53:00Z</time>
      </trkpt>
      <trkpt lat="46.75799" lon="-0.4508">
        <ele>167</ele>
        <time>2013-09-29T07:53:01Z</time>
      </trkpt>
      <trkpt lat="46.75821" lon="-0.45084">
        <ele>166</ele>
        <time>2013-09-29T07:53:05Z</time>
      </trkpt>
      <trkpt lat="46.75826" lon="-0.45084">
        <ele>165</ele>
        <time>2013-09-29T07:53:06Z</time>
      </trkpt>
      <trkpt lat="46.75832" lon="-0.45082">
        <ele>165</ele>
        <time>2013-09-29T07:53:07Z</time>
      </trkpt>
      <trkpt lat="46.75837" lon="-0.45079">
        <ele>165</ele>
        <time>2013-09-29T07:53:08Z</time>
      </trkpt>
      <trkpt lat="46.75842" lon="-0.45076">
        <ele>165</ele>
        <time>2013-09-29T07:53:09Z</time>
      </trkpt>
      <trkpt lat="46.75846" lon="-0.45072">
        <ele>165</ele>
        <time>2013-09-29T07:53:10Z</time>
      </trkpt>
      <trkpt lat="46.7585" lon="-0.45068">
        <ele>166</ele>
        <time>2013-09-29T07:53:11Z</time>
      </trkpt>
      <trkpt lat="46.75865" lon="-0.45053">
        <ele>166</ele>
        <time>2013-09-29T07:53:15Z</time>
      </trkpt>
      <trkpt lat="46.75869" lon="-0.45051">
        <ele>166</ele>
        <time>2013-09-29T07:53:16Z</time>
      </trkpt>
      <trkpt lat="46.75882" lon="-0.45042">
        <ele>166</ele>
        <time>2013-09-29T07:53:19Z</time>
      </trkpt>
      <trkpt lat="46.75887" lon="-0.45038">
        <ele>166</ele>
        <time>2013-09-29T07:53:20Z</time>
      </trkpt>
      <trkpt lat="46.75891" lon="-0.45034">
        <ele>166</ele>
        <time>2013-09-29T07:53:21Z</time>
      </trkpt>
      <trkpt lat="46.75896" lon="-0.45032">
        <ele>166</ele>
        <time>2013-09-29T07:53:22Z</time>
      </trkpt>
      <trkpt lat="46.75901" lon="-0.45031">
        <ele>166</ele>
        <time>2013-09-29T07:53:23Z</time>
      </trkpt>
      <trkpt lat="46.75905" lon="-0.45033">
        <ele>166</ele>
        <time>2013-09-29T07:53:24Z</time>
      </trkpt>
      <trkpt lat="46.75908" lon="-0.45037">
        <ele>166</ele>
        <time>2013-09-29T07:53:25Z</time>
      </trkpt>
      <trkpt lat="46.75907" lon="-0.45042">
        <ele>166</ele>
        <time>2013-09-29T07:53:26Z</time>
      </trkpt>
      <trkpt lat="46.75904" lon="-0.45048">
        <ele>166</ele>
        <time>2013-09-29T07:53:27Z</time>
      </trkpt>
      <trkpt lat="46.75901" lon="-0.45053">
        <ele>166</ele>
        <time>2013-09-29T07:53:28Z</time>
      </trkpt>
      <trkpt lat="46.75899" lon="-0.45059">
        <ele>166</ele>
        <time>2013-09-29T07:53:29Z</time>
      </trkpt>
      <trkpt lat="46.75893" lon="-0.4507">
        <ele>166</ele>
        <time>2013-09-29T07:53:31Z</time>
      </trkpt>
      <trkpt lat="46.75885" lon="-0.45091">
        <ele>164</ele>
        <time>2013-09-29T07:53:34Z</time>
      </trkpt>
      <trkpt lat="46.75882" lon="-0.45106">
        <ele>164</ele>
        <time>2013-09-29T07:53:36Z</time>
      </trkpt>
      <trkpt lat="46.7588" lon="-0.45112">
        <ele>164</ele>
        <time>2013-09-29T07:53:37Z</time>
      </trkpt>
      <trkpt lat="46.75878" lon="-0.45118">
        <ele>164</ele>
        <time>2013-09-29T07:53:38Z</time>
      </trkpt>
      <trkpt lat="46.75877" lon="-0.45126">
        <ele>164</ele>
        <time>2013-09-29T07:53:39Z</time>
      </trkpt>
      <trkpt lat="46.75877" lon="-0.45135">
        <ele>164</ele>
        <time>2013-09-29T07:53:40Z</time>
      </trkpt>
      <trkpt lat="46.75876" lon="-0.45143">
        <ele>164</ele>
        <time>2013-09-29T07:53:41Z</time>
      </trkpt>
      <trkpt lat="46.75876" lon="-0.4516">
        <ele>164</ele>
        <time>2013-09-29T07:53:43Z</time>
      </trkpt>
      <trkpt lat="46.75876" lon="-0.45168">
        <ele>162</ele>
        <time>2013-09-29T07:53:44Z</time>
      </trkpt>
      <trkpt lat="46.75875" lon="-0.45176">
        <ele>162</ele>
        <time>2013-09-29T07:53:45Z</time>
      </trkpt>
      <trkpt lat="46.75875" lon="-0.45198">
        <ele>162</ele>
        <time>2013-09-29T07:53:48Z</time>
      </trkpt>
      <trkpt lat="46.75874" lon="-0.45206">
        <ele>162</ele>
        <time>2013-09-29T07:53:49Z</time>
      </trkpt>
      <trkpt lat="46.75867" lon="-0.45236">
        <ele>162</ele>
        <time>2013-09-29T07:53:53Z</time>
      </trkpt>
      <trkpt lat="46.75835" lon="-0.45333">
        <ele>162</ele>
        <time>2013-09-29T07:54:07Z</time>
      </trkpt>
      <trkpt lat="46.75836" lon="-0.45337">
        <ele>162</ele>
        <time>2013-09-29T07:54:08Z</time>
      </trkpt>
      <trkpt lat="46.75838" lon="-0.45342">
        <ele>161</ele>
        <time>2013-09-29T07:54:09Z</time>
      </trkpt>
      <trkpt lat="46.75843" lon="-0.45346">
        <ele>161</ele>
        <time>2013-09-29T07:54:10Z</time>
      </trkpt>
      <trkpt lat="46.75848" lon="-0.45351">
        <ele>160</ele>
        <time>2013-09-29T07:54:11Z</time>
      </trkpt>
      <trkpt lat="46.75853" lon="-0.45356">
        <ele>160</ele>
        <time>2013-09-29T07:54:12Z</time>
      </trkpt>
      <trkpt lat="46.75889" lon="-0.45382">
        <ele>159</ele>
        <time>2013-09-29T07:54:17Z</time>
      </trkpt>
      <trkpt lat="46.75902" lon="-0.45389">
        <ele>158</ele>
        <time>2013-09-29T07:54:19Z</time>
      </trkpt>
      <trkpt lat="46.75905" lon="-0.45392">
        <ele>158</ele>
        <time>2013-09-29T07:54:20Z</time>
      </trkpt>
      <trkpt lat="46.75906" lon="-0.45395">
        <ele>158</ele>
        <time>2013-09-29T07:54:21Z</time>
      </trkpt>
      <trkpt lat="46.75905" lon="-0.45399">
        <ele>158</ele>
        <time>2013-09-29T07:54:22Z</time>
      </trkpt>
      <trkpt lat="46.759" lon="-0.45413">
        <ele>158</ele>
        <time>2013-09-29T07:54:26Z</time>
      </trkpt>
      <trkpt lat="46.75878" lon="-0.45474">
        <ele>157</ele>
        <time>2013-09-29T07:54:36Z</time>
      </trkpt>
      <trkpt lat="46.75873" lon="-0.45488">
        <ele>157</ele>
        <time>2013-09-29T07:54:38Z</time>
      </trkpt>
      <trkpt lat="46.75855" lon="-0.45526">
        <ele>156</ele>
        <time>2013-09-29T07:54:46Z</time>
      </trkpt>
      <trkpt lat="46.75843" lon="-0.45553">
        <ele>155</ele>
        <time>2013-09-29T07:54:51Z</time>
      </trkpt>
      <trkpt lat="46.75837" lon="-0.45565">
        <ele>155</ele>
        <time>2013-09-29T07:54:53Z</time>
      </trkpt>
      <trkpt lat="46.75834" lon="-0.45571">
        <ele>155</ele>
        <time>2013-09-29T07:54:54Z</time>
      </trkpt>
      <trkpt lat="46.75826" lon="-0.45588">
        <ele>155</ele>
        <time>2013-09-29T07:54:57Z</time>
      </trkpt>
      <trkpt lat="46.75825" lon="-0.45594">
        <ele>155</ele>
        <time>2013-09-29T07:54:58Z</time>
      </trkpt>
      <trkpt lat="46.75824" lon="-0.45601">
        <ele>156</ele>
        <time>2013-09-29T07:54:59Z</time>
      </trkpt>
      <trkpt lat="46.75825" lon="-0.45608">
        <ele>156</ele>
        <time>2013-09-29T07:55:00Z</time>
      </trkpt>
      <trkpt lat="46.75828" lon="-0.45614">
        <ele>156</ele>
        <time>2013-09-29T07:55:01Z</time>
      </trkpt>
      <trkpt lat="46.75832" lon="-0.4563">
        <ele>155</ele>
        <time>2013-09-29T07:55:03Z</time>
      </trkpt>
      <trkpt lat="46.75834" lon="-0.45636">
        <ele>154</ele>
        <time>2013-09-29T07:55:04Z</time>
      </trkpt>
      <trkpt lat="46.75858" lon="-0.45691">
        <ele>153</ele>
        <time>2013-09-29T07:55:12Z</time>
      </trkpt>
      <trkpt lat="46.75864" lon="-0.45701">
        <ele>153</ele>
        <time>2013-09-29T07:55:14Z</time>
      </trkpt>
      <trkpt lat="46.75868" lon="-0.45705">
        <ele>153</ele>
        <time>2013-09-29T07:55:15Z</time>
      </trkpt>
      <trkpt lat="46.75871" lon="-0.4571">
        <ele>153</ele>
        <time>2013-09-29T07:55:16Z</time>
      </trkpt>
      <trkpt lat="46.75922" lon="-0.45777">
        <ele>154</ele>
        <time>2013-09-29T07:55:29Z</time>
      </trkpt>
      <trkpt lat="46.75931" lon="-0.45793">
        <ele>154</ele>
        <time>2013-09-29T07:55:32Z</time>
      </trkpt>
      <trkpt lat="46.75978" lon="-0.45867">
        <ele>157</ele>
        <time>2013-09-29T07:55:45Z</time>
      </trkpt>
      <trkpt lat="46.75996" lon="-0.45896">
        <ele>158</ele>
        <time>2013-09-29T07:55:51Z</time>
      </trkpt>
      <trkpt lat="46.75999" lon="-0.45902">
        <ele>158</ele>
        <time>2013-09-29T07:55:52Z</time>
      </trkpt>
      <trkpt lat="46.76008" lon="-0.4592">
        <ele>160</ele>
        <time>2013-09-29T07:55:55Z</time>
      </trkpt>
      <trkpt lat="46.76011" lon="-0.45926">
        <ele>160</ele>
        <time>2013-09-29T07:55:56Z</time>
      </trkpt>
      <trkpt lat="46.76026" lon="-0.45957">
        <ele>162</ele>
        <time>2013-09-29T07:56:01Z</time>
      </trkpt>
      <trkpt lat="46.76033" lon="-0.45976">
        <ele>162</ele>
        <time>2013-09-29T07:56:04Z</time>
      </trkpt>
      <trkpt lat="46.76051" lon="-0.46027">
        <ele>164</ele>
        <time>2013-09-29T07:56:13Z</time>
      </trkpt>
      <trkpt lat="46.76052" lon="-0.46032">
        <ele>164</ele>
        <time>2013-09-29T07:56:14Z</time>
      </trkpt>
      <trkpt lat="46.76059" lon="-0.46054">
        <ele>165</ele>
        <time>2013-09-29T07:56:18Z</time>
      </trkpt>
      <trkpt lat="46.76062" lon="-0.46059">
        <ele>165</ele>
        <time>2013-09-29T07:56:19Z</time>
      </trkpt>
      <trkpt lat="46.76088" lon="-0.46116">
        <ele>166</ele>
        <time>2013-09-29T07:56:30Z</time>
      </trkpt>
      <trkpt lat="46.76091" lon="-0.46121">
        <ele>166</ele>
        <time>2013-09-29T07:56:31Z</time>
      </trkpt>
      <trkpt lat="46.76134" lon="-0.46193">
        <ele>167</ele>
        <time>2013-09-29T07:56:44Z</time>
      </trkpt>
      <trkpt lat="46.76137" lon="-0.46199">
        <ele>167</ele>
        <time>2013-09-29T07:56:45Z</time>
      </trkpt>
      <trkpt lat="46.76171" lon="-0.46275">
        <ele>165</ele>
        <time>2013-09-29T07:56:55Z</time>
      </trkpt>
      <trkpt lat="46.7618" lon="-0.4631">
        <ele>164</ele>
        <time>2013-09-29T07:56:59Z</time>
      </trkpt>
      <trkpt lat="46.76192" lon="-0.46409">
        <ele>163</ele>
        <time>2013-09-29T07:57:10Z</time>
      </trkpt>
      <trkpt lat="46.76194" lon="-0.46418">
        <ele>163</ele>
        <time>2013-09-29T07:57:11Z</time>
      </trkpt>
      <trkpt lat="46.76199" lon="-0.46434">
        <ele>163</ele>
        <time>2013-09-29T07:57:13Z</time>
      </trkpt>
      <trkpt lat="46.76202" lon="-0.46443">
        <ele>163</ele>
        <time>2013-09-29T07:57:14Z</time>
      </trkpt>
      <trkpt lat="46.76205" lon="-0.46451">
        <ele>163</ele>
        <time>2013-09-29T07:57:15Z</time>
      </trkpt>
      <trkpt lat="46.76209" lon="-0.46459">
        <ele>162</ele>
        <time>2013-09-29T07:57:16Z</time>
      </trkpt>
      <trkpt lat="46.76214" lon="-0.46466">
        <ele>162</ele>
        <time>2013-09-29T07:57:17Z</time>
      </trkpt>
      <trkpt lat="46.76218" lon="-0.46474">
        <ele>162</ele>
        <time>2013-09-29T07:57:18Z</time>
      </trkpt>
      <trkpt lat="46.76223" lon="-0.4648">
        <ele>162</ele>
        <time>2013-09-29T07:57:19Z</time>
      </trkpt>
      <trkpt lat="46.76227" lon="-0.46485">
        <ele>162</ele>
        <time>2013-09-29T07:57:20Z</time>
      </trkpt>
      <trkpt lat="46.76233" lon="-0.4649">
        <ele>162</ele>
        <time>2013-09-29T07:57:21Z</time>
      </trkpt>
      <trkpt lat="46.76296" lon="-0.46548">
        <ele>161</ele>
        <time>2013-09-29T07:57:34Z</time>
      </trkpt>
      <trkpt lat="46.76299" lon="-0.46551">
        <ele>161</ele>
        <time>2013-09-29T07:57:38Z</time>
      </trkpt>
      <trkpt lat="46.763" lon="-0.46553">
        <ele>161</ele>
        <time>2013-09-29T07:57:39Z</time>
      </trkpt>
      <trkpt lat="46.76302" lon="-0.46555">
        <ele>161</ele>
        <time>2013-09-29T07:57:40Z</time>
      </trkpt>
      <trkpt lat="46.76304" lon="-0.46558">
        <ele>161</ele>
        <time>2013-09-29T07:57:41Z</time>
      </trkpt>
      <trkpt lat="46.76306" lon="-0.4656">
        <ele>161</ele>
        <time>2013-09-29T07:57:42Z</time>
      </trkpt>
      <trkpt lat="46.76309" lon="-0.46563">
        <ele>161</ele>
        <time>2013-09-29T07:57:43Z</time>
      </trkpt>
      <trkpt lat="46.76313" lon="-0.46567">
        <ele>161</ele>
        <time>2013-09-29T07:57:44Z</time>
      </trkpt>
      <trkpt lat="46.7633" lon="-0.46583">
        <ele>161</ele>
        <time>2013-09-29T07:57:49Z</time>
      </trkpt>
      <trkpt lat="46.76334" lon="-0.46586">
        <ele>161</ele>
        <time>2013-09-29T07:57:50Z</time>
      </trkpt>
      <trkpt lat="46.76338" lon="-0.46587">
        <ele>161</ele>
        <time>2013-09-29T07:57:51Z</time>
      </trkpt>
      <trkpt lat="46.76342" lon="-0.46589">
        <ele>162</ele>
        <time>2013-09-29T07:57:52Z</time>
      </trkpt>
      <trkpt lat="46.76346" lon="-0.46589">
        <ele>162</ele>
        <time>2013-09-29T07:57:53Z</time>
      </trkpt>
      <trkpt lat="46.76377" lon="-0.46588">
        <ele>163</ele>
        <time>2013-09-29T07:58:00Z</time>
      </trkpt>
      <trkpt lat="46.76382" lon="-0.4659">
        <ele>163</ele>
        <time>2013-09-29T07:58:01Z</time>
      </trkpt>
      <trkpt lat="46.76387" lon="-0.46593">
        <ele>163</ele>
        <time>2013-09-29T07:58:02Z</time>
      </trkpt>
      <trkpt lat="46.76392" lon="-0.46597">
        <ele>163</ele>
        <time>2013-09-29T07:58:03Z</time>
      </trkpt>
      <trkpt lat="46.76397" lon="-0.46601">
        <ele>163</ele>
        <time>2013-09-29T07:58:04Z</time>
      </trkpt>
      <trkpt lat="46.76402" lon="-0.46604">
        <ele>163</ele>
        <time>2013-09-29T07:58:05Z</time>
      </trkpt>
      <trkpt lat="46.76407" lon="-0.46608">
        <ele>163</ele>
        <time>2013-09-29T07:58:06Z</time>
      </trkpt>
      <trkpt lat="46.76446" lon="-0.46637">
        <ele>164</ele>
        <time>2013-09-29T07:58:14Z</time>
      </trkpt>
      <trkpt lat="46.76452" lon="-0.4664">
        <ele>164</ele>
        <time>2013-09-29T07:58:15Z</time>
      </trkpt>
      <trkpt lat="46.76495" lon="-0.46658">
        <ele>165</ele>
        <time>2013-09-29T07:58:23Z</time>
      </trkpt>
      <trkpt lat="46.765" lon="-0.4666">
        <ele>165</ele>
        <time>2013-09-29T07:58:24Z</time>
      </trkpt>
      <trkpt lat="46.7652" lon="-0.46668">
        <ele>165</ele>
        <time>2013-09-29T07:58:28Z</time>
      </trkpt>
      <trkpt lat="46.76529" lon="-0.46672">
        <ele>165</ele>
        <time>2013-09-29T07:58:30Z</time>
      </trkpt>
      <trkpt lat="46.76553" lon="-0.46681">
        <ele>165</ele>
        <time>2013-09-29T07:58:35Z</time>
      </trkpt>
      <trkpt lat="46.76583" lon="-0.46693">
        <ele>165</ele>
        <time>2013-09-29T07:58:41Z</time>
      </trkpt>
      <trkpt lat="46.76645" lon="-0.4671">
        <ele>167</ele>
        <time>2013-09-29T07:58:54Z</time>
      </trkpt>
      <trkpt lat="46.76649" lon="-0.46713">
        <ele>167</ele>
        <time>2013-09-29T07:58:55Z</time>
      </trkpt>
      <trkpt lat="46.76653" lon="-0.46717">
        <ele>167</ele>
        <time>2013-09-29T07:58:56Z</time>
      </trkpt>
      <trkpt lat="46.76656" lon="-0.46722">
        <ele>167</ele>
        <time>2013-09-29T07:58:57Z</time>
      </trkpt>
      <trkpt lat="46.76659" lon="-0.46727">
        <ele>167</ele>
        <time>2013-09-29T07:58:58Z</time>
      </trkpt>
      <trkpt lat="46.76675" lon="-0.46754">
        <ele>169</ele>
        <time>2013-09-29T07:59:04Z</time>
      </trkpt>
      <trkpt lat="46.76694" lon="-0.46812">
        <ele>170</ele>
        <time>2013-09-29T07:59:15Z</time>
      </trkpt>
      <trkpt lat="46.76701" lon="-0.46848">
        <ele>172</ele>
        <time>2013-09-29T07:59:23Z</time>
      </trkpt>
      <trkpt lat="46.76701" lon="-0.46851">
        <ele>172</ele>
        <time>2013-09-29T07:59:24Z</time>
      </trkpt>
      <trkpt lat="46.76703" lon="-0.46854">
        <ele>172</ele>
        <time>2013-09-29T07:59:25Z</time>
      </trkpt>
      <trkpt lat="46.76705" lon="-0.46857">
        <ele>172</ele>
        <time>2013-09-29T07:59:26Z</time>
      </trkpt>
      <trkpt lat="46.76706" lon="-0.4686">
        <ele>172</ele>
        <time>2013-09-29T07:59:27Z</time>
      </trkpt>
      <trkpt lat="46.76708" lon="-0.46863">
        <ele>172</ele>
        <time>2013-09-29T07:59:28Z</time>
      </trkpt>
      <trkpt lat="46.76709" lon="-0.46867">
        <ele>172</ele>
        <time>2013-09-29T07:59:29Z</time>
      </trkpt>
      <trkpt lat="46.7671" lon="-0.46871">
        <ele>172</ele>
        <time>2013-09-29T07:59:30Z</time>
      </trkpt>
      <trkpt lat="46.76712" lon="-0.46875">
        <ele>172</ele>
        <time>2013-09-29T07:59:31Z</time>
      </trkpt>
      <trkpt lat="46.76726" lon="-0.46911">
        <ele>173</ele>
        <time>2013-09-29T07:59:40Z</time>
      </trkpt>
      <trkpt lat="46.7673" lon="-0.4693">
        <ele>174</ele>
        <time>2013-09-29T07:59:44Z</time>
      </trkpt>
      <trkpt lat="46.7673" lon="-0.46934">
        <ele>174</ele>
        <time>2013-09-29T07:59:45Z</time>
      </trkpt>
      <trkpt lat="46.76731" lon="-0.46938">
        <ele>174</ele>
        <time>2013-09-29T07:59:46Z</time>
      </trkpt>
      <trkpt lat="46.76732" lon="-0.46942">
        <ele>174</ele>
        <time>2013-09-29T07:59:47Z</time>
      </trkpt>
      <trkpt lat="46.76733" lon="-0.46947">
        <ele>174</ele>
        <time>2013-09-29T07:59:48Z</time>
      </trkpt>
      <trkpt lat="46.76735" lon="-0.46952">
        <ele>174</ele>
        <time>2013-09-29T07:59:49Z</time>
      </trkpt>
      <trkpt lat="46.76737" lon="-0.46956">
        <ele>174</ele>
        <time>2013-09-29T07:59:50Z</time>
      </trkpt>
      <trkpt lat="46.76739" lon="-0.4696">
        <ele>174</ele>
        <time>2013-09-29T07:59:51Z</time>
      </trkpt>
      <trkpt lat="46.76741" lon="-0.46964">
        <ele>174</ele>
        <time>2013-09-29T07:59:52Z</time>
      </trkpt>
      <trkpt lat="46.76756" lon="-0.47">
        <ele>175</ele>
        <time>2013-09-29T08:00:01Z</time>
      </trkpt>
      <trkpt lat="46.76756" lon="-0.47003">
        <ele>175</ele>
        <time>2013-09-29T08:00:02Z</time>
      </trkpt>
      <trkpt lat="46.76757" lon="-0.47005">
        <ele>175</ele>
        <time>2013-09-29T08:00:03Z</time>
      </trkpt>
      <trkpt lat="46.76757" lon="-0.47008">
        <ele>175</ele>
        <time>2013-09-29T08:00:04Z</time>
      </trkpt>
      <trkpt lat="46.76758" lon="-0.4701">
        <ele>175</ele>
        <time>2013-09-29T08:00:05Z</time>
      </trkpt>
      <trkpt lat="46.7676" lon="-0.47012">
        <ele>175</ele>
        <time>2013-09-29T08:00:06Z</time>
      </trkpt>
      <trkpt lat="46.76762" lon="-0.47014">
        <ele>175</ele>
        <time>2013-09-29T08:00:07Z</time>
      </trkpt>
      <trkpt lat="46.76763" lon="-0.47015">
        <ele>175</ele>
        <time>2013-09-29T08:00:08Z</time>
      </trkpt>
      <trkpt lat="46.76774" lon="-0.47031">
        <ele>175</ele>
        <time>2013-09-29T08:00:19Z</time>
      </trkpt>
      <trkpt lat="46.76779" lon="-0.47035">
        <ele>175</ele>
        <time>2013-09-29T08:00:30Z</time>
      </trkpt>
      <trkpt lat="46.76791" lon="-0.47055">
        <ele>175</ele>
        <time>2013-09-29T08:00:37Z</time>
      </trkpt>
      <trkpt lat="46.76807" lon="-0.47083">
        <ele>176</ele>
        <time>2013-09-29T08:00:47Z</time>
      </trkpt>
      <trkpt lat="46.76807" lon="-0.47085">
        <ele>176</ele>
        <time>2013-09-29T08:00:48Z</time>
      </trkpt>
      <trkpt lat="46.76808" lon="-0.47088">
        <ele>176</ele>
        <time>2013-09-29T08:00:49Z</time>
      </trkpt>
      <trkpt lat="46.76808" lon="-0.47092">
        <ele>176</ele>
        <time>2013-09-29T08:00:50Z</time>
      </trkpt>
      <trkpt lat="46.76809" lon="-0.47095">
        <ele>176</ele>
        <time>2013-09-29T08:00:51Z</time>
      </trkpt>
      <trkpt lat="46.76809" lon="-0.47099">
        <ele>176</ele>
        <time>2013-09-29T08:00:52Z</time>
      </trkpt>
      <trkpt lat="46.76809" lon="-0.47103">
        <ele>176</ele>
        <time>2013-09-29T08:00:53Z</time>
      </trkpt>
      <trkpt lat="46.76809" lon="-0.47106">
        <ele>176</ele>
        <time>2013-09-29T08:00:54Z</time>
      </trkpt>
      <trkpt lat="46.7681" lon="-0.47159">
        <ele>176</ele>
        <time>2013-09-29T08:01:06Z</time>
      </trkpt>
      <trkpt lat="46.76805" lon="-0.47205">
        <ele>177</ele>
        <time>2013-09-29T08:01:18Z</time>
      </trkpt>
      <trkpt lat="46.76807" lon="-0.47212">
        <ele>177</ele>
        <time>2013-09-29T08:01:29Z</time>
      </trkpt>
      <trkpt lat="46.76809" lon="-0.47218">
        <ele>177</ele>
        <time>2013-09-29T08:01:33Z</time>
      </trkpt>
      <trkpt lat="46.76808" lon="-0.4722">
        <ele>177</ele>
        <time>2013-09-29T08:01:34Z</time>
      </trkpt>
      <trkpt lat="46.76808" lon="-0.47221">
        <ele>177</ele>
        <time>2013-09-29T08:01:35Z</time>
      </trkpt>
      <trkpt lat="46.76808" lon="-0.47224">
        <ele>177</ele>
        <time>2013-09-29T08:01:37Z</time>
      </trkpt>
      <trkpt lat="46.76811" lon="-0.47242">
        <ele>177</ele>
        <time>2013-09-29T08:01:47Z</time>
      </trkpt>
      <trkpt lat="46.76811" lon="-0.47244">
        <ele>177</ele>
        <time>2013-09-29T08:01:48Z</time>
      </trkpt>
      <trkpt lat="46.76812" lon="-0.47246">
        <ele>177</ele>
        <time>2013-09-29T08:01:49Z</time>
      </trkpt>
      <trkpt lat="46.76812" lon="-0.47249">
        <ele>177</ele>
        <time>2013-09-29T08:01:50Z</time>
      </trkpt>
      <trkpt lat="46.76811" lon="-0.47252">
        <ele>177</ele>
        <time>2013-09-29T08:01:51Z</time>
      </trkpt>
      <trkpt lat="46.76814" lon="-0.47294">
        <ele>178</ele>
        <time>2013-09-29T08:02:01Z</time>
      </trkpt>
      <trkpt lat="46.76818" lon="-0.47351">
        <ele>179</ele>
        <time>2013-09-29T08:02:14Z</time>
      </trkpt>
      <trkpt lat="46.76821" lon="-0.47372">
        <ele>180</ele>
        <time>2013-09-29T08:02:19Z</time>
      </trkpt>
      <trkpt lat="46.76821" lon="-0.47395">
        <ele>180</ele>
        <time>2013-09-29T08:02:24Z</time>
      </trkpt>
      <trkpt lat="46.76819" lon="-0.47447">
        <ele>182</ele>
        <time>2013-09-29T08:02:35Z</time>
      </trkpt>
      <trkpt lat="46.76819" lon="-0.47455">
        <ele>182</ele>
        <time>2013-09-29T08:02:37Z</time>
      </trkpt>
      <trkpt lat="46.76817" lon="-0.47476">
        <ele>183</ele>
        <time>2013-09-29T08:02:45Z</time>
      </trkpt>
      <trkpt lat="46.76814" lon="-0.47491">
        <ele>183</ele>
        <time>2013-09-29T08:02:52Z</time>
      </trkpt>
      <trkpt lat="46.76793" lon="-0.47542">
        <ele>183</ele>
        <time>2013-09-29T08:03:03Z</time>
      </trkpt>
      <trkpt lat="46.76789" lon="-0.47557">
        <ele>184</ele>
        <time>2013-09-29T08:03:07Z</time>
      </trkpt>
      <trkpt lat="46.76789" lon="-0.47577">
        <ele>184</ele>
        <time>2013-09-29T08:03:12Z</time>
      </trkpt>
      <trkpt lat="46.76785" lon="-0.47589">
        <ele>184</ele>
        <time>2013-09-29T08:03:16Z</time>
      </trkpt>
      <trkpt lat="46.76785" lon="-0.47634">
        <ele>184</ele>
        <time>2013-09-29T08:03:31Z</time>
      </trkpt>
      <trkpt lat="46.76785" lon="-0.4765">
        <ele>184</ele>
        <time>2013-09-29T08:03:42Z</time>
      </trkpt>
      <trkpt lat="46.76784" lon="-0.47665">
        <ele>184</ele>
        <time>2013-09-29T08:03:53Z</time>
      </trkpt>
      <trkpt lat="46.76782" lon="-0.47676">
        <ele>186</ele>
        <time>2013-09-29T08:03:59Z</time>
      </trkpt>
      <trkpt lat="46.76779" lon="-0.47682">
        <ele>186</ele>
        <time>2013-09-29T08:04:03Z</time>
      </trkpt>
      <trkpt lat="46.76772" lon="-0.47689">
        <ele>186</ele>
        <time>2013-09-29T08:04:10Z</time>
      </trkpt>
      <trkpt lat="46.76763" lon="-0.47699">
        <ele>186</ele>
        <time>2013-09-29T08:04:16Z</time>
      </trkpt>
      <trkpt lat="46.76763" lon="-0.47708">
        <ele>186</ele>
        <time>2013-09-29T08:04:20Z</time>
      </trkpt>
      <trkpt lat="46.76764" lon="-0.47714">
        <ele>187</ele>
        <time>2013-09-29T08:04:22Z</time>
      </trkpt>
      <trkpt lat="46.76768" lon="-0.4773">
        <ele>187</ele>
        <time>2013-09-29T08:04:27Z</time>
      </trkpt>
      <trkpt lat="46.76789" lon="-0.47803">
        <ele>190</ele>
        <time>2013-09-29T08:04:47Z</time>
      </trkpt>
      <trkpt lat="46.76793" lon="-0.4782">
        <ele>190</ele>
        <time>2013-09-29T08:04:52Z</time>
      </trkpt>
      <trkpt lat="46.7679" lon="-0.4782">
        <ele>190</ele>
        <time>2013-09-29T08:04:57Z</time>
      </trkpt>
      <trkpt lat="46.768" lon="-0.47854">
        <ele>191</ele>
        <time>2013-09-29T08:05:07Z</time>
      </trkpt>
      <trkpt lat="46.76809" lon="-0.47902">
        <ele>191</ele>
        <time>2013-09-29T08:05:20Z</time>
      </trkpt>
      <trkpt lat="46.76817" lon="-0.47946">
        <ele>192</ele>
        <time>2013-09-29T08:05:32Z</time>
      </trkpt>
      <trkpt lat="46.76826" lon="-0.48002">
        <ele>193</ele>
        <time>2013-09-29T08:05:45Z</time>
      </trkpt>
      <trkpt lat="46.76838" lon="-0.4807">
        <ele>194</ele>
        <time>2013-09-29T08:06:00Z</time>
      </trkpt>
      <trkpt lat="46.76837" lon="-0.48134">
        <ele>195</ele>
        <time>2013-09-29T08:06:14Z</time>
      </trkpt>
      <trkpt lat="46.76836" lon="-0.48144">
        <ele>195</ele>
        <time>2013-09-29T08:06:16Z</time>
      </trkpt>
      <trkpt lat="46.76839" lon="-0.48154">
        <ele>195</ele>
        <time>2013-09-29T08:06:18Z</time>
      </trkpt>
      <trkpt lat="46.76842" lon="-0.48159">
        <ele>195</ele>
        <time>2013-09-29T08:06:19Z</time>
      </trkpt>
      <trkpt lat="46.76845" lon="-0.48162">
        <ele>195</ele>
        <time>2013-09-29T08:06:20Z</time>
      </trkpt>
      <trkpt lat="46.76848" lon="-0.48164">
        <ele>195</ele>
        <time>2013-09-29T08:06:21Z</time>
      </trkpt>
      <trkpt lat="46.76852" lon="-0.48164">
        <ele>195</ele>
        <time>2013-09-29T08:06:22Z</time>
      </trkpt>
      <trkpt lat="46.76855" lon="-0.48164">
        <ele>195</ele>
        <time>2013-09-29T08:06:23Z</time>
      </trkpt>
      <trkpt lat="46.76892" lon="-0.48166">
        <ele>196</ele>
        <time>2013-09-29T08:06:36Z</time>
      </trkpt>
      <trkpt lat="46.76933" lon="-0.48192">
        <ele>198</ele>
        <time>2013-09-29T08:06:50Z</time>
      </trkpt>
      <trkpt lat="46.76953" lon="-0.48223">
        <ele>198</ele>
        <time>2013-09-29T08:07:02Z</time>
      </trkpt>
      <trkpt lat="46.7695" lon="-0.4825">
        <ele>198</ele>
        <time>2013-09-29T08:07:07Z</time>
      </trkpt>
      <trkpt lat="46.76934" lon="-0.48319">
        <ele>197</ele>
        <time>2013-09-29T08:07:20Z</time>
      </trkpt>
      <trkpt lat="46.7693" lon="-0.48336">
        <ele>197</ele>
        <time>2013-09-29T08:07:23Z</time>
      </trkpt>
      <trkpt lat="46.76918" lon="-0.48381">
        <ele>199</ele>
        <time>2013-09-29T08:07:31Z</time>
      </trkpt>
      <trkpt lat="46.76905" lon="-0.4845">
        <ele>200</ele>
        <time>2013-09-29T08:07:43Z</time>
      </trkpt>
      <trkpt lat="46.7688" lon="-0.48551">
        <ele>202</ele>
        <time>2013-09-29T08:07:59Z</time>
      </trkpt>
      <trkpt lat="46.76867" lon="-0.48607">
        <ele>203</ele>
        <time>2013-09-29T08:08:09Z</time>
      </trkpt>
      <trkpt lat="46.76866" lon="-0.48612">
        <ele>203</ele>
        <time>2013-09-29T08:08:10Z</time>
      </trkpt>
      <trkpt lat="46.76857" lon="-0.48647">
        <ele>203</ele>
        <time>2013-09-29T08:08:16Z</time>
      </trkpt>
      <trkpt lat="46.7685" lon="-0.48679">
        <ele>203</ele>
        <time>2013-09-29T08:08:21Z</time>
      </trkpt>
      <trkpt lat="46.76847" lon="-0.48691">
        <ele>203</ele>
        <time>2013-09-29T08:08:23Z</time>
      </trkpt>
      <trkpt lat="46.76822" lon="-0.48795">
        <ele>201</ele>
        <time>2013-09-29T08:08:38Z</time>
      </trkpt>
      <trkpt lat="46.76818" lon="-0.48814">
        <ele>201</ele>
        <time>2013-09-29T08:08:41Z</time>
      </trkpt>
      <trkpt lat="46.76795" lon="-0.48912">
        <ele>201</ele>
        <time>2013-09-29T08:08:55Z</time>
      </trkpt>
      <trkpt lat="46.76775" lon="-0.48998">
        <ele>201</ele>
        <time>2013-09-29T08:09:07Z</time>
      </trkpt>
      <trkpt lat="46.7677" lon="-0.49023">
        <ele>200</ele>
        <time>2013-09-29T08:09:11Z</time>
      </trkpt>
      <trkpt lat="46.7675" lon="-0.49081">
        <ele>198</ele>
        <time>2013-09-29T08:09:22Z</time>
      </trkpt>
      <trkpt lat="46.76748" lon="-0.49088">
        <ele>198</ele>
        <time>2013-09-29T08:09:23Z</time>
      </trkpt>
      <trkpt lat="46.76746" lon="-0.49094">
        <ele>198</ele>
        <time>2013-09-29T08:09:24Z</time>
      </trkpt>
      <trkpt lat="46.76744" lon="-0.49107">
        <ele>198</ele>
        <time>2013-09-29T08:09:26Z</time>
      </trkpt>
      <trkpt lat="46.76725" lon="-0.4918">
        <ele>198</ele>
        <time>2013-09-29T08:09:38Z</time>
      </trkpt>
      <trkpt lat="46.7672" lon="-0.49191">
        <ele>198</ele>
        <time>2013-09-29T08:09:40Z</time>
      </trkpt>
      <trkpt lat="46.76716" lon="-0.49196">
        <ele>197</ele>
        <time>2013-09-29T08:09:41Z</time>
      </trkpt>
      <trkpt lat="46.76701" lon="-0.49214">
        <ele>197</ele>
        <time>2013-09-29T08:09:45Z</time>
      </trkpt>
      <trkpt lat="46.76698" lon="-0.49219">
        <ele>197</ele>
        <time>2013-09-29T08:09:46Z</time>
      </trkpt>
      <trkpt lat="46.76695" lon="-0.49225">
        <ele>197</ele>
        <time>2013-09-29T08:09:47Z</time>
      </trkpt>
      <trkpt lat="46.76691" lon="-0.49231">
        <ele>197</ele>
        <time>2013-09-29T08:09:48Z</time>
      </trkpt>
      <trkpt lat="46.76688" lon="-0.49236">
        <ele>197</ele>
        <time>2013-09-29T08:09:49Z</time>
      </trkpt>
      <trkpt lat="46.76684" lon="-0.49241">
        <ele>197</ele>
        <time>2013-09-29T08:09:50Z</time>
      </trkpt>
      <trkpt lat="46.76681" lon="-0.49247">
        <ele>197</ele>
        <time>2013-09-29T08:09:51Z</time>
      </trkpt>
      <trkpt lat="46.76677" lon="-0.49252">
        <ele>196</ele>
        <time>2013-09-29T08:09:52Z</time>
      </trkpt>
      <trkpt lat="46.76673" lon="-0.49256">
        <ele>196</ele>
        <time>2013-09-29T08:09:53Z</time>
      </trkpt>
      <trkpt lat="46.7667" lon="-0.49261">
        <ele>196</ele>
        <time>2013-09-29T08:09:54Z</time>
      </trkpt>
      <trkpt lat="46.76666" lon="-0.49267">
        <ele>194</ele>
        <time>2013-09-29T08:09:55Z</time>
      </trkpt>
      <trkpt lat="46.76661" lon="-0.49273">
        <ele>194</ele>
        <time>2013-09-29T08:09:56Z</time>
      </trkpt>
      <trkpt lat="46.76657" lon="-0.49278">
        <ele>193</ele>
        <time>2013-09-29T08:09:57Z</time>
      </trkpt>
      <trkpt lat="46.76652" lon="-0.49284">
        <ele>193</ele>
        <time>2013-09-29T08:09:58Z</time>
      </trkpt>
      <trkpt lat="46.76647" lon="-0.49289">
        <ele>192</ele>
        <time>2013-09-29T08:09:59Z</time>
      </trkpt>
      <trkpt lat="46.76642" lon="-0.49294">
        <ele>192</ele>
        <time>2013-09-29T08:10:00Z</time>
      </trkpt>
      <trkpt lat="46.76638" lon="-0.49301">
        <ele>192</ele>
        <time>2013-09-29T08:10:01Z</time>
      </trkpt>
      <trkpt lat="46.76635" lon="-0.49309">
        <ele>191</ele>
        <time>2013-09-29T08:10:02Z</time>
      </trkpt>
      <trkpt lat="46.76633" lon="-0.49318">
        <ele>191</ele>
        <time>2013-09-29T08:10:03Z</time>
      </trkpt>
      <trkpt lat="46.76631" lon="-0.49326">
        <ele>191</ele>
        <time>2013-09-29T08:10:04Z</time>
      </trkpt>
      <trkpt lat="46.76628" lon="-0.49333">
        <ele>188</ele>
        <time>2013-09-29T08:10:05Z</time>
      </trkpt>
      <trkpt lat="46.76624" lon="-0.4934">
        <ele>188</ele>
        <time>2013-09-29T08:10:06Z</time>
      </trkpt>
      <trkpt lat="46.76587" lon="-0.49401">
        <ele>185</ele>
        <time>2013-09-29T08:10:16Z</time>
      </trkpt>
      <trkpt lat="46.76575" lon="-0.49419">
        <ele>182</ele>
        <time>2013-09-29T08:10:19Z</time>
      </trkpt>
      <trkpt lat="46.7657" lon="-0.49423">
        <ele>182</ele>
        <time>2013-09-29T08:10:20Z</time>
      </trkpt>
      <trkpt lat="46.76556" lon="-0.49436">
        <ele>180</ele>
        <time>2013-09-29T08:10:23Z</time>
      </trkpt>
      <trkpt lat="46.76553" lon="-0.49442">
        <ele>180</ele>
        <time>2013-09-29T08:10:24Z</time>
      </trkpt>
      <trkpt lat="46.76552" lon="-0.49448">
        <ele>179</ele>
        <time>2013-09-29T08:10:25Z</time>
      </trkpt>
      <trkpt lat="46.76554" lon="-0.49453">
        <ele>179</ele>
        <time>2013-09-29T08:10:26Z</time>
      </trkpt>
      <trkpt lat="46.76557" lon="-0.49458">
        <ele>179</ele>
        <time>2013-09-29T08:10:27Z</time>
      </trkpt>
      <trkpt lat="46.7656" lon="-0.49465">
        <ele>179</ele>
        <time>2013-09-29T08:10:28Z</time>
      </trkpt>
      <trkpt lat="46.76562" lon="-0.49474">
        <ele>179</ele>
        <time>2013-09-29T08:10:29Z</time>
      </trkpt>
      <trkpt lat="46.76562" lon="-0.49484">
        <ele>179</ele>
        <time>2013-09-29T08:10:30Z</time>
      </trkpt>
      <trkpt lat="46.76562" lon="-0.49495">
        <ele>179</ele>
        <time>2013-09-29T08:10:31Z</time>
      </trkpt>
      <trkpt lat="46.76563" lon="-0.49524">
        <ele>177</ele>
        <time>2013-09-29T08:10:34Z</time>
      </trkpt>
      <trkpt lat="46.76563" lon="-0.49529">
        <ele>177</ele>
        <time>2013-09-29T08:10:35Z</time>
      </trkpt>
      <trkpt lat="46.76567" lon="-0.49561">
        <ele>177</ele>
        <time>2013-09-29T08:10:40Z</time>
      </trkpt>
      <trkpt lat="46.76567" lon="-0.49569">
        <ele>177</ele>
        <time>2013-09-29T08:10:41Z</time>
      </trkpt>
      <trkpt lat="46.76566" lon="-0.49582">
        <ele>177</ele>
        <time>2013-09-29T08:10:43Z</time>
      </trkpt>
      <trkpt lat="46.76566" lon="-0.49589">
        <ele>177</ele>
        <time>2013-09-29T08:10:44Z</time>
      </trkpt>
      <trkpt lat="46.76564" lon="-0.49615">
        <ele>176</ele>
        <time>2013-09-29T08:10:48Z</time>
      </trkpt>
      <trkpt lat="46.76564" lon="-0.49623">
        <ele>176</ele>
        <time>2013-09-29T08:10:49Z</time>
      </trkpt>
      <trkpt lat="46.76563" lon="-0.4963">
        <ele>176</ele>
        <time>2013-09-29T08:10:50Z</time>
      </trkpt>
      <trkpt lat="46.76561" lon="-0.49659">
        <ele>175</ele>
        <time>2013-09-29T08:10:54Z</time>
      </trkpt>
      <trkpt lat="46.76556" lon="-0.4969">
        <ele>175</ele>
        <time>2013-09-29T08:10:58Z</time>
      </trkpt>
      <trkpt lat="46.76554" lon="-0.49697">
        <ele>175</ele>
        <time>2013-09-29T08:10:59Z</time>
      </trkpt>
      <trkpt lat="46.76551" lon="-0.49703">
        <ele>175</ele>
        <time>2013-09-29T08:11:00Z</time>
      </trkpt>
      <trkpt lat="46.76535" lon="-0.4976">
        <ele>176</ele>
        <time>2013-09-29T08:11:08Z</time>
      </trkpt>
      <trkpt lat="46.76531" lon="-0.49774">
        <ele>176</ele>
        <time>2013-09-29T08:11:10Z</time>
      </trkpt>
      <trkpt lat="46.7653" lon="-0.49781">
        <ele>176</ele>
        <time>2013-09-29T08:11:11Z</time>
      </trkpt>
      <trkpt lat="46.76528" lon="-0.49788">
        <ele>176</ele>
        <time>2013-09-29T08:11:12Z</time>
      </trkpt>
      <trkpt lat="46.76521" lon="-0.49864">
        <ele>179</ele>
        <time>2013-09-29T08:11:24Z</time>
      </trkpt>
      <trkpt lat="46.76522" lon="-0.4987">
        <ele>179</ele>
        <time>2013-09-29T08:11:25Z</time>
      </trkpt>
      <trkpt lat="46.76523" lon="-0.49906">
        <ele>179</ele>
        <time>2013-09-29T08:11:31Z</time>
      </trkpt>
      <trkpt lat="46.76524" lon="-0.49919">
        <ele>181</ele>
        <time>2013-09-29T08:11:33Z</time>
      </trkpt>
      <trkpt lat="46.76524" lon="-0.49925">
        <ele>181</ele>
        <time>2013-09-29T08:11:34Z</time>
      </trkpt>
      <trkpt lat="46.76526" lon="-0.50021">
        <ele>184</ele>
        <time>2013-09-29T08:11:49Z</time>
      </trkpt>
      <trkpt lat="46.76527" lon="-0.50027">
        <ele>184</ele>
        <time>2013-09-29T08:11:50Z</time>
      </trkpt>
      <trkpt lat="46.76528" lon="-0.50034">
        <ele>185</ele>
        <time>2013-09-29T08:11:51Z</time>
      </trkpt>
      <trkpt lat="46.76538" lon="-0.50089">
        <ele>187</ele>
        <time>2013-09-29T08:12:00Z</time>
      </trkpt>
      <trkpt lat="46.76568" lon="-0.50179">
        <ele>188</ele>
        <time>2013-09-29T08:12:16Z</time>
      </trkpt>
      <trkpt lat="46.76572" lon="-0.50211">
        <ele>189</ele>
        <time>2013-09-29T08:12:21Z</time>
      </trkpt>
      <trkpt lat="46.7657" lon="-0.50274">
        <ele>191</ele>
        <time>2013-09-29T08:12:31Z</time>
      </trkpt>
      <trkpt lat="46.76571" lon="-0.50304">
        <ele>192</ele>
        <time>2013-09-29T08:12:36Z</time>
      </trkpt>
      <trkpt lat="46.76571" lon="-0.5031">
        <ele>192</ele>
        <time>2013-09-29T08:12:37Z</time>
      </trkpt>
      <trkpt lat="46.76571" lon="-0.50316">
        <ele>192</ele>
        <time>2013-09-29T08:12:38Z</time>
      </trkpt>
      <trkpt lat="46.76573" lon="-0.50328">
        <ele>191</ele>
        <time>2013-09-29T08:12:40Z</time>
      </trkpt>
      <trkpt lat="46.76593" lon="-0.50371">
        <ele>190</ele>
        <time>2013-09-29T08:12:51Z</time>
      </trkpt>
      <trkpt lat="46.76636" lon="-0.50363">
        <ele>190</ele>
        <time>2013-09-29T08:13:03Z</time>
      </trkpt>
      <trkpt lat="46.767" lon="-0.5037">
        <ele>189</ele>
        <time>2013-09-29T08:13:17Z</time>
      </trkpt>
      <trkpt lat="46.7672" lon="-0.50368">
        <ele>189</ele>
        <time>2013-09-29T08:13:20Z</time>
      </trkpt>
      <trkpt lat="46.76726" lon="-0.50365">
        <ele>189</ele>
        <time>2013-09-29T08:13:21Z</time>
      </trkpt>
      <trkpt lat="46.76731" lon="-0.50361">
        <ele>188</ele>
        <time>2013-09-29T08:13:22Z</time>
      </trkpt>
      <trkpt lat="46.76789" lon="-0.50311">
        <ele>185</ele>
        <time>2013-09-29T08:13:32Z</time>
      </trkpt>
      <trkpt lat="46.76833" lon="-0.50276">
        <ele>185</ele>
        <time>2013-09-29T08:13:41Z</time>
      </trkpt>
      <trkpt lat="46.76838" lon="-0.50274">
        <ele>188</ele>
        <time>2013-09-29T08:13:42Z</time>
      </trkpt>
      <trkpt lat="46.76863" lon="-0.50273">
        <ele>188</ele>
        <time>2013-09-29T08:13:47Z</time>
      </trkpt>
      <trkpt lat="46.76908" lon="-0.50279">
        <ele>190</ele>
        <time>2013-09-29T08:13:57Z</time>
      </trkpt>
      <trkpt lat="46.76953" lon="-0.50285">
        <ele>195</ele>
        <time>2013-09-29T08:14:10Z</time>
      </trkpt>
      <trkpt lat="46.76987" lon="-0.50293">
        <ele>196</ele>
        <time>2013-09-29T08:14:21Z</time>
      </trkpt>
      <trkpt lat="46.77022" lon="-0.50291">
        <ele>200</ele>
        <time>2013-09-29T08:14:32Z</time>
      </trkpt>
      <trkpt lat="46.77063" lon="-0.50277">
        <ele>201</ele>
        <time>2013-09-29T08:14:45Z</time>
      </trkpt>
      <trkpt lat="46.77095" lon="-0.50262">
        <ele>203</ele>
        <time>2013-09-29T08:14:54Z</time>
      </trkpt>
      <trkpt lat="46.77141" lon="-0.50244">
        <ele>206</ele>
        <time>2013-09-29T08:15:06Z</time>
      </trkpt>
      <trkpt lat="46.77187" lon="-0.50222">
        <ele>208</ele>
        <time>2013-09-29T08:15:18Z</time>
      </trkpt>
      <trkpt lat="46.77214" lon="-0.50208">
        <ele>208</ele>
        <time>2013-09-29T08:15:25Z</time>
      </trkpt>
      <trkpt lat="46.77233" lon="-0.50198">
        <ele>208</ele>
        <time>2013-09-29T08:15:30Z</time>
      </trkpt>
      <trkpt lat="46.77238" lon="-0.50196">
        <ele>208</ele>
        <time>2013-09-29T08:15:31Z</time>
      </trkpt>
      <trkpt lat="46.77241" lon="-0.50194">
        <ele>208</ele>
        <time>2013-09-29T08:15:32Z</time>
      </trkpt>
      <trkpt lat="46.77265" lon="-0.50182">
        <ele>209</ele>
        <time>2013-09-29T08:15:38Z</time>
      </trkpt>
      <trkpt lat="46.77329" lon="-0.50144">
        <ele>208</ele>
        <time>2013-09-29T08:15:52Z</time>
      </trkpt>
      <trkpt lat="46.77353" lon="-0.50138">
        <ele>206</ele>
        <time>2013-09-29T08:15:57Z</time>
      </trkpt>
      <trkpt lat="46.77359" lon="-0.50138">
        <ele>206</ele>
        <time>2013-09-29T08:15:58Z</time>
      </trkpt>
      <trkpt lat="46.77364" lon="-0.5014">
        <ele>206</ele>
        <time>2013-09-29T08:15:59Z</time>
      </trkpt>
      <trkpt lat="46.77369" lon="-0.50142">
        <ele>206</ele>
        <time>2013-09-29T08:16:00Z</time>
      </trkpt>
      <trkpt lat="46.77374" lon="-0.50145">
        <ele>206</ele>
        <time>2013-09-29T08:16:01Z</time>
      </trkpt>
      <trkpt lat="46.77379" lon="-0.50148">
        <ele>206</ele>
        <time>2013-09-29T08:16:02Z</time>
      </trkpt>
      <trkpt lat="46.77404" lon="-0.50169">
        <ele>208</ele>
        <time>2013-09-29T08:16:08Z</time>
      </trkpt>
      <trkpt lat="46.77409" lon="-0.50173">
        <ele>208</ele>
        <time>2013-09-29T08:16:09Z</time>
      </trkpt>
      <trkpt lat="46.77447" lon="-0.50199">
        <ele>208</ele>
        <time>2013-09-29T08:16:18Z</time>
      </trkpt>
      <trkpt lat="46.77488" lon="-0.50225">
        <ele>209</ele>
        <time>2013-09-29T08:16:29Z</time>
      </trkpt>
      <trkpt lat="46.77512" lon="-0.5024">
        <ele>211</ele>
        <time>2013-09-29T08:16:35Z</time>
      </trkpt>
      <trkpt lat="46.7752" lon="-0.50245">
        <ele>211</ele>
        <time>2013-09-29T08:16:37Z</time>
      </trkpt>
      <trkpt lat="46.77524" lon="-0.50248">
        <ele>211</ele>
        <time>2013-09-29T08:16:38Z</time>
      </trkpt>
      <trkpt lat="46.7757" lon="-0.50277">
        <ele>215</ele>
        <time>2013-09-29T08:16:50Z</time>
      </trkpt>
      <trkpt lat="46.77607" lon="-0.50301">
        <ele>216</ele>
        <time>2013-09-29T08:17:01Z</time>
      </trkpt>
      <trkpt lat="46.77639" lon="-0.50318">
        <ele>217</ele>
        <time>2013-09-29T08:17:11Z</time>
      </trkpt>
      <trkpt lat="46.77661" lon="-0.50332">
        <ele>218</ele>
        <time>2013-09-29T08:17:16Z</time>
      </trkpt>
      <trkpt lat="46.77665" lon="-0.50336">
        <ele>219</ele>
        <time>2013-09-29T08:17:17Z</time>
      </trkpt>
      <trkpt lat="46.7767" lon="-0.5034">
        <ele>218</ele>
        <time>2013-09-29T08:17:18Z</time>
      </trkpt>
      <trkpt lat="46.77674" lon="-0.50342">
        <ele>218</ele>
        <time>2013-09-29T08:17:19Z</time>
      </trkpt>
      <trkpt lat="46.77678" lon="-0.50346">
        <ele>218</ele>
        <time>2013-09-29T08:17:20Z</time>
      </trkpt>
      <trkpt lat="46.77683" lon="-0.5035">
        <ele>218</ele>
        <time>2013-09-29T08:17:21Z</time>
      </trkpt>
      <trkpt lat="46.77724" lon="-0.50377">
        <ele>217</ele>
        <time>2013-09-29T08:17:31Z</time>
      </trkpt>
      <trkpt lat="46.7778" lon="-0.50393">
        <ele>218</ele>
        <time>2013-09-29T08:17:44Z</time>
      </trkpt>
      <trkpt lat="46.77811" lon="-0.50407">
        <ele>218</ele>
        <time>2013-09-29T08:17:52Z</time>
      </trkpt>
      <trkpt lat="46.77836" lon="-0.5042">
        <ele>219</ele>
        <time>2013-09-29T08:17:58Z</time>
      </trkpt>
      <trkpt lat="46.77861" lon="-0.50432">
        <ele>220</ele>
        <time>2013-09-29T08:18:04Z</time>
      </trkpt>
      <trkpt lat="46.77864" lon="-0.50434">
        <ele>220</ele>
        <time>2013-09-29T08:18:05Z</time>
      </trkpt>
      <trkpt lat="46.77868" lon="-0.50437">
        <ele>220</ele>
        <time>2013-09-29T08:18:06Z</time>
      </trkpt>
      <trkpt lat="46.77903" lon="-0.50453">
        <ele>221</ele>
        <time>2013-09-29T08:18:15Z</time>
      </trkpt>
      <trkpt lat="46.77907" lon="-0.50456">
        <ele>221</ele>
        <time>2013-09-29T08:18:16Z</time>
      </trkpt>
      <trkpt lat="46.77969" lon="-0.50475">
        <ele>223</ele>
        <time>2013-09-29T08:18:31Z</time>
      </trkpt>
      <trkpt lat="46.78012" lon="-0.50476">
        <ele>226</ele>
        <time>2013-09-29T08:18:42Z</time>
      </trkpt>
      <trkpt lat="46.78023" lon="-0.50472">
        <ele>226</ele>
        <time>2013-09-29T08:18:46Z</time>
      </trkpt>
      <trkpt lat="46.78025" lon="-0.50469">
        <ele>225</ele>
        <time>2013-09-29T08:18:47Z</time>
      </trkpt>
      <trkpt lat="46.78026" lon="-0.50464">
        <ele>225</ele>
        <time>2013-09-29T08:18:48Z</time>
      </trkpt>
      <trkpt lat="46.78032" lon="-0.50417">
        <ele>225</ele>
        <time>2013-09-29T08:18:59Z</time>
      </trkpt>
      <trkpt lat="46.78036" lon="-0.50361">
        <ele>225</ele>
        <time>2013-09-29T08:19:09Z</time>
      </trkpt>
      <trkpt lat="46.78044" lon="-0.50303">
        <ele>227</ele>
        <time>2013-09-29T08:19:20Z</time>
      </trkpt>
      <trkpt lat="46.78053" lon="-0.50237">
        <ele>227</ele>
        <time>2013-09-29T08:19:32Z</time>
      </trkpt>
      <trkpt lat="46.78067" lon="-0.50182">
        <ele>227</ele>
        <time>2013-09-29T08:19:43Z</time>
      </trkpt>
      <trkpt lat="46.7807" lon="-0.5017">
        <ele>227</ele>
        <time>2013-09-29T08:19:46Z</time>
      </trkpt>
      <trkpt lat="46.78072" lon="-0.50167">
        <ele>227</ele>
        <time>2013-09-29T08:19:47Z</time>
      </trkpt>
      <trkpt lat="46.78072" lon="-0.50164">
        <ele>226</ele>
        <time>2013-09-29T08:19:48Z</time>
      </trkpt>
      <trkpt lat="46.78073" lon="-0.50159">
        <ele>226</ele>
        <time>2013-09-29T08:19:49Z</time>
      </trkpt>
      <trkpt lat="46.78074" lon="-0.50156">
        <ele>226</ele>
        <time>2013-09-29T08:19:50Z</time>
      </trkpt>
      <trkpt lat="46.78075" lon="-0.50152">
        <ele>226</ele>
        <time>2013-09-29T08:19:51Z</time>
      </trkpt>
      <trkpt lat="46.78076" lon="-0.50148">
        <ele>226</ele>
        <time>2013-09-29T08:19:52Z</time>
      </trkpt>
      <trkpt lat="46.78077" lon="-0.50142">
        <ele>226</ele>
        <time>2013-09-29T08:19:53Z</time>
      </trkpt>
      <trkpt lat="46.78078" lon="-0.50137">
        <ele>226</ele>
        <time>2013-09-29T08:19:54Z</time>
      </trkpt>
      <trkpt lat="46.78079" lon="-0.50133">
        <ele>226</ele>
        <time>2013-09-29T08:19:55Z</time>
      </trkpt>
      <trkpt lat="46.7808" lon="-0.50129">
        <ele>226</ele>
        <time>2013-09-29T08:19:56Z</time>
      </trkpt>
      <trkpt lat="46.78081" lon="-0.50125">
        <ele>226</ele>
        <time>2013-09-29T08:19:57Z</time>
      </trkpt>
      <trkpt lat="46.78082" lon="-0.50118">
        <ele>226</ele>
        <time>2013-09-29T08:19:59Z</time>
      </trkpt>
      <trkpt lat="46.78083" lon="-0.50115">
        <ele>227</ele>
        <time>2013-09-29T08:20:00Z</time>
      </trkpt>
      <trkpt lat="46.78088" lon="-0.50106">
        <ele>227</ele>
        <time>2013-09-29T08:20:11Z</time>
      </trkpt>
      <trkpt lat="46.78088" lon="-0.50104">
        <ele>227</ele>
        <time>2013-09-29T08:20:12Z</time>
      </trkpt>
      <trkpt lat="46.78091" lon="-0.50095">
        <ele>227</ele>
        <time>2013-09-29T08:20:21Z</time>
      </trkpt>
      <trkpt lat="46.78092" lon="-0.50092">
        <ele>227</ele>
        <time>2013-09-29T08:20:22Z</time>
      </trkpt>
      <trkpt lat="46.78096" lon="-0.50084">
        <ele>227</ele>
        <time>2013-09-29T08:20:26Z</time>
      </trkpt>
      <trkpt lat="46.78097" lon="-0.50081">
        <ele>227</ele>
        <time>2013-09-29T08:20:27Z</time>
      </trkpt>
      <trkpt lat="46.78099" lon="-0.50069">
        <ele>227</ele>
        <time>2013-09-29T08:20:31Z</time>
      </trkpt>
      <trkpt lat="46.78098" lon="-0.50066">
        <ele>226</ele>
        <time>2013-09-29T08:20:32Z</time>
      </trkpt>
      <trkpt lat="46.78099" lon="-0.50063">
        <ele>226</ele>
        <time>2013-09-29T08:20:33Z</time>
      </trkpt>
      <trkpt lat="46.781" lon="-0.50058">
        <ele>226</ele>
        <time>2013-09-29T08:20:34Z</time>
      </trkpt>
      <trkpt lat="46.78101" lon="-0.50054">
        <ele>226</ele>
        <time>2013-09-29T08:20:35Z</time>
      </trkpt>
      <trkpt lat="46.78102" lon="-0.5005">
        <ele>226</ele>
        <time>2013-09-29T08:20:36Z</time>
      </trkpt>
      <trkpt lat="46.78104" lon="-0.50046">
        <ele>226</ele>
        <time>2013-09-29T08:20:37Z</time>
      </trkpt>
      <trkpt lat="46.78106" lon="-0.50041">
        <ele>226</ele>
        <time>2013-09-29T08:20:38Z</time>
      </trkpt>
      <trkpt lat="46.78114" lon="-0.50025">
        <ele>226</ele>
        <time>2013-09-29T08:20:42Z</time>
      </trkpt>
      <trkpt lat="46.78114" lon="-0.50018">
        <ele>226</ele>
        <time>2013-09-29T08:20:44Z</time>
      </trkpt>
      <trkpt lat="46.78123" lon="-0.49998">
        <ele>225</ele>
        <time>2013-09-29T08:20:50Z</time>
      </trkpt>
      <trkpt lat="46.78123" lon="-0.49994">
        <ele>225</ele>
        <time>2013-09-29T08:20:51Z</time>
      </trkpt>
      <trkpt lat="46.78123" lon="-0.4999">
        <ele>225</ele>
        <time>2013-09-29T08:20:52Z</time>
      </trkpt>
      <trkpt lat="46.78127" lon="-0.49978">
        <ele>225</ele>
        <time>2013-09-29T08:20:56Z</time>
      </trkpt>
      <trkpt lat="46.78129" lon="-0.49975">
        <ele>225</ele>
        <time>2013-09-29T08:20:57Z</time>
      </trkpt>
      <trkpt lat="46.78131" lon="-0.49972">
        <ele>225</ele>
        <time>2013-09-29T08:20:58Z</time>
      </trkpt>
      <trkpt lat="46.78133" lon="-0.49968">
        <ele>225</ele>
        <time>2013-09-29T08:20:59Z</time>
      </trkpt>
      <trkpt lat="46.78135" lon="-0.49964">
        <ele>225</ele>
        <time>2013-09-29T08:21:00Z</time>
      </trkpt>
      <trkpt lat="46.78137" lon="-0.49961">
        <ele>225</ele>
        <time>2013-09-29T08:21:01Z</time>
      </trkpt>
      <trkpt lat="46.78138" lon="-0.49957">
        <ele>225</ele>
        <time>2013-09-29T08:21:02Z</time>
      </trkpt>
      <trkpt lat="46.78146" lon="-0.4994">
        <ele>225</ele>
        <time>2013-09-29T08:21:07Z</time>
      </trkpt>
      <trkpt lat="46.78147" lon="-0.49931">
        <ele>225</ele>
        <time>2013-09-29T08:21:09Z</time>
      </trkpt>
      <trkpt lat="46.78148" lon="-0.49927">
        <ele>226</ele>
        <time>2013-09-29T08:21:10Z</time>
      </trkpt>
      <trkpt lat="46.7815" lon="-0.49924">
        <ele>226</ele>
        <time>2013-09-29T08:21:11Z</time>
      </trkpt>
      <trkpt lat="46.78153" lon="-0.49912">
        <ele>225</ele>
        <time>2013-09-29T08:21:14Z</time>
      </trkpt>
      <trkpt lat="46.78153" lon="-0.4991">
        <ele>225</ele>
        <time>2013-09-29T08:21:15Z</time>
      </trkpt>
      <trkpt lat="46.78153" lon="-0.49907">
        <ele>225</ele>
        <time>2013-09-29T08:21:16Z</time>
      </trkpt>
      <trkpt lat="46.78155" lon="-0.49903">
        <ele>225</ele>
        <time>2013-09-29T08:21:18Z</time>
      </trkpt>
      <trkpt lat="46.78158" lon="-0.49895">
        <ele>225</ele>
        <time>2013-09-29T08:21:21Z</time>
      </trkpt>
      <trkpt lat="46.7816" lon="-0.49894">
        <ele>225</ele>
        <time>2013-09-29T08:21:22Z</time>
      </trkpt>
      <trkpt lat="46.78161" lon="-0.49892">
        <ele>225</ele>
        <time>2013-09-29T08:21:23Z</time>
      </trkpt>
      <trkpt lat="46.78162" lon="-0.49889">
        <ele>225</ele>
        <time>2013-09-29T08:21:24Z</time>
      </trkpt>
      <trkpt lat="46.78163" lon="-0.49886">
        <ele>225</ele>
        <time>2013-09-29T08:21:25Z</time>
      </trkpt>
      <trkpt lat="46.78164" lon="-0.49884">
        <ele>225</ele>
        <time>2013-09-29T08:21:26Z</time>
      </trkpt>
      <trkpt lat="46.78165" lon="-0.49882">
        <ele>225</ele>
        <time>2013-09-29T08:21:27Z</time>
      </trkpt>
      <trkpt lat="46.78172" lon="-0.49855">
        <ele>226</ele>
        <time>2013-09-29T08:21:35Z</time>
      </trkpt>
      <trkpt lat="46.78174" lon="-0.49852">
        <ele>226</ele>
        <time>2013-09-29T08:21:36Z</time>
      </trkpt>
      <trkpt lat="46.78175" lon="-0.49851">
        <ele>226</ele>
        <time>2013-09-29T08:21:37Z</time>
      </trkpt>
      <trkpt lat="46.78177" lon="-0.49849">
        <ele>226</ele>
        <time>2013-09-29T08:21:38Z</time>
      </trkpt>
      <trkpt lat="46.78177" lon="-0.49846">
        <ele>226</ele>
        <time>2013-09-29T08:21:39Z</time>
      </trkpt>
      <trkpt lat="46.78178" lon="-0.49843">
        <ele>226</ele>
        <time>2013-09-29T08:21:40Z</time>
      </trkpt>
      <trkpt lat="46.78191" lon="-0.49826">
        <ele>226</ele>
        <time>2013-09-29T08:21:49Z</time>
      </trkpt>
      <trkpt lat="46.78193" lon="-0.49825">
        <ele>226</ele>
        <time>2013-09-29T08:21:51Z</time>
      </trkpt>
      <trkpt lat="46.78194" lon="-0.49824">
        <ele>226</ele>
        <time>2013-09-29T08:21:52Z</time>
      </trkpt>
      <trkpt lat="46.78198" lon="-0.49821">
        <ele>226</ele>
        <time>2013-09-29T08:21:55Z</time>
      </trkpt>
      <trkpt lat="46.78199" lon="-0.4982">
        <ele>226</ele>
        <time>2013-09-29T08:21:56Z</time>
      </trkpt>
      <trkpt lat="46.782" lon="-0.49818">
        <ele>226</ele>
        <time>2013-09-29T08:21:57Z</time>
      </trkpt>
      <trkpt lat="46.78201" lon="-0.49817">
        <ele>226</ele>
        <time>2013-09-29T08:21:59Z</time>
      </trkpt>
      <trkpt lat="46.78203" lon="-0.49818">
        <ele>226</ele>
        <time>2013-09-29T08:22:04Z</time>
      </trkpt>
      <trkpt lat="46.78205" lon="-0.49819">
        <ele>226</ele>
        <time>2013-09-29T08:22:05Z</time>
      </trkpt>
      <trkpt lat="46.78206" lon="-0.4982">
        <ele>226</ele>
        <time>2013-09-29T08:22:06Z</time>
      </trkpt>
      <trkpt lat="46.78223" lon="-0.4982">
        <ele>226</ele>
        <time>2013-09-29T08:22:16Z</time>
      </trkpt>
      <trkpt lat="46.78225" lon="-0.4982">
        <ele>226</ele>
        <time>2013-09-29T08:22:17Z</time>
      </trkpt>
      <trkpt lat="46.78227" lon="-0.4982">
        <ele>226</ele>
        <time>2013-09-29T08:22:18Z</time>
      </trkpt>
      <trkpt lat="46.78228" lon="-0.49819">
        <ele>226</ele>
        <time>2013-09-29T08:22:19Z</time>
      </trkpt>
      <trkpt lat="46.7823" lon="-0.49818">
        <ele>226</ele>
        <time>2013-09-29T08:22:20Z</time>
      </trkpt>
      <trkpt lat="46.78232" lon="-0.49816">
        <ele>226</ele>
        <time>2013-09-29T08:22:21Z</time>
      </trkpt>
      <trkpt lat="46.78253" lon="-0.49786">
        <ele>226</ele>
        <time>2013-09-29T08:22:31Z</time>
      </trkpt>
      <trkpt lat="46.78254" lon="-0.49782">
        <ele>226</ele>
        <time>2013-09-29T08:22:32Z</time>
      </trkpt>
      <trkpt lat="46.78258" lon="-0.49775">
        <ele>226</ele>
        <time>2013-09-29T08:22:34Z</time>
      </trkpt>
      <trkpt lat="46.7826" lon="-0.49771">
        <ele>226</ele>
        <time>2013-09-29T08:22:35Z</time>
      </trkpt>
      <trkpt lat="46.78262" lon="-0.49761">
        <ele>226</ele>
        <time>2013-09-29T08:22:38Z</time>
      </trkpt>
      <trkpt lat="46.78265" lon="-0.49758">
        <ele>226</ele>
        <time>2013-09-29T08:22:39Z</time>
      </trkpt>
      <trkpt lat="46.78266" lon="-0.49755">
        <ele>226</ele>
        <time>2013-09-29T08:22:40Z</time>
      </trkpt>
      <trkpt lat="46.78267" lon="-0.49752">
        <ele>226</ele>
        <time>2013-09-29T08:22:41Z</time>
      </trkpt>
      <trkpt lat="46.78268" lon="-0.49748">
        <ele>225</ele>
        <time>2013-09-29T08:22:42Z</time>
      </trkpt>
      <trkpt lat="46.7828" lon="-0.49727">
        <ele>225</ele>
        <time>2013-09-29T08:22:49Z</time>
      </trkpt>
      <trkpt lat="46.78281" lon="-0.49723">
        <ele>225</ele>
        <time>2013-09-29T08:22:50Z</time>
      </trkpt>
      <trkpt lat="46.78283" lon="-0.49719">
        <ele>225</ele>
        <time>2013-09-29T08:22:51Z</time>
      </trkpt>
      <trkpt lat="46.78288" lon="-0.49707">
        <ele>225</ele>
        <time>2013-09-29T08:22:54Z</time>
      </trkpt>
      <trkpt lat="46.78298" lon="-0.49668">
        <ele>224</ele>
        <time>2013-09-29T08:23:01Z</time>
      </trkpt>
      <trkpt lat="46.78302" lon="-0.49664">
        <ele>223</ele>
        <time>2013-09-29T08:23:02Z</time>
      </trkpt>
      <trkpt lat="46.78306" lon="-0.49659">
        <ele>223</ele>
        <time>2013-09-29T08:23:03Z</time>
      </trkpt>
      <trkpt lat="46.78309" lon="-0.49656">
        <ele>223</ele>
        <time>2013-09-29T08:23:04Z</time>
      </trkpt>
      <trkpt lat="46.78311" lon="-0.49653">
        <ele>223</ele>
        <time>2013-09-29T08:23:05Z</time>
      </trkpt>
      <trkpt lat="46.78313" lon="-0.49649">
        <ele>223</ele>
        <time>2013-09-29T08:23:06Z</time>
      </trkpt>
      <trkpt lat="46.78323" lon="-0.49639">
        <ele>223</ele>
        <time>2013-09-29T08:23:09Z</time>
      </trkpt>
      <trkpt lat="46.78326" lon="-0.49636">
        <ele>223</ele>
        <time>2013-09-29T08:23:10Z</time>
      </trkpt>
      <trkpt lat="46.78331" lon="-0.49633">
        <ele>223</ele>
        <time>2013-09-29T08:23:11Z</time>
      </trkpt>
      <trkpt lat="46.78335" lon="-0.4963">
        <ele>225</ele>
        <time>2013-09-29T08:23:12Z</time>
      </trkpt>
      <trkpt lat="46.7834" lon="-0.49627">
        <ele>225</ele>
        <time>2013-09-29T08:23:13Z</time>
      </trkpt>
      <trkpt lat="46.78361" lon="-0.49615">
        <ele>225</ele>
        <time>2013-09-29T08:23:18Z</time>
      </trkpt>
      <trkpt lat="46.78365" lon="-0.49612">
        <ele>225</ele>
        <time>2013-09-29T08:23:19Z</time>
      </trkpt>
      <trkpt lat="46.78375" lon="-0.49606">
        <ele>225</ele>
        <time>2013-09-29T08:23:21Z</time>
      </trkpt>
      <trkpt lat="46.7838" lon="-0.49604">
        <ele>225</ele>
        <time>2013-09-29T08:23:22Z</time>
      </trkpt>
      <trkpt lat="46.78385" lon="-0.49602">
        <ele>225</ele>
        <time>2013-09-29T08:23:23Z</time>
      </trkpt>
      <trkpt lat="46.7839" lon="-0.496">
        <ele>225</ele>
        <time>2013-09-29T08:23:24Z</time>
      </trkpt>
      <trkpt lat="46.78394" lon="-0.49598">
        <ele>225</ele>
        <time>2013-09-29T08:23:25Z</time>
      </trkpt>
      <trkpt lat="46.78399" lon="-0.49596">
        <ele>225</ele>
        <time>2013-09-29T08:23:26Z</time>
      </trkpt>
      <trkpt lat="46.78403" lon="-0.49594">
        <ele>225</ele>
        <time>2013-09-29T08:23:27Z</time>
      </trkpt>
      <trkpt lat="46.78407" lon="-0.4959">
        <ele>225</ele>
        <time>2013-09-29T08:23:28Z</time>
      </trkpt>
      <trkpt lat="46.78411" lon="-0.49587">
        <ele>226</ele>
        <time>2013-09-29T08:23:29Z</time>
      </trkpt>
      <trkpt lat="46.78415" lon="-0.49585">
        <ele>226</ele>
        <time>2013-09-29T08:23:30Z</time>
      </trkpt>
      <trkpt lat="46.78441" lon="-0.49572">
        <ele>226</ele>
        <time>2013-09-29T08:23:37Z</time>
      </trkpt>
      <trkpt lat="46.78443" lon="-0.49572">
        <ele>226</ele>
        <time>2013-09-29T08:23:38Z</time>
      </trkpt>
      <trkpt lat="46.78446" lon="-0.49572">
        <ele>226</ele>
        <time>2013-09-29T08:23:39Z</time>
      </trkpt>
      <trkpt lat="46.78448" lon="-0.49571">
        <ele>226</ele>
        <time>2013-09-29T08:23:40Z</time>
      </trkpt>
      <trkpt lat="46.7845" lon="-0.49569">
        <ele>226</ele>
        <time>2013-09-29T08:23:41Z</time>
      </trkpt>
      <trkpt lat="46.78452" lon="-0.49566">
        <ele>226</ele>
        <time>2013-09-29T08:23:42Z</time>
      </trkpt>
      <trkpt lat="46.78454" lon="-0.49563">
        <ele>226</ele>
        <time>2013-09-29T08:23:43Z</time>
      </trkpt>
      <trkpt lat="46.78456" lon="-0.4956">
        <ele>226</ele>
        <time>2013-09-29T08:23:44Z</time>
      </trkpt>
      <trkpt lat="46.78459" lon="-0.49556">
        <ele>226</ele>
        <time>2013-09-29T08:23:45Z</time>
      </trkpt>
      <trkpt lat="46.78462" lon="-0.49552">
        <ele>226</ele>
        <time>2013-09-29T08:23:46Z</time>
      </trkpt>
      <trkpt lat="46.78466" lon="-0.49548">
        <ele>226</ele>
        <time>2013-09-29T08:23:47Z</time>
      </trkpt>
      <trkpt lat="46.78474" lon="-0.49538">
        <ele>226</ele>
        <time>2013-09-29T08:23:49Z</time>
      </trkpt>
      <trkpt lat="46.78478" lon="-0.49534">
        <ele>226</ele>
        <time>2013-09-29T08:23:50Z</time>
      </trkpt>
      <trkpt lat="46.78491" lon="-0.4952">
        <ele>226</ele>
        <time>2013-09-29T08:23:53Z</time>
      </trkpt>
      <trkpt lat="46.78514" lon="-0.49494">
        <ele>224</ele>
        <time>2013-09-29T08:23:58Z</time>
      </trkpt>
      <trkpt lat="46.78523" lon="-0.49483">
        <ele>223</ele>
        <time>2013-09-29T08:24:00Z</time>
      </trkpt>
      <trkpt lat="46.78529" lon="-0.49478">
        <ele>223</ele>
        <time>2013-09-29T08:24:01Z</time>
      </trkpt>
      <trkpt lat="46.78533" lon="-0.49474">
        <ele>223</ele>
        <time>2013-09-29T08:24:02Z</time>
      </trkpt>
      <trkpt lat="46.78535" lon="-0.4947">
        <ele>223</ele>
        <time>2013-09-29T08:24:03Z</time>
      </trkpt>
      <trkpt lat="46.78536" lon="-0.49466">
        <ele>223</ele>
        <time>2013-09-29T08:24:04Z</time>
      </trkpt>
      <trkpt lat="46.78538" lon="-0.49461">
        <ele>222</ele>
        <time>2013-09-29T08:24:05Z</time>
      </trkpt>
      <trkpt lat="46.78541" lon="-0.49457">
        <ele>222</ele>
        <time>2013-09-29T08:24:06Z</time>
      </trkpt>
      <trkpt lat="46.78545" lon="-0.49454">
        <ele>222</ele>
        <time>2013-09-29T08:24:07Z</time>
      </trkpt>
      <trkpt lat="46.78549" lon="-0.49452">
        <ele>222</ele>
        <time>2013-09-29T08:24:08Z</time>
      </trkpt>
      <trkpt lat="46.78553" lon="-0.49448">
        <ele>222</ele>
        <time>2013-09-29T08:24:09Z</time>
      </trkpt>
      <trkpt lat="46.78557" lon="-0.49445">
        <ele>222</ele>
        <time>2013-09-29T08:24:10Z</time>
      </trkpt>
      <trkpt lat="46.78561" lon="-0.49442">
        <ele>221</ele>
        <time>2013-09-29T08:24:11Z</time>
      </trkpt>
      <trkpt lat="46.78565" lon="-0.49439">
        <ele>221</ele>
        <time>2013-09-29T08:24:12Z</time>
      </trkpt>
      <trkpt lat="46.7857" lon="-0.49436">
        <ele>221</ele>
        <time>2013-09-29T08:24:13Z</time>
      </trkpt>
      <trkpt lat="46.78575" lon="-0.49433">
        <ele>221</ele>
        <time>2013-09-29T08:24:14Z</time>
      </trkpt>
      <trkpt lat="46.78584" lon="-0.49426">
        <ele>219</ele>
        <time>2013-09-29T08:24:16Z</time>
      </trkpt>
      <trkpt lat="46.78587" lon="-0.49421">
        <ele>219</ele>
        <time>2013-09-29T08:24:17Z</time>
      </trkpt>
      <trkpt lat="46.78592" lon="-0.49416">
        <ele>219</ele>
        <time>2013-09-29T08:24:18Z</time>
      </trkpt>
      <trkpt lat="46.78596" lon="-0.49412">
        <ele>219</ele>
        <time>2013-09-29T08:24:19Z</time>
      </trkpt>
      <trkpt lat="46.78601" lon="-0.49408">
        <ele>218</ele>
        <time>2013-09-29T08:24:20Z</time>
      </trkpt>
      <trkpt lat="46.78605" lon="-0.49405">
        <ele>218</ele>
        <time>2013-09-29T08:24:21Z</time>
      </trkpt>
      <trkpt lat="46.78608" lon="-0.49402">
        <ele>218</ele>
        <time>2013-09-29T08:24:22Z</time>
      </trkpt>
      <trkpt lat="46.78611" lon="-0.49399">
        <ele>218</ele>
        <time>2013-09-29T08:24:23Z</time>
      </trkpt>
      <trkpt lat="46.78615" lon="-0.49395">
        <ele>218</ele>
        <time>2013-09-29T08:24:24Z</time>
      </trkpt>
      <trkpt lat="46.78618" lon="-0.4939">
        <ele>218</ele>
        <time>2013-09-29T08:24:25Z</time>
      </trkpt>
      <trkpt lat="46.78622" lon="-0.49387">
        <ele>218</ele>
        <time>2013-09-29T08:24:26Z</time>
      </trkpt>
      <trkpt lat="46.78626" lon="-0.49387">
        <ele>218</ele>
        <time>2013-09-29T08:24:27Z</time>
      </trkpt>
      <trkpt lat="46.78629" lon="-0.49384">
        <ele>218</ele>
        <time>2013-09-29T08:24:28Z</time>
      </trkpt>
      <trkpt lat="46.78631" lon="-0.49379">
        <ele>218</ele>
        <time>2013-09-29T08:24:29Z</time>
      </trkpt>
      <trkpt lat="46.78633" lon="-0.49373">
        <ele>218</ele>
        <time>2013-09-29T08:24:30Z</time>
      </trkpt>
      <trkpt lat="46.78635" lon="-0.49367">
        <ele>218</ele>
        <time>2013-09-29T08:24:31Z</time>
      </trkpt>
      <trkpt lat="46.78636" lon="-0.49361">
        <ele>218</ele>
        <time>2013-09-29T08:24:32Z</time>
      </trkpt>
      <trkpt lat="46.78638" lon="-0.49356">
        <ele>218</ele>
        <time>2013-09-29T08:24:33Z</time>
      </trkpt>
      <trkpt lat="46.7864" lon="-0.49353">
        <ele>218</ele>
        <time>2013-09-29T08:24:34Z</time>
      </trkpt>
      <trkpt lat="46.78643" lon="-0.49351">
        <ele>218</ele>
        <time>2013-09-29T08:24:35Z</time>
      </trkpt>
      <trkpt lat="46.78646" lon="-0.49348">
        <ele>218</ele>
        <time>2013-09-29T08:24:36Z</time>
      </trkpt>
      <trkpt lat="46.78648" lon="-0.49343">
        <ele>218</ele>
        <time>2013-09-29T08:24:37Z</time>
      </trkpt>
      <trkpt lat="46.78651" lon="-0.49338">
        <ele>217</ele>
        <time>2013-09-29T08:24:38Z</time>
      </trkpt>
      <trkpt lat="46.78656" lon="-0.49333">
        <ele>217</ele>
        <time>2013-09-29T08:24:39Z</time>
      </trkpt>
      <trkpt lat="46.7866" lon="-0.49329">
        <ele>217</ele>
        <time>2013-09-29T08:24:40Z</time>
      </trkpt>
      <trkpt lat="46.78665" lon="-0.49325">
        <ele>217</ele>
        <time>2013-09-29T08:24:41Z</time>
      </trkpt>
      <trkpt lat="46.78668" lon="-0.49321">
        <ele>217</ele>
        <time>2013-09-29T08:24:42Z</time>
      </trkpt>
      <trkpt lat="46.78672" lon="-0.49316">
        <ele>217</ele>
        <time>2013-09-29T08:24:43Z</time>
      </trkpt>
      <trkpt lat="46.78675" lon="-0.49312">
        <ele>217</ele>
        <time>2013-09-29T08:24:44Z</time>
      </trkpt>
      <trkpt lat="46.78678" lon="-0.49309">
        <ele>217</ele>
        <time>2013-09-29T08:24:45Z</time>
      </trkpt>
      <trkpt lat="46.7868" lon="-0.49304">
        <ele>217</ele>
        <time>2013-09-29T08:24:46Z</time>
      </trkpt>
      <trkpt lat="46.78682" lon="-0.49299">
        <ele>217</ele>
        <time>2013-09-29T08:24:47Z</time>
      </trkpt>
      <trkpt lat="46.78684" lon="-0.49295">
        <ele>217</ele>
        <time>2013-09-29T08:24:48Z</time>
      </trkpt>
      <trkpt lat="46.78714" lon="-0.49269">
        <ele>218</ele>
        <time>2013-09-29T08:24:56Z</time>
      </trkpt>
      <trkpt lat="46.78719" lon="-0.49267">
        <ele>218</ele>
        <time>2013-09-29T08:24:57Z</time>
      </trkpt>
      <trkpt lat="46.78723" lon="-0.49265">
        <ele>218</ele>
        <time>2013-09-29T08:24:58Z</time>
      </trkpt>
      <trkpt lat="46.78728" lon="-0.49263">
        <ele>218</ele>
        <time>2013-09-29T08:24:59Z</time>
      </trkpt>
      <trkpt lat="46.78732" lon="-0.49261">
        <ele>219</ele>
        <time>2013-09-29T08:25:00Z</time>
      </trkpt>
      <trkpt lat="46.78773" lon="-0.49242">
        <ele>220</ele>
        <time>2013-09-29T08:25:10Z</time>
      </trkpt>
      <trkpt lat="46.78794" lon="-0.49229">
        <ele>220</ele>
        <time>2013-09-29T08:25:19Z</time>
      </trkpt>
      <trkpt lat="46.78802" lon="-0.49221">
        <ele>220</ele>
        <time>2013-09-29T08:25:30Z</time>
      </trkpt>
      <trkpt lat="46.78813" lon="-0.49214">
        <ele>220</ele>
        <time>2013-09-29T08:25:34Z</time>
      </trkpt>
      <trkpt lat="46.78826" lon="-0.49207">
        <ele>221</ele>
        <time>2013-09-29T08:25:38Z</time>
      </trkpt>
      <trkpt lat="46.7884" lon="-0.49205">
        <ele>221</ele>
        <time>2013-09-29T08:25:41Z</time>
      </trkpt>
      <trkpt lat="46.78845" lon="-0.49205">
        <ele>221</ele>
        <time>2013-09-29T08:25:42Z</time>
      </trkpt>
      <trkpt lat="46.78857" lon="-0.49205">
        <ele>221</ele>
        <time>2013-09-29T08:25:46Z</time>
      </trkpt>
      <trkpt lat="46.78859" lon="-0.49205">
        <ele>221</ele>
        <time>2013-09-29T08:25:47Z</time>
      </trkpt>
      <trkpt lat="46.78891" lon="-0.49215">
        <ele>221</ele>
        <time>2013-09-29T08:25:55Z</time>
      </trkpt>
      <trkpt lat="46.78893" lon="-0.49216">
        <ele>221</ele>
        <time>2013-09-29T08:25:56Z</time>
      </trkpt>
      <trkpt lat="46.78896" lon="-0.49217">
        <ele>221</ele>
        <time>2013-09-29T08:25:57Z</time>
      </trkpt>
      <trkpt lat="46.78898" lon="-0.49219">
        <ele>221</ele>
        <time>2013-09-29T08:25:58Z</time>
      </trkpt>
      <trkpt lat="46.789" lon="-0.49222">
        <ele>221</ele>
        <time>2013-09-29T08:25:59Z</time>
      </trkpt>
      <trkpt lat="46.78902" lon="-0.49224">
        <ele>221</ele>
        <time>2013-09-29T08:26:00Z</time>
      </trkpt>
      <trkpt lat="46.78905" lon="-0.49225">
        <ele>221</ele>
        <time>2013-09-29T08:26:01Z</time>
      </trkpt>
      <trkpt lat="46.78907" lon="-0.49226">
        <ele>221</ele>
        <time>2013-09-29T08:26:02Z</time>
      </trkpt>
      <trkpt lat="46.78909" lon="-0.49227">
        <ele>221</ele>
        <time>2013-09-29T08:26:03Z</time>
      </trkpt>
      <trkpt lat="46.78911" lon="-0.49228">
        <ele>221</ele>
        <time>2013-09-29T08:26:04Z</time>
      </trkpt>
      <trkpt lat="46.78913" lon="-0.49229">
        <ele>221</ele>
        <time>2013-09-29T08:26:05Z</time>
      </trkpt>
      <trkpt lat="46.78915" lon="-0.49231">
        <ele>221</ele>
        <time>2013-09-29T08:26:06Z</time>
      </trkpt>
      <trkpt lat="46.78918" lon="-0.49232">
        <ele>220</ele>
        <time>2013-09-29T08:26:07Z</time>
      </trkpt>
      <trkpt lat="46.78919" lon="-0.49233">
        <ele>220</ele>
        <time>2013-09-29T08:26:08Z</time>
      </trkpt>
      <trkpt lat="46.78921" lon="-0.49233">
        <ele>220</ele>
        <time>2013-09-29T08:26:09Z</time>
      </trkpt>
      <trkpt lat="46.78922" lon="-0.49234">
        <ele>220</ele>
        <time>2013-09-29T08:26:10Z</time>
      </trkpt>
      <trkpt lat="46.78924" lon="-0.49235">
        <ele>220</ele>
        <time>2013-09-29T08:26:11Z</time>
      </trkpt>
      <trkpt lat="46.78943" lon="-0.49251">
        <ele>219</ele>
        <time>2013-09-29T08:26:18Z</time>
      </trkpt>
      <trkpt lat="46.78952" lon="-0.49255">
        <ele>218</ele>
        <time>2013-09-29T08:26:20Z</time>
      </trkpt>
      <trkpt lat="46.78956" lon="-0.49258">
        <ele>218</ele>
        <time>2013-09-29T08:26:21Z</time>
      </trkpt>
      <trkpt lat="46.7896" lon="-0.49262">
        <ele>218</ele>
        <time>2013-09-29T08:26:22Z</time>
      </trkpt>
      <trkpt lat="46.7898" lon="-0.4927">
        <ele>217</ele>
        <time>2013-09-29T08:26:28Z</time>
      </trkpt>
      <trkpt lat="46.78988" lon="-0.49271">
        <ele>217</ele>
        <time>2013-09-29T08:26:30Z</time>
      </trkpt>
      <trkpt lat="46.78997" lon="-0.49267">
        <ele>217</ele>
        <time>2013-09-29T08:26:38Z</time>
      </trkpt>
      <trkpt lat="46.78994" lon="-0.49265">
        <ele>217</ele>
        <time>2013-09-29T08:26:42Z</time>
      </trkpt>
      <trkpt lat="46.78993" lon="-0.49263">
        <ele>217</ele>
        <time>2013-09-29T08:26:43Z</time>
      </trkpt>
      <trkpt lat="46.79" lon="-0.49268">
        <ele>216</ele>
        <time>2013-09-29T08:26:48Z</time>
      </trkpt>
      <trkpt lat="46.79003" lon="-0.4927">
        <ele>215</ele>
        <time>2013-09-29T08:26:52Z</time>
      </trkpt>
      <trkpt lat="46.78999" lon="-0.4926">
        <ele>217</ele>
        <time>2013-09-29T08:26:57Z</time>
      </trkpt>
      <trkpt lat="46.7899" lon="-0.49248">
        <ele>218</ele>
        <time>2013-09-29T08:27:06Z</time>
      </trkpt>
      <trkpt lat="46.78988" lon="-0.49243">
        <ele>218</ele>
        <time>2013-09-29T08:27:08Z</time>
      </trkpt>
      <trkpt lat="46.78986" lon="-0.4924">
        <ele>218</ele>
        <time>2013-09-29T08:27:11Z</time>
      </trkpt>
      <trkpt lat="46.78971" lon="-0.49224">
        <ele>219</ele>
        <time>2013-09-29T08:27:23Z</time>
      </trkpt>
      <trkpt lat="46.78969" lon="-0.49216">
        <ele>219</ele>
        <time>2013-09-29T08:27:38Z</time>
      </trkpt>
      <trkpt lat="46.78969" lon="-0.49216">
        <ele>219</ele>
        <time>2013-09-29T08:27:42Z</time>
      </trkpt>
      <trkpt lat="46.7896" lon="-0.49191">
        <ele>220</ele>
        <time>2013-09-29T08:27:50Z</time>
      </trkpt>
      <trkpt lat="46.78962" lon="-0.4917">
        <ele>220</ele>
        <time>2013-09-29T08:27:58Z</time>
      </trkpt>
      <trkpt lat="46.78979" lon="-0.49146">
        <ele>219</ele>
        <time>2013-09-29T08:28:07Z</time>
      </trkpt>
      <trkpt lat="46.78981" lon="-0.4914">
        <ele>219</ele>
        <time>2013-09-29T08:28:09Z</time>
      </trkpt>
      <trkpt lat="46.78987" lon="-0.49123">
        <ele>220</ele>
        <time>2013-09-29T08:28:13Z</time>
      </trkpt>
      <trkpt lat="46.79018" lon="-0.49088">
        <ele>219</ele>
        <time>2013-09-29T08:28:21Z</time>
      </trkpt>
      <trkpt lat="46.79036" lon="-0.49074">
        <ele>220</ele>
        <time>2013-09-29T08:28:26Z</time>
      </trkpt>
      <trkpt lat="46.79052" lon="-0.49059">
        <ele>220</ele>
        <time>2013-09-29T08:28:31Z</time>
      </trkpt>
      <trkpt lat="46.79081" lon="-0.49031">
        <ele>220</ele>
        <time>2013-09-29T08:28:40Z</time>
      </trkpt>
      <trkpt lat="46.79086" lon="-0.49028">
        <ele>220</ele>
        <time>2013-09-29T08:28:42Z</time>
      </trkpt>
      <trkpt lat="46.79091" lon="-0.49019">
        <ele>220</ele>
        <time>2013-09-29T08:28:46Z</time>
      </trkpt>
      <trkpt lat="46.79105" lon="-0.49014">
        <ele>220</ele>
        <time>2013-09-29T08:28:53Z</time>
      </trkpt>
      <trkpt lat="46.79113" lon="-0.49006">
        <ele>220</ele>
        <time>2013-09-29T08:28:56Z</time>
      </trkpt>
      <trkpt lat="46.79136" lon="-0.48984">
        <ele>221</ele>
        <time>2013-09-29T08:29:05Z</time>
      </trkpt>
      <trkpt lat="46.79159" lon="-0.48957">
        <ele>221</ele>
        <time>2013-09-29T08:29:13Z</time>
      </trkpt>
      <trkpt lat="46.79161" lon="-0.48951">
        <ele>221</ele>
        <time>2013-09-29T08:29:14Z</time>
      </trkpt>
      <trkpt lat="46.79178" lon="-0.48902">
        <ele>223</ele>
        <time>2013-09-29T08:29:23Z</time>
      </trkpt>
      <trkpt lat="46.79193" lon="-0.48854">
        <ele>223</ele>
        <time>2013-09-29T08:29:32Z</time>
      </trkpt>
      <trkpt lat="46.79196" lon="-0.48848">
        <ele>223</ele>
        <time>2013-09-29T08:29:33Z</time>
      </trkpt>
      <trkpt lat="46.79208" lon="-0.48821">
        <ele>224</ele>
        <time>2013-09-29T08:29:38Z</time>
      </trkpt>
      <trkpt lat="46.79216" lon="-0.48805">
        <ele>224</ele>
        <time>2013-09-29T08:29:41Z</time>
      </trkpt>
      <trkpt lat="46.79242" lon="-0.48765">
        <ele>225</ele>
        <time>2013-09-29T08:29:51Z</time>
      </trkpt>
      <trkpt lat="46.79261" lon="-0.48743">
        <ele>226</ele>
        <time>2013-09-29T08:29:59Z</time>
      </trkpt>
      <trkpt lat="46.79264" lon="-0.48737">
        <ele>226</ele>
        <time>2013-09-29T08:30:01Z</time>
      </trkpt>
      <trkpt lat="46.79267" lon="-0.48733">
        <ele>226</ele>
        <time>2013-09-29T08:30:04Z</time>
      </trkpt>
      <trkpt lat="46.7929" lon="-0.48759">
        <ele>225</ele>
        <time>2013-09-29T08:30:13Z</time>
      </trkpt>
      <trkpt lat="46.79316" lon="-0.48795">
        <ele>224</ele>
        <time>2013-09-29T08:30:25Z</time>
      </trkpt>
      <trkpt lat="46.79335" lon="-0.48835">
        <ele>223</ele>
        <time>2013-09-29T08:30:34Z</time>
      </trkpt>
      <trkpt lat="46.79338" lon="-0.4884">
        <ele>223</ele>
        <time>2013-09-29T08:30:35Z</time>
      </trkpt>
      <trkpt lat="46.79341" lon="-0.48845">
        <ele>223</ele>
        <time>2013-09-29T08:30:36Z</time>
      </trkpt>
      <trkpt lat="46.79344" lon="-0.48849">
        <ele>223</ele>
        <time>2013-09-29T08:30:37Z</time>
      </trkpt>
      <trkpt lat="46.79346" lon="-0.48854">
        <ele>223</ele>
        <time>2013-09-29T08:30:38Z</time>
      </trkpt>
      <trkpt lat="46.79359" lon="-0.48878">
        <ele>222</ele>
        <time>2013-09-29T08:30:43Z</time>
      </trkpt>
      <trkpt lat="46.79361" lon="-0.48882">
        <ele>222</ele>
        <time>2013-09-29T08:30:44Z</time>
      </trkpt>
      <trkpt lat="46.79395" lon="-0.48947">
        <ele>222</ele>
        <time>2013-09-29T08:30:56Z</time>
      </trkpt>
      <trkpt lat="46.79401" lon="-0.48963">
        <ele>222</ele>
        <time>2013-09-29T08:30:59Z</time>
      </trkpt>
      <trkpt lat="46.79401" lon="-0.48969">
        <ele>223</ele>
        <time>2013-09-29T08:31:00Z</time>
      </trkpt>
      <trkpt lat="46.79402" lon="-0.48976">
        <ele>223</ele>
        <time>2013-09-29T08:31:01Z</time>
      </trkpt>
      <trkpt lat="46.79419" lon="-0.49028">
        <ele>222</ele>
        <time>2013-09-29T08:31:11Z</time>
      </trkpt>
      <trkpt lat="46.79433" lon="-0.49061">
        <ele>221</ele>
        <time>2013-09-29T08:31:16Z</time>
      </trkpt>
      <trkpt lat="46.79448" lon="-0.4911">
        <ele>219</ele>
        <time>2013-09-29T08:31:23Z</time>
      </trkpt>
      <trkpt lat="46.79483" lon="-0.49192">
        <ele>218</ele>
        <time>2013-09-29T08:31:36Z</time>
      </trkpt>
      <trkpt lat="46.79491" lon="-0.49206">
        <ele>218</ele>
        <time>2013-09-29T08:31:39Z</time>
      </trkpt>
      <trkpt lat="46.79509" lon="-0.49227">
        <ele>217</ele>
        <time>2013-09-29T08:31:45Z</time>
      </trkpt>
      <trkpt lat="46.79512" lon="-0.49231">
        <ele>217</ele>
        <time>2013-09-29T08:31:46Z</time>
      </trkpt>
      <trkpt lat="46.79538" lon="-0.49276">
        <ele>216</ele>
        <time>2013-09-29T08:31:54Z</time>
      </trkpt>
      <trkpt lat="46.79554" lon="-0.49303">
        <ele>216</ele>
        <time>2013-09-29T08:31:59Z</time>
      </trkpt>
      <trkpt lat="46.7956" lon="-0.49313">
        <ele>216</ele>
        <time>2013-09-29T08:32:01Z</time>
      </trkpt>
      <trkpt lat="46.79564" lon="-0.49327">
        <ele>216</ele>
        <time>2013-09-29T08:32:03Z</time>
      </trkpt>
      <trkpt lat="46.79567" lon="-0.49341">
        <ele>217</ele>
        <time>2013-09-29T08:32:05Z</time>
      </trkpt>
      <trkpt lat="46.79575" lon="-0.49369">
        <ele>217</ele>
        <time>2013-09-29T08:32:09Z</time>
      </trkpt>
      <trkpt lat="46.79578" lon="-0.49391">
        <ele>217</ele>
        <time>2013-09-29T08:32:12Z</time>
      </trkpt>
      <trkpt lat="46.79579" lon="-0.49405">
        <ele>217</ele>
        <time>2013-09-29T08:32:14Z</time>
      </trkpt>
      <trkpt lat="46.79599" lon="-0.49447">
        <ele>214</ele>
        <time>2013-09-29T08:32:23Z</time>
      </trkpt>
      <trkpt lat="46.79608" lon="-0.49455">
        <ele>214</ele>
        <time>2013-09-29T08:32:25Z</time>
      </trkpt>
      <trkpt lat="46.79631" lon="-0.49463">
        <ele>213</ele>
        <time>2013-09-29T08:32:29Z</time>
      </trkpt>
      <trkpt lat="46.7965" lon="-0.49457">
        <ele>212</ele>
        <time>2013-09-29T08:32:32Z</time>
      </trkpt>
      <trkpt lat="46.79674" lon="-0.49452">
        <ele>207</ele>
        <time>2013-09-29T08:32:36Z</time>
      </trkpt>
      <trkpt lat="46.7968" lon="-0.49456">
        <ele>207</ele>
        <time>2013-09-29T08:32:37Z</time>
      </trkpt>
      <trkpt lat="46.79689" lon="-0.49464">
        <ele>206</ele>
        <time>2013-09-29T08:32:39Z</time>
      </trkpt>
      <trkpt lat="46.79692" lon="-0.49469">
        <ele>206</ele>
        <time>2013-09-29T08:32:40Z</time>
      </trkpt>
      <trkpt lat="46.79694" lon="-0.49476">
        <ele>206</ele>
        <time>2013-09-29T08:32:41Z</time>
      </trkpt>
      <trkpt lat="46.79697" lon="-0.49481">
        <ele>206</ele>
        <time>2013-09-29T08:32:42Z</time>
      </trkpt>
      <trkpt lat="46.79701" lon="-0.49485">
        <ele>206</ele>
        <time>2013-09-29T08:32:43Z</time>
      </trkpt>
      <trkpt lat="46.79706" lon="-0.49489">
        <ele>205</ele>
        <time>2013-09-29T08:32:44Z</time>
      </trkpt>
      <trkpt lat="46.79711" lon="-0.49493">
        <ele>205</ele>
        <time>2013-09-29T08:32:45Z</time>
      </trkpt>
      <trkpt lat="46.79715" lon="-0.49497">
        <ele>205</ele>
        <time>2013-09-29T08:32:46Z</time>
      </trkpt>
      <trkpt lat="46.79729" lon="-0.49508">
        <ele>203</ele>
        <time>2013-09-29T08:32:49Z</time>
      </trkpt>
      <trkpt lat="46.79731" lon="-0.49514">
        <ele>203</ele>
        <time>2013-09-29T08:32:50Z</time>
      </trkpt>
      <trkpt lat="46.79731" lon="-0.49522">
        <ele>203</ele>
        <time>2013-09-29T08:32:51Z</time>
      </trkpt>
      <trkpt lat="46.79731" lon="-0.49529">
        <ele>204</ele>
        <time>2013-09-29T08:32:52Z</time>
      </trkpt>
      <trkpt lat="46.79731" lon="-0.49536">
        <ele>204</ele>
        <time>2013-09-29T08:32:53Z</time>
      </trkpt>
      <trkpt lat="46.79732" lon="-0.49565">
        <ele>203</ele>
        <time>2013-09-29T08:32:57Z</time>
      </trkpt>
      <trkpt lat="46.7973" lon="-0.49655">
        <ele>204</ele>
        <time>2013-09-29T08:33:10Z</time>
      </trkpt>
      <trkpt lat="46.79737" lon="-0.49733">
        <ele>203</ele>
        <time>2013-09-29T08:33:21Z</time>
      </trkpt>
      <trkpt lat="46.79738" lon="-0.49741">
        <ele>203</ele>
        <time>2013-09-29T08:33:23Z</time>
      </trkpt>
      <trkpt lat="46.79739" lon="-0.49742">
        <ele>203</ele>
        <time>2013-09-29T08:33:24Z</time>
      </trkpt>
      <trkpt lat="46.7974" lon="-0.49742">
        <ele>202</ele>
        <time>2013-09-29T08:33:25Z</time>
      </trkpt>
      <trkpt lat="46.79742" lon="-0.49742">
        <ele>202</ele>
        <time>2013-09-29T08:33:26Z</time>
      </trkpt>
      <trkpt lat="46.79745" lon="-0.49741">
        <ele>202</ele>
        <time>2013-09-29T08:33:27Z</time>
      </trkpt>
      <trkpt lat="46.79748" lon="-0.4974">
        <ele>202</ele>
        <time>2013-09-29T08:33:28Z</time>
      </trkpt>
      <trkpt lat="46.79784" lon="-0.49732">
        <ele>199</ele>
        <time>2013-09-29T08:33:39Z</time>
      </trkpt>
      <trkpt lat="46.79789" lon="-0.49731">
        <ele>199</ele>
        <time>2013-09-29T08:33:40Z</time>
      </trkpt>
      <trkpt lat="46.79817" lon="-0.49724">
        <ele>198</ele>
        <time>2013-09-29T08:33:46Z</time>
      </trkpt>
      <trkpt lat="46.79865" lon="-0.4971">
        <ele>194</ele>
        <time>2013-09-29T08:33:56Z</time>
      </trkpt>
      <trkpt lat="46.79884" lon="-0.49705">
        <ele>194</ele>
        <time>2013-09-29T08:33:59Z</time>
      </trkpt>
      <trkpt lat="46.7989" lon="-0.49704">
        <ele>194</ele>
        <time>2013-09-29T08:34:00Z</time>
      </trkpt>
      <trkpt lat="46.79958" lon="-0.49684">
        <ele>193</ele>
        <time>2013-09-29T08:34:11Z</time>
      </trkpt>
      <trkpt lat="46.79966" lon="-0.49682">
        <ele>193</ele>
        <time>2013-09-29T08:34:12Z</time>
      </trkpt>
      <trkpt lat="46.80049" lon="-0.49666">
        <ele>195</ele>
        <time>2013-09-29T08:34:24Z</time>
      </trkpt>
      <trkpt lat="46.80051" lon="-0.49667">
        <ele>194</ele>
        <time>2013-09-29T08:34:25Z</time>
      </trkpt>
      <trkpt lat="46.80053" lon="-0.49667">
        <ele>195</ele>
        <time>2013-09-29T08:34:26Z</time>
      </trkpt>
      <trkpt lat="46.80056" lon="-0.49665">
        <ele>195</ele>
        <time>2013-09-29T08:34:27Z</time>
      </trkpt>
      <trkpt lat="46.80058" lon="-0.49663">
        <ele>195</ele>
        <time>2013-09-29T08:34:28Z</time>
      </trkpt>
      <trkpt lat="46.80061" lon="-0.49664">
        <ele>195</ele>
        <time>2013-09-29T08:34:29Z</time>
      </trkpt>
      <trkpt lat="46.80063" lon="-0.49665">
        <ele>195</ele>
        <time>2013-09-29T08:34:30Z</time>
      </trkpt>
      <trkpt lat="46.80065" lon="-0.49666">
        <ele>195</ele>
        <time>2013-09-29T08:34:31Z</time>
      </trkpt>
      <trkpt lat="46.80067" lon="-0.49667">
        <ele>194</ele>
        <time>2013-09-29T08:34:32Z</time>
      </trkpt>
      <trkpt lat="46.80068" lon="-0.49667">
        <ele>195</ele>
        <time>2013-09-29T08:34:33Z</time>
      </trkpt>
      <trkpt lat="46.8007" lon="-0.49665">
        <ele>195</ele>
        <time>2013-09-29T08:34:34Z</time>
      </trkpt>
      <trkpt lat="46.80073" lon="-0.49663">
        <ele>195</ele>
        <time>2013-09-29T08:34:35Z</time>
      </trkpt>
      <trkpt lat="46.80077" lon="-0.49664">
        <ele>195</ele>
        <time>2013-09-29T08:34:36Z</time>
      </trkpt>
      <trkpt lat="46.80082" lon="-0.49665">
        <ele>195</ele>
        <time>2013-09-29T08:34:37Z</time>
      </trkpt>
      <trkpt lat="46.8011" lon="-0.49671">
        <ele>193</ele>
        <time>2013-09-29T08:34:43Z</time>
      </trkpt>
      <trkpt lat="46.80115" lon="-0.49671">
        <ele>193</ele>
        <time>2013-09-29T08:34:44Z</time>
      </trkpt>
      <trkpt lat="46.80123" lon="-0.49672">
        <ele>193</ele>
        <time>2013-09-29T08:34:46Z</time>
      </trkpt>
      <trkpt lat="46.80186" lon="-0.49688">
        <ele>193</ele>
        <time>2013-09-29T08:34:57Z</time>
      </trkpt>
      <trkpt lat="46.80248" lon="-0.49709">
        <ele>193</ele>
        <time>2013-09-29T08:35:09Z</time>
      </trkpt>
      <trkpt lat="46.80254" lon="-0.4971">
        <ele>192</ele>
        <time>2013-09-29T08:35:10Z</time>
      </trkpt>
      <trkpt lat="46.80323" lon="-0.49728">
        <ele>192</ele>
        <time>2013-09-29T08:35:22Z</time>
      </trkpt>
      <trkpt lat="46.80359" lon="-0.49737">
        <ele>191</ele>
        <time>2013-09-29T08:35:28Z</time>
      </trkpt>
      <trkpt lat="46.80365" lon="-0.49738">
        <ele>191</ele>
        <time>2013-09-29T08:35:29Z</time>
      </trkpt>
      <trkpt lat="46.8037" lon="-0.4974">
        <ele>191</ele>
        <time>2013-09-29T08:35:30Z</time>
      </trkpt>
      <trkpt lat="46.80383" lon="-0.49743">
        <ele>191</ele>
        <time>2013-09-29T08:35:32Z</time>
      </trkpt>
      <trkpt lat="46.80389" lon="-0.49744">
        <ele>191</ele>
        <time>2013-09-29T08:35:33Z</time>
      </trkpt>
      <trkpt lat="46.80395" lon="-0.49746">
        <ele>191</ele>
        <time>2013-09-29T08:35:34Z</time>
      </trkpt>
      <trkpt lat="46.80451" lon="-0.49759">
        <ele>191</ele>
        <time>2013-09-29T08:35:42Z</time>
      </trkpt>
      <trkpt lat="46.80458" lon="-0.49761">
        <ele>191</ele>
        <time>2013-09-29T08:35:43Z</time>
      </trkpt>
      <trkpt lat="46.80465" lon="-0.49763">
        <ele>191</ele>
        <time>2013-09-29T08:35:44Z</time>
      </trkpt>
      <trkpt lat="46.80486" lon="-0.49769">
        <ele>191</ele>
        <time>2013-09-29T08:35:47Z</time>
      </trkpt>
      <trkpt lat="46.80493" lon="-0.4977">
        <ele>191</ele>
        <time>2013-09-29T08:35:48Z</time>
      </trkpt>
      <trkpt lat="46.80499" lon="-0.49771">
        <ele>191</ele>
        <time>2013-09-29T08:35:49Z</time>
      </trkpt>
      <trkpt lat="46.80505" lon="-0.49772">
        <ele>191</ele>
        <time>2013-09-29T08:35:50Z</time>
      </trkpt>
      <trkpt lat="46.80512" lon="-0.49774">
        <ele>191</ele>
        <time>2013-09-29T08:35:51Z</time>
      </trkpt>
      <trkpt lat="46.80587" lon="-0.49798">
        <ele>190</ele>
        <time>2013-09-29T08:36:01Z</time>
      </trkpt>
      <trkpt lat="46.80667" lon="-0.49819">
        <ele>187</ele>
        <time>2013-09-29T08:36:12Z</time>
      </trkpt>
      <trkpt lat="46.80669" lon="-0.49818">
        <ele>187</ele>
        <time>2013-09-29T08:36:13Z</time>
      </trkpt>
      <trkpt lat="46.80671" lon="-0.49818">
        <ele>187</ele>
        <time>2013-09-29T08:36:14Z</time>
      </trkpt>
      <trkpt lat="46.80673" lon="-0.49819">
        <ele>187</ele>
        <time>2013-09-29T08:36:15Z</time>
      </trkpt>
      <trkpt lat="46.80676" lon="-0.49821">
        <ele>187</ele>
        <time>2013-09-29T08:36:16Z</time>
      </trkpt>
      <trkpt lat="46.80678" lon="-0.49823">
        <ele>187</ele>
        <time>2013-09-29T08:36:17Z</time>
      </trkpt>
      <trkpt lat="46.8068" lon="-0.49823">
        <ele>187</ele>
        <time>2013-09-29T08:36:18Z</time>
      </trkpt>
      <trkpt lat="46.80682" lon="-0.49824">
        <ele>187</ele>
        <time>2013-09-29T08:36:19Z</time>
      </trkpt>
      <trkpt lat="46.80685" lon="-0.49824">
        <ele>187</ele>
        <time>2013-09-29T08:36:20Z</time>
      </trkpt>
      <trkpt lat="46.80688" lon="-0.49823">
        <ele>187</ele>
        <time>2013-09-29T08:36:21Z</time>
      </trkpt>
      <trkpt lat="46.80692" lon="-0.49825">
        <ele>187</ele>
        <time>2013-09-29T08:36:22Z</time>
      </trkpt>
      <trkpt lat="46.80701" lon="-0.49827">
        <ele>187</ele>
        <time>2013-09-29T08:36:24Z</time>
      </trkpt>
      <trkpt lat="46.80705" lon="-0.49828">
        <ele>187</ele>
        <time>2013-09-29T08:36:25Z</time>
      </trkpt>
      <trkpt lat="46.8071" lon="-0.49829">
        <ele>187</ele>
        <time>2013-09-29T08:36:26Z</time>
      </trkpt>
      <trkpt lat="46.80715" lon="-0.49829">
        <ele>187</ele>
        <time>2013-09-29T08:36:27Z</time>
      </trkpt>
      <trkpt lat="46.8072" lon="-0.4983">
        <ele>187</ele>
        <time>2013-09-29T08:36:28Z</time>
      </trkpt>
      <trkpt lat="46.80726" lon="-0.49831">
        <ele>187</ele>
        <time>2013-09-29T08:36:29Z</time>
      </trkpt>
      <trkpt lat="46.80733" lon="-0.49833">
        <ele>186</ele>
        <time>2013-09-29T08:36:30Z</time>
      </trkpt>
      <trkpt lat="46.80741" lon="-0.49837">
        <ele>186</ele>
        <time>2013-09-29T08:36:31Z</time>
      </trkpt>
      <trkpt lat="46.80749" lon="-0.4984">
        <ele>186</ele>
        <time>2013-09-29T08:36:32Z</time>
      </trkpt>
      <trkpt lat="46.80757" lon="-0.49842">
        <ele>186</ele>
        <time>2013-09-29T08:36:33Z</time>
      </trkpt>
      <trkpt lat="46.80857" lon="-0.49872">
        <ele>185</ele>
        <time>2013-09-29T08:36:44Z</time>
      </trkpt>
      <trkpt lat="46.80929" lon="-0.49892">
        <ele>184</ele>
        <time>2013-09-29T08:36:55Z</time>
      </trkpt>
      <trkpt lat="46.80988" lon="-0.49908">
        <ele>184</ele>
        <time>2013-09-29T08:37:05Z</time>
      </trkpt>
      <trkpt lat="46.80995" lon="-0.4991">
        <ele>184</ele>
        <time>2013-09-29T08:37:06Z</time>
      </trkpt>
      <trkpt lat="46.81001" lon="-0.49911">
        <ele>184</ele>
        <time>2013-09-29T08:37:07Z</time>
      </trkpt>
      <trkpt lat="46.81007" lon="-0.49912">
        <ele>184</ele>
        <time>2013-09-29T08:37:08Z</time>
      </trkpt>
      <trkpt lat="46.81014" lon="-0.49915">
        <ele>184</ele>
        <time>2013-09-29T08:37:09Z</time>
      </trkpt>
      <trkpt lat="46.81053" lon="-0.49926">
        <ele>182</ele>
        <time>2013-09-29T08:37:15Z</time>
      </trkpt>
      <trkpt lat="46.81111" lon="-0.49944">
        <ele>182</ele>
        <time>2013-09-29T08:37:24Z</time>
      </trkpt>
      <trkpt lat="46.81138" lon="-0.49957">
        <ele>182</ele>
        <time>2013-09-29T08:37:32Z</time>
      </trkpt>
      <trkpt lat="46.81175" lon="-0.49975">
        <ele>183</ele>
        <time>2013-09-29T08:37:39Z</time>
      </trkpt>
      <trkpt lat="46.8119" lon="-0.49984">
        <ele>183</ele>
        <time>2013-09-29T08:37:42Z</time>
      </trkpt>
      <trkpt lat="46.81265" lon="-0.50035">
        <ele>181</ele>
        <time>2013-09-29T08:37:55Z</time>
      </trkpt>
      <trkpt lat="46.81335" lon="-0.50084">
        <ele>179</ele>
        <time>2013-09-29T08:38:05Z</time>
      </trkpt>
      <trkpt lat="46.81425" lon="-0.50143">
        <ele>175</ele>
        <time>2013-09-29T08:38:17Z</time>
      </trkpt>
      <trkpt lat="46.81494" lon="-0.50188">
        <ele>174</ele>
        <time>2013-09-29T08:38:28Z</time>
      </trkpt>
      <trkpt lat="46.81505" lon="-0.50194">
        <ele>175</ele>
        <time>2013-09-29T08:38:30Z</time>
      </trkpt>
      <trkpt lat="46.8151" lon="-0.50196">
        <ele>175</ele>
        <time>2013-09-29T08:38:31Z</time>
      </trkpt>
      <trkpt lat="46.81515" lon="-0.50199">
        <ele>175</ele>
        <time>2013-09-29T08:38:32Z</time>
      </trkpt>
      <trkpt lat="46.81519" lon="-0.50202">
        <ele>176</ele>
        <time>2013-09-29T08:38:33Z</time>
      </trkpt>
      <trkpt lat="46.81522" lon="-0.50203">
        <ele>176</ele>
        <time>2013-09-29T08:38:34Z</time>
      </trkpt>
      <trkpt lat="46.81527" lon="-0.50203">
        <ele>176</ele>
        <time>2013-09-29T08:38:35Z</time>
      </trkpt>
      <trkpt lat="46.81531" lon="-0.50204">
        <ele>176</ele>
        <time>2013-09-29T08:38:36Z</time>
      </trkpt>
      <trkpt lat="46.81535" lon="-0.50204">
        <ele>176</ele>
        <time>2013-09-29T08:38:37Z</time>
      </trkpt>
      <trkpt lat="46.81538" lon="-0.50204">
        <ele>176</ele>
        <time>2013-09-29T08:38:38Z</time>
      </trkpt>
      <trkpt lat="46.81541" lon="-0.50205">
        <ele>176</ele>
        <time>2013-09-29T08:38:39Z</time>
      </trkpt>
      <trkpt lat="46.81544" lon="-0.50207">
        <ele>176</ele>
        <time>2013-09-29T08:38:40Z</time>
      </trkpt>
      <trkpt lat="46.81547" lon="-0.5021">
        <ele>176</ele>
        <time>2013-09-29T08:38:41Z</time>
      </trkpt>
      <trkpt lat="46.81549" lon="-0.50212">
        <ele>176</ele>
        <time>2013-09-29T08:38:42Z</time>
      </trkpt>
      <trkpt lat="46.81552" lon="-0.50214">
        <ele>176</ele>
        <time>2013-09-29T08:38:43Z</time>
      </trkpt>
      <trkpt lat="46.81555" lon="-0.50215">
        <ele>176</ele>
        <time>2013-09-29T08:38:44Z</time>
      </trkpt>
      <trkpt lat="46.81597" lon="-0.50228">
        <ele>177</ele>
        <time>2013-09-29T08:38:54Z</time>
      </trkpt>
      <trkpt lat="46.81618" lon="-0.50233">
        <ele>176</ele>
        <time>2013-09-29T08:38:58Z</time>
      </trkpt>
      <trkpt lat="46.81623" lon="-0.50233">
        <ele>176</ele>
        <time>2013-09-29T08:38:59Z</time>
      </trkpt>
      <trkpt lat="46.81641" lon="-0.50233">
        <ele>176</ele>
        <time>2013-09-29T08:39:02Z</time>
      </trkpt>
      <trkpt lat="46.81732" lon="-0.50238">
        <ele>175</ele>
        <time>2013-09-29T08:39:14Z</time>
      </trkpt>
      <trkpt lat="46.81778" lon="-0.50241">
        <ele>175</ele>
        <time>2013-09-29T08:39:20Z</time>
      </trkpt>
      <trkpt lat="46.81879" lon="-0.50252">
        <ele>174</ele>
        <time>2013-09-29T08:39:34Z</time>
      </trkpt>
      <trkpt lat="46.81957" lon="-0.50256">
        <ele>173</ele>
        <time>2013-09-29T08:39:45Z</time>
      </trkpt>
      <trkpt lat="46.81978" lon="-0.50257">
        <ele>173</ele>
        <time>2013-09-29T08:39:48Z</time>
      </trkpt>
      <trkpt lat="46.81992" lon="-0.50259">
        <ele>172</ele>
        <time>2013-09-29T08:39:50Z</time>
      </trkpt>
      <trkpt lat="46.82042" lon="-0.50263">
        <ele>173</ele>
        <time>2013-09-29T08:39:57Z</time>
      </trkpt>
      <trkpt lat="46.82078" lon="-0.50266">
        <ele>173</ele>
        <time>2013-09-29T08:40:02Z</time>
      </trkpt>
      <trkpt lat="46.82144" lon="-0.50275">
        <ele>172</ele>
        <time>2013-09-29T08:40:11Z</time>
      </trkpt>
      <trkpt lat="46.82192" lon="-0.50274">
        <ele>171</ele>
        <time>2013-09-29T08:40:18Z</time>
      </trkpt>
      <trkpt lat="46.82256" lon="-0.50279">
        <ele>171</ele>
        <time>2013-09-29T08:40:28Z</time>
      </trkpt>
      <trkpt lat="46.82262" lon="-0.5028">
        <ele>171</ele>
        <time>2013-09-29T08:40:29Z</time>
      </trkpt>
      <trkpt lat="46.82269" lon="-0.5028">
        <ele>171</ele>
        <time>2013-09-29T08:40:30Z</time>
      </trkpt>
      <trkpt lat="46.82275" lon="-0.50281">
        <ele>171</ele>
        <time>2013-09-29T08:40:31Z</time>
      </trkpt>
      <trkpt lat="46.82282" lon="-0.50282">
        <ele>171</ele>
        <time>2013-09-29T08:40:32Z</time>
      </trkpt>
      <trkpt lat="46.82295" lon="-0.50283">
        <ele>171</ele>
        <time>2013-09-29T08:40:34Z</time>
      </trkpt>
      <trkpt lat="46.82316" lon="-0.50286">
        <ele>171</ele>
        <time>2013-09-29T08:40:37Z</time>
      </trkpt>
      <trkpt lat="46.82357" lon="-0.50287">
        <ele>172</ele>
        <time>2013-09-29T08:40:43Z</time>
      </trkpt>
      <trkpt lat="46.82371" lon="-0.50288">
        <ele>172</ele>
        <time>2013-09-29T08:40:45Z</time>
      </trkpt>
      <trkpt lat="46.82419" lon="-0.5029">
        <ele>173</ele>
        <time>2013-09-29T08:40:52Z</time>
      </trkpt>
      <trkpt lat="46.82434" lon="-0.50292">
        <ele>173</ele>
        <time>2013-09-29T08:40:54Z</time>
      </trkpt>
      <trkpt lat="46.82445" lon="-0.50291">
        <ele>173</ele>
        <time>2013-09-29T08:40:56Z</time>
      </trkpt>
      <trkpt lat="46.8245" lon="-0.50291">
        <ele>173</ele>
        <time>2013-09-29T08:40:57Z</time>
      </trkpt>
      <trkpt lat="46.82512" lon="-0.50289">
        <ele>172</ele>
        <time>2013-09-29T08:41:08Z</time>
      </trkpt>
      <trkpt lat="46.82518" lon="-0.50288">
        <ele>172</ele>
        <time>2013-09-29T08:41:09Z</time>
      </trkpt>
      <trkpt lat="46.82547" lon="-0.50279">
        <ele>171</ele>
        <time>2013-09-29T08:41:14Z</time>
      </trkpt>
      <trkpt lat="46.82553" lon="-0.50277">
        <ele>171</ele>
        <time>2013-09-29T08:41:15Z</time>
      </trkpt>
      <trkpt lat="46.8259" lon="-0.50262">
        <ele>170</ele>
        <time>2013-09-29T08:41:21Z</time>
      </trkpt>
      <trkpt lat="46.82605" lon="-0.50254">
        <ele>169</ele>
        <time>2013-09-29T08:41:24Z</time>
      </trkpt>
      <trkpt lat="46.82619" lon="-0.50245">
        <ele>168</ele>
        <time>2013-09-29T08:41:27Z</time>
      </trkpt>
      <trkpt lat="46.82695" lon="-0.50186">
        <ele>164</ele>
        <time>2013-09-29T08:41:40Z</time>
      </trkpt>
      <trkpt lat="46.82716" lon="-0.50164">
        <ele>163</ele>
        <time>2013-09-29T08:41:44Z</time>
      </trkpt>
      <trkpt lat="46.8272" lon="-0.50159">
        <ele>163</ele>
        <time>2013-09-29T08:41:45Z</time>
      </trkpt>
      <trkpt lat="46.82724" lon="-0.50154">
        <ele>163</ele>
        <time>2013-09-29T08:41:46Z</time>
      </trkpt>
      <trkpt lat="46.82738" lon="-0.5014">
        <ele>163</ele>
        <time>2013-09-29T08:41:49Z</time>
      </trkpt>
      <trkpt lat="46.82742" lon="-0.50135">
        <ele>163</ele>
        <time>2013-09-29T08:41:50Z</time>
      </trkpt>
      <trkpt lat="46.82746" lon="-0.50129">
        <ele>163</ele>
        <time>2013-09-29T08:41:51Z</time>
      </trkpt>
      <trkpt lat="46.82768" lon="-0.50095">
        <ele>163</ele>
        <time>2013-09-29T08:41:57Z</time>
      </trkpt>
      <trkpt lat="46.82785" lon="-0.50074">
        <ele>162</ele>
        <time>2013-09-29T08:42:01Z</time>
      </trkpt>
      <trkpt lat="46.82794" lon="-0.50062">
        <ele>162</ele>
        <time>2013-09-29T08:42:03Z</time>
      </trkpt>
      <trkpt lat="46.82836" lon="-0.50004">
        <ele>162</ele>
        <time>2013-09-29T08:42:13Z</time>
      </trkpt>
      <trkpt lat="46.8284" lon="-0.50001">
        <ele>161</ele>
        <time>2013-09-29T08:42:14Z</time>
      </trkpt>
      <trkpt lat="46.82842" lon="-0.49998">
        <ele>161</ele>
        <time>2013-09-29T08:42:15Z</time>
      </trkpt>
      <trkpt lat="46.82846" lon="-0.49997">
        <ele>161</ele>
        <time>2013-09-29T08:42:20Z</time>
      </trkpt>
      <trkpt lat="46.82845" lon="-0.49997">
        <ele>161</ele>
        <time>2013-09-29T08:42:30Z</time>
      </trkpt>
      <trkpt lat="46.82845" lon="-0.49996">
        <ele>161</ele>
        <time>2013-09-29T08:42:33Z</time>
      </trkpt>
      <trkpt lat="46.82844" lon="-0.49994">
        <ele>161</ele>
        <time>2013-09-29T08:42:34Z</time>
      </trkpt>
      <trkpt lat="46.82844" lon="-0.49991">
        <ele>161</ele>
        <time>2013-09-29T08:42:35Z</time>
      </trkpt>
      <trkpt lat="46.82844" lon="-0.49989">
        <ele>161</ele>
        <time>2013-09-29T08:42:36Z</time>
      </trkpt>
      <trkpt lat="46.82844" lon="-0.49987">
        <ele>160</ele>
        <time>2013-09-29T08:42:37Z</time>
      </trkpt>
      <trkpt lat="46.82844" lon="-0.49984">
        <ele>160</ele>
        <time>2013-09-29T08:42:38Z</time>
      </trkpt>
      <trkpt lat="46.82844" lon="-0.49982">
        <ele>160</ele>
        <time>2013-09-29T08:42:39Z</time>
      </trkpt>
      <trkpt lat="46.82845" lon="-0.49979">
        <ele>160</ele>
        <time>2013-09-29T08:42:40Z</time>
      </trkpt>
      <trkpt lat="46.82845" lon="-0.49976">
        <ele>160</ele>
        <time>2013-09-29T08:42:41Z</time>
      </trkpt>
      <trkpt lat="46.82844" lon="-0.49972">
        <ele>160</ele>
        <time>2013-09-29T08:42:42Z</time>
      </trkpt>
      <trkpt lat="46.8286" lon="-0.49954">
        <ele>159</ele>
        <time>2013-09-29T08:42:50Z</time>
      </trkpt>
      <trkpt lat="46.82861" lon="-0.49956">
        <ele>159</ele>
        <time>2013-09-29T08:42:51Z</time>
      </trkpt>
      <trkpt lat="46.82863" lon="-0.49959">
        <ele>159</ele>
        <time>2013-09-29T08:42:52Z</time>
      </trkpt>
      <trkpt lat="46.82865" lon="-0.49962">
        <ele>159</ele>
        <time>2013-09-29T08:42:53Z</time>
      </trkpt>
      <trkpt lat="46.82867" lon="-0.49965">
        <ele>159</ele>
        <time>2013-09-29T08:42:54Z</time>
      </trkpt>
      <trkpt lat="46.82884" lon="-0.49991">
        <ele>159</ele>
        <time>2013-09-29T08:43:00Z</time>
      </trkpt>
      <trkpt lat="46.82888" lon="-0.49996">
        <ele>159</ele>
        <time>2013-09-29T08:43:01Z</time>
      </trkpt>
      <trkpt lat="46.82891" lon="-0.50002">
        <ele>159</ele>
        <time>2013-09-29T08:43:02Z</time>
      </trkpt>
      <trkpt lat="46.82894" lon="-0.50008">
        <ele>159</ele>
        <time>2013-09-29T08:43:03Z</time>
      </trkpt>
      <trkpt lat="46.82897" lon="-0.50015">
        <ele>159</ele>
        <time>2013-09-29T08:43:04Z</time>
      </trkpt>
      <trkpt lat="46.82906" lon="-0.50045">
        <ele>158</ele>
        <time>2013-09-29T08:43:08Z</time>
      </trkpt>
      <trkpt lat="46.82908" lon="-0.50057">
        <ele>158</ele>
        <time>2013-09-29T08:43:10Z</time>
      </trkpt>
      <trkpt lat="46.82909" lon="-0.5006">
        <ele>158</ele>
        <time>2013-09-29T08:43:11Z</time>
      </trkpt>
      <trkpt lat="46.82911" lon="-0.50062">
        <ele>157</ele>
        <time>2013-09-29T08:43:12Z</time>
      </trkpt>
      <trkpt lat="46.82914" lon="-0.50062">
        <ele>157</ele>
        <time>2013-09-29T08:43:13Z</time>
      </trkpt>
      <trkpt lat="46.82916" lon="-0.5006">
        <ele>157</ele>
        <time>2013-09-29T08:43:14Z</time>
      </trkpt>
      <trkpt lat="46.82919" lon="-0.50057">
        <ele>157</ele>
        <time>2013-09-29T08:43:15Z</time>
      </trkpt>
      <trkpt lat="46.82923" lon="-0.50054">
        <ele>157</ele>
        <time>2013-09-29T08:43:16Z</time>
      </trkpt>
      <trkpt lat="46.82927" lon="-0.5005">
        <ele>157</ele>
        <time>2013-09-29T08:43:17Z</time>
      </trkpt>
      <trkpt lat="46.82982" lon="-0.49988">
        <ele>158</ele>
        <time>2013-09-29T08:43:31Z</time>
      </trkpt>
      <trkpt lat="46.83004" lon="-0.49946">
        <ele>159</ele>
        <time>2013-09-29T08:43:39Z</time>
      </trkpt>
      <trkpt lat="46.83024" lon="-0.49855">
        <ele>161</ele>
        <time>2013-09-29T08:43:50Z</time>
      </trkpt>
      <trkpt lat="46.83025" lon="-0.49847">
        <ele>161</ele>
        <time>2013-09-29T08:43:51Z</time>
      </trkpt>
      <trkpt lat="46.83026" lon="-0.49734">
        <ele>164</ele>
        <time>2013-09-29T08:44:05Z</time>
      </trkpt>
      <trkpt lat="46.83028" lon="-0.49721">
        <ele>164</ele>
        <time>2013-09-29T08:44:07Z</time>
      </trkpt>
      <trkpt lat="46.8303" lon="-0.49714">
        <ele>164</ele>
        <time>2013-09-29T08:44:08Z</time>
      </trkpt>
      <trkpt lat="46.83038" lon="-0.49688">
        <ele>164</ele>
        <time>2013-09-29T08:44:12Z</time>
      </trkpt>
      <trkpt lat="46.83043" lon="-0.49675">
        <ele>164</ele>
        <time>2013-09-29T08:44:14Z</time>
      </trkpt>
      <trkpt lat="46.83052" lon="-0.49658">
        <ele>165</ele>
        <time>2013-09-29T08:44:17Z</time>
      </trkpt>
      <trkpt lat="46.83063" lon="-0.49642">
        <ele>165</ele>
        <time>2013-09-29T08:44:20Z</time>
      </trkpt>
      <trkpt lat="46.83067" lon="-0.49638">
        <ele>165</ele>
        <time>2013-09-29T08:44:21Z</time>
      </trkpt>
      <trkpt lat="46.83117" lon="-0.49606">
        <ele>166</ele>
        <time>2013-09-29T08:44:34Z</time>
      </trkpt>
      <trkpt lat="46.83134" lon="-0.49578">
        <ele>168</ele>
        <time>2013-09-29T08:44:44Z</time>
      </trkpt>
      <trkpt lat="46.83138" lon="-0.49562">
        <ele>168</ele>
        <time>2013-09-29T08:44:50Z</time>
      </trkpt>
      <trkpt lat="46.8314" lon="-0.49561">
        <ele>168</ele>
        <time>2013-09-29T08:44:51Z</time>
      </trkpt>
      <trkpt lat="46.83142" lon="-0.49561">
        <ele>168</ele>
        <time>2013-09-29T08:44:52Z</time>
      </trkpt>
      <trkpt lat="46.83143" lon="-0.4956">
        <ele>168</ele>
        <time>2013-09-29T08:44:53Z</time>
      </trkpt>
      <trkpt lat="46.83145" lon="-0.49558">
        <ele>169</ele>
        <time>2013-09-29T08:44:54Z</time>
      </trkpt>
      <trkpt lat="46.83148" lon="-0.49556">
        <ele>169</ele>
        <time>2013-09-29T08:44:55Z</time>
      </trkpt>
      <trkpt lat="46.83151" lon="-0.49556">
        <ele>169</ele>
        <time>2013-09-29T08:44:56Z</time>
      </trkpt>
      <trkpt lat="46.83154" lon="-0.49556">
        <ele>169</ele>
        <time>2013-09-29T08:44:57Z</time>
      </trkpt>
      <trkpt lat="46.83157" lon="-0.49556">
        <ele>169</ele>
        <time>2013-09-29T08:44:58Z</time>
      </trkpt>
      <trkpt lat="46.8316" lon="-0.49558">
        <ele>169</ele>
        <time>2013-09-29T08:44:59Z</time>
      </trkpt>
      <trkpt lat="46.83163" lon="-0.4956">
        <ele>169</ele>
        <time>2013-09-29T08:45:00Z</time>
      </trkpt>
      <trkpt lat="46.83166" lon="-0.49563">
        <ele>169</ele>
        <time>2013-09-29T08:45:01Z</time>
      </trkpt>
      <trkpt lat="46.83176" lon="-0.49576">
        <ele>170</ele>
        <time>2013-09-29T08:45:06Z</time>
      </trkpt>
      <trkpt lat="46.83177" lon="-0.49578">
        <ele>170</ele>
        <time>2013-09-29T08:45:07Z</time>
      </trkpt>
      <trkpt lat="46.83176" lon="-0.4958">
        <ele>170</ele>
        <time>2013-09-29T08:45:13Z</time>
      </trkpt>
      <trkpt lat="46.83175" lon="-0.49578">
        <ele>170</ele>
        <time>2013-09-29T08:45:14Z</time>
      </trkpt>
      <trkpt lat="46.83176" lon="-0.49576">
        <ele>170</ele>
        <time>2013-09-29T08:45:15Z</time>
      </trkpt>
      <trkpt lat="46.83178" lon="-0.49576">
        <ele>170</ele>
        <time>2013-09-29T08:45:16Z</time>
      </trkpt>
      <trkpt lat="46.83177" lon="-0.4958">
        <ele>170</ele>
        <time>2013-09-29T08:45:26Z</time>
      </trkpt>
      <trkpt lat="46.83176" lon="-0.4958">
        <ele>170</ele>
        <time>2013-09-29T08:45:51Z</time>
      </trkpt>
      <trkpt lat="46.83176" lon="-0.49579">
        <ele>170</ele>
        <time>2013-09-29T08:46:13Z</time>
      </trkpt>
      <trkpt lat="46.83176" lon="-0.49579">
        <ele>170</ele>
        <time>2013-09-29T08:46:32Z</time>
      </trkpt>
      <trkpt lat="46.83176" lon="-0.49581">
        <ele>170</ele>
        <time>2013-09-29T08:46:39Z</time>
      </trkpt>
      <trkpt lat="46.83169" lon="-0.49606">
        <ele>168</ele>
        <time>2013-09-29T08:46:45Z</time>
      </trkpt>
      <trkpt lat="46.83166" lon="-0.49611">
        <ele>167</ele>
        <time>2013-09-29T08:46:46Z</time>
      </trkpt>
      <trkpt lat="46.83162" lon="-0.49614">
        <ele>167</ele>
        <time>2013-09-29T08:46:47Z</time>
      </trkpt>
      <trkpt lat="46.83157" lon="-0.49615">
        <ele>167</ele>
        <time>2013-09-29T08:46:48Z</time>
      </trkpt>
      <trkpt lat="46.83151" lon="-0.49615">
        <ele>167</ele>
        <time>2013-09-29T08:46:49Z</time>
      </trkpt>
      <trkpt lat="46.83146" lon="-0.49613">
        <ele>167</ele>
        <time>2013-09-29T08:46:50Z</time>
      </trkpt>
      <trkpt lat="46.8314" lon="-0.49612">
        <ele>167</ele>
        <time>2013-09-29T08:46:51Z</time>
      </trkpt>
      <trkpt lat="46.83134" lon="-0.49611">
        <ele>167</ele>
        <time>2013-09-29T08:46:52Z</time>
      </trkpt>
      <trkpt lat="46.83128" lon="-0.49611">
        <ele>166</ele>
        <time>2013-09-29T08:46:53Z</time>
      </trkpt>
      <trkpt lat="46.83121" lon="-0.49613">
        <ele>166</ele>
        <time>2013-09-29T08:46:54Z</time>
      </trkpt>
      <trkpt lat="46.83102" lon="-0.49619">
        <ele>166</ele>
        <time>2013-09-29T08:46:57Z</time>
      </trkpt>
      <trkpt lat="46.83095" lon="-0.49623">
        <ele>166</ele>
        <time>2013-09-29T08:46:58Z</time>
      </trkpt>
      <trkpt lat="46.83088" lon="-0.49628">
        <ele>166</ele>
        <time>2013-09-29T08:46:59Z</time>
      </trkpt>
      <trkpt lat="46.83063" lon="-0.49653">
        <ele>165</ele>
        <time>2013-09-29T08:47:03Z</time>
      </trkpt>
      <trkpt lat="46.83058" lon="-0.49661">
        <ele>165</ele>
        <time>2013-09-29T08:47:04Z</time>
      </trkpt>
      <trkpt lat="46.83036" lon="-0.49707">
        <ele>164</ele>
        <time>2013-09-29T08:47:09Z</time>
      </trkpt>
      <trkpt lat="46.8303" lon="-0.49728">
        <ele>164</ele>
        <time>2013-09-29T08:47:11Z</time>
      </trkpt>
      <trkpt lat="46.83024" lon="-0.49864">
        <ele>160</ele>
        <time>2013-09-29T08:47:22Z</time>
      </trkpt>
      <trkpt lat="46.83018" lon="-0.49923">
        <ele>159</ele>
        <time>2013-09-29T08:47:28Z</time>
      </trkpt>
      <trkpt lat="46.83016" lon="-0.49931">
        <ele>159</ele>
        <time>2013-09-29T08:47:29Z</time>
      </trkpt>
      <trkpt lat="46.83015" lon="-0.49939">
        <ele>159</ele>
        <time>2013-09-29T08:47:30Z</time>
      </trkpt>
      <trkpt lat="46.83008" lon="-0.49964">
        <ele>159</ele>
        <time>2013-09-29T08:47:36Z</time>
      </trkpt>
      <trkpt lat="46.83007" lon="-0.49965">
        <ele>159</ele>
        <time>2013-09-29T08:47:37Z</time>
      </trkpt>
      <trkpt lat="46.83005" lon="-0.49966">
        <ele>159</ele>
        <time>2013-09-29T08:47:38Z</time>
      </trkpt>
      <trkpt lat="46.83004" lon="-0.49967">
        <ele>159</ele>
        <time>2013-09-29T08:47:39Z</time>
      </trkpt>
      <trkpt lat="46.83002" lon="-0.4997">
        <ele>159</ele>
        <time>2013-09-29T08:47:40Z</time>
      </trkpt>
      <trkpt lat="46.83001" lon="-0.49975">
        <ele>159</ele>
        <time>2013-09-29T08:47:41Z</time>
      </trkpt>
      <trkpt lat="46.82999" lon="-0.49979">
        <ele>158</ele>
        <time>2013-09-29T08:47:42Z</time>
      </trkpt>
      <trkpt lat="46.82997" lon="-0.49983">
        <ele>158</ele>
        <time>2013-09-29T08:47:43Z</time>
      </trkpt>
      <trkpt lat="46.82994" lon="-0.49986">
        <ele>158</ele>
        <time>2013-09-29T08:47:44Z</time>
      </trkpt>
      <trkpt lat="46.82994" lon="-0.49988">
        <ele>158</ele>
        <time>2013-09-29T08:47:45Z</time>
      </trkpt>
      <trkpt lat="46.82994" lon="-0.49989">
        <ele>158</ele>
        <time>2013-09-29T08:47:48Z</time>
      </trkpt>
      <trkpt lat="46.82995" lon="-0.49988">
        <ele>158</ele>
        <time>2013-09-29T08:47:49Z</time>
      </trkpt>
      <trkpt lat="46.82997" lon="-0.49987">
        <ele>158</ele>
        <time>2013-09-29T08:47:50Z</time>
      </trkpt>
      <trkpt lat="46.82998" lon="-0.49985">
        <ele>158</ele>
        <time>2013-09-29T08:47:51Z</time>
      </trkpt>
      <trkpt lat="46.83" lon="-0.49984">
        <ele>159</ele>
        <time>2013-09-29T08:47:52Z</time>
      </trkpt>
      <trkpt lat="46.83002" lon="-0.49981">
        <ele>159</ele>
        <time>2013-09-29T08:47:53Z</time>
      </trkpt>
      <trkpt lat="46.83004" lon="-0.49978">
        <ele>159</ele>
        <time>2013-09-29T08:47:54Z</time>
      </trkpt>
      <trkpt lat="46.83007" lon="-0.49974">
        <ele>159</ele>
        <time>2013-09-29T08:47:55Z</time>
      </trkpt>
      <trkpt lat="46.83016" lon="-0.49966">
        <ele>159</ele>
        <time>2013-09-29T08:47:58Z</time>
      </trkpt>
      <trkpt lat="46.83019" lon="-0.49967">
        <ele>159</ele>
        <time>2013-09-29T08:47:59Z</time>
      </trkpt>
      <trkpt lat="46.83022" lon="-0.49969">
        <ele>159</ele>
        <time>2013-09-29T08:48:00Z</time>
      </trkpt>
      <trkpt lat="46.83024" lon="-0.49973">
        <ele>159</ele>
        <time>2013-09-29T08:48:01Z</time>
      </trkpt>
      <trkpt lat="46.83026" lon="-0.49978">
        <ele>159</ele>
        <time>2013-09-29T08:48:02Z</time>
      </trkpt>
      <trkpt lat="46.83028" lon="-0.49984">
        <ele>159</ele>
        <time>2013-09-29T08:48:03Z</time>
      </trkpt>
      <trkpt lat="46.8303" lon="-0.49992">
        <ele>159</ele>
        <time>2013-09-29T08:48:04Z</time>
      </trkpt>
      <trkpt lat="46.83044" lon="-0.50048">
        <ele>160</ele>
        <time>2013-09-29T08:48:12Z</time>
      </trkpt>
      <trkpt lat="46.83053" lon="-0.50098">
        <ele>159</ele>
        <time>2013-09-29T08:48:22Z</time>
      </trkpt>
      <trkpt lat="46.8306" lon="-0.50132">
        <ele>159</ele>
        <time>2013-09-29T08:48:28Z</time>
      </trkpt>
      <trkpt lat="46.83061" lon="-0.50138">
        <ele>159</ele>
        <time>2013-09-29T08:48:29Z</time>
      </trkpt>
      <trkpt lat="46.83066" lon="-0.50155">
        <ele>159</ele>
        <time>2013-09-29T08:48:32Z</time>
      </trkpt>
      <trkpt lat="46.83074" lon="-0.50175">
        <ele>158</ele>
        <time>2013-09-29T08:48:35Z</time>
      </trkpt>
      <trkpt lat="46.83078" lon="-0.50181">
        <ele>158</ele>
        <time>2013-09-29T08:48:36Z</time>
      </trkpt>
      <trkpt lat="46.83083" lon="-0.50186">
        <ele>158</ele>
        <time>2013-09-29T08:48:37Z</time>
      </trkpt>
      <trkpt lat="46.83088" lon="-0.50192">
        <ele>155</ele>
        <time>2013-09-29T08:48:38Z</time>
      </trkpt>
      <trkpt lat="46.83094" lon="-0.50197">
        <ele>154</ele>
        <time>2013-09-29T08:48:39Z</time>
      </trkpt>
      <trkpt lat="46.831" lon="-0.50202">
        <ele>154</ele>
        <time>2013-09-29T08:48:40Z</time>
      </trkpt>
      <trkpt lat="46.83132" lon="-0.5023">
        <ele>152</ele>
        <time>2013-09-29T08:48:48Z</time>
      </trkpt>
      <trkpt lat="46.83133" lon="-0.50233">
        <ele>152</ele>
        <time>2013-09-29T08:48:49Z</time>
      </trkpt>
      <trkpt lat="46.83133" lon="-0.50237">
        <ele>152</ele>
        <time>2013-09-29T08:48:50Z</time>
      </trkpt>
      <trkpt lat="46.83133" lon="-0.50242">
        <ele>152</ele>
        <time>2013-09-29T08:48:51Z</time>
      </trkpt>
      <trkpt lat="46.83133" lon="-0.50247">
        <ele>152</ele>
        <time>2013-09-29T08:48:52Z</time>
      </trkpt>
      <trkpt lat="46.8313" lon="-0.50254">
        <ele>151</ele>
        <time>2013-09-29T08:48:53Z</time>
      </trkpt>
      <trkpt lat="46.83126" lon="-0.50261">
        <ele>151</ele>
        <time>2013-09-29T08:48:54Z</time>
      </trkpt>
      <trkpt lat="46.83112" lon="-0.50308">
        <ele>151</ele>
        <time>2013-09-29T08:49:00Z</time>
      </trkpt>
      <trkpt lat="46.83102" lon="-0.50363">
        <ele>150</ele>
        <time>2013-09-29T08:49:05Z</time>
      </trkpt>
      <trkpt lat="46.831" lon="-0.50409">
        <ele>149</ele>
        <time>2013-09-29T08:49:09Z</time>
      </trkpt>
      <trkpt lat="46.83102" lon="-0.5042">
        <ele>149</ele>
        <time>2013-09-29T08:49:10Z</time>
      </trkpt>
      <trkpt lat="46.83107" lon="-0.50448">
        <ele>150</ele>
        <time>2013-09-29T08:49:13Z</time>
      </trkpt>
      <trkpt lat="46.8311" lon="-0.50455">
        <ele>150</ele>
        <time>2013-09-29T08:49:14Z</time>
      </trkpt>
      <trkpt lat="46.83114" lon="-0.50461">
        <ele>150</ele>
        <time>2013-09-29T08:49:15Z</time>
      </trkpt>
      <trkpt lat="46.83118" lon="-0.50465">
        <ele>150</ele>
        <time>2013-09-29T08:49:16Z</time>
      </trkpt>
      <trkpt lat="46.83123" lon="-0.50468">
        <ele>150</ele>
        <time>2013-09-29T08:49:17Z</time>
      </trkpt>
      <trkpt lat="46.83127" lon="-0.50469">
        <ele>150</ele>
        <time>2013-09-29T08:49:18Z</time>
      </trkpt>
      <trkpt lat="46.83133" lon="-0.5047">
        <ele>150</ele>
        <time>2013-09-29T08:49:19Z</time>
      </trkpt>
      <trkpt lat="46.83143" lon="-0.5047">
        <ele>150</ele>
        <time>2013-09-29T08:49:21Z</time>
      </trkpt>
      <trkpt lat="46.83148" lon="-0.50469">
        <ele>150</ele>
        <time>2013-09-29T08:49:22Z</time>
      </trkpt>
      <trkpt lat="46.8315" lon="-0.50467">
        <ele>151</ele>
        <time>2013-09-29T08:49:23Z</time>
      </trkpt>
      <trkpt lat="46.83152" lon="-0.50464">
        <ele>150</ele>
        <time>2013-09-29T08:49:24Z</time>
      </trkpt>
      <trkpt lat="46.83153" lon="-0.5046">
        <ele>150</ele>
        <time>2013-09-29T08:49:25Z</time>
      </trkpt>
      <trkpt lat="46.83154" lon="-0.50456">
        <ele>150</ele>
        <time>2013-09-29T08:49:26Z</time>
      </trkpt>
      <trkpt lat="46.83155" lon="-0.50451">
        <ele>150</ele>
        <time>2013-09-29T08:49:27Z</time>
      </trkpt>
      <trkpt lat="46.83154" lon="-0.50448">
        <ele>150</ele>
        <time>2013-09-29T08:49:28Z</time>
      </trkpt>
      <trkpt lat="46.83153" lon="-0.50443">
        <ele>150</ele>
        <time>2013-09-29T08:49:29Z</time>
      </trkpt>
      <trkpt lat="46.83166" lon="-0.50397">
        <ele>150</ele>
        <time>2013-09-29T08:49:38Z</time>
      </trkpt>
      <trkpt lat="46.83168" lon="-0.50393">
        <ele>152</ele>
        <time>2013-09-29T08:49:39Z</time>
      </trkpt>
      <trkpt lat="46.8317" lon="-0.50387">
        <ele>152</ele>
        <time>2013-09-29T08:49:40Z</time>
      </trkpt>
      <trkpt lat="46.83173" lon="-0.50375">
        <ele>152</ele>
        <time>2013-09-29T08:49:42Z</time>
      </trkpt>
      <trkpt lat="46.83175" lon="-0.50369">
        <ele>152</ele>
        <time>2013-09-29T08:49:43Z</time>
      </trkpt>
      <trkpt lat="46.83181" lon="-0.50357">
        <ele>152</ele>
        <time>2013-09-29T08:49:45Z</time>
      </trkpt>
      <trkpt lat="46.83184" lon="-0.5035">
        <ele>152</ele>
        <time>2013-09-29T08:49:46Z</time>
      </trkpt>
      <trkpt lat="46.83186" lon="-0.50341">
        <ele>152</ele>
        <time>2013-09-29T08:49:47Z</time>
      </trkpt>
      <trkpt lat="46.83188" lon="-0.50331">
        <ele>151</ele>
        <time>2013-09-29T08:49:48Z</time>
      </trkpt>
      <trkpt lat="46.8319" lon="-0.5032">
        <ele>151</ele>
        <time>2013-09-29T08:49:49Z</time>
      </trkpt>
      <trkpt lat="46.83195" lon="-0.50298">
        <ele>151</ele>
        <time>2013-09-29T08:49:51Z</time>
      </trkpt>
      <trkpt lat="46.832" lon="-0.50288">
        <ele>151</ele>
        <time>2013-09-29T08:49:52Z</time>
      </trkpt>
      <trkpt lat="46.83205" lon="-0.50278">
        <ele>151</ele>
        <time>2013-09-29T08:49:53Z</time>
      </trkpt>
      <trkpt lat="46.83237" lon="-0.50213">
        <ele>150</ele>
        <time>2013-09-29T08:50:00Z</time>
      </trkpt>
      <trkpt lat="46.83259" lon="-0.50196">
        <ele>150</ele>
        <time>2013-09-29T08:50:05Z</time>
      </trkpt>
      <trkpt lat="46.83262" lon="-0.50193">
        <ele>150</ele>
        <time>2013-09-29T08:50:06Z</time>
      </trkpt>
      <trkpt lat="46.83265" lon="-0.5019">
        <ele>150</ele>
        <time>2013-09-29T08:50:07Z</time>
      </trkpt>
      <trkpt lat="46.83273" lon="-0.50204">
        <ele>151</ele>
        <time>2013-09-29T08:50:15Z</time>
      </trkpt>
      <trkpt lat="46.83278" lon="-0.50226">
        <ele>151</ele>
        <time>2013-09-29T08:50:22Z</time>
      </trkpt>
      <trkpt lat="46.83282" lon="-0.50261">
        <ele>153</ele>
        <time>2013-09-29T08:50:34Z</time>
      </trkpt>
      <trkpt lat="46.83299" lon="-0.50302">
        <ele>155</ele>
        <time>2013-09-29T08:50:44Z</time>
      </trkpt>
      <trkpt lat="46.83309" lon="-0.50321">
        <ele>156</ele>
        <time>2013-09-29T08:50:48Z</time>
      </trkpt>
      <trkpt lat="46.83312" lon="-0.50326">
        <ele>156</ele>
        <time>2013-09-29T08:50:49Z</time>
      </trkpt>
      <trkpt lat="46.83316" lon="-0.5033">
        <ele>156</ele>
        <time>2013-09-29T08:50:50Z</time>
      </trkpt>
      <trkpt lat="46.83323" lon="-0.50339">
        <ele>158</ele>
        <time>2013-09-29T08:50:53Z</time>
      </trkpt>
      <trkpt lat="46.83325" lon="-0.50342">
        <ele>158</ele>
        <time>2013-09-29T08:50:55Z</time>
      </trkpt>
      <trkpt lat="46.83328" lon="-0.50345">
        <ele>158</ele>
        <time>2013-09-29T08:50:56Z</time>
      </trkpt>
      <trkpt lat="46.83347" lon="-0.50365">
        <ele>157</ele>
        <time>2013-09-29T08:51:01Z</time>
      </trkpt>
      <trkpt lat="46.83351" lon="-0.50368">
        <ele>157</ele>
        <time>2013-09-29T08:51:02Z</time>
      </trkpt>
      <trkpt lat="46.83356" lon="-0.50373">
        <ele>157</ele>
        <time>2013-09-29T08:51:03Z</time>
      </trkpt>
      <trkpt lat="46.83381" lon="-0.5039">
        <ele>157</ele>
        <time>2013-09-29T08:51:10Z</time>
      </trkpt>
      <trkpt lat="46.83386" lon="-0.50391">
        <ele>157</ele>
        <time>2013-09-29T08:51:13Z</time>
      </trkpt>
      <trkpt lat="46.83386" lon="-0.50389">
        <ele>157</ele>
        <time>2013-09-29T08:51:14Z</time>
      </trkpt>
      <trkpt lat="46.83389" lon="-0.50389">
        <ele>157</ele>
        <time>2013-09-29T08:51:15Z</time>
      </trkpt>
      <trkpt lat="46.83393" lon="-0.50389">
        <ele>157</ele>
        <time>2013-09-29T08:51:16Z</time>
      </trkpt>
      <trkpt lat="46.83398" lon="-0.5039">
        <ele>157</ele>
        <time>2013-09-29T08:51:17Z</time>
      </trkpt>
      <trkpt lat="46.83402" lon="-0.5039">
        <ele>157</ele>
        <time>2013-09-29T08:51:18Z</time>
      </trkpt>
      <trkpt lat="46.83406" lon="-0.5039">
        <ele>157</ele>
        <time>2013-09-29T08:51:19Z</time>
      </trkpt>
      <trkpt lat="46.8341" lon="-0.5039">
        <ele>157</ele>
        <time>2013-09-29T08:51:20Z</time>
      </trkpt>
      <trkpt lat="46.83415" lon="-0.50389">
        <ele>157</ele>
        <time>2013-09-29T08:51:21Z</time>
      </trkpt>
      <trkpt lat="46.83418" lon="-0.50389">
        <ele>155</ele>
        <time>2013-09-29T08:51:22Z</time>
      </trkpt>
      <trkpt lat="46.83421" lon="-0.5039">
        <ele>155</ele>
        <time>2013-09-29T08:51:23Z</time>
      </trkpt>
      <trkpt lat="46.8345" lon="-0.50375">
        <ele>153</ele>
        <time>2013-09-29T08:51:33Z</time>
      </trkpt>
      <trkpt lat="46.8348" lon="-0.50346">
        <ele>150</ele>
        <time>2013-09-29T08:51:42Z</time>
      </trkpt>
      <trkpt lat="46.83484" lon="-0.50342">
        <ele>150</ele>
        <time>2013-09-29T08:51:43Z</time>
      </trkpt>
      <trkpt lat="46.83488" lon="-0.50337">
        <ele>149</ele>
        <time>2013-09-29T08:51:44Z</time>
      </trkpt>
      <trkpt lat="46.83494" lon="-0.50328">
        <ele>147</ele>
        <time>2013-09-29T08:51:46Z</time>
      </trkpt>
      <trkpt lat="46.83495" lon="-0.50323">
        <ele>147</ele>
        <time>2013-09-29T08:51:47Z</time>
      </trkpt>
      <trkpt lat="46.83495" lon="-0.50318">
        <ele>147</ele>
        <time>2013-09-29T08:51:48Z</time>
      </trkpt>
      <trkpt lat="46.83494" lon="-0.50314">
        <ele>147</ele>
        <time>2013-09-29T08:51:49Z</time>
      </trkpt>
      <trkpt lat="46.83494" lon="-0.50309">
        <ele>147</ele>
        <time>2013-09-29T08:51:50Z</time>
      </trkpt>
      <trkpt lat="46.83495" lon="-0.50304">
        <ele>147</ele>
        <time>2013-09-29T08:51:51Z</time>
      </trkpt>
      <trkpt lat="46.83497" lon="-0.50298">
        <ele>147</ele>
        <time>2013-09-29T08:51:52Z</time>
      </trkpt>
      <trkpt lat="46.83499" lon="-0.50294">
        <ele>147</ele>
        <time>2013-09-29T08:51:53Z</time>
      </trkpt>
      <trkpt lat="46.83502" lon="-0.5029">
        <ele>145</ele>
        <time>2013-09-29T08:51:54Z</time>
      </trkpt>
      <trkpt lat="46.83504" lon="-0.50288">
        <ele>145</ele>
        <time>2013-09-29T08:51:55Z</time>
      </trkpt>
      <trkpt lat="46.83504" lon="-0.50284">
        <ele>145</ele>
        <time>2013-09-29T08:51:59Z</time>
      </trkpt>
      <trkpt lat="46.83498" lon="-0.50264">
        <ele>145</ele>
        <time>2013-09-29T08:52:07Z</time>
      </trkpt>
      <trkpt lat="46.83504" lon="-0.50256">
        <ele>144</ele>
        <time>2013-09-29T08:52:11Z</time>
      </trkpt>
      <trkpt lat="46.83506" lon="-0.5025">
        <ele>144</ele>
        <time>2013-09-29T08:52:12Z</time>
      </trkpt>
      <trkpt lat="46.83508" lon="-0.50243">
        <ele>144</ele>
        <time>2013-09-29T08:52:13Z</time>
      </trkpt>
      <trkpt lat="46.83508" lon="-0.50236">
        <ele>144</ele>
        <time>2013-09-29T08:52:14Z</time>
      </trkpt>
      <trkpt lat="46.83508" lon="-0.50231">
        <ele>144</ele>
        <time>2013-09-29T08:52:15Z</time>
      </trkpt>
      <trkpt lat="46.83508" lon="-0.50211">
        <ele>144</ele>
        <time>2013-09-29T08:52:19Z</time>
      </trkpt>
      <trkpt lat="46.8351" lon="-0.50207">
        <ele>144</ele>
        <time>2013-09-29T08:52:20Z</time>
      </trkpt>
      <trkpt lat="46.83512" lon="-0.50204">
        <ele>144</ele>
        <time>2013-09-29T08:52:21Z</time>
      </trkpt>
      <trkpt lat="46.83514" lon="-0.50201">
        <ele>144</ele>
        <time>2013-09-29T08:52:22Z</time>
      </trkpt>
      <trkpt lat="46.83517" lon="-0.50199">
        <ele>144</ele>
        <time>2013-09-29T08:52:23Z</time>
      </trkpt>
      <trkpt lat="46.83521" lon="-0.50197">
        <ele>144</ele>
        <time>2013-09-29T08:52:24Z</time>
      </trkpt>
      <trkpt lat="46.83524" lon="-0.50195">
        <ele>144</ele>
        <time>2013-09-29T08:52:25Z</time>
      </trkpt>
      <trkpt lat="46.83527" lon="-0.50194">
        <ele>144</ele>
        <time>2013-09-29T08:52:26Z</time>
      </trkpt>
      <trkpt lat="46.83548" lon="-0.50182">
        <ele>144</ele>
        <time>2013-09-29T08:52:34Z</time>
      </trkpt>
      <trkpt lat="46.8358" lon="-0.50159">
        <ele>144</ele>
        <time>2013-09-29T08:52:43Z</time>
      </trkpt>
      <trkpt lat="46.83616" lon="-0.50164">
        <ele>144</ele>
        <time>2013-09-29T08:52:54Z</time>
      </trkpt>
      <trkpt lat="46.83651" lon="-0.50175">
        <ele>144</ele>
        <time>2013-09-29T08:53:04Z</time>
      </trkpt>
      <trkpt lat="46.8366" lon="-0.5018">
        <ele>144</ele>
        <time>2013-09-29T08:53:06Z</time>
      </trkpt>
      <trkpt lat="46.83679" lon="-0.50185">
        <ele>145</ele>
        <time>2013-09-29T08:53:10Z</time>
      </trkpt>
      <trkpt lat="46.83688" lon="-0.50188">
        <ele>144</ele>
        <time>2013-09-29T08:53:12Z</time>
      </trkpt>
      <trkpt lat="46.8375" lon="-0.502">
        <ele>145</ele>
        <time>2013-09-29T08:53:25Z</time>
      </trkpt>
      <trkpt lat="46.83786" lon="-0.50202">
        <ele>145</ele>
        <time>2013-09-29T08:53:34Z</time>
      </trkpt>
      <trkpt lat="46.83791" lon="-0.50202">
        <ele>145</ele>
        <time>2013-09-29T08:53:35Z</time>
      </trkpt>
      <trkpt lat="46.83796" lon="-0.50202">
        <ele>145</ele>
        <time>2013-09-29T08:53:36Z</time>
      </trkpt>
      <trkpt lat="46.83801" lon="-0.502">
        <ele>145</ele>
        <time>2013-09-29T08:53:37Z</time>
      </trkpt>
      <trkpt lat="46.83806" lon="-0.50199">
        <ele>145</ele>
        <time>2013-09-29T08:53:38Z</time>
      </trkpt>
      <trkpt lat="46.83816" lon="-0.50195">
        <ele>145</ele>
        <time>2013-09-29T08:53:40Z</time>
      </trkpt>
      <trkpt lat="46.83835" lon="-0.50187">
        <ele>146</ele>
        <time>2013-09-29T08:53:44Z</time>
      </trkpt>
      <trkpt lat="46.83839" lon="-0.50185">
        <ele>146</ele>
        <time>2013-09-29T08:53:45Z</time>
      </trkpt>
      <trkpt lat="46.83861" lon="-0.50168">
        <ele>146</ele>
        <time>2013-09-29T08:53:50Z</time>
      </trkpt>
      <trkpt lat="46.83866" lon="-0.50164">
        <ele>148</ele>
        <time>2013-09-29T08:53:51Z</time>
      </trkpt>
      <trkpt lat="46.8387" lon="-0.50161">
        <ele>148</ele>
        <time>2013-09-29T08:53:52Z</time>
      </trkpt>
      <trkpt lat="46.83874" lon="-0.50157">
        <ele>148</ele>
        <time>2013-09-29T08:53:53Z</time>
      </trkpt>
      <trkpt lat="46.83877" lon="-0.50154">
        <ele>148</ele>
        <time>2013-09-29T08:53:54Z</time>
      </trkpt>
      <trkpt lat="46.83881" lon="-0.50149">
        <ele>148</ele>
        <time>2013-09-29T08:53:55Z</time>
      </trkpt>
      <trkpt lat="46.83896" lon="-0.50129">
        <ele>149</ele>
        <time>2013-09-29T08:54:01Z</time>
      </trkpt>
      <trkpt lat="46.83898" lon="-0.50127">
        <ele>149</ele>
        <time>2013-09-29T08:54:02Z</time>
      </trkpt>
      <trkpt lat="46.83917" lon="-0.50097">
        <ele>148</ele>
        <time>2013-09-29T08:54:09Z</time>
      </trkpt>
      <trkpt lat="46.83919" lon="-0.50095">
        <ele>147</ele>
        <time>2013-09-29T08:54:10Z</time>
      </trkpt>
      <trkpt lat="46.83921" lon="-0.50092">
        <ele>147</ele>
        <time>2013-09-29T08:54:11Z</time>
      </trkpt>
      <trkpt lat="46.83938" lon="-0.50067">
        <ele>147</ele>
        <time>2013-09-29T08:54:19Z</time>
      </trkpt>
      <trkpt lat="46.83949" lon="-0.50059">
        <ele>147</ele>
        <time>2013-09-29T08:54:22Z</time>
      </trkpt>
      <trkpt lat="46.83953" lon="-0.50059">
        <ele>147</ele>
        <time>2013-09-29T08:54:23Z</time>
      </trkpt>
      <trkpt lat="46.83956" lon="-0.50059">
        <ele>147</ele>
        <time>2013-09-29T08:54:24Z</time>
      </trkpt>
      <trkpt lat="46.83962" lon="-0.50057">
        <ele>147</ele>
        <time>2013-09-29T08:54:28Z</time>
      </trkpt>
      <trkpt lat="46.83963" lon="-0.50056">
        <ele>147</ele>
        <time>2013-09-29T08:54:29Z</time>
      </trkpt>
      <trkpt lat="46.83964" lon="-0.50056">
        <ele>147</ele>
        <time>2013-09-29T08:54:30Z</time>
      </trkpt>
      <trkpt lat="46.83966" lon="-0.50054">
        <ele>147</ele>
        <time>2013-09-29T08:54:31Z</time>
      </trkpt>
      <trkpt lat="46.83969" lon="-0.50053">
        <ele>147</ele>
        <time>2013-09-29T08:54:32Z</time>
      </trkpt>
      <trkpt lat="46.83972" lon="-0.50052">
        <ele>146</ele>
        <time>2013-09-29T08:54:33Z</time>
      </trkpt>
      <trkpt lat="46.83977" lon="-0.50052">
        <ele>146</ele>
        <time>2013-09-29T08:54:34Z</time>
      </trkpt>
      <trkpt lat="46.83981" lon="-0.50051">
        <ele>146</ele>
        <time>2013-09-29T08:54:35Z</time>
      </trkpt>
      <trkpt lat="46.83986" lon="-0.5005">
        <ele>146</ele>
        <time>2013-09-29T08:54:36Z</time>
      </trkpt>
      <trkpt lat="46.84018" lon="-0.50045">
        <ele>143</ele>
        <time>2013-09-29T08:54:43Z</time>
      </trkpt>
      <trkpt lat="46.84031" lon="-0.50041">
        <ele>143</ele>
        <time>2013-09-29T08:54:51Z</time>
      </trkpt>
      <trkpt lat="46.84034" lon="-0.50045">
        <ele>143</ele>
        <time>2013-09-29T08:54:56Z</time>
      </trkpt>
      <trkpt lat="46.84035" lon="-0.50046">
        <ele>143</ele>
        <time>2013-09-29T08:54:57Z</time>
      </trkpt>
      <trkpt lat="46.84038" lon="-0.50051">
        <ele>143</ele>
        <time>2013-09-29T08:55:02Z</time>
      </trkpt>
      <trkpt lat="46.84038" lon="-0.50053">
        <ele>143</ele>
        <time>2013-09-29T08:55:03Z</time>
      </trkpt>
      <trkpt lat="46.84037" lon="-0.50054">
        <ele>143</ele>
        <time>2013-09-29T08:55:04Z</time>
      </trkpt>
      <trkpt lat="46.84034" lon="-0.50064">
        <ele>143</ele>
        <time>2013-09-29T08:55:16Z</time>
      </trkpt>
      <trkpt lat="46.84036" lon="-0.50066">
        <ele>143</ele>
        <time>2013-09-29T08:55:17Z</time>
      </trkpt>
      <trkpt lat="46.84038" lon="-0.50069">
        <ele>143</ele>
        <time>2013-09-29T08:55:18Z</time>
      </trkpt>
      <trkpt lat="46.84041" lon="-0.50071">
        <ele>142</ele>
        <time>2013-09-29T08:55:19Z</time>
      </trkpt>
      <trkpt lat="46.84045" lon="-0.50074">
        <ele>142</ele>
        <time>2013-09-29T08:55:20Z</time>
      </trkpt>
      <trkpt lat="46.84049" lon="-0.50076">
        <ele>142</ele>
        <time>2013-09-29T08:55:21Z</time>
      </trkpt>
      <trkpt lat="46.84053" lon="-0.50078">
        <ele>142</ele>
        <time>2013-09-29T08:55:22Z</time>
      </trkpt>
      <trkpt lat="46.84057" lon="-0.5008">
        <ele>142</ele>
        <time>2013-09-29T08:55:23Z</time>
      </trkpt>
      <trkpt lat="46.8406" lon="-0.50082">
        <ele>141</ele>
        <time>2013-09-29T08:55:24Z</time>
      </trkpt>
      <trkpt lat="46.84063" lon="-0.50085">
        <ele>141</ele>
        <time>2013-09-29T08:55:25Z</time>
      </trkpt>
      <trkpt lat="46.84064" lon="-0.50087">
        <ele>141</ele>
        <time>2013-09-29T08:55:26Z</time>
      </trkpt>
      <trkpt lat="46.84065" lon="-0.5009">
        <ele>140</ele>
        <time>2013-09-29T08:55:27Z</time>
      </trkpt>
      <trkpt lat="46.84067" lon="-0.50092">
        <ele>140</ele>
        <time>2013-09-29T08:55:28Z</time>
      </trkpt>
      <trkpt lat="46.84068" lon="-0.50095">
        <ele>140</ele>
        <time>2013-09-29T08:55:29Z</time>
      </trkpt>
      <trkpt lat="46.84069" lon="-0.50099">
        <ele>140</ele>
        <time>2013-09-29T08:55:30Z</time>
      </trkpt>
      <trkpt lat="46.84071" lon="-0.50102">
        <ele>140</ele>
        <time>2013-09-29T08:55:31Z</time>
      </trkpt>
      <trkpt lat="46.84073" lon="-0.50105">
        <ele>141</ele>
        <time>2013-09-29T08:55:32Z</time>
      </trkpt>
      <trkpt lat="46.84075" lon="-0.50107">
        <ele>141</ele>
        <time>2013-09-29T08:55:33Z</time>
      </trkpt>
      <trkpt lat="46.84076" lon="-0.50112">
        <ele>141</ele>
        <time>2013-09-29T08:55:34Z</time>
      </trkpt>
      <trkpt lat="46.84077" lon="-0.50118">
        <ele>141</ele>
        <time>2013-09-29T08:55:35Z</time>
      </trkpt>
      <trkpt lat="46.84077" lon="-0.50124">
        <ele>141</ele>
        <time>2013-09-29T08:55:36Z</time>
      </trkpt>
      <trkpt lat="46.84078" lon="-0.50177">
        <ele>140</ele>
        <time>2013-09-29T08:55:44Z</time>
      </trkpt>
      <trkpt lat="46.8408" lon="-0.50185">
        <ele>141</ele>
        <time>2013-09-29T08:55:45Z</time>
      </trkpt>
      <trkpt lat="46.84084" lon="-0.50206">
        <ele>140</ele>
        <time>2013-09-29T08:55:48Z</time>
      </trkpt>
      <trkpt lat="46.84088" lon="-0.50238">
        <ele>141</ele>
        <time>2013-09-29T08:55:52Z</time>
      </trkpt>
      <trkpt lat="46.8409" lon="-0.50244">
        <ele>141</ele>
        <time>2013-09-29T08:55:53Z</time>
      </trkpt>
      <trkpt lat="46.84092" lon="-0.50248">
        <ele>141</ele>
        <time>2013-09-29T08:55:54Z</time>
      </trkpt>
      <trkpt lat="46.84094" lon="-0.50253">
        <ele>143</ele>
        <time>2013-09-29T08:55:55Z</time>
      </trkpt>
      <trkpt lat="46.84097" lon="-0.50257">
        <ele>144</ele>
        <time>2013-09-29T08:55:56Z</time>
      </trkpt>
      <trkpt lat="46.8411" lon="-0.50268">
        <ele>146</ele>
        <time>2013-09-29T08:56:00Z</time>
      </trkpt>
      <trkpt lat="46.84114" lon="-0.5027">
        <ele>146</ele>
        <time>2013-09-29T08:56:01Z</time>
      </trkpt>
      <trkpt lat="46.84118" lon="-0.50271">
        <ele>146</ele>
        <time>2013-09-29T08:56:02Z</time>
      </trkpt>
      <trkpt lat="46.84134" lon="-0.50277">
        <ele>147</ele>
        <time>2013-09-29T08:56:06Z</time>
      </trkpt>
      <trkpt lat="46.84166" lon="-0.50283">
        <ele>147</ele>
        <time>2013-09-29T08:56:16Z</time>
      </trkpt>
      <trkpt lat="46.8417" lon="-0.5028">
        <ele>150</ele>
        <time>2013-09-29T08:56:17Z</time>
      </trkpt>
      <trkpt lat="46.8419" lon="-0.50262">
        <ele>150</ele>
        <time>2013-09-29T08:56:23Z</time>
      </trkpt>
      <trkpt lat="46.84193" lon="-0.50257">
        <ele>150</ele>
        <time>2013-09-29T08:56:24Z</time>
      </trkpt>
      <trkpt lat="46.842" lon="-0.50245">
        <ele>147</ele>
        <time>2013-09-29T08:56:26Z</time>
      </trkpt>
      <trkpt lat="46.84203" lon="-0.50239">
        <ele>147</ele>
        <time>2013-09-29T08:56:27Z</time>
      </trkpt>
      <trkpt lat="46.84206" lon="-0.50234">
        <ele>147</ele>
        <time>2013-09-29T08:56:28Z</time>
      </trkpt>
      <trkpt lat="46.84209" lon="-0.50229">
        <ele>148</ele>
        <time>2013-09-29T08:56:29Z</time>
      </trkpt>
      <trkpt lat="46.84211" lon="-0.50222">
        <ele>148</ele>
        <time>2013-09-29T08:56:30Z</time>
      </trkpt>
      <trkpt lat="46.84213" lon="-0.50215">
        <ele>148</ele>
        <time>2013-09-29T08:56:31Z</time>
      </trkpt>
      <trkpt lat="46.84214" lon="-0.50207">
        <ele>147</ele>
        <time>2013-09-29T08:56:32Z</time>
      </trkpt>
      <trkpt lat="46.84215" lon="-0.502">
        <ele>147</ele>
        <time>2013-09-29T08:56:33Z</time>
      </trkpt>
      <trkpt lat="46.84217" lon="-0.50192">
        <ele>147</ele>
        <time>2013-09-29T08:56:34Z</time>
      </trkpt>
      <trkpt lat="46.84219" lon="-0.50185">
        <ele>147</ele>
        <time>2013-09-29T08:56:35Z</time>
      </trkpt>
      <trkpt lat="46.84221" lon="-0.50178">
        <ele>147</ele>
        <time>2013-09-29T08:56:36Z</time>
      </trkpt>
      <trkpt lat="46.84224" lon="-0.50171">
        <ele>147</ele>
        <time>2013-09-29T08:56:37Z</time>
      </trkpt>
      <trkpt lat="46.84243" lon="-0.50125">
        <ele>146</ele>
        <time>2013-09-29T08:56:44Z</time>
      </trkpt>
      <trkpt lat="46.84246" lon="-0.5012">
        <ele>145</ele>
        <time>2013-09-29T08:56:45Z</time>
      </trkpt>
      <trkpt lat="46.84248" lon="-0.50114">
        <ele>145</ele>
        <time>2013-09-29T08:56:46Z</time>
      </trkpt>
      <trkpt lat="46.84249" lon="-0.50108">
        <ele>145</ele>
        <time>2013-09-29T08:56:47Z</time>
      </trkpt>
      <trkpt lat="46.8425" lon="-0.50101">
        <ele>147</ele>
        <time>2013-09-29T08:56:48Z</time>
      </trkpt>
      <trkpt lat="46.84251" lon="-0.50093">
        <ele>146</ele>
        <time>2013-09-29T08:56:49Z</time>
      </trkpt>
      <trkpt lat="46.84252" lon="-0.50086">
        <ele>145</ele>
        <time>2013-09-29T08:56:50Z</time>
      </trkpt>
      <trkpt lat="46.84253" lon="-0.5008">
        <ele>145</ele>
        <time>2013-09-29T08:56:51Z</time>
      </trkpt>
      <trkpt lat="46.84255" lon="-0.50073">
        <ele>145</ele>
        <time>2013-09-29T08:56:52Z</time>
      </trkpt>
      <trkpt lat="46.84257" lon="-0.50068">
        <ele>146</ele>
        <time>2013-09-29T08:56:53Z</time>
      </trkpt>
      <trkpt lat="46.84259" lon="-0.50063">
        <ele>146</ele>
        <time>2013-09-29T08:56:54Z</time>
      </trkpt>
      <trkpt lat="46.84261" lon="-0.50059">
        <ele>146</ele>
        <time>2013-09-29T08:56:55Z</time>
      </trkpt>
      <trkpt lat="46.84263" lon="-0.50054">
        <ele>147</ele>
        <time>2013-09-29T08:56:56Z</time>
      </trkpt>
      <trkpt lat="46.84266" lon="-0.5005">
        <ele>147</ele>
        <time>2013-09-29T08:56:57Z</time>
      </trkpt>
      <trkpt lat="46.84269" lon="-0.50045">
        <ele>147</ele>
        <time>2013-09-29T08:56:58Z</time>
      </trkpt>
      <trkpt lat="46.84302" lon="-0.50019">
        <ele>146</ele>
        <time>2013-09-29T08:57:07Z</time>
      </trkpt>
      <trkpt lat="46.84306" lon="-0.50015">
        <ele>146</ele>
        <time>2013-09-29T08:57:08Z</time>
      </trkpt>
      <trkpt lat="46.84309" lon="-0.50012">
        <ele>145</ele>
        <time>2013-09-29T08:57:09Z</time>
      </trkpt>
      <trkpt lat="46.84313" lon="-0.50008">
        <ele>145</ele>
        <time>2013-09-29T08:57:10Z</time>
      </trkpt>
      <trkpt lat="46.84316" lon="-0.50005">
        <ele>144</ele>
        <time>2013-09-29T08:57:11Z</time>
      </trkpt>
      <trkpt lat="46.8432" lon="-0.50001">
        <ele>144</ele>
        <time>2013-09-29T08:57:12Z</time>
      </trkpt>
      <trkpt lat="46.84329" lon="-0.49992">
        <ele>145</ele>
        <time>2013-09-29T08:57:15Z</time>
      </trkpt>
      <trkpt lat="46.84333" lon="-0.4999">
        <ele>145</ele>
        <time>2013-09-29T08:57:16Z</time>
      </trkpt>
      <trkpt lat="46.84343" lon="-0.49986">
        <ele>143</ele>
        <time>2013-09-29T08:57:18Z</time>
      </trkpt>
      <trkpt lat="46.84372" lon="-0.49984">
        <ele>144</ele>
        <time>2013-09-29T08:57:22Z</time>
      </trkpt>
      <trkpt lat="46.84379" lon="-0.49984">
        <ele>144</ele>
        <time>2013-09-29T08:57:23Z</time>
      </trkpt>
      <trkpt lat="46.84386" lon="-0.49985">
        <ele>144</ele>
        <time>2013-09-29T08:57:24Z</time>
      </trkpt>
      <trkpt lat="46.84392" lon="-0.49986">
        <ele>144</ele>
        <time>2013-09-29T08:57:25Z</time>
      </trkpt>
      <trkpt lat="46.84398" lon="-0.49987">
        <ele>143</ele>
        <time>2013-09-29T08:57:26Z</time>
      </trkpt>
      <trkpt lat="46.8443" lon="-0.49977">
        <ele>142</ele>
        <time>2013-09-29T08:57:34Z</time>
      </trkpt>
      <trkpt lat="46.84436" lon="-0.49973">
        <ele>142</ele>
        <time>2013-09-29T08:57:35Z</time>
      </trkpt>
      <trkpt lat="46.84441" lon="-0.49969">
        <ele>142</ele>
        <time>2013-09-29T08:57:36Z</time>
      </trkpt>
      <trkpt lat="46.84452" lon="-0.49963">
        <ele>143</ele>
        <time>2013-09-29T08:57:38Z</time>
      </trkpt>
      <trkpt lat="46.84457" lon="-0.49961">
        <ele>142</ele>
        <time>2013-09-29T08:57:39Z</time>
      </trkpt>
      <trkpt lat="46.84461" lon="-0.49959">
        <ele>142</ele>
        <time>2013-09-29T08:57:40Z</time>
      </trkpt>
      <trkpt lat="46.84512" lon="-0.49946">
        <ele>141</ele>
        <time>2013-09-29T08:57:51Z</time>
      </trkpt>
      <trkpt lat="46.84533" lon="-0.49947">
        <ele>141</ele>
        <time>2013-09-29T08:57:56Z</time>
      </trkpt>
      <trkpt lat="46.8454" lon="-0.49944">
        <ele>141</ele>
        <time>2013-09-29T08:57:57Z</time>
      </trkpt>
      <trkpt lat="46.84547" lon="-0.49941">
        <ele>141</ele>
        <time>2013-09-29T08:57:58Z</time>
      </trkpt>
      <trkpt lat="46.84554" lon="-0.49937">
        <ele>140</ele>
        <time>2013-09-29T08:57:59Z</time>
      </trkpt>
      <trkpt lat="46.84561" lon="-0.49932">
        <ele>140</ele>
        <time>2013-09-29T08:58:00Z</time>
      </trkpt>
      <trkpt lat="46.84568" lon="-0.49928">
        <ele>140</ele>
        <time>2013-09-29T08:58:01Z</time>
      </trkpt>
      <trkpt lat="46.84579" lon="-0.4992">
        <ele>139</ele>
        <time>2013-09-29T08:58:03Z</time>
      </trkpt>
      <trkpt lat="46.84623" lon="-0.49907">
        <ele>140</ele>
        <time>2013-09-29T08:58:12Z</time>
      </trkpt>
      <trkpt lat="46.84625" lon="-0.4991">
        <ele>139</ele>
        <time>2013-09-29T08:58:13Z</time>
      </trkpt>
      <trkpt lat="46.84626" lon="-0.49912">
        <ele>139</ele>
        <time>2013-09-29T08:58:14Z</time>
      </trkpt>
      <trkpt lat="46.84627" lon="-0.49913">
        <ele>139</ele>
        <time>2013-09-29T08:58:15Z</time>
      </trkpt>
      <trkpt lat="46.84628" lon="-0.49915">
        <ele>139</ele>
        <time>2013-09-29T08:58:16Z</time>
      </trkpt>
      <trkpt lat="46.84629" lon="-0.49915">
        <ele>139</ele>
        <time>2013-09-29T08:58:17Z</time>
      </trkpt>
      <trkpt lat="46.84631" lon="-0.49916">
        <ele>139</ele>
        <time>2013-09-29T08:58:18Z</time>
      </trkpt>
      <trkpt lat="46.84632" lon="-0.49916">
        <ele>139</ele>
        <time>2013-09-29T08:58:19Z</time>
      </trkpt>
      <trkpt lat="46.84635" lon="-0.49915">
        <ele>139</ele>
        <time>2013-09-29T08:58:20Z</time>
      </trkpt>
      <trkpt lat="46.84637" lon="-0.49914">
        <ele>139</ele>
        <time>2013-09-29T08:58:21Z</time>
      </trkpt>
      <trkpt lat="46.8464" lon="-0.49916">
        <ele>139</ele>
        <time>2013-09-29T08:58:23Z</time>
      </trkpt>
      <trkpt lat="46.84642" lon="-0.49918">
        <ele>138</ele>
        <time>2013-09-29T08:58:24Z</time>
      </trkpt>
      <trkpt lat="46.84661" lon="-0.49935">
        <ele>138</ele>
        <time>2013-09-29T08:58:34Z</time>
      </trkpt>
      <trkpt lat="46.84667" lon="-0.49939">
        <ele>138</ele>
        <time>2013-09-29T08:58:36Z</time>
      </trkpt>
      <trkpt lat="46.8467" lon="-0.49941">
        <ele>139</ele>
        <time>2013-09-29T08:58:37Z</time>
      </trkpt>
      <trkpt lat="46.84673" lon="-0.49943">
        <ele>139</ele>
        <time>2013-09-29T08:58:38Z</time>
      </trkpt>
      <trkpt lat="46.84675" lon="-0.49947">
        <ele>139</ele>
        <time>2013-09-29T08:58:39Z</time>
      </trkpt>
      <trkpt lat="46.84678" lon="-0.4995">
        <ele>139</ele>
        <time>2013-09-29T08:58:40Z</time>
      </trkpt>
      <trkpt lat="46.8468" lon="-0.49954">
        <ele>139</ele>
        <time>2013-09-29T08:58:41Z</time>
      </trkpt>
      <trkpt lat="46.84681" lon="-0.49958">
        <ele>139</ele>
        <time>2013-09-29T08:58:42Z</time>
      </trkpt>
      <trkpt lat="46.84682" lon="-0.50002">
        <ele>137</ele>
        <time>2013-09-29T08:58:53Z</time>
      </trkpt>
      <trkpt lat="46.84679" lon="-0.50038">
        <ele>138</ele>
        <time>2013-09-29T08:59:01Z</time>
      </trkpt>
      <trkpt lat="46.84679" lon="-0.50082">
        <ele>139</ele>
        <time>2013-09-29T08:59:09Z</time>
      </trkpt>
      <trkpt lat="46.84683" lon="-0.50096">
        <ele>140</ele>
        <time>2013-09-29T08:59:12Z</time>
      </trkpt>
      <trkpt lat="46.84683" lon="-0.50102">
        <ele>140</ele>
        <time>2013-09-29T08:59:13Z</time>
      </trkpt>
      <trkpt lat="46.84684" lon="-0.50107">
        <ele>141</ele>
        <time>2013-09-29T08:59:14Z</time>
      </trkpt>
      <trkpt lat="46.84691" lon="-0.50119">
        <ele>141</ele>
        <time>2013-09-29T08:59:19Z</time>
      </trkpt>
      <trkpt lat="46.84718" lon="-0.50131">
        <ele>141</ele>
        <time>2013-09-29T08:59:27Z</time>
      </trkpt>
      <trkpt lat="46.84721" lon="-0.5013">
        <ele>141</ele>
        <time>2013-09-29T08:59:28Z</time>
      </trkpt>
      <trkpt lat="46.8473" lon="-0.50128">
        <ele>140</ele>
        <time>2013-09-29T08:59:30Z</time>
      </trkpt>
      <trkpt lat="46.84735" lon="-0.50128">
        <ele>140</ele>
        <time>2013-09-29T08:59:31Z</time>
      </trkpt>
      <trkpt lat="46.84745" lon="-0.50131">
        <ele>140</ele>
        <time>2013-09-29T08:59:33Z</time>
      </trkpt>
      <trkpt lat="46.84749" lon="-0.50133">
        <ele>140</ele>
        <time>2013-09-29T08:59:34Z</time>
      </trkpt>
      <trkpt lat="46.84753" lon="-0.50134">
        <ele>138</ele>
        <time>2013-09-29T08:59:35Z</time>
      </trkpt>
      <trkpt lat="46.84757" lon="-0.50135">
        <ele>138</ele>
        <time>2013-09-29T08:59:36Z</time>
      </trkpt>
      <trkpt lat="46.84761" lon="-0.50136">
        <ele>138</ele>
        <time>2013-09-29T08:59:37Z</time>
      </trkpt>
      <trkpt lat="46.84771" lon="-0.50139">
        <ele>138</ele>
        <time>2013-09-29T08:59:42Z</time>
      </trkpt>
      <trkpt lat="46.84776" lon="-0.50142">
        <ele>138</ele>
        <time>2013-09-29T08:59:43Z</time>
      </trkpt>
      <trkpt lat="46.84781" lon="-0.50149">
        <ele>138</ele>
        <time>2013-09-29T08:59:46Z</time>
      </trkpt>
      <trkpt lat="46.84788" lon="-0.50152">
        <ele>138</ele>
        <time>2013-09-29T08:59:50Z</time>
      </trkpt>
      <trkpt lat="46.84792" lon="-0.50152">
        <ele>138</ele>
        <time>2013-09-29T08:59:51Z</time>
      </trkpt>
      <trkpt lat="46.84797" lon="-0.50151">
        <ele>138</ele>
        <time>2013-09-29T08:59:52Z</time>
      </trkpt>
      <trkpt lat="46.84807" lon="-0.50152">
        <ele>138</ele>
        <time>2013-09-29T08:59:54Z</time>
      </trkpt>
      <trkpt lat="46.84817" lon="-0.50151">
        <ele>138</ele>
        <time>2013-09-29T08:59:56Z</time>
      </trkpt>
      <trkpt lat="46.84821" lon="-0.50151">
        <ele>138</ele>
        <time>2013-09-29T08:59:57Z</time>
      </trkpt>
      <trkpt lat="46.84854" lon="-0.50161">
        <ele>137</ele>
        <time>2013-09-29T09:00:04Z</time>
      </trkpt>
      <trkpt lat="46.8486" lon="-0.50162">
        <ele>137</ele>
        <time>2013-09-29T09:00:05Z</time>
      </trkpt>
      <trkpt lat="46.84864" lon="-0.5016">
        <ele>137</ele>
        <time>2013-09-29T09:00:06Z</time>
      </trkpt>
      <trkpt lat="46.8487" lon="-0.50158">
        <ele>136</ele>
        <time>2013-09-29T09:00:07Z</time>
      </trkpt>
      <trkpt lat="46.84875" lon="-0.50156">
        <ele>136</ele>
        <time>2013-09-29T09:00:08Z</time>
      </trkpt>
      <trkpt lat="46.8488" lon="-0.50155">
        <ele>136</ele>
        <time>2013-09-29T09:00:09Z</time>
      </trkpt>
      <trkpt lat="46.84884" lon="-0.50154">
        <ele>136</ele>
        <time>2013-09-29T09:00:10Z</time>
      </trkpt>
      <trkpt lat="46.84887" lon="-0.50152">
        <ele>136</ele>
        <time>2013-09-29T09:00:11Z</time>
      </trkpt>
      <trkpt lat="46.84909" lon="-0.50138">
        <ele>135</ele>
        <time>2013-09-29T09:00:18Z</time>
      </trkpt>
      <trkpt lat="46.84912" lon="-0.5014">
        <ele>135</ele>
        <time>2013-09-29T09:00:19Z</time>
      </trkpt>
      <trkpt lat="46.84914" lon="-0.50143">
        <ele>135</ele>
        <time>2013-09-29T09:00:20Z</time>
      </trkpt>
      <trkpt lat="46.84917" lon="-0.50144">
        <ele>135</ele>
        <time>2013-09-29T09:00:21Z</time>
      </trkpt>
      <trkpt lat="46.84936" lon="-0.50156">
        <ele>134</ele>
        <time>2013-09-29T09:00:26Z</time>
      </trkpt>
      <trkpt lat="46.84941" lon="-0.50157">
        <ele>134</ele>
        <time>2013-09-29T09:00:27Z</time>
      </trkpt>
      <trkpt lat="46.8498" lon="-0.50149">
        <ele>133</ele>
        <time>2013-09-29T09:00:35Z</time>
      </trkpt>
      <trkpt lat="46.84981" lon="-0.50146">
        <ele>133</ele>
        <time>2013-09-29T09:00:36Z</time>
      </trkpt>
      <trkpt lat="46.84983" lon="-0.50136">
        <ele>133</ele>
        <time>2013-09-29T09:00:38Z</time>
      </trkpt>
      <trkpt lat="46.84984" lon="-0.5013">
        <ele>133</ele>
        <time>2013-09-29T09:00:39Z</time>
      </trkpt>
      <trkpt lat="46.84989" lon="-0.50098">
        <ele>133</ele>
        <time>2013-09-29T09:00:45Z</time>
      </trkpt>
      <trkpt lat="46.84995" lon="-0.50103">
        <ele>133</ele>
        <time>2013-09-29T09:00:48Z</time>
      </trkpt>
      <trkpt lat="46.84996" lon="-0.50105">
        <ele>133</ele>
        <time>2013-09-29T09:00:49Z</time>
      </trkpt>
      <trkpt lat="46.85005" lon="-0.50116">
        <ele>131</ele>
        <time>2013-09-29T09:00:52Z</time>
      </trkpt>
      <trkpt lat="46.8501" lon="-0.50119">
        <ele>131</ele>
        <time>2013-09-29T09:00:53Z</time>
      </trkpt>
      <trkpt lat="46.85016" lon="-0.50121">
        <ele>131</ele>
        <time>2013-09-29T09:00:54Z</time>
      </trkpt>
      <trkpt lat="46.85022" lon="-0.50123">
        <ele>131</ele>
        <time>2013-09-29T09:00:55Z</time>
      </trkpt>
      <trkpt lat="46.85031" lon="-0.50124">
        <ele>131</ele>
        <time>2013-09-29T09:00:56Z</time>
      </trkpt>
      <trkpt lat="46.8504" lon="-0.50126">
        <ele>131</ele>
        <time>2013-09-29T09:00:57Z</time>
      </trkpt>
      <trkpt lat="46.8506" lon="-0.50127">
        <ele>131</ele>
        <time>2013-09-29T09:01:00Z</time>
      </trkpt>
      <trkpt lat="46.85066" lon="-0.50123">
        <ele>131</ele>
        <time>2013-09-29T09:01:01Z</time>
      </trkpt>
      <trkpt lat="46.85076" lon="-0.50102">
        <ele>131</ele>
        <time>2013-09-29T09:01:04Z</time>
      </trkpt>
      <trkpt lat="46.85079" lon="-0.50095">
        <ele>131</ele>
        <time>2013-09-29T09:01:05Z</time>
      </trkpt>
      <trkpt lat="46.85091" lon="-0.50075">
        <ele>131</ele>
        <time>2013-09-29T09:01:08Z</time>
      </trkpt>
      <trkpt lat="46.85094" lon="-0.50068">
        <ele>132</ele>
        <time>2013-09-29T09:01:09Z</time>
      </trkpt>
      <trkpt lat="46.85098" lon="-0.50063">
        <ele>132</ele>
        <time>2013-09-29T09:01:10Z</time>
      </trkpt>
      <trkpt lat="46.85102" lon="-0.50058">
        <ele>132</ele>
        <time>2013-09-29T09:01:11Z</time>
      </trkpt>
      <trkpt lat="46.85106" lon="-0.50053">
        <ele>132</ele>
        <time>2013-09-29T09:01:12Z</time>
      </trkpt>
      <trkpt lat="46.85134" lon="-0.50028">
        <ele>133</ele>
        <time>2013-09-29T09:01:18Z</time>
      </trkpt>
      <trkpt lat="46.85139" lon="-0.50026">
        <ele>133</ele>
        <time>2013-09-29T09:01:19Z</time>
      </trkpt>
      <trkpt lat="46.85143" lon="-0.50025">
        <ele>133</ele>
        <time>2013-09-29T09:01:20Z</time>
      </trkpt>
      <trkpt lat="46.85154" lon="-0.50018">
        <ele>133</ele>
        <time>2013-09-29T09:01:22Z</time>
      </trkpt>
      <trkpt lat="46.85158" lon="-0.50014">
        <ele>133</ele>
        <time>2013-09-29T09:01:23Z</time>
      </trkpt>
      <trkpt lat="46.85161" lon="-0.50011">
        <ele>133</ele>
        <time>2013-09-29T09:01:24Z</time>
      </trkpt>
      <trkpt lat="46.85164" lon="-0.50006">
        <ele>134</ele>
        <time>2013-09-29T09:01:25Z</time>
      </trkpt>
      <trkpt lat="46.85167" lon="-0.50004">
        <ele>134</ele>
        <time>2013-09-29T09:01:26Z</time>
      </trkpt>
      <trkpt lat="46.85173" lon="-0.50003">
        <ele>134</ele>
        <time>2013-09-29T09:01:27Z</time>
      </trkpt>
      <trkpt lat="46.85177" lon="-0.50003">
        <ele>134</ele>
        <time>2013-09-29T09:01:28Z</time>
      </trkpt>
      <trkpt lat="46.85195" lon="-0.50001">
        <ele>133</ele>
        <time>2013-09-29T09:01:34Z</time>
      </trkpt>
      <trkpt lat="46.85206" lon="-0.49999">
        <ele>136</ele>
        <time>2013-09-29T09:01:39Z</time>
      </trkpt>
      <trkpt lat="46.85207" lon="-0.49997">
        <ele>136</ele>
        <time>2013-09-29T09:01:40Z</time>
      </trkpt>
      <trkpt lat="46.85208" lon="-0.49994">
        <ele>136</ele>
        <time>2013-09-29T09:01:41Z</time>
      </trkpt>
      <trkpt lat="46.85209" lon="-0.49991">
        <ele>136</ele>
        <time>2013-09-29T09:01:42Z</time>
      </trkpt>
      <trkpt lat="46.85209" lon="-0.49988">
        <ele>136</ele>
        <time>2013-09-29T09:01:43Z</time>
      </trkpt>
      <trkpt lat="46.85209" lon="-0.49984">
        <ele>136</ele>
        <time>2013-09-29T09:01:44Z</time>
      </trkpt>
      <trkpt lat="46.85209" lon="-0.49981">
        <ele>136</ele>
        <time>2013-09-29T09:01:45Z</time>
      </trkpt>
      <trkpt lat="46.85209" lon="-0.49978">
        <ele>136</ele>
        <time>2013-09-29T09:01:46Z</time>
      </trkpt>
      <trkpt lat="46.85212" lon="-0.49976">
        <ele>137</ele>
        <time>2013-09-29T09:01:47Z</time>
      </trkpt>
      <trkpt lat="46.85215" lon="-0.49975">
        <ele>137</ele>
        <time>2013-09-29T09:01:48Z</time>
      </trkpt>
      <trkpt lat="46.85223" lon="-0.49973">
        <ele>137</ele>
        <time>2013-09-29T09:01:52Z</time>
      </trkpt>
      <trkpt lat="46.85252" lon="-0.49937">
        <ele>137</ele>
        <time>2013-09-29T09:02:07Z</time>
      </trkpt>
      <trkpt lat="46.85262" lon="-0.49901">
        <ele>138</ele>
        <time>2013-09-29T09:02:15Z</time>
      </trkpt>
      <trkpt lat="46.85262" lon="-0.49897">
        <ele>138</ele>
        <time>2013-09-29T09:02:16Z</time>
      </trkpt>
      <trkpt lat="46.85264" lon="-0.49895">
        <ele>137</ele>
        <time>2013-09-29T09:02:17Z</time>
      </trkpt>
      <trkpt lat="46.85266" lon="-0.49896">
        <ele>137</ele>
        <time>2013-09-29T09:02:18Z</time>
      </trkpt>
      <trkpt lat="46.85268" lon="-0.49898">
        <ele>137</ele>
        <time>2013-09-29T09:02:19Z</time>
      </trkpt>
      <trkpt lat="46.85269" lon="-0.49901">
        <ele>137</ele>
        <time>2013-09-29T09:02:20Z</time>
      </trkpt>
      <trkpt lat="46.85268" lon="-0.49903">
        <ele>137</ele>
        <time>2013-09-29T09:02:21Z</time>
      </trkpt>
      <trkpt lat="46.85266" lon="-0.49905">
        <ele>138</ele>
        <time>2013-09-29T09:02:22Z</time>
      </trkpt>
      <trkpt lat="46.85265" lon="-0.49907">
        <ele>138</ele>
        <time>2013-09-29T09:02:23Z</time>
      </trkpt>
      <trkpt lat="46.85264" lon="-0.4991">
        <ele>138</ele>
        <time>2013-09-29T09:02:24Z</time>
      </trkpt>
      <trkpt lat="46.85264" lon="-0.49913">
        <ele>138</ele>
        <time>2013-09-29T09:02:25Z</time>
      </trkpt>
      <trkpt lat="46.85263" lon="-0.49915">
        <ele>138</ele>
        <time>2013-09-29T09:02:26Z</time>
      </trkpt>
      <trkpt lat="46.85261" lon="-0.49914">
        <ele>138</ele>
        <time>2013-09-29T09:02:27Z</time>
      </trkpt>
      <trkpt lat="46.85261" lon="-0.49911">
        <ele>138</ele>
        <time>2013-09-29T09:02:28Z</time>
      </trkpt>
      <trkpt lat="46.85262" lon="-0.49906">
        <ele>138</ele>
        <time>2013-09-29T09:02:29Z</time>
      </trkpt>
      <trkpt lat="46.85263" lon="-0.49899">
        <ele>138</ele>
        <time>2013-09-29T09:02:30Z</time>
      </trkpt>
      <trkpt lat="46.85264" lon="-0.49892">
        <ele>137</ele>
        <time>2013-09-29T09:02:31Z</time>
      </trkpt>
      <trkpt lat="46.85266" lon="-0.49864">
        <ele>137</ele>
        <time>2013-09-29T09:02:36Z</time>
      </trkpt>
      <trkpt lat="46.85264" lon="-0.49851">
        <ele>138</ele>
        <time>2013-09-29T09:02:38Z</time>
      </trkpt>
      <trkpt lat="46.85259" lon="-0.49823">
        <ele>139</ele>
        <time>2013-09-29T09:02:42Z</time>
      </trkpt>
      <trkpt lat="46.85257" lon="-0.4981">
        <ele>138</ele>
        <time>2013-09-29T09:02:44Z</time>
      </trkpt>
      <trkpt lat="46.85255" lon="-0.49804">
        <ele>138</ele>
        <time>2013-09-29T09:02:45Z</time>
      </trkpt>
      <trkpt lat="46.85241" lon="-0.49748">
        <ele>140</ele>
        <time>2013-09-29T09:02:53Z</time>
      </trkpt>
      <trkpt lat="46.85233" lon="-0.49718">
        <ele>140</ele>
        <time>2013-09-29T09:02:58Z</time>
      </trkpt>
      <trkpt lat="46.85231" lon="-0.49712">
        <ele>140</ele>
        <time>2013-09-29T09:02:59Z</time>
      </trkpt>
      <trkpt lat="46.85228" lon="-0.49697">
        <ele>140</ele>
        <time>2013-09-29T09:03:02Z</time>
      </trkpt>
      <trkpt lat="46.8523" lon="-0.49691">
        <ele>140</ele>
        <time>2013-09-29T09:03:03Z</time>
      </trkpt>
      <trkpt lat="46.85234" lon="-0.49688">
        <ele>140</ele>
        <time>2013-09-29T09:03:04Z</time>
      </trkpt>
      <trkpt lat="46.85239" lon="-0.49685">
        <ele>140</ele>
        <time>2013-09-29T09:03:05Z</time>
      </trkpt>
      <trkpt lat="46.85245" lon="-0.49684">
        <ele>140</ele>
        <time>2013-09-29T09:03:06Z</time>
      </trkpt>
      <trkpt lat="46.85251" lon="-0.49684">
        <ele>138</ele>
        <time>2013-09-29T09:03:07Z</time>
      </trkpt>
      <trkpt lat="46.85302" lon="-0.4968">
        <ele>135</ele>
        <time>2013-09-29T09:03:14Z</time>
      </trkpt>
      <trkpt lat="46.85332" lon="-0.49678">
        <ele>133</ele>
        <time>2013-09-29T09:03:18Z</time>
      </trkpt>
      <trkpt lat="46.85338" lon="-0.49674">
        <ele>132</ele>
        <time>2013-09-29T09:03:19Z</time>
      </trkpt>
      <trkpt lat="46.85343" lon="-0.49667">
        <ele>132</ele>
        <time>2013-09-29T09:03:20Z</time>
      </trkpt>
      <trkpt lat="46.85353" lon="-0.49645">
        <ele>132</ele>
        <time>2013-09-29T09:03:23Z</time>
      </trkpt>
      <trkpt lat="46.85356" lon="-0.49639">
        <ele>132</ele>
        <time>2013-09-29T09:03:24Z</time>
      </trkpt>
      <trkpt lat="46.85366" lon="-0.49618">
        <ele>132</ele>
        <time>2013-09-29T09:03:27Z</time>
      </trkpt>
      <trkpt lat="46.85368" lon="-0.49609">
        <ele>132</ele>
        <time>2013-09-29T09:03:28Z</time>
      </trkpt>
      <trkpt lat="46.85368" lon="-0.496">
        <ele>132</ele>
        <time>2013-09-29T09:03:29Z</time>
      </trkpt>
      <trkpt lat="46.85367" lon="-0.4959">
        <ele>133</ele>
        <time>2013-09-29T09:03:30Z</time>
      </trkpt>
      <trkpt lat="46.85365" lon="-0.49582">
        <ele>135</ele>
        <time>2013-09-29T09:03:31Z</time>
      </trkpt>
      <trkpt lat="46.85363" lon="-0.49575">
        <ele>135</ele>
        <time>2013-09-29T09:03:32Z</time>
      </trkpt>
      <trkpt lat="46.8536" lon="-0.4957">
        <ele>135</ele>
        <time>2013-09-29T09:03:33Z</time>
      </trkpt>
      <trkpt lat="46.85356" lon="-0.49565">
        <ele>135</ele>
        <time>2013-09-29T09:03:34Z</time>
      </trkpt>
      <trkpt lat="46.85353" lon="-0.49561">
        <ele>135</ele>
        <time>2013-09-29T09:03:35Z</time>
      </trkpt>
      <trkpt lat="46.85349" lon="-0.49558">
        <ele>135</ele>
        <time>2013-09-29T09:03:36Z</time>
      </trkpt>
      <trkpt lat="46.85311" lon="-0.49512">
        <ele>138</ele>
        <time>2013-09-29T09:03:48Z</time>
      </trkpt>
      <trkpt lat="46.85282" lon="-0.49477">
        <ele>140</ele>
        <time>2013-09-29T09:03:59Z</time>
      </trkpt>
      <trkpt lat="46.85255" lon="-0.4942">
        <ele>141</ele>
        <time>2013-09-29T09:04:12Z</time>
      </trkpt>
      <trkpt lat="46.8524" lon="-0.49382">
        <ele>144</ele>
        <time>2013-09-29T09:04:22Z</time>
      </trkpt>
      <trkpt lat="46.85209" lon="-0.49351">
        <ele>146</ele>
        <time>2013-09-29T09:04:34Z</time>
      </trkpt>
      <trkpt lat="46.8518" lon="-0.49323">
        <ele>149</ele>
        <time>2013-09-29T09:04:45Z</time>
      </trkpt>
      <trkpt lat="46.85177" lon="-0.4929">
        <ele>150</ele>
        <time>2013-09-29T09:04:54Z</time>
      </trkpt>
      <trkpt lat="46.85202" lon="-0.49258">
        <ele>150</ele>
        <time>2013-09-29T09:05:06Z</time>
      </trkpt>
      <trkpt lat="46.85211" lon="-0.49236">
        <ele>152</ele>
        <time>2013-09-29T09:05:13Z</time>
      </trkpt>
      <trkpt lat="46.85196" lon="-0.49193">
        <ele>153</ele>
        <time>2013-09-29T09:05:26Z</time>
      </trkpt>
      <trkpt lat="46.85195" lon="-0.49189">
        <ele>153</ele>
        <time>2013-09-29T09:05:27Z</time>
      </trkpt>
      <trkpt lat="46.85195" lon="-0.49185">
        <ele>153</ele>
        <time>2013-09-29T09:05:28Z</time>
      </trkpt>
      <trkpt lat="46.85196" lon="-0.49181">
        <ele>153</ele>
        <time>2013-09-29T09:05:29Z</time>
      </trkpt>
      <trkpt lat="46.85197" lon="-0.49178">
        <ele>154</ele>
        <time>2013-09-29T09:05:30Z</time>
      </trkpt>
      <trkpt lat="46.85199" lon="-0.49176">
        <ele>154</ele>
        <time>2013-09-29T09:05:31Z</time>
      </trkpt>
      <trkpt lat="46.85227" lon="-0.49155">
        <ele>156</ele>
        <time>2013-09-29T09:05:42Z</time>
      </trkpt>
      <trkpt lat="46.85255" lon="-0.49125">
        <ele>158</ele>
        <time>2013-09-29T09:05:56Z</time>
      </trkpt>
      <trkpt lat="46.85279" lon="-0.49104">
        <ele>158</ele>
        <time>2013-09-29T09:06:07Z</time>
      </trkpt>
      <trkpt lat="46.85306" lon="-0.49076">
        <ele>162</ele>
        <time>2013-09-29T09:06:19Z</time>
      </trkpt>
      <trkpt lat="46.8534" lon="-0.49033">
        <ele>163</ele>
        <time>2013-09-29T09:06:35Z</time>
      </trkpt>
      <trkpt lat="46.85351" lon="-0.49016">
        <ele>164</ele>
        <time>2013-09-29T09:06:45Z</time>
      </trkpt>
      <trkpt lat="46.85351" lon="-0.49017">
        <ele>164</ele>
        <time>2013-09-29T09:07:05Z</time>
      </trkpt>
      <trkpt lat="46.8535" lon="-0.49019">
        <ele>164</ele>
        <time>2013-09-29T09:07:32Z</time>
      </trkpt>
      <trkpt lat="46.85362" lon="-0.48994">
        <ele>165</ele>
        <time>2013-09-29T09:07:42Z</time>
      </trkpt>
      <trkpt lat="46.8537" lon="-0.4897">
        <ele>164</ele>
        <time>2013-09-29T09:07:47Z</time>
      </trkpt>
      <trkpt lat="46.85374" lon="-0.48951">
        <ele>164</ele>
        <time>2013-09-29T09:07:50Z</time>
      </trkpt>
      <trkpt lat="46.85374" lon="-0.48944">
        <ele>164</ele>
        <time>2013-09-29T09:07:51Z</time>
      </trkpt>
      <trkpt lat="46.85372" lon="-0.48937">
        <ele>164</ele>
        <time>2013-09-29T09:07:52Z</time>
      </trkpt>
      <trkpt lat="46.8537" lon="-0.48932">
        <ele>164</ele>
        <time>2013-09-29T09:07:53Z</time>
      </trkpt>
      <trkpt lat="46.85368" lon="-0.48926">
        <ele>165</ele>
        <time>2013-09-29T09:07:54Z</time>
      </trkpt>
      <trkpt lat="46.85366" lon="-0.48921">
        <ele>165</ele>
        <time>2013-09-29T09:07:55Z</time>
      </trkpt>
      <trkpt lat="46.85363" lon="-0.48917">
        <ele>165</ele>
        <time>2013-09-29T09:07:56Z</time>
      </trkpt>
      <trkpt lat="46.85349" lon="-0.48889">
        <ele>164</ele>
        <time>2013-09-29T09:08:02Z</time>
      </trkpt>
      <trkpt lat="46.85302" lon="-0.48847">
        <ele>168</ele>
        <time>2013-09-29T09:08:16Z</time>
      </trkpt>
      <trkpt lat="46.85258" lon="-0.48811">
        <ele>168</ele>
        <time>2013-09-29T09:08:29Z</time>
      </trkpt>
      <trkpt lat="46.85253" lon="-0.48802">
        <ele>168</ele>
        <time>2013-09-29T09:08:31Z</time>
      </trkpt>
      <trkpt lat="46.85225" lon="-0.48752">
        <ele>170</ele>
        <time>2013-09-29T09:08:43Z</time>
      </trkpt>
      <trkpt lat="46.85222" lon="-0.48748">
        <ele>171</ele>
        <time>2013-09-29T09:08:44Z</time>
      </trkpt>
      <trkpt lat="46.85219" lon="-0.48744">
        <ele>171</ele>
        <time>2013-09-29T09:08:45Z</time>
      </trkpt>
      <trkpt lat="46.85216" lon="-0.48739">
        <ele>171</ele>
        <time>2013-09-29T09:08:46Z</time>
      </trkpt>
      <trkpt lat="46.85214" lon="-0.48735">
        <ele>171</ele>
        <time>2013-09-29T09:08:47Z</time>
      </trkpt>
      <trkpt lat="46.85212" lon="-0.4873">
        <ele>171</ele>
        <time>2013-09-29T09:08:48Z</time>
      </trkpt>
      <trkpt lat="46.8521" lon="-0.48725">
        <ele>171</ele>
        <time>2013-09-29T09:08:49Z</time>
      </trkpt>
      <trkpt lat="46.85208" lon="-0.48721">
        <ele>171</ele>
        <time>2013-09-29T09:08:50Z</time>
      </trkpt>
      <trkpt lat="46.85192" lon="-0.48667">
        <ele>172</ele>
        <time>2013-09-29T09:09:02Z</time>
      </trkpt>
      <trkpt lat="46.8517" lon="-0.48589">
        <ele>172</ele>
        <time>2013-09-29T09:09:17Z</time>
      </trkpt>
      <trkpt lat="46.85156" lon="-0.48534">
        <ele>173</ele>
        <time>2013-09-29T09:09:30Z</time>
      </trkpt>
      <trkpt lat="46.85165" lon="-0.48494">
        <ele>173</ele>
        <time>2013-09-29T09:09:39Z</time>
      </trkpt>
      <trkpt lat="46.85188" lon="-0.48422">
        <ele>170</ele>
        <time>2013-09-29T09:09:51Z</time>
      </trkpt>
      <trkpt lat="46.85203" lon="-0.48348">
        <ele>170</ele>
        <time>2013-09-29T09:09:59Z</time>
      </trkpt>
      <trkpt lat="46.85218" lon="-0.48272">
        <ele>171</ele>
        <time>2013-09-29T09:10:08Z</time>
      </trkpt>
      <trkpt lat="46.85219" lon="-0.48264">
        <ele>171</ele>
        <time>2013-09-29T09:10:09Z</time>
      </trkpt>
      <trkpt lat="46.85239" lon="-0.4816">
        <ele>169</ele>
        <time>2013-09-29T09:10:23Z</time>
      </trkpt>
      <trkpt lat="46.8525" lon="-0.48092">
        <ele>168</ele>
        <time>2013-09-29T09:10:31Z</time>
      </trkpt>
      <trkpt lat="46.85252" lon="-0.48082">
        <ele>167</ele>
        <time>2013-09-29T09:10:32Z</time>
      </trkpt>
      <trkpt lat="46.85255" lon="-0.48072">
        <ele>166</ele>
        <time>2013-09-29T09:10:33Z</time>
      </trkpt>
      <trkpt lat="46.85259" lon="-0.48063">
        <ele>166</ele>
        <time>2013-09-29T09:10:34Z</time>
      </trkpt>
      <trkpt lat="46.85264" lon="-0.48053">
        <ele>166</ele>
        <time>2013-09-29T09:10:35Z</time>
      </trkpt>
      <trkpt lat="46.85269" lon="-0.48045">
        <ele>165</ele>
        <time>2013-09-29T09:10:36Z</time>
      </trkpt>
      <trkpt lat="46.85276" lon="-0.48038">
        <ele>165</ele>
        <time>2013-09-29T09:10:37Z</time>
      </trkpt>
      <trkpt lat="46.85283" lon="-0.48032">
        <ele>165</ele>
        <time>2013-09-29T09:10:38Z</time>
      </trkpt>
      <trkpt lat="46.8529" lon="-0.48027">
        <ele>165</ele>
        <time>2013-09-29T09:10:39Z</time>
      </trkpt>
      <trkpt lat="46.85304" lon="-0.48013">
        <ele>165</ele>
        <time>2013-09-29T09:10:41Z</time>
      </trkpt>
      <trkpt lat="46.85309" lon="-0.48004">
        <ele>165</ele>
        <time>2013-09-29T09:10:42Z</time>
      </trkpt>
      <trkpt lat="46.85311" lon="-0.47995">
        <ele>165</ele>
        <time>2013-09-29T09:10:43Z</time>
      </trkpt>
      <trkpt lat="46.85311" lon="-0.47986">
        <ele>165</ele>
        <time>2013-09-29T09:10:44Z</time>
      </trkpt>
      <trkpt lat="46.85309" lon="-0.47979">
        <ele>166</ele>
        <time>2013-09-29T09:10:45Z</time>
      </trkpt>
      <trkpt lat="46.85306" lon="-0.47973">
        <ele>166</ele>
        <time>2013-09-29T09:10:46Z</time>
      </trkpt>
      <trkpt lat="46.85302" lon="-0.47968">
        <ele>166</ele>
        <time>2013-09-29T09:10:47Z</time>
      </trkpt>
      <trkpt lat="46.85298" lon="-0.47962">
        <ele>166</ele>
        <time>2013-09-29T09:10:48Z</time>
      </trkpt>
      <trkpt lat="46.85295" lon="-0.47956">
        <ele>166</ele>
        <time>2013-09-29T09:10:49Z</time>
      </trkpt>
      <trkpt lat="46.85293" lon="-0.47948">
        <ele>166</ele>
        <time>2013-09-29T09:10:50Z</time>
      </trkpt>
      <trkpt lat="46.85293" lon="-0.47939">
        <ele>166</ele>
        <time>2013-09-29T09:10:51Z</time>
      </trkpt>
      <trkpt lat="46.85295" lon="-0.47931">
        <ele>166</ele>
        <time>2013-09-29T09:10:52Z</time>
      </trkpt>
      <trkpt lat="46.85298" lon="-0.47922">
        <ele>166</ele>
        <time>2013-09-29T09:10:53Z</time>
      </trkpt>
      <trkpt lat="46.85301" lon="-0.47914">
        <ele>169</ele>
        <time>2013-09-29T09:10:54Z</time>
      </trkpt>
      <trkpt lat="46.85302" lon="-0.47906">
        <ele>169</ele>
        <time>2013-09-29T09:10:55Z</time>
      </trkpt>
      <trkpt lat="46.85302" lon="-0.47898">
        <ele>169</ele>
        <time>2013-09-29T09:10:56Z</time>
      </trkpt>
      <trkpt lat="46.85301" lon="-0.4789">
        <ele>169</ele>
        <time>2013-09-29T09:10:57Z</time>
      </trkpt>
      <trkpt lat="46.853" lon="-0.47882">
        <ele>170</ele>
        <time>2013-09-29T09:10:58Z</time>
      </trkpt>
      <trkpt lat="46.85298" lon="-0.47876">
        <ele>170</ele>
        <time>2013-09-29T09:10:59Z</time>
      </trkpt>
      <trkpt lat="46.85296" lon="-0.47869">
        <ele>170</ele>
        <time>2013-09-29T09:11:00Z</time>
      </trkpt>
      <trkpt lat="46.85295" lon="-0.47863">
        <ele>170</ele>
        <time>2013-09-29T09:11:01Z</time>
      </trkpt>
      <trkpt lat="46.85294" lon="-0.47857">
        <ele>170</ele>
        <time>2013-09-29T09:11:02Z</time>
      </trkpt>
      <trkpt lat="46.85291" lon="-0.47838">
        <ele>171</ele>
        <time>2013-09-29T09:11:05Z</time>
      </trkpt>
      <trkpt lat="46.85291" lon="-0.47832">
        <ele>174</ele>
        <time>2013-09-29T09:11:06Z</time>
      </trkpt>
      <trkpt lat="46.85292" lon="-0.47825">
        <ele>174</ele>
        <time>2013-09-29T09:11:07Z</time>
      </trkpt>
      <trkpt lat="46.85292" lon="-0.47819">
        <ele>174</ele>
        <time>2013-09-29T09:11:08Z</time>
      </trkpt>
      <trkpt lat="46.85292" lon="-0.47813">
        <ele>174</ele>
        <time>2013-09-29T09:11:09Z</time>
      </trkpt>
      <trkpt lat="46.85291" lon="-0.47807">
        <ele>174</ele>
        <time>2013-09-29T09:11:10Z</time>
      </trkpt>
      <trkpt lat="46.85293" lon="-0.47782">
        <ele>174</ele>
        <time>2013-09-29T09:11:15Z</time>
      </trkpt>
      <trkpt lat="46.85292" lon="-0.47777">
        <ele>175</ele>
        <time>2013-09-29T09:11:16Z</time>
      </trkpt>
      <trkpt lat="46.85292" lon="-0.47773">
        <ele>175</ele>
        <time>2013-09-29T09:11:17Z</time>
      </trkpt>
      <trkpt lat="46.85292" lon="-0.47769">
        <ele>175</ele>
        <time>2013-09-29T09:11:18Z</time>
      </trkpt>
      <trkpt lat="46.85292" lon="-0.47765">
        <ele>175</ele>
        <time>2013-09-29T09:11:19Z</time>
      </trkpt>
      <trkpt lat="46.85292" lon="-0.4776">
        <ele>175</ele>
        <time>2013-09-29T09:11:20Z</time>
      </trkpt>
      <trkpt lat="46.85292" lon="-0.47755">
        <ele>175</ele>
        <time>2013-09-29T09:11:21Z</time>
      </trkpt>
      <trkpt lat="46.85295" lon="-0.47679">
        <ele>176</ele>
        <time>2013-09-29T09:11:35Z</time>
      </trkpt>
      <trkpt lat="46.85276" lon="-0.47612">
        <ele>177</ele>
        <time>2013-09-29T09:11:49Z</time>
      </trkpt>
      <trkpt lat="46.85261" lon="-0.4759">
        <ele>177</ele>
        <time>2013-09-29T09:11:56Z</time>
      </trkpt>
      <trkpt lat="46.85263" lon="-0.47589">
        <ele>177</ele>
        <time>2013-09-29T09:11:57Z</time>
      </trkpt>
      <trkpt lat="46.85265" lon="-0.47591">
        <ele>177</ele>
        <time>2013-09-29T09:11:58Z</time>
      </trkpt>
      <trkpt lat="46.85265" lon="-0.47594">
        <ele>177</ele>
        <time>2013-09-29T09:11:59Z</time>
      </trkpt>
      <trkpt lat="46.85263" lon="-0.47595">
        <ele>177</ele>
        <time>2013-09-29T09:12:00Z</time>
      </trkpt>
      <trkpt lat="46.8526" lon="-0.47592">
        <ele>177</ele>
        <time>2013-09-29T09:12:01Z</time>
      </trkpt>
      <trkpt lat="46.85257" lon="-0.47589">
        <ele>177</ele>
        <time>2013-09-29T09:12:02Z</time>
      </trkpt>
      <trkpt lat="46.85254" lon="-0.47586">
        <ele>177</ele>
        <time>2013-09-29T09:12:03Z</time>
      </trkpt>
      <trkpt lat="46.85213" lon="-0.47552">
        <ele>179</ele>
        <time>2013-09-29T09:12:16Z</time>
      </trkpt>
      <trkpt lat="46.85188" lon="-0.47532">
        <ele>179</ele>
        <time>2013-09-29T09:12:23Z</time>
      </trkpt>
      <trkpt lat="46.85184" lon="-0.4753">
        <ele>179</ele>
        <time>2013-09-29T09:12:24Z</time>
      </trkpt>
      <trkpt lat="46.8518" lon="-0.47529">
        <ele>179</ele>
        <time>2013-09-29T09:12:25Z</time>
      </trkpt>
      <trkpt lat="46.85175" lon="-0.47529">
        <ele>179</ele>
        <time>2013-09-29T09:12:26Z</time>
      </trkpt>
      <trkpt lat="46.85171" lon="-0.47529">
        <ele>179</ele>
        <time>2013-09-29T09:12:27Z</time>
      </trkpt>
      <trkpt lat="46.85167" lon="-0.4753">
        <ele>179</ele>
        <time>2013-09-29T09:12:28Z</time>
      </trkpt>
      <trkpt lat="46.85163" lon="-0.47531">
        <ele>180</ele>
        <time>2013-09-29T09:12:29Z</time>
      </trkpt>
      <trkpt lat="46.85154" lon="-0.47535">
        <ele>180</ele>
        <time>2013-09-29T09:12:31Z</time>
      </trkpt>
      <trkpt lat="46.85113" lon="-0.4756">
        <ele>180</ele>
        <time>2013-09-29T09:12:40Z</time>
      </trkpt>
      <trkpt lat="46.85109" lon="-0.47559">
        <ele>180</ele>
        <time>2013-09-29T09:12:41Z</time>
      </trkpt>
      <trkpt lat="46.85104" lon="-0.47558">
        <ele>180</ele>
        <time>2013-09-29T09:12:42Z</time>
      </trkpt>
      <trkpt lat="46.85099" lon="-0.47556">
        <ele>180</ele>
        <time>2013-09-29T09:12:43Z</time>
      </trkpt>
      <trkpt lat="46.85095" lon="-0.47554">
        <ele>180</ele>
        <time>2013-09-29T09:12:44Z</time>
      </trkpt>
      <trkpt lat="46.8509" lon="-0.47552">
        <ele>180</ele>
        <time>2013-09-29T09:12:45Z</time>
      </trkpt>
      <trkpt lat="46.85086" lon="-0.47549">
        <ele>180</ele>
        <time>2013-09-29T09:12:46Z</time>
      </trkpt>
      <trkpt lat="46.85024" lon="-0.4751">
        <ele>182</ele>
        <time>2013-09-29T09:13:02Z</time>
      </trkpt>
      <trkpt lat="46.85021" lon="-0.4751">
        <ele>182</ele>
        <time>2013-09-29T09:13:03Z</time>
      </trkpt>
      <trkpt lat="46.85017" lon="-0.4751">
        <ele>182</ele>
        <time>2013-09-29T09:13:04Z</time>
      </trkpt>
      <trkpt lat="46.85013" lon="-0.47509">
        <ele>182</ele>
        <time>2013-09-29T09:13:05Z</time>
      </trkpt>
      <trkpt lat="46.8501" lon="-0.47508">
        <ele>182</ele>
        <time>2013-09-29T09:13:06Z</time>
      </trkpt>
      <trkpt lat="46.85006" lon="-0.47505">
        <ele>183</ele>
        <time>2013-09-29T09:13:07Z</time>
      </trkpt>
      <trkpt lat="46.84997" lon="-0.47501">
        <ele>183</ele>
        <time>2013-09-29T09:13:09Z</time>
      </trkpt>
      <trkpt lat="46.84993" lon="-0.47501">
        <ele>183</ele>
        <time>2013-09-29T09:13:10Z</time>
      </trkpt>
      <trkpt lat="46.84939" lon="-0.47511">
        <ele>183</ele>
        <time>2013-09-29T09:13:24Z</time>
      </trkpt>
      <trkpt lat="46.84927" lon="-0.4753">
        <ele>183</ele>
        <time>2013-09-29T09:13:30Z</time>
      </trkpt>
      <trkpt lat="46.84925" lon="-0.47531">
        <ele>183</ele>
        <time>2013-09-29T09:13:40Z</time>
      </trkpt>
      <trkpt lat="46.84924" lon="-0.4753">
        <ele>183</ele>
        <time>2013-09-29T09:14:04Z</time>
      </trkpt>
      <trkpt lat="46.84923" lon="-0.47531">
        <ele>183</ele>
        <time>2013-09-29T09:14:05Z</time>
      </trkpt>
      <trkpt lat="46.84922" lon="-0.47533">
        <ele>183</ele>
        <time>2013-09-29T09:14:06Z</time>
      </trkpt>
      <trkpt lat="46.8492" lon="-0.47534">
        <ele>183</ele>
        <time>2013-09-29T09:14:07Z</time>
      </trkpt>
      <trkpt lat="46.84917" lon="-0.47534">
        <ele>183</ele>
        <time>2013-09-29T09:14:09Z</time>
      </trkpt>
      <trkpt lat="46.84915" lon="-0.47535">
        <ele>183</ele>
        <time>2013-09-29T09:14:10Z</time>
      </trkpt>
      <trkpt lat="46.84908" lon="-0.47536">
        <ele>183</ele>
        <time>2013-09-29T09:14:18Z</time>
      </trkpt>
      <trkpt lat="46.84907" lon="-0.47535">
        <ele>183</ele>
        <time>2013-09-29T09:14:30Z</time>
      </trkpt>
    </trkseg>
  </trk>
</gpx>